<?xml version="1.0" encoding="UTF-8" standalone="no" ?>
<gpx xmlns="http://www.topografix.com/GPX/1/1" xmlns:xsi="http://www.w3.org/2001/XMLSchema-instance" xsi:schemaLocation="http://www.topografix.com/GPX/1/1 http://www.topografix.com/GPX/1/1/gpx.xsd" version="1.1" creator="VisuGPX - https://www.visugpx.com">
  <metadata>
    <name>Autour du col de la Pra + Cx</name>
    <desc><![CDATA[Cochez les tous: Grand Colon, Grande Lauzière, Croix de Belledonne, Grande lance de Domène.]]></desc>
  </metadata>
  <trk>
    <name><![CDATA[Big Day - SDR Grand Colon - Grande Lauzière - Croix de Belledonne - Grande Lance | Backcountry Ski | Strava]]></name>
    <trkseg>
      <trkpt lat="45.18674" lon="5.90074">
        <ele>1155</ele>
        <time>2017-02-26T06:12:00.000Z</time>
      </trkpt>
      <trkpt lat="45.18674" lon="5.90074">
        <ele>1155</ele>
        <time>2017-02-26T06:12:08.000Z</time>
      </trkpt>
      <trkpt lat="45.18664" lon="5.9008">
        <ele>1155</ele>
        <time>2017-02-26T06:12:10.000Z</time>
      </trkpt>
      <trkpt lat="45.18664" lon="5.9008">
        <ele>1155</ele>
        <time>2017-02-26T06:12:18.000Z</time>
      </trkpt>
      <trkpt lat="45.18655" lon="5.90087">
        <ele>1155</ele>
        <time>2017-02-26T06:12:21.000Z</time>
      </trkpt>
      <trkpt lat="45.18655" lon="5.90087">
        <ele>1156</ele>
        <time>2017-02-26T06:12:28.000Z</time>
      </trkpt>
      <trkpt lat="45.18649" lon="5.90099">
        <ele>1156</ele>
        <time>2017-02-26T06:12:32.000Z</time>
      </trkpt>
      <trkpt lat="45.18649" lon="5.90099">
        <ele>1156</ele>
        <time>2017-02-26T06:12:38.000Z</time>
      </trkpt>
      <trkpt lat="45.18643" lon="5.90111">
        <ele>1156</ele>
        <time>2017-02-26T06:12:43.000Z</time>
      </trkpt>
      <trkpt lat="45.18643" lon="5.90111">
        <ele>1158</ele>
        <time>2017-02-26T06:12:48.000Z</time>
      </trkpt>
      <trkpt lat="45.18641" lon="5.90125">
        <ele>1158</ele>
        <time>2017-02-26T06:12:54.000Z</time>
      </trkpt>
      <trkpt lat="45.18641" lon="5.90125">
        <ele>1159</ele>
        <time>2017-02-26T06:12:58.000Z</time>
      </trkpt>
      <trkpt lat="45.18639" lon="5.90138">
        <ele>1159</ele>
        <time>2017-02-26T06:13:03.000Z</time>
      </trkpt>
      <trkpt lat="45.18639" lon="5.90138">
        <ele>1160</ele>
        <time>2017-02-26T06:13:08.000Z</time>
      </trkpt>
      <trkpt lat="45.18641" lon="5.90153">
        <ele>1160</ele>
        <time>2017-02-26T06:13:12.000Z</time>
      </trkpt>
      <trkpt lat="45.18641" lon="5.90153">
        <ele>1162</ele>
        <time>2017-02-26T06:13:18.000Z</time>
      </trkpt>
      <trkpt lat="45.18645" lon="5.90168">
        <ele>1162</ele>
        <time>2017-02-26T06:13:21.000Z</time>
      </trkpt>
      <trkpt lat="45.18645" lon="5.90168">
        <ele>1162</ele>
        <time>2017-02-26T06:13:28.000Z</time>
      </trkpt>
      <trkpt lat="45.1865" lon="5.90181">
        <ele>1162</ele>
        <time>2017-02-26T06:13:30.000Z</time>
      </trkpt>
      <trkpt lat="45.1865" lon="5.90181">
        <ele>1164</ele>
        <time>2017-02-26T06:13:38.000Z</time>
      </trkpt>
      <trkpt lat="45.18652" lon="5.90196">
        <ele>1164</ele>
        <time>2017-02-26T06:13:40.000Z</time>
      </trkpt>
      <trkpt lat="45.18653" lon="5.90203">
        <ele>1166</ele>
        <time>2017-02-26T06:13:48.000Z</time>
      </trkpt>
      <trkpt lat="45.18654" lon="5.9021">
        <ele>1166</ele>
        <time>2017-02-26T06:13:49.000Z</time>
      </trkpt>
      <trkpt lat="45.18656" lon="5.90225">
        <ele>1167</ele>
        <time>2017-02-26T06:13:58.000Z</time>
      </trkpt>
      <trkpt lat="45.18657" lon="5.90237">
        <ele>1167</ele>
        <time>2017-02-26T06:14:06.000Z</time>
      </trkpt>
      <trkpt lat="45.18657" lon="5.90237">
        <ele>1168</ele>
        <time>2017-02-26T06:14:08.000Z</time>
      </trkpt>
      <trkpt lat="45.18659" lon="5.90252">
        <ele>1168</ele>
        <time>2017-02-26T06:14:16.000Z</time>
      </trkpt>
      <trkpt lat="45.18659" lon="5.90252">
        <ele>1169</ele>
        <time>2017-02-26T06:14:18.000Z</time>
      </trkpt>
      <trkpt lat="45.18662" lon="5.90266">
        <ele>1169</ele>
        <time>2017-02-26T06:14:26.000Z</time>
      </trkpt>
      <trkpt lat="45.18662" lon="5.90266">
        <ele>1171</ele>
        <time>2017-02-26T06:14:28.000Z</time>
      </trkpt>
      <trkpt lat="45.18667" lon="5.9028">
        <ele>1171</ele>
        <time>2017-02-26T06:14:36.000Z</time>
      </trkpt>
      <trkpt lat="45.18667" lon="5.9028">
        <ele>1172</ele>
        <time>2017-02-26T06:14:38.000Z</time>
      </trkpt>
      <trkpt lat="45.18673" lon="5.90292">
        <ele>1173</ele>
        <time>2017-02-26T06:14:48.000Z</time>
      </trkpt>
      <trkpt lat="45.18673" lon="5.90292">
        <ele>1175</ele>
        <time>2017-02-26T06:14:58.000Z</time>
      </trkpt>
      <trkpt lat="45.1868" lon="5.90302">
        <ele>1175</ele>
        <time>2017-02-26T06:15:00.000Z</time>
      </trkpt>
      <trkpt lat="45.18684" lon="5.90308">
        <ele>1179</ele>
        <time>2017-02-26T06:15:08.000Z</time>
      </trkpt>
      <trkpt lat="45.18688" lon="5.90313">
        <ele>1179</ele>
        <time>2017-02-26T06:15:09.000Z</time>
      </trkpt>
      <trkpt lat="45.18692" lon="5.90323">
        <ele>1179</ele>
        <time>2017-02-26T06:15:17.000Z</time>
      </trkpt>
      <trkpt lat="45.18693" lon="5.90324">
        <ele>1180</ele>
        <time>2017-02-26T06:15:18.000Z</time>
      </trkpt>
      <trkpt lat="45.18696" lon="5.90333">
        <ele>1180</ele>
        <time>2017-02-26T06:15:25.000Z</time>
      </trkpt>
      <trkpt lat="45.18696" lon="5.90333">
        <ele>1181</ele>
        <time>2017-02-26T06:15:28.000Z</time>
      </trkpt>
      <trkpt lat="45.18698" lon="5.90345">
        <ele>1181</ele>
        <time>2017-02-26T06:15:34.000Z</time>
      </trkpt>
      <trkpt lat="45.18698" lon="5.90345">
        <ele>1183</ele>
        <time>2017-02-26T06:15:38.000Z</time>
      </trkpt>
      <trkpt lat="45.18695" lon="5.90359">
        <ele>1183</ele>
        <time>2017-02-26T06:15:46.000Z</time>
      </trkpt>
      <trkpt lat="45.18695" lon="5.90359">
        <ele>1185</ele>
        <time>2017-02-26T06:15:48.000Z</time>
      </trkpt>
      <trkpt lat="45.18695" lon="5.90359">
        <ele>1186</ele>
        <time>2017-02-26T06:15:58.000Z</time>
      </trkpt>
      <trkpt lat="45.18695" lon="5.90359">
        <ele>1185</ele>
        <time>2017-02-26T06:16:08.000Z</time>
      </trkpt>
      <trkpt lat="45.18688" lon="5.90371">
        <ele>1185</ele>
        <time>2017-02-26T06:16:12.000Z</time>
      </trkpt>
      <trkpt lat="45.18688" lon="5.90371">
        <ele>1186</ele>
        <time>2017-02-26T06:16:18.000Z</time>
      </trkpt>
      <trkpt lat="45.18679" lon="5.90376">
        <ele>1186</ele>
        <time>2017-02-26T06:16:23.000Z</time>
      </trkpt>
      <trkpt lat="45.18679" lon="5.90376">
        <ele>1188</ele>
        <time>2017-02-26T06:16:28.000Z</time>
      </trkpt>
      <trkpt lat="45.1867" lon="5.90384">
        <ele>1188</ele>
        <time>2017-02-26T06:16:30.000Z</time>
      </trkpt>
      <trkpt lat="45.18668" lon="5.90389">
        <ele>1189</ele>
        <time>2017-02-26T06:16:38.000Z</time>
      </trkpt>
      <trkpt lat="45.18665" lon="5.90394">
        <ele>1189</ele>
        <time>2017-02-26T06:16:39.000Z</time>
      </trkpt>
      <trkpt lat="45.18663" lon="5.90406">
        <ele>1189</ele>
        <time>2017-02-26T06:16:46.000Z</time>
      </trkpt>
      <trkpt lat="45.18663" lon="5.90406">
        <ele>1193</ele>
        <time>2017-02-26T06:16:48.000Z</time>
      </trkpt>
      <trkpt lat="45.1866" lon="5.90415">
        <ele>1193</ele>
        <time>2017-02-26T06:16:52.000Z</time>
      </trkpt>
      <trkpt lat="45.1866" lon="5.90415">
        <ele>1193</ele>
        <time>2017-02-26T06:16:58.000Z</time>
      </trkpt>
      <trkpt lat="45.18657" lon="5.90422">
        <ele>1194</ele>
        <time>2017-02-26T06:17:08.000Z</time>
      </trkpt>
      <trkpt lat="45.18651" lon="5.90427">
        <ele>1194</ele>
        <time>2017-02-26T06:17:13.000Z</time>
      </trkpt>
      <trkpt lat="45.18646" lon="5.90432">
        <ele>1195</ele>
        <time>2017-02-26T06:17:18.000Z</time>
      </trkpt>
      <trkpt lat="45.18641" lon="5.90435">
        <ele>1195</ele>
        <time>2017-02-26T06:17:23.000Z</time>
      </trkpt>
      <trkpt lat="45.18641" lon="5.90435">
        <ele>1196</ele>
        <time>2017-02-26T06:17:28.000Z</time>
      </trkpt>
      <trkpt lat="45.18634" lon="5.90439">
        <ele>1196</ele>
        <time>2017-02-26T06:17:32.000Z</time>
      </trkpt>
      <trkpt lat="45.18634" lon="5.90439">
        <ele>1198</ele>
        <time>2017-02-26T06:17:38.000Z</time>
      </trkpt>
      <trkpt lat="45.18624" lon="5.90443">
        <ele>1198</ele>
        <time>2017-02-26T06:17:43.000Z</time>
      </trkpt>
      <trkpt lat="45.18624" lon="5.90443">
        <ele>1200</ele>
        <time>2017-02-26T06:17:48.000Z</time>
      </trkpt>
      <trkpt lat="45.18615" lon="5.90446">
        <ele>1200</ele>
        <time>2017-02-26T06:17:52.000Z</time>
      </trkpt>
      <trkpt lat="45.18611" lon="5.90449">
        <ele>1201</ele>
        <time>2017-02-26T06:17:58.000Z</time>
      </trkpt>
      <trkpt lat="45.18607" lon="5.90452">
        <ele>1201</ele>
        <time>2017-02-26T06:17:59.000Z</time>
      </trkpt>
      <trkpt lat="45.18601" lon="5.90461">
        <ele>1201</ele>
        <time>2017-02-26T06:18:06.000Z</time>
      </trkpt>
      <trkpt lat="45.18601" lon="5.90461">
        <ele>1203</ele>
        <time>2017-02-26T06:18:08.000Z</time>
      </trkpt>
      <trkpt lat="45.186" lon="5.90472">
        <ele>1203</ele>
        <time>2017-02-26T06:18:13.000Z</time>
      </trkpt>
      <trkpt lat="45.186" lon="5.90472">
        <ele>1204</ele>
        <time>2017-02-26T06:18:18.000Z</time>
      </trkpt>
      <trkpt lat="45.18601" lon="5.90486">
        <ele>1204</ele>
        <time>2017-02-26T06:18:21.000Z</time>
      </trkpt>
      <trkpt lat="45.18601" lon="5.90486">
        <ele>1205</ele>
        <time>2017-02-26T06:18:28.000Z</time>
      </trkpt>
      <trkpt lat="45.18598" lon="5.90499">
        <ele>1205</ele>
        <time>2017-02-26T06:18:31.000Z</time>
      </trkpt>
      <trkpt lat="45.18592" lon="5.90509">
        <ele>1205</ele>
        <time>2017-02-26T06:18:37.000Z</time>
      </trkpt>
      <trkpt lat="45.18591" lon="5.9051">
        <ele>1207</ele>
        <time>2017-02-26T06:18:38.000Z</time>
      </trkpt>
      <trkpt lat="45.18587" lon="5.90521">
        <ele>1207</ele>
        <time>2017-02-26T06:18:45.000Z</time>
      </trkpt>
      <trkpt lat="45.18587" lon="5.90521">
        <ele>1209</ele>
        <time>2017-02-26T06:18:48.000Z</time>
      </trkpt>
      <trkpt lat="45.18581" lon="5.90531">
        <ele>1209</ele>
        <time>2017-02-26T06:18:52.000Z</time>
      </trkpt>
      <trkpt lat="45.18581" lon="5.90531">
        <ele>1211</ele>
        <time>2017-02-26T06:18:58.000Z</time>
      </trkpt>
      <trkpt lat="45.18572" lon="5.90537">
        <ele>1211</ele>
        <time>2017-02-26T06:19:07.000Z</time>
      </trkpt>
      <trkpt lat="45.18572" lon="5.90537">
        <ele>1212</ele>
        <time>2017-02-26T06:19:08.000Z</time>
      </trkpt>
      <trkpt lat="45.18572" lon="5.90537">
        <ele>1214</ele>
        <time>2017-02-26T06:19:18.000Z</time>
      </trkpt>
      <trkpt lat="45.18572" lon="5.90537">
        <ele>1215</ele>
        <time>2017-02-26T06:19:28.000Z</time>
      </trkpt>
      <trkpt lat="45.18572" lon="5.90537">
        <ele>1214</ele>
        <time>2017-02-26T06:19:38.000Z</time>
      </trkpt>
      <trkpt lat="45.18572" lon="5.90537">
        <ele>1213</ele>
        <time>2017-02-26T06:19:48.000Z</time>
      </trkpt>
      <trkpt lat="45.18572" lon="5.90537">
        <ele>1213</ele>
        <time>2017-02-26T06:19:58.000Z</time>
      </trkpt>
      <trkpt lat="45.18572" lon="5.90537">
        <ele>1212</ele>
        <time>2017-02-26T06:20:08.000Z</time>
      </trkpt>
      <trkpt lat="45.18572" lon="5.90537">
        <ele>1213</ele>
        <time>2017-02-26T06:20:18.000Z</time>
      </trkpt>
      <trkpt lat="45.18572" lon="5.90537">
        <ele>1214</ele>
        <time>2017-02-26T06:20:28.000Z</time>
      </trkpt>
      <trkpt lat="45.18572" lon="5.90524">
        <ele>1214</ele>
        <time>2017-02-26T06:20:32.000Z</time>
      </trkpt>
      <trkpt lat="45.18572" lon="5.90524">
        <ele>1214</ele>
        <time>2017-02-26T06:20:38.000Z</time>
      </trkpt>
      <trkpt lat="45.18564" lon="5.90533">
        <ele>1214</ele>
        <time>2017-02-26T06:20:42.000Z</time>
      </trkpt>
      <trkpt lat="45.18559" lon="5.90537">
        <ele>1215</ele>
        <time>2017-02-26T06:20:48.000Z</time>
      </trkpt>
      <trkpt lat="45.18554" lon="5.90542">
        <ele>1215</ele>
        <time>2017-02-26T06:20:49.000Z</time>
      </trkpt>
      <trkpt lat="45.18544" lon="5.9055">
        <ele>1215</ele>
        <time>2017-02-26T06:20:56.000Z</time>
      </trkpt>
      <trkpt lat="45.18544" lon="5.9055">
        <ele>1216</ele>
        <time>2017-02-26T06:20:58.000Z</time>
      </trkpt>
      <trkpt lat="45.18535" lon="5.90557">
        <ele>1216</ele>
        <time>2017-02-26T06:21:03.000Z</time>
      </trkpt>
      <trkpt lat="45.18535" lon="5.90557">
        <ele>1218</ele>
        <time>2017-02-26T06:21:08.000Z</time>
      </trkpt>
      <trkpt lat="45.18524" lon="5.90561">
        <ele>1218</ele>
        <time>2017-02-26T06:21:12.000Z</time>
      </trkpt>
      <trkpt lat="45.18519" lon="5.90563">
        <ele>1220</ele>
        <time>2017-02-26T06:21:18.000Z</time>
      </trkpt>
      <trkpt lat="45.18513" lon="5.90565">
        <ele>1220</ele>
        <time>2017-02-26T06:21:19.000Z</time>
      </trkpt>
      <trkpt lat="45.18504" lon="5.90569">
        <ele>1220</ele>
        <time>2017-02-26T06:21:26.000Z</time>
      </trkpt>
      <trkpt lat="45.18504" lon="5.90569">
        <ele>1221</ele>
        <time>2017-02-26T06:21:28.000Z</time>
      </trkpt>
      <trkpt lat="45.18494" lon="5.90572">
        <ele>1221</ele>
        <time>2017-02-26T06:21:32.000Z</time>
      </trkpt>
      <trkpt lat="45.18494" lon="5.90572">
        <ele>1223</ele>
        <time>2017-02-26T06:21:38.000Z</time>
      </trkpt>
      <trkpt lat="45.18484" lon="5.90578">
        <ele>1223</ele>
        <time>2017-02-26T06:21:42.000Z</time>
      </trkpt>
      <trkpt lat="45.18479" lon="5.90581">
        <ele>1225</ele>
        <time>2017-02-26T06:21:48.000Z</time>
      </trkpt>
      <trkpt lat="45.18474" lon="5.90583">
        <ele>1226</ele>
        <time>2017-02-26T06:21:58.000Z</time>
      </trkpt>
      <trkpt lat="45.18468" lon="5.90585">
        <ele>1226</ele>
        <time>2017-02-26T06:21:59.000Z</time>
      </trkpt>
      <trkpt lat="45.18452" lon="5.90591">
        <ele>1226</ele>
        <time>2017-02-26T06:22:07.000Z</time>
      </trkpt>
      <trkpt lat="45.18448" lon="5.90593">
        <ele>1228</ele>
        <time>2017-02-26T06:22:08.000Z</time>
      </trkpt>
      <trkpt lat="45.18443" lon="5.90595">
        <ele>1230</ele>
        <time>2017-02-26T06:22:18.000Z</time>
      </trkpt>
      <trkpt lat="45.18439" lon="5.90597">
        <ele>1230</ele>
        <time>2017-02-26T06:22:19.000Z</time>
      </trkpt>
      <trkpt lat="45.18424" lon="5.90596">
        <ele>1230</ele>
        <time>2017-02-26T06:22:27.000Z</time>
      </trkpt>
      <trkpt lat="45.18417" lon="5.90594">
        <ele>1232</ele>
        <time>2017-02-26T06:22:28.000Z</time>
      </trkpt>
      <trkpt lat="45.18412" lon="5.90593">
        <ele>1232</ele>
        <time>2017-02-26T06:22:37.000Z</time>
      </trkpt>
      <trkpt lat="45.18406" lon="5.90592">
        <ele>1234</ele>
        <time>2017-02-26T06:22:38.000Z</time>
      </trkpt>
      <trkpt lat="45.18401" lon="5.9059">
        <ele>1235</ele>
        <time>2017-02-26T06:22:48.000Z</time>
      </trkpt>
      <trkpt lat="45.18396" lon="5.90589">
        <ele>1235</ele>
        <time>2017-02-26T06:22:49.000Z</time>
      </trkpt>
      <trkpt lat="45.18396" lon="5.90589">
        <ele>1235</ele>
        <time>2017-02-26T06:22:58.000Z</time>
      </trkpt>
      <trkpt lat="45.18386" lon="5.90596">
        <ele>1235</ele>
        <time>2017-02-26T06:23:01.000Z</time>
      </trkpt>
      <trkpt lat="45.18386" lon="5.90596">
        <ele>1237</ele>
        <time>2017-02-26T06:23:08.000Z</time>
      </trkpt>
      <trkpt lat="45.1838" lon="5.90608">
        <ele>1237</ele>
        <time>2017-02-26T06:23:13.000Z</time>
      </trkpt>
      <trkpt lat="45.1838" lon="5.90608">
        <ele>1240</ele>
        <time>2017-02-26T06:23:18.000Z</time>
      </trkpt>
      <trkpt lat="45.18375" lon="5.90624">
        <ele>1240</ele>
        <time>2017-02-26T06:23:21.000Z</time>
      </trkpt>
      <trkpt lat="45.18375" lon="5.90624">
        <ele>1242</ele>
        <time>2017-02-26T06:23:28.000Z</time>
      </trkpt>
      <trkpt lat="45.18374" lon="5.90642">
        <ele>1242</ele>
        <time>2017-02-26T06:23:33.000Z</time>
      </trkpt>
      <trkpt lat="45.18374" lon="5.90642">
        <ele>1242</ele>
        <time>2017-02-26T06:23:38.000Z</time>
      </trkpt>
      <trkpt lat="45.18377" lon="5.90661">
        <ele>1242</ele>
        <time>2017-02-26T06:23:41.000Z</time>
      </trkpt>
      <trkpt lat="45.18373" lon="5.90667">
        <ele>1244</ele>
        <time>2017-02-26T06:23:48.000Z</time>
      </trkpt>
      <trkpt lat="45.18369" lon="5.90673">
        <ele>1244</ele>
        <time>2017-02-26T06:23:49.000Z</time>
      </trkpt>
      <trkpt lat="45.18369" lon="5.90673">
        <ele>1245</ele>
        <time>2017-02-26T06:23:58.000Z</time>
      </trkpt>
      <trkpt lat="45.1835" lon="5.9067">
        <ele>1245</ele>
        <time>2017-02-26T06:24:05.000Z</time>
      </trkpt>
      <trkpt lat="45.1835" lon="5.9067">
        <ele>1246</ele>
        <time>2017-02-26T06:24:08.000Z</time>
      </trkpt>
      <trkpt lat="45.18331" lon="5.90667">
        <ele>1246</ele>
        <time>2017-02-26T06:24:17.000Z</time>
      </trkpt>
      <trkpt lat="45.18322" lon="5.90669">
        <ele>1247</ele>
        <time>2017-02-26T06:24:18.000Z</time>
      </trkpt>
      <trkpt lat="45.18315" lon="5.9067">
        <ele>1247</ele>
        <time>2017-02-26T06:24:25.000Z</time>
      </trkpt>
      <trkpt lat="45.18308" lon="5.90671">
        <ele>1249</ele>
        <time>2017-02-26T06:24:28.000Z</time>
      </trkpt>
      <trkpt lat="45.18301" lon="5.90673">
        <ele>1250</ele>
        <time>2017-02-26T06:24:38.000Z</time>
      </trkpt>
      <trkpt lat="45.18294" lon="5.90674">
        <ele>1250</ele>
        <time>2017-02-26T06:24:46.000Z</time>
      </trkpt>
      <trkpt lat="45.18287" lon="5.90675">
        <ele>1251</ele>
        <time>2017-02-26T06:24:48.000Z</time>
      </trkpt>
      <trkpt lat="45.1828" lon="5.90676">
        <ele>1253</ele>
        <time>2017-02-26T06:24:58.000Z</time>
      </trkpt>
      <trkpt lat="45.18273" lon="5.90677">
        <ele>1253</ele>
        <time>2017-02-26T06:25:07.000Z</time>
      </trkpt>
      <trkpt lat="45.18266" lon="5.90678">
        <ele>1254</ele>
        <time>2017-02-26T06:25:08.000Z</time>
      </trkpt>
      <trkpt lat="45.18259" lon="5.90679">
        <ele>1256</ele>
        <time>2017-02-26T06:25:18.000Z</time>
      </trkpt>
      <trkpt lat="45.18252" lon="5.9068">
        <ele>1256</ele>
        <time>2017-02-26T06:25:19.000Z</time>
      </trkpt>
      <trkpt lat="45.18252" lon="5.9068">
        <ele>1257</ele>
        <time>2017-02-26T06:25:28.000Z</time>
      </trkpt>
      <trkpt lat="45.18238" lon="5.90679">
        <ele>1257</ele>
        <time>2017-02-26T06:25:35.000Z</time>
      </trkpt>
      <trkpt lat="45.18238" lon="5.90679">
        <ele>1258</ele>
        <time>2017-02-26T06:25:38.000Z</time>
      </trkpt>
      <trkpt lat="45.18226" lon="5.90687">
        <ele>1258</ele>
        <time>2017-02-26T06:25:46.000Z</time>
      </trkpt>
      <trkpt lat="45.18226" lon="5.90687">
        <ele>1260</ele>
        <time>2017-02-26T06:25:48.000Z</time>
      </trkpt>
      <trkpt lat="45.18214" lon="5.9069">
        <ele>1260</ele>
        <time>2017-02-26T06:25:54.000Z</time>
      </trkpt>
      <trkpt lat="45.18214" lon="5.9069">
        <ele>1260</ele>
        <time>2017-02-26T06:25:58.000Z</time>
      </trkpt>
      <trkpt lat="45.18196" lon="5.90692">
        <ele>1260</ele>
        <time>2017-02-26T06:26:06.000Z</time>
      </trkpt>
      <trkpt lat="45.18196" lon="5.90692">
        <ele>1262</ele>
        <time>2017-02-26T06:26:08.000Z</time>
      </trkpt>
      <trkpt lat="45.18186" lon="5.90692">
        <ele>1262</ele>
        <time>2017-02-26T06:26:12.000Z</time>
      </trkpt>
      <trkpt lat="45.18186" lon="5.90692">
        <ele>1264</ele>
        <time>2017-02-26T06:26:18.000Z</time>
      </trkpt>
      <trkpt lat="45.18178" lon="5.90701">
        <ele>1264</ele>
        <time>2017-02-26T06:26:20.000Z</time>
      </trkpt>
      <trkpt lat="45.18178" lon="5.90701">
        <ele>1265</ele>
        <time>2017-02-26T06:26:28.000Z</time>
      </trkpt>
      <trkpt lat="45.18165" lon="5.90709">
        <ele>1265</ele>
        <time>2017-02-26T06:26:32.000Z</time>
      </trkpt>
      <trkpt lat="45.18165" lon="5.90709">
        <ele>1266</ele>
        <time>2017-02-26T06:26:38.000Z</time>
      </trkpt>
      <trkpt lat="45.18151" lon="5.90721">
        <ele>1266</ele>
        <time>2017-02-26T06:26:46.000Z</time>
      </trkpt>
      <trkpt lat="45.18146" lon="5.90726">
        <ele>1266</ele>
        <time>2017-02-26T06:26:48.000Z</time>
      </trkpt>
      <trkpt lat="45.18141" lon="5.9073">
        <ele>1266</ele>
        <time>2017-02-26T06:26:54.000Z</time>
      </trkpt>
      <trkpt lat="45.18137" lon="5.90735">
        <ele>1268</ele>
        <time>2017-02-26T06:26:58.000Z</time>
      </trkpt>
      <trkpt lat="45.18132" lon="5.90739">
        <ele>1268</ele>
        <time>2017-02-26T06:27:08.000Z</time>
      </trkpt>
      <trkpt lat="45.18127" lon="5.90744">
        <ele>1268</ele>
        <time>2017-02-26T06:27:16.000Z</time>
      </trkpt>
      <trkpt lat="45.18123" lon="5.90749">
        <ele>1270</ele>
        <time>2017-02-26T06:27:18.000Z</time>
      </trkpt>
      <trkpt lat="45.18118" lon="5.90753">
        <ele>1270</ele>
        <time>2017-02-26T06:27:27.000Z</time>
      </trkpt>
      <trkpt lat="45.18113" lon="5.90758">
        <ele>1272</ele>
        <time>2017-02-26T06:27:28.000Z</time>
      </trkpt>
      <trkpt lat="45.18109" lon="5.90762">
        <ele>1273</ele>
        <time>2017-02-26T06:27:38.000Z</time>
      </trkpt>
      <trkpt lat="45.18104" lon="5.90767">
        <ele>1273</ele>
        <time>2017-02-26T06:27:39.000Z</time>
      </trkpt>
      <trkpt lat="45.18094" lon="5.90776">
        <ele>1273</ele>
        <time>2017-02-26T06:27:47.000Z</time>
      </trkpt>
      <trkpt lat="45.18092" lon="5.90777">
        <ele>1274</ele>
        <time>2017-02-26T06:27:48.000Z</time>
      </trkpt>
      <trkpt lat="45.18081" lon="5.90784">
        <ele>1274</ele>
        <time>2017-02-26T06:27:55.000Z</time>
      </trkpt>
      <trkpt lat="45.18081" lon="5.90784">
        <ele>1276</ele>
        <time>2017-02-26T06:27:58.000Z</time>
      </trkpt>
      <trkpt lat="45.18074" lon="5.90796">
        <ele>1276</ele>
        <time>2017-02-26T06:28:03.000Z</time>
      </trkpt>
      <trkpt lat="45.18074" lon="5.90796">
        <ele>1277</ele>
        <time>2017-02-26T06:28:08.000Z</time>
      </trkpt>
      <trkpt lat="45.18059" lon="5.90804">
        <ele>1278</ele>
        <time>2017-02-26T06:28:18.000Z</time>
      </trkpt>
      <trkpt lat="45.18049" lon="5.90811">
        <ele>1278</ele>
        <time>2017-02-26T06:28:26.000Z</time>
      </trkpt>
      <trkpt lat="45.18049" lon="5.90811">
        <ele>1280</ele>
        <time>2017-02-26T06:28:28.000Z</time>
      </trkpt>
      <trkpt lat="45.18036" lon="5.90816">
        <ele>1280</ele>
        <time>2017-02-26T06:28:34.000Z</time>
      </trkpt>
      <trkpt lat="45.18036" lon="5.90816">
        <ele>1282</ele>
        <time>2017-02-26T06:28:38.000Z</time>
      </trkpt>
      <trkpt lat="45.18023" lon="5.9082">
        <ele>1282</ele>
        <time>2017-02-26T06:28:42.000Z</time>
      </trkpt>
      <trkpt lat="45.18023" lon="5.9082">
        <ele>1282</ele>
        <time>2017-02-26T06:28:48.000Z</time>
      </trkpt>
      <trkpt lat="45.18012" lon="5.90827">
        <ele>1282</ele>
        <time>2017-02-26T06:28:54.000Z</time>
      </trkpt>
      <trkpt lat="45.18012" lon="5.90827">
        <ele>1283</ele>
        <time>2017-02-26T06:28:58.000Z</time>
      </trkpt>
      <trkpt lat="45.17998" lon="5.90834">
        <ele>1283</ele>
        <time>2017-02-26T06:29:05.000Z</time>
      </trkpt>
      <trkpt lat="45.17991" lon="5.90837">
        <ele>1285</ele>
        <time>2017-02-26T06:29:08.000Z</time>
      </trkpt>
      <trkpt lat="45.17984" lon="5.9084">
        <ele>1285</ele>
        <time>2017-02-26T06:29:18.000Z</time>
      </trkpt>
      <trkpt lat="45.17978" lon="5.90842">
        <ele>1287</ele>
        <time>2017-02-26T06:29:28.000Z</time>
      </trkpt>
      <trkpt lat="45.17971" lon="5.90845">
        <ele>1287</ele>
        <time>2017-02-26T06:29:37.000Z</time>
      </trkpt>
      <trkpt lat="45.17964" lon="5.90848">
        <ele>1288</ele>
        <time>2017-02-26T06:29:38.000Z</time>
      </trkpt>
      <trkpt lat="45.17958" lon="5.90851">
        <ele>1290</ele>
        <time>2017-02-26T06:29:48.000Z</time>
      </trkpt>
      <trkpt lat="45.17951" lon="5.90853">
        <ele>1290</ele>
        <time>2017-02-26T06:29:49.000Z</time>
      </trkpt>
      <trkpt lat="45.17945" lon="5.90856">
        <ele>1291</ele>
        <time>2017-02-26T06:29:58.000Z</time>
      </trkpt>
      <trkpt lat="45.1794" lon="5.90859">
        <ele>1291</ele>
        <time>2017-02-26T06:29:59.000Z</time>
      </trkpt>
      <trkpt lat="45.1794" lon="5.90859">
        <ele>1293</ele>
        <time>2017-02-26T06:30:08.000Z</time>
      </trkpt>
      <trkpt lat="45.1793" lon="5.90878">
        <ele>1295</ele>
        <time>2017-02-26T06:30:18.000Z</time>
      </trkpt>
      <trkpt lat="45.17919" lon="5.90884">
        <ele>1295</ele>
        <time>2017-02-26T06:30:26.000Z</time>
      </trkpt>
      <trkpt lat="45.17919" lon="5.90884">
        <ele>1297</ele>
        <time>2017-02-26T06:30:28.000Z</time>
      </trkpt>
      <trkpt lat="45.17912" lon="5.90901">
        <ele>1297</ele>
        <time>2017-02-26T06:30:34.000Z</time>
      </trkpt>
      <trkpt lat="45.17912" lon="5.90901">
        <ele>1297</ele>
        <time>2017-02-26T06:30:38.000Z</time>
      </trkpt>
      <trkpt lat="45.17903" lon="5.90911">
        <ele>1297</ele>
        <time>2017-02-26T06:30:46.000Z</time>
      </trkpt>
      <trkpt lat="45.17903" lon="5.90911">
        <ele>1298</ele>
        <time>2017-02-26T06:30:48.000Z</time>
      </trkpt>
      <trkpt lat="45.179" lon="5.90927">
        <ele>1298</ele>
        <time>2017-02-26T06:30:54.000Z</time>
      </trkpt>
      <trkpt lat="45.179" lon="5.90927">
        <ele>1299</ele>
        <time>2017-02-26T06:30:58.000Z</time>
      </trkpt>
      <trkpt lat="45.1789" lon="5.90943">
        <ele>1299</ele>
        <time>2017-02-26T06:31:06.000Z</time>
      </trkpt>
      <trkpt lat="45.1789" lon="5.90943">
        <ele>1301</ele>
        <time>2017-02-26T06:31:08.000Z</time>
      </trkpt>
      <trkpt lat="45.17888" lon="5.90957">
        <ele>1301</ele>
        <time>2017-02-26T06:31:14.000Z</time>
      </trkpt>
      <trkpt lat="45.17888" lon="5.90957">
        <ele>1302</ele>
        <time>2017-02-26T06:31:18.000Z</time>
      </trkpt>
      <trkpt lat="45.17879" lon="5.90972">
        <ele>1302</ele>
        <time>2017-02-26T06:31:22.000Z</time>
      </trkpt>
      <trkpt lat="45.17879" lon="5.90972">
        <ele>1303</ele>
        <time>2017-02-26T06:31:28.000Z</time>
      </trkpt>
      <trkpt lat="45.1787" lon="5.90985">
        <ele>1303</ele>
        <time>2017-02-26T06:31:30.000Z</time>
      </trkpt>
      <trkpt lat="45.17852" lon="5.90995">
        <ele>1304</ele>
        <time>2017-02-26T06:31:38.000Z</time>
      </trkpt>
      <trkpt lat="45.17844" lon="5.90998">
        <ele>1305</ele>
        <time>2017-02-26T06:31:48.000Z</time>
      </trkpt>
      <trkpt lat="45.17837" lon="5.91002">
        <ele>1305</ele>
        <time>2017-02-26T06:31:49.000Z</time>
      </trkpt>
      <trkpt lat="45.17837" lon="5.91002">
        <ele>1307</ele>
        <time>2017-02-26T06:31:58.000Z</time>
      </trkpt>
      <trkpt lat="45.17826" lon="5.90998">
        <ele>1307</ele>
        <time>2017-02-26T06:32:01.000Z</time>
      </trkpt>
      <trkpt lat="45.1782" lon="5.90998">
        <ele>1307</ele>
        <time>2017-02-26T06:32:08.000Z</time>
      </trkpt>
      <trkpt lat="45.17815" lon="5.90998">
        <ele>1307</ele>
        <time>2017-02-26T06:32:09.000Z</time>
      </trkpt>
      <trkpt lat="45.17815" lon="5.90998">
        <ele>1308</ele>
        <time>2017-02-26T06:32:18.000Z</time>
      </trkpt>
      <trkpt lat="45.17803" lon="5.90993">
        <ele>1308</ele>
        <time>2017-02-26T06:32:21.000Z</time>
      </trkpt>
      <trkpt lat="45.17803" lon="5.90993">
        <ele>1310</ele>
        <time>2017-02-26T06:32:28.000Z</time>
      </trkpt>
      <trkpt lat="45.17793" lon="5.90988">
        <ele>1310</ele>
        <time>2017-02-26T06:32:33.000Z</time>
      </trkpt>
      <trkpt lat="45.17793" lon="5.90988">
        <ele>1310</ele>
        <time>2017-02-26T06:32:38.000Z</time>
      </trkpt>
      <trkpt lat="45.17793" lon="5.90988">
        <ele>1310</ele>
        <time>2017-02-26T06:32:48.000Z</time>
      </trkpt>
      <trkpt lat="45.17804" lon="5.90987">
        <ele>1310</ele>
        <time>2017-02-26T06:32:57.000Z</time>
      </trkpt>
      <trkpt lat="45.17804" lon="5.90987">
        <ele>1310</ele>
        <time>2017-02-26T06:32:58.000Z</time>
      </trkpt>
      <trkpt lat="45.17804" lon="5.90987">
        <ele>1310</ele>
        <time>2017-02-26T06:33:08.000Z</time>
      </trkpt>
      <trkpt lat="45.17792" lon="5.90988">
        <ele>1310</ele>
        <time>2017-02-26T06:33:17.000Z</time>
      </trkpt>
      <trkpt lat="45.17792" lon="5.90988">
        <ele>1310</ele>
        <time>2017-02-26T06:33:18.000Z</time>
      </trkpt>
      <trkpt lat="45.17792" lon="5.90988">
        <ele>1309</ele>
        <time>2017-02-26T06:33:28.000Z</time>
      </trkpt>
      <trkpt lat="45.17792" lon="5.90988">
        <ele>1310</ele>
        <time>2017-02-26T06:33:38.000Z</time>
      </trkpt>
      <trkpt lat="45.17792" lon="5.90988">
        <ele>1310</ele>
        <time>2017-02-26T06:33:48.000Z</time>
      </trkpt>
      <trkpt lat="45.17793" lon="5.90974">
        <ele>1310</ele>
        <time>2017-02-26T06:33:51.000Z</time>
      </trkpt>
      <trkpt lat="45.17793" lon="5.90974">
        <ele>1312</ele>
        <time>2017-02-26T06:33:58.000Z</time>
      </trkpt>
      <trkpt lat="45.17777" lon="5.90967">
        <ele>1312</ele>
        <time>2017-02-26T06:34:01.000Z</time>
      </trkpt>
      <trkpt lat="45.1777" lon="5.90967">
        <ele>1313</ele>
        <time>2017-02-26T06:34:08.000Z</time>
      </trkpt>
      <trkpt lat="45.17763" lon="5.90967">
        <ele>1313</ele>
        <time>2017-02-26T06:34:09.000Z</time>
      </trkpt>
      <trkpt lat="45.17763" lon="5.90967">
        <ele>1314</ele>
        <time>2017-02-26T06:34:18.000Z</time>
      </trkpt>
      <trkpt lat="45.17759" lon="5.90952">
        <ele>1314</ele>
        <time>2017-02-26T06:34:21.000Z</time>
      </trkpt>
      <trkpt lat="45.17759" lon="5.90952">
        <ele>1315</ele>
        <time>2017-02-26T06:34:28.000Z</time>
      </trkpt>
      <trkpt lat="45.17759" lon="5.90952">
        <ele>1317</ele>
        <time>2017-02-26T06:34:38.000Z</time>
      </trkpt>
      <trkpt lat="45.17734" lon="5.90941">
        <ele>1317</ele>
        <time>2017-02-26T06:34:41.000Z</time>
      </trkpt>
      <trkpt lat="45.17729" lon="5.90939">
        <ele>1318</ele>
        <time>2017-02-26T06:34:48.000Z</time>
      </trkpt>
      <trkpt lat="45.17723" lon="5.90936">
        <ele>1318</ele>
        <time>2017-02-26T06:34:49.000Z</time>
      </trkpt>
      <trkpt lat="45.1771" lon="5.9093">
        <ele>1318</ele>
        <time>2017-02-26T06:34:57.000Z</time>
      </trkpt>
      <trkpt lat="45.17708" lon="5.90926">
        <ele>1319</ele>
        <time>2017-02-26T06:34:58.000Z</time>
      </trkpt>
      <trkpt lat="45.17707" lon="5.90921">
        <ele>1320</ele>
        <time>2017-02-26T06:35:08.000Z</time>
      </trkpt>
      <trkpt lat="45.17705" lon="5.90917">
        <ele>1320</ele>
        <time>2017-02-26T06:35:09.000Z</time>
      </trkpt>
      <trkpt lat="45.17705" lon="5.90917">
        <ele>1322</ele>
        <time>2017-02-26T06:35:18.000Z</time>
      </trkpt>
      <trkpt lat="45.17693" lon="5.90908">
        <ele>1322</ele>
        <time>2017-02-26T06:35:21.000Z</time>
      </trkpt>
      <trkpt lat="45.17693" lon="5.90908">
        <ele>1322</ele>
        <time>2017-02-26T06:35:28.000Z</time>
      </trkpt>
      <trkpt lat="45.17689" lon="5.90893">
        <ele>1322</ele>
        <time>2017-02-26T06:35:33.000Z</time>
      </trkpt>
      <trkpt lat="45.17689" lon="5.90893">
        <ele>1324</ele>
        <time>2017-02-26T06:35:38.000Z</time>
      </trkpt>
      <trkpt lat="45.17681" lon="5.90884">
        <ele>1324</ele>
        <time>2017-02-26T06:35:41.000Z</time>
      </trkpt>
      <trkpt lat="45.17676" lon="5.90879">
        <ele>1325</ele>
        <time>2017-02-26T06:35:48.000Z</time>
      </trkpt>
      <trkpt lat="45.17672" lon="5.90874">
        <ele>1325</ele>
        <time>2017-02-26T06:35:49.000Z</time>
      </trkpt>
      <trkpt lat="45.17672" lon="5.90874">
        <ele>1326</ele>
        <time>2017-02-26T06:35:58.000Z</time>
      </trkpt>
      <trkpt lat="45.17661" lon="5.9087">
        <ele>1326</ele>
        <time>2017-02-26T06:36:01.000Z</time>
      </trkpt>
      <trkpt lat="45.17655" lon="5.9087">
        <ele>1328</ele>
        <time>2017-02-26T06:36:08.000Z</time>
      </trkpt>
      <trkpt lat="45.1765" lon="5.90871">
        <ele>1328</ele>
        <time>2017-02-26T06:36:09.000Z</time>
      </trkpt>
      <trkpt lat="45.1765" lon="5.90871">
        <ele>1329</ele>
        <time>2017-02-26T06:36:18.000Z</time>
      </trkpt>
      <trkpt lat="45.17637" lon="5.90866">
        <ele>1329</ele>
        <time>2017-02-26T06:36:21.000Z</time>
      </trkpt>
      <trkpt lat="45.17632" lon="5.90863">
        <ele>1329</ele>
        <time>2017-02-26T06:36:28.000Z</time>
      </trkpt>
      <trkpt lat="45.17627" lon="5.9086">
        <ele>1329</ele>
        <time>2017-02-26T06:36:29.000Z</time>
      </trkpt>
      <trkpt lat="45.17616" lon="5.90852">
        <ele>1329</ele>
        <time>2017-02-26T06:36:37.000Z</time>
      </trkpt>
      <trkpt lat="45.17614" lon="5.90852">
        <ele>1331</ele>
        <time>2017-02-26T06:36:38.000Z</time>
      </trkpt>
      <trkpt lat="45.17604" lon="5.9085">
        <ele>1331</ele>
        <time>2017-02-26T06:36:45.000Z</time>
      </trkpt>
      <trkpt lat="45.17604" lon="5.9085">
        <ele>1333</ele>
        <time>2017-02-26T06:36:48.000Z</time>
      </trkpt>
      <trkpt lat="45.17593" lon="5.90851">
        <ele>1333</ele>
        <time>2017-02-26T06:36:57.000Z</time>
      </trkpt>
      <trkpt lat="45.17593" lon="5.90849">
        <ele>1334</ele>
        <time>2017-02-26T06:36:58.000Z</time>
      </trkpt>
      <trkpt lat="45.17591" lon="5.90834">
        <ele>1334</ele>
        <time>2017-02-26T06:37:05.000Z</time>
      </trkpt>
      <trkpt lat="45.17591" lon="5.90834">
        <ele>1335</ele>
        <time>2017-02-26T06:37:08.000Z</time>
      </trkpt>
      <trkpt lat="45.17588" lon="5.90818">
        <ele>1335</ele>
        <time>2017-02-26T06:37:13.000Z</time>
      </trkpt>
      <trkpt lat="45.17588" lon="5.90818">
        <ele>1337</ele>
        <time>2017-02-26T06:37:18.000Z</time>
      </trkpt>
      <trkpt lat="45.17582" lon="5.90787">
        <ele>1337</ele>
        <time>2017-02-26T06:37:25.000Z</time>
      </trkpt>
      <trkpt lat="45.17579" lon="5.90781">
        <ele>1339</ele>
        <time>2017-02-26T06:37:28.000Z</time>
      </trkpt>
      <trkpt lat="45.17575" lon="5.90774">
        <ele>1339</ele>
        <time>2017-02-26T06:37:37.000Z</time>
      </trkpt>
      <trkpt lat="45.17572" lon="5.90768">
        <ele>1340</ele>
        <time>2017-02-26T06:37:38.000Z</time>
      </trkpt>
      <trkpt lat="45.17569" lon="5.90761">
        <ele>1342</ele>
        <time>2017-02-26T06:37:48.000Z</time>
      </trkpt>
      <trkpt lat="45.17566" lon="5.90755">
        <ele>1342</ele>
        <time>2017-02-26T06:37:49.000Z</time>
      </trkpt>
      <trkpt lat="45.17563" lon="5.90751">
        <ele>1342</ele>
        <time>2017-02-26T06:37:58.000Z</time>
      </trkpt>
      <trkpt lat="45.1756" lon="5.90747">
        <ele>1343</ele>
        <time>2017-02-26T06:38:08.000Z</time>
      </trkpt>
      <trkpt lat="45.17557" lon="5.90742">
        <ele>1343</ele>
        <time>2017-02-26T06:38:09.000Z</time>
      </trkpt>
      <trkpt lat="45.17547" lon="5.90733">
        <ele>1343</ele>
        <time>2017-02-26T06:38:17.000Z</time>
      </trkpt>
      <trkpt lat="45.17545" lon="5.90732">
        <ele>1345</ele>
        <time>2017-02-26T06:38:18.000Z</time>
      </trkpt>
      <trkpt lat="45.17533" lon="5.90726">
        <ele>1345</ele>
        <time>2017-02-26T06:38:25.000Z</time>
      </trkpt>
      <trkpt lat="45.17533" lon="5.90726">
        <ele>1346</ele>
        <time>2017-02-26T06:38:28.000Z</time>
      </trkpt>
      <trkpt lat="45.17522" lon="5.90725">
        <ele>1346</ele>
        <time>2017-02-26T06:38:33.000Z</time>
      </trkpt>
      <trkpt lat="45.17522" lon="5.90725">
        <ele>1347</ele>
        <time>2017-02-26T06:38:38.000Z</time>
      </trkpt>
      <trkpt lat="45.17522" lon="5.90725">
        <ele>1348</ele>
        <time>2017-02-26T06:38:48.000Z</time>
      </trkpt>
      <trkpt lat="45.17511" lon="5.90719">
        <ele>1348</ele>
        <time>2017-02-26T06:38:50.000Z</time>
      </trkpt>
      <trkpt lat="45.17496" lon="5.90717">
        <ele>1348</ele>
        <time>2017-02-26T06:38:57.000Z</time>
      </trkpt>
      <trkpt lat="45.17489" lon="5.9072">
        <ele>1350</ele>
        <time>2017-02-26T06:38:58.000Z</time>
      </trkpt>
      <trkpt lat="45.17482" lon="5.90722">
        <ele>1352</ele>
        <time>2017-02-26T06:39:08.000Z</time>
      </trkpt>
      <trkpt lat="45.17476" lon="5.90725">
        <ele>1352</ele>
        <time>2017-02-26T06:39:18.000Z</time>
      </trkpt>
      <trkpt lat="45.1747" lon="5.90727">
        <ele>1352</ele>
        <time>2017-02-26T06:39:19.000Z</time>
      </trkpt>
      <trkpt lat="45.17457" lon="5.90728">
        <ele>1352</ele>
        <time>2017-02-26T06:39:25.000Z</time>
      </trkpt>
      <trkpt lat="45.17457" lon="5.90728">
        <ele>1354</ele>
        <time>2017-02-26T06:39:28.000Z</time>
      </trkpt>
      <trkpt lat="45.17441" lon="5.90729">
        <ele>1354</ele>
        <time>2017-02-26T06:39:33.000Z</time>
      </trkpt>
      <trkpt lat="45.17441" lon="5.90729">
        <ele>1356</ele>
        <time>2017-02-26T06:39:38.000Z</time>
      </trkpt>
      <trkpt lat="45.17447" lon="5.90717">
        <ele>1356</ele>
        <time>2017-02-26T06:39:41.000Z</time>
      </trkpt>
      <trkpt lat="45.17447" lon="5.90717">
        <ele>1357</ele>
        <time>2017-02-26T06:39:48.000Z</time>
      </trkpt>
      <trkpt lat="45.17437" lon="5.90708">
        <ele>1357</ele>
        <time>2017-02-26T06:39:53.000Z</time>
      </trkpt>
      <trkpt lat="45.17437" lon="5.90708">
        <ele>1359</ele>
        <time>2017-02-26T06:39:58.000Z</time>
      </trkpt>
      <trkpt lat="45.17427" lon="5.90701">
        <ele>1359</ele>
        <time>2017-02-26T06:40:01.000Z</time>
      </trkpt>
      <trkpt lat="45.17427" lon="5.90701">
        <ele>1360</ele>
        <time>2017-02-26T06:40:08.000Z</time>
      </trkpt>
      <trkpt lat="45.17413" lon="5.90695">
        <ele>1360</ele>
        <time>2017-02-26T06:40:13.000Z</time>
      </trkpt>
      <trkpt lat="45.17408" lon="5.90698">
        <ele>1361</ele>
        <time>2017-02-26T06:40:18.000Z</time>
      </trkpt>
      <trkpt lat="45.17402" lon="5.907">
        <ele>1361</ele>
        <time>2017-02-26T06:40:26.000Z</time>
      </trkpt>
      <trkpt lat="45.17396" lon="5.90702">
        <ele>1362</ele>
        <time>2017-02-26T06:40:28.000Z</time>
      </trkpt>
      <trkpt lat="45.1739" lon="5.90704">
        <ele>1363</ele>
        <time>2017-02-26T06:40:38.000Z</time>
      </trkpt>
      <trkpt lat="45.17385" lon="5.90706">
        <ele>1363</ele>
        <time>2017-02-26T06:40:40.000Z</time>
      </trkpt>
      <trkpt lat="45.17373" lon="5.90706">
        <ele>1365</ele>
        <time>2017-02-26T06:40:48.000Z</time>
      </trkpt>
      <trkpt lat="45.17373" lon="5.90706">
        <ele>1366</ele>
        <time>2017-02-26T06:40:58.000Z</time>
      </trkpt>
      <trkpt lat="45.1736" lon="5.90713">
        <ele>1366</ele>
        <time>2017-02-26T06:41:00.000Z</time>
      </trkpt>
      <trkpt lat="45.1736" lon="5.90713">
        <ele>1368</ele>
        <time>2017-02-26T06:41:08.000Z</time>
      </trkpt>
      <trkpt lat="45.1735" lon="5.90711">
        <ele>1368</ele>
        <time>2017-02-26T06:41:11.000Z</time>
      </trkpt>
      <trkpt lat="45.1735" lon="5.90711">
        <ele>1369</ele>
        <time>2017-02-26T06:41:18.000Z</time>
      </trkpt>
      <trkpt lat="45.17339" lon="5.90714">
        <ele>1369</ele>
        <time>2017-02-26T06:41:23.000Z</time>
      </trkpt>
      <trkpt lat="45.17339" lon="5.90714">
        <ele>1371</ele>
        <time>2017-02-26T06:41:28.000Z</time>
      </trkpt>
      <trkpt lat="45.17329" lon="5.90712">
        <ele>1371</ele>
        <time>2017-02-26T06:41:31.000Z</time>
      </trkpt>
      <trkpt lat="45.17322" lon="5.90713">
        <ele>1371</ele>
        <time>2017-02-26T06:41:38.000Z</time>
      </trkpt>
      <trkpt lat="45.17316" lon="5.90713">
        <ele>1371</ele>
        <time>2017-02-26T06:41:39.000Z</time>
      </trkpt>
      <trkpt lat="45.17306" lon="5.90722">
        <ele>1371</ele>
        <time>2017-02-26T06:41:47.000Z</time>
      </trkpt>
      <trkpt lat="45.17306" lon="5.90722">
        <ele>1373</ele>
        <time>2017-02-26T06:41:48.000Z</time>
      </trkpt>
      <trkpt lat="45.17306" lon="5.90722">
        <ele>1374</ele>
        <time>2017-02-26T06:41:58.000Z</time>
      </trkpt>
      <trkpt lat="45.17291" lon="5.90719">
        <ele>1374</ele>
        <time>2017-02-26T06:42:04.000Z</time>
      </trkpt>
      <trkpt lat="45.17284" lon="5.9072">
        <ele>1376</ele>
        <time>2017-02-26T06:42:08.000Z</time>
      </trkpt>
      <trkpt lat="45.17277" lon="5.90721">
        <ele>1376</ele>
        <time>2017-02-26T06:42:18.000Z</time>
      </trkpt>
      <trkpt lat="45.1727" lon="5.90721">
        <ele>1376</ele>
        <time>2017-02-26T06:42:19.000Z</time>
      </trkpt>
      <trkpt lat="45.17258" lon="5.90731">
        <ele>1376</ele>
        <time>2017-02-26T06:42:27.000Z</time>
      </trkpt>
      <trkpt lat="45.17257" lon="5.90731">
        <ele>1378</ele>
        <time>2017-02-26T06:42:28.000Z</time>
      </trkpt>
      <trkpt lat="45.17248" lon="5.90733">
        <ele>1378</ele>
        <time>2017-02-26T06:42:36.000Z</time>
      </trkpt>
      <trkpt lat="45.17248" lon="5.90733">
        <ele>1379</ele>
        <time>2017-02-26T06:42:38.000Z</time>
      </trkpt>
      <trkpt lat="45.17235" lon="5.90745">
        <ele>1380</ele>
        <time>2017-02-26T06:42:48.000Z</time>
      </trkpt>
      <trkpt lat="45.17235" lon="5.90745">
        <ele>1381</ele>
        <time>2017-02-26T06:42:58.000Z</time>
      </trkpt>
      <trkpt lat="45.17222" lon="5.90743">
        <ele>1381</ele>
        <time>2017-02-26T06:43:06.000Z</time>
      </trkpt>
      <trkpt lat="45.17222" lon="5.90743">
        <ele>1382</ele>
        <time>2017-02-26T06:43:08.000Z</time>
      </trkpt>
      <trkpt lat="45.17211" lon="5.90746">
        <ele>1383</ele>
        <time>2017-02-26T06:43:18.000Z</time>
      </trkpt>
      <trkpt lat="45.17193" lon="5.9075">
        <ele>1383</ele>
        <time>2017-02-26T06:43:27.000Z</time>
      </trkpt>
      <trkpt lat="45.17188" lon="5.90751">
        <ele>1385</ele>
        <time>2017-02-26T06:43:28.000Z</time>
      </trkpt>
      <trkpt lat="45.17183" lon="5.90752">
        <ele>1386</ele>
        <time>2017-02-26T06:43:38.000Z</time>
      </trkpt>
      <trkpt lat="45.17178" lon="5.90753">
        <ele>1386</ele>
        <time>2017-02-26T06:43:39.000Z</time>
      </trkpt>
      <trkpt lat="45.17172" lon="5.90753">
        <ele>1387</ele>
        <time>2017-02-26T06:43:48.000Z</time>
      </trkpt>
      <trkpt lat="45.17166" lon="5.90754">
        <ele>1387</ele>
        <time>2017-02-26T06:43:49.000Z</time>
      </trkpt>
      <trkpt lat="45.17166" lon="5.90754">
        <ele>1389</ele>
        <time>2017-02-26T06:43:58.000Z</time>
      </trkpt>
      <trkpt lat="45.17166" lon="5.90754">
        <ele>1390</ele>
        <time>2017-02-26T06:44:08.000Z</time>
      </trkpt>
      <trkpt lat="45.17155" lon="5.90757">
        <ele>1390</ele>
        <time>2017-02-26T06:44:10.000Z</time>
      </trkpt>
      <trkpt lat="45.1714" lon="5.90766">
        <ele>1391</ele>
        <time>2017-02-26T06:44:18.000Z</time>
      </trkpt>
      <trkpt lat="45.1714" lon="5.90766">
        <ele>1392</ele>
        <time>2017-02-26T06:44:28.000Z</time>
      </trkpt>
      <trkpt lat="45.17132" lon="5.90778">
        <ele>1392</ele>
        <time>2017-02-26T06:44:32.000Z</time>
      </trkpt>
      <trkpt lat="45.17132" lon="5.90778">
        <ele>1393</ele>
        <time>2017-02-26T06:44:38.000Z</time>
      </trkpt>
      <trkpt lat="45.17121" lon="5.90783">
        <ele>1393</ele>
        <time>2017-02-26T06:44:44.000Z</time>
      </trkpt>
      <trkpt lat="45.17121" lon="5.90783">
        <ele>1394</ele>
        <time>2017-02-26T06:44:48.000Z</time>
      </trkpt>
      <trkpt lat="45.17111" lon="5.90788">
        <ele>1394</ele>
        <time>2017-02-26T06:44:55.000Z</time>
      </trkpt>
      <trkpt lat="45.17111" lon="5.90788">
        <ele>1395</ele>
        <time>2017-02-26T06:44:58.000Z</time>
      </trkpt>
      <trkpt lat="45.17095" lon="5.90794">
        <ele>1395</ele>
        <time>2017-02-26T06:45:04.000Z</time>
      </trkpt>
      <trkpt lat="45.17095" lon="5.90794">
        <ele>1397</ele>
        <time>2017-02-26T06:45:08.000Z</time>
      </trkpt>
      <trkpt lat="45.17083" lon="5.90793">
        <ele>1397</ele>
        <time>2017-02-26T06:45:12.000Z</time>
      </trkpt>
      <trkpt lat="45.17083" lon="5.90793">
        <ele>1399</ele>
        <time>2017-02-26T06:45:18.000Z</time>
      </trkpt>
      <trkpt lat="45.17073" lon="5.90788">
        <ele>1399</ele>
        <time>2017-02-26T06:45:20.000Z</time>
      </trkpt>
      <trkpt lat="45.17073" lon="5.90788">
        <ele>1399</ele>
        <time>2017-02-26T06:45:28.000Z</time>
      </trkpt>
      <trkpt lat="45.17066" lon="5.90777">
        <ele>1399</ele>
        <time>2017-02-26T06:45:36.000Z</time>
      </trkpt>
      <trkpt lat="45.17066" lon="5.90777">
        <ele>1401</ele>
        <time>2017-02-26T06:45:38.000Z</time>
      </trkpt>
      <trkpt lat="45.17066" lon="5.90777">
        <ele>1402</ele>
        <time>2017-02-26T06:45:48.000Z</time>
      </trkpt>
      <trkpt lat="45.17054" lon="5.90762">
        <ele>1402</ele>
        <time>2017-02-26T06:45:52.000Z</time>
      </trkpt>
      <trkpt lat="45.17054" lon="5.90762">
        <ele>1403</ele>
        <time>2017-02-26T06:45:58.000Z</time>
      </trkpt>
      <trkpt lat="45.17041" lon="5.90757">
        <ele>1403</ele>
        <time>2017-02-26T06:46:04.000Z</time>
      </trkpt>
      <trkpt lat="45.17041" lon="5.90757">
        <ele>1404</ele>
        <time>2017-02-26T06:46:08.000Z</time>
      </trkpt>
      <trkpt lat="45.17034" lon="5.90746">
        <ele>1404</ele>
        <time>2017-02-26T06:46:12.000Z</time>
      </trkpt>
      <trkpt lat="45.17034" lon="5.90746">
        <ele>1405</ele>
        <time>2017-02-26T06:46:18.000Z</time>
      </trkpt>
      <trkpt lat="45.17019" lon="5.90732">
        <ele>1405</ele>
        <time>2017-02-26T06:46:24.000Z</time>
      </trkpt>
      <trkpt lat="45.17014" lon="5.90734">
        <ele>1407</ele>
        <time>2017-02-26T06:46:28.000Z</time>
      </trkpt>
      <trkpt lat="45.17009" lon="5.90737">
        <ele>1408</ele>
        <time>2017-02-26T06:46:38.000Z</time>
      </trkpt>
      <trkpt lat="45.17005" lon="5.90739">
        <ele>1408</ele>
        <time>2017-02-26T06:46:40.000Z</time>
      </trkpt>
      <trkpt lat="45.17005" lon="5.90739">
        <ele>1408</ele>
        <time>2017-02-26T06:46:48.000Z</time>
      </trkpt>
      <trkpt lat="45.16992" lon="5.90737">
        <ele>1408</ele>
        <time>2017-02-26T06:46:50.000Z</time>
      </trkpt>
      <trkpt lat="45.16992" lon="5.90737">
        <ele>1410</ele>
        <time>2017-02-26T06:46:58.000Z</time>
      </trkpt>
      <trkpt lat="45.1698" lon="5.90743">
        <ele>1410</ele>
        <time>2017-02-26T06:47:02.000Z</time>
      </trkpt>
      <trkpt lat="45.1698" lon="5.90743">
        <ele>1412</ele>
        <time>2017-02-26T06:47:08.000Z</time>
      </trkpt>
      <trkpt lat="45.16968" lon="5.90742">
        <ele>1412</ele>
        <time>2017-02-26T06:47:10.000Z</time>
      </trkpt>
      <trkpt lat="45.16968" lon="5.90742">
        <ele>1413</ele>
        <time>2017-02-26T06:47:18.000Z</time>
      </trkpt>
      <trkpt lat="45.16953" lon="5.90741">
        <ele>1413</ele>
        <time>2017-02-26T06:47:22.000Z</time>
      </trkpt>
      <trkpt lat="45.16953" lon="5.90741">
        <ele>1414</ele>
        <time>2017-02-26T06:47:28.000Z</time>
      </trkpt>
      <trkpt lat="45.16943" lon="5.9075">
        <ele>1416</ele>
        <time>2017-02-26T06:47:38.000Z</time>
      </trkpt>
      <trkpt lat="45.16943" lon="5.9075">
        <ele>1418</ele>
        <time>2017-02-26T06:47:48.000Z</time>
      </trkpt>
      <trkpt lat="45.16934" lon="5.90759">
        <ele>1418</ele>
        <time>2017-02-26T06:47:50.000Z</time>
      </trkpt>
      <trkpt lat="45.16923" lon="5.90762">
        <ele>1418</ele>
        <time>2017-02-26T06:47:58.000Z</time>
      </trkpt>
      <trkpt lat="45.16923" lon="5.90762">
        <ele>1419</ele>
        <time>2017-02-26T06:48:08.000Z</time>
      </trkpt>
      <trkpt lat="45.16909" lon="5.90765">
        <ele>1419</ele>
        <time>2017-02-26T06:48:10.000Z</time>
      </trkpt>
      <trkpt lat="45.169" lon="5.9076">
        <ele>1420</ele>
        <time>2017-02-26T06:48:18.000Z</time>
      </trkpt>
      <trkpt lat="45.169" lon="5.9076">
        <ele>1422</ele>
        <time>2017-02-26T06:48:28.000Z</time>
      </trkpt>
      <trkpt lat="45.16881" lon="5.90752">
        <ele>1422</ele>
        <time>2017-02-26T06:48:33.000Z</time>
      </trkpt>
      <trkpt lat="45.16881" lon="5.90752">
        <ele>1423</ele>
        <time>2017-02-26T06:48:38.000Z</time>
      </trkpt>
      <trkpt lat="45.16867" lon="5.90749">
        <ele>1423</ele>
        <time>2017-02-26T06:48:41.000Z</time>
      </trkpt>
      <trkpt lat="45.16867" lon="5.90749">
        <ele>1423</ele>
        <time>2017-02-26T06:48:48.000Z</time>
      </trkpt>
      <trkpt lat="45.16853" lon="5.90743">
        <ele>1423</ele>
        <time>2017-02-26T06:48:53.000Z</time>
      </trkpt>
      <trkpt lat="45.16849" lon="5.9074">
        <ele>1425</ele>
        <time>2017-02-26T06:48:58.000Z</time>
      </trkpt>
      <trkpt lat="45.16845" lon="5.90736">
        <ele>1426</ele>
        <time>2017-02-26T06:49:08.000Z</time>
      </trkpt>
      <trkpt lat="45.1684" lon="5.90733">
        <ele>1426</ele>
        <time>2017-02-26T06:49:09.000Z</time>
      </trkpt>
      <trkpt lat="45.1684" lon="5.90733">
        <ele>1427</ele>
        <time>2017-02-26T06:49:18.000Z</time>
      </trkpt>
      <trkpt lat="45.16831" lon="5.90724">
        <ele>1427</ele>
        <time>2017-02-26T06:49:21.000Z</time>
      </trkpt>
      <trkpt lat="45.16831" lon="5.90724">
        <ele>1428</ele>
        <time>2017-02-26T06:49:28.000Z</time>
      </trkpt>
      <trkpt lat="45.16815" lon="5.9072">
        <ele>1428</ele>
        <time>2017-02-26T06:49:33.000Z</time>
      </trkpt>
      <trkpt lat="45.16815" lon="5.9072">
        <ele>1429</ele>
        <time>2017-02-26T06:49:38.000Z</time>
      </trkpt>
      <trkpt lat="45.16806" lon="5.90706">
        <ele>1429</ele>
        <time>2017-02-26T06:49:44.000Z</time>
      </trkpt>
      <trkpt lat="45.16806" lon="5.90706">
        <ele>1431</ele>
        <time>2017-02-26T06:49:48.000Z</time>
      </trkpt>
      <trkpt lat="45.16796" lon="5.90691">
        <ele>1431</ele>
        <time>2017-02-26T06:49:56.000Z</time>
      </trkpt>
      <trkpt lat="45.16796" lon="5.90691">
        <ele>1432</ele>
        <time>2017-02-26T06:49:58.000Z</time>
      </trkpt>
      <trkpt lat="45.1679" lon="5.90678">
        <ele>1433</ele>
        <time>2017-02-26T06:50:08.000Z</time>
      </trkpt>
      <trkpt lat="45.16782" lon="5.9067">
        <ele>1433</ele>
        <time>2017-02-26T06:50:16.000Z</time>
      </trkpt>
      <trkpt lat="45.16782" lon="5.9067">
        <ele>1434</ele>
        <time>2017-02-26T06:50:18.000Z</time>
      </trkpt>
      <trkpt lat="45.16771" lon="5.90665">
        <ele>1434</ele>
        <time>2017-02-26T06:50:25.000Z</time>
      </trkpt>
      <trkpt lat="45.16771" lon="5.90665">
        <ele>1436</ele>
        <time>2017-02-26T06:50:28.000Z</time>
      </trkpt>
      <trkpt lat="45.16762" lon="5.90657">
        <ele>1436</ele>
        <time>2017-02-26T06:50:33.000Z</time>
      </trkpt>
      <trkpt lat="45.16762" lon="5.90657">
        <ele>1437</ele>
        <time>2017-02-26T06:50:38.000Z</time>
      </trkpt>
      <trkpt lat="45.16751" lon="5.90653">
        <ele>1437</ele>
        <time>2017-02-26T06:50:45.000Z</time>
      </trkpt>
      <trkpt lat="45.16751" lon="5.90653">
        <ele>1438</ele>
        <time>2017-02-26T06:50:48.000Z</time>
      </trkpt>
      <trkpt lat="45.16742" lon="5.9064">
        <ele>1438</ele>
        <time>2017-02-26T06:50:57.000Z</time>
      </trkpt>
      <trkpt lat="45.16742" lon="5.9064">
        <ele>1438</ele>
        <time>2017-02-26T06:50:58.000Z</time>
      </trkpt>
      <trkpt lat="45.16742" lon="5.9064">
        <ele>1439</ele>
        <time>2017-02-26T06:51:08.000Z</time>
      </trkpt>
      <trkpt lat="45.16739" lon="5.90626">
        <ele>1439</ele>
        <time>2017-02-26T06:51:13.000Z</time>
      </trkpt>
      <trkpt lat="45.16739" lon="5.90626">
        <ele>1440</ele>
        <time>2017-02-26T06:51:18.000Z</time>
      </trkpt>
      <trkpt lat="45.16725" lon="5.90618">
        <ele>1440</ele>
        <time>2017-02-26T06:51:25.000Z</time>
      </trkpt>
      <trkpt lat="45.16725" lon="5.90618">
        <ele>1441</ele>
        <time>2017-02-26T06:51:28.000Z</time>
      </trkpt>
      <trkpt lat="45.16711" lon="5.90614">
        <ele>1441</ele>
        <time>2017-02-26T06:51:33.000Z</time>
      </trkpt>
      <trkpt lat="45.16711" lon="5.90614">
        <ele>1442</ele>
        <time>2017-02-26T06:51:38.000Z</time>
      </trkpt>
      <trkpt lat="45.16697" lon="5.90614">
        <ele>1442</ele>
        <time>2017-02-26T06:51:41.000Z</time>
      </trkpt>
      <trkpt lat="45.16697" lon="5.90614">
        <ele>1444</ele>
        <time>2017-02-26T06:51:48.000Z</time>
      </trkpt>
      <trkpt lat="45.16687" lon="5.90609">
        <ele>1444</ele>
        <time>2017-02-26T06:51:53.000Z</time>
      </trkpt>
      <trkpt lat="45.16687" lon="5.90609">
        <ele>1446</ele>
        <time>2017-02-26T06:51:58.000Z</time>
      </trkpt>
      <trkpt lat="45.16676" lon="5.90601">
        <ele>1446</ele>
        <time>2017-02-26T06:52:02.000Z</time>
      </trkpt>
      <trkpt lat="45.16676" lon="5.90601">
        <ele>1447</ele>
        <time>2017-02-26T06:52:08.000Z</time>
      </trkpt>
      <trkpt lat="45.16664" lon="5.90594">
        <ele>1447</ele>
        <time>2017-02-26T06:52:12.000Z</time>
      </trkpt>
      <trkpt lat="45.16656" lon="5.90599">
        <ele>1448</ele>
        <time>2017-02-26T06:52:18.000Z</time>
      </trkpt>
      <trkpt lat="45.16648" lon="5.90604">
        <ele>1448</ele>
        <time>2017-02-26T06:52:20.000Z</time>
      </trkpt>
      <trkpt lat="45.16648" lon="5.90604">
        <ele>1449</ele>
        <time>2017-02-26T06:52:28.000Z</time>
      </trkpt>
      <trkpt lat="45.16636" lon="5.90606">
        <ele>1449</ele>
        <time>2017-02-26T06:52:32.000Z</time>
      </trkpt>
      <trkpt lat="45.16636" lon="5.90606">
        <ele>1451</ele>
        <time>2017-02-26T06:52:38.000Z</time>
      </trkpt>
      <trkpt lat="45.16612" lon="5.90595">
        <ele>1451</ele>
        <time>2017-02-26T06:52:45.000Z</time>
      </trkpt>
      <trkpt lat="45.16612" lon="5.90595">
        <ele>1451</ele>
        <time>2017-02-26T06:52:48.000Z</time>
      </trkpt>
      <trkpt lat="45.16612" lon="5.90595">
        <ele>1452</ele>
        <time>2017-02-26T06:52:58.000Z</time>
      </trkpt>
      <trkpt lat="45.16602" lon="5.9059">
        <ele>1452</ele>
        <time>2017-02-26T06:53:01.000Z</time>
      </trkpt>
      <trkpt lat="45.166" lon="5.90587">
        <ele>1453</ele>
        <time>2017-02-26T06:53:08.000Z</time>
      </trkpt>
      <trkpt lat="45.16597" lon="5.90583">
        <ele>1454</ele>
        <time>2017-02-26T06:53:18.000Z</time>
      </trkpt>
      <trkpt lat="45.16594" lon="5.9058">
        <ele>1454</ele>
        <time>2017-02-26T06:53:28.000Z</time>
      </trkpt>
      <trkpt lat="45.16591" lon="5.90576">
        <ele>1454</ele>
        <time>2017-02-26T06:53:29.000Z</time>
      </trkpt>
      <trkpt lat="45.16576" lon="5.90578">
        <ele>1454</ele>
        <time>2017-02-26T06:53:37.000Z</time>
      </trkpt>
      <trkpt lat="45.16575" lon="5.90577">
        <ele>1454</ele>
        <time>2017-02-26T06:53:38.000Z</time>
      </trkpt>
      <trkpt lat="45.16567" lon="5.90571">
        <ele>1454</ele>
        <time>2017-02-26T06:53:43.000Z</time>
      </trkpt>
      <trkpt lat="45.16567" lon="5.90571">
        <ele>1456</ele>
        <time>2017-02-26T06:53:48.000Z</time>
      </trkpt>
      <trkpt lat="45.16555" lon="5.90569">
        <ele>1456</ele>
        <time>2017-02-26T06:53:51.000Z</time>
      </trkpt>
      <trkpt lat="45.16555" lon="5.90569">
        <ele>1457</ele>
        <time>2017-02-26T06:53:58.000Z</time>
      </trkpt>
      <trkpt lat="45.16548" lon="5.90553">
        <ele>1459</ele>
        <time>2017-02-26T06:54:08.000Z</time>
      </trkpt>
      <trkpt lat="45.16537" lon="5.90547">
        <ele>1459</ele>
        <time>2017-02-26T06:54:16.000Z</time>
      </trkpt>
      <trkpt lat="45.16537" lon="5.90547">
        <ele>1460</ele>
        <time>2017-02-26T06:54:18.000Z</time>
      </trkpt>
      <trkpt lat="45.16528" lon="5.90541">
        <ele>1460</ele>
        <time>2017-02-26T06:54:24.000Z</time>
      </trkpt>
      <trkpt lat="45.16528" lon="5.90541">
        <ele>1461</ele>
        <time>2017-02-26T06:54:28.000Z</time>
      </trkpt>
      <trkpt lat="45.16517" lon="5.90531">
        <ele>1461</ele>
        <time>2017-02-26T06:54:36.000Z</time>
      </trkpt>
      <trkpt lat="45.16517" lon="5.90531">
        <ele>1462</ele>
        <time>2017-02-26T06:54:38.000Z</time>
      </trkpt>
      <trkpt lat="45.16506" lon="5.90524">
        <ele>1462</ele>
        <time>2017-02-26T06:54:44.000Z</time>
      </trkpt>
      <trkpt lat="45.16502" lon="5.90519">
        <ele>1463</ele>
        <time>2017-02-26T06:54:48.000Z</time>
      </trkpt>
      <trkpt lat="45.16497" lon="5.90513">
        <ele>1463</ele>
        <time>2017-02-26T06:54:56.000Z</time>
      </trkpt>
      <trkpt lat="45.16493" lon="5.90508">
        <ele>1465</ele>
        <time>2017-02-26T06:54:58.000Z</time>
      </trkpt>
      <trkpt lat="45.16489" lon="5.90502">
        <ele>1465</ele>
        <time>2017-02-26T06:55:08.000Z</time>
      </trkpt>
      <trkpt lat="45.16485" lon="5.90497">
        <ele>1467</ele>
        <time>2017-02-26T06:55:18.000Z</time>
      </trkpt>
      <trkpt lat="45.1648" lon="5.90492">
        <ele>1467</ele>
        <time>2017-02-26T06:55:19.000Z</time>
      </trkpt>
      <trkpt lat="45.16465" lon="5.90498">
        <ele>1467</ele>
        <time>2017-02-26T06:55:27.000Z</time>
      </trkpt>
      <trkpt lat="45.16461" lon="5.90497">
        <ele>1468</ele>
        <time>2017-02-26T06:55:28.000Z</time>
      </trkpt>
      <trkpt lat="45.16457" lon="5.90496">
        <ele>1469</ele>
        <time>2017-02-26T06:55:38.000Z</time>
      </trkpt>
      <trkpt lat="45.16454" lon="5.90494">
        <ele>1469</ele>
        <time>2017-02-26T06:55:39.000Z</time>
      </trkpt>
      <trkpt lat="45.16454" lon="5.90494">
        <ele>1470</ele>
        <time>2017-02-26T06:55:48.000Z</time>
      </trkpt>
      <trkpt lat="45.16441" lon="5.90494">
        <ele>1470</ele>
        <time>2017-02-26T06:55:53.000Z</time>
      </trkpt>
      <trkpt lat="45.16441" lon="5.90494">
        <ele>1470</ele>
        <time>2017-02-26T06:55:58.000Z</time>
      </trkpt>
      <trkpt lat="45.16431" lon="5.9049">
        <ele>1470</ele>
        <time>2017-02-26T06:56:03.000Z</time>
      </trkpt>
      <trkpt lat="45.16426" lon="5.90492">
        <ele>1472</ele>
        <time>2017-02-26T06:56:08.000Z</time>
      </trkpt>
      <trkpt lat="45.16421" lon="5.90495">
        <ele>1472</ele>
        <time>2017-02-26T06:56:17.000Z</time>
      </trkpt>
      <trkpt lat="45.16415" lon="5.90497">
        <ele>1473</ele>
        <time>2017-02-26T06:56:18.000Z</time>
      </trkpt>
      <trkpt lat="45.1641" lon="5.905">
        <ele>1474</ele>
        <time>2017-02-26T06:56:28.000Z</time>
      </trkpt>
      <trkpt lat="45.16405" lon="5.90502">
        <ele>1474</ele>
        <time>2017-02-26T06:56:29.000Z</time>
      </trkpt>
      <trkpt lat="45.16398" lon="5.90505">
        <ele>1474</ele>
        <time>2017-02-26T06:56:38.000Z</time>
      </trkpt>
      <trkpt lat="45.16391" lon="5.90508">
        <ele>1474</ele>
        <time>2017-02-26T06:56:39.000Z</time>
      </trkpt>
      <trkpt lat="45.16391" lon="5.90508">
        <ele>1476</ele>
        <time>2017-02-26T06:56:48.000Z</time>
      </trkpt>
      <trkpt lat="45.16378" lon="5.90514">
        <ele>1476</ele>
        <time>2017-02-26T06:56:55.000Z</time>
      </trkpt>
      <trkpt lat="45.16378" lon="5.90514">
        <ele>1477</ele>
        <time>2017-02-26T06:56:58.000Z</time>
      </trkpt>
      <trkpt lat="45.16364" lon="5.90512">
        <ele>1477</ele>
        <time>2017-02-26T06:57:03.000Z</time>
      </trkpt>
      <trkpt lat="45.16364" lon="5.90512">
        <ele>1479</ele>
        <time>2017-02-26T06:57:08.000Z</time>
      </trkpt>
      <trkpt lat="45.16357" lon="5.90521">
        <ele>1479</ele>
        <time>2017-02-26T06:57:13.000Z</time>
      </trkpt>
      <trkpt lat="45.16357" lon="5.90521">
        <ele>1480</ele>
        <time>2017-02-26T06:57:18.000Z</time>
      </trkpt>
      <trkpt lat="45.16348" lon="5.90539">
        <ele>1480</ele>
        <time>2017-02-26T06:57:24.000Z</time>
      </trkpt>
      <trkpt lat="45.16348" lon="5.90539">
        <ele>1481</ele>
        <time>2017-02-26T06:57:28.000Z</time>
      </trkpt>
      <trkpt lat="45.16341" lon="5.90556">
        <ele>1481</ele>
        <time>2017-02-26T06:57:36.000Z</time>
      </trkpt>
      <trkpt lat="45.16341" lon="5.90556">
        <ele>1482</ele>
        <time>2017-02-26T06:57:38.000Z</time>
      </trkpt>
      <trkpt lat="45.16338" lon="5.90571">
        <ele>1484</ele>
        <time>2017-02-26T06:57:48.000Z</time>
      </trkpt>
      <trkpt lat="45.16337" lon="5.90591">
        <ele>1484</ele>
        <time>2017-02-26T06:57:56.000Z</time>
      </trkpt>
      <trkpt lat="45.16337" lon="5.90591">
        <ele>1485</ele>
        <time>2017-02-26T06:57:58.000Z</time>
      </trkpt>
      <trkpt lat="45.16342" lon="5.90605">
        <ele>1485</ele>
        <time>2017-02-26T06:58:04.000Z</time>
      </trkpt>
      <trkpt lat="45.16342" lon="5.90605">
        <ele>1485</ele>
        <time>2017-02-26T06:58:08.000Z</time>
      </trkpt>
      <trkpt lat="45.16332" lon="5.90615">
        <ele>1485</ele>
        <time>2017-02-26T06:58:12.000Z</time>
      </trkpt>
      <trkpt lat="45.16332" lon="5.90615">
        <ele>1486</ele>
        <time>2017-02-26T06:58:18.000Z</time>
      </trkpt>
      <trkpt lat="45.16327" lon="5.9063">
        <ele>1486</ele>
        <time>2017-02-26T06:58:23.000Z</time>
      </trkpt>
      <trkpt lat="45.16327" lon="5.9063">
        <ele>1487</ele>
        <time>2017-02-26T06:58:28.000Z</time>
      </trkpt>
      <trkpt lat="45.1632" lon="5.90642">
        <ele>1487</ele>
        <time>2017-02-26T06:58:31.000Z</time>
      </trkpt>
      <trkpt lat="45.1632" lon="5.90642">
        <ele>1488</ele>
        <time>2017-02-26T06:58:38.000Z</time>
      </trkpt>
      <trkpt lat="45.1632" lon="5.90642">
        <ele>1489</ele>
        <time>2017-02-26T06:58:48.000Z</time>
      </trkpt>
      <trkpt lat="45.1632" lon="5.90642">
        <ele>1490</ele>
        <time>2017-02-26T06:58:58.000Z</time>
      </trkpt>
      <trkpt lat="45.16321" lon="5.90656">
        <ele>1490</ele>
        <time>2017-02-26T06:59:03.000Z</time>
      </trkpt>
      <trkpt lat="45.16321" lon="5.90656">
        <ele>1490</ele>
        <time>2017-02-26T06:59:08.000Z</time>
      </trkpt>
      <trkpt lat="45.16321" lon="5.90656">
        <ele>1490</ele>
        <time>2017-02-26T06:59:18.000Z</time>
      </trkpt>
      <trkpt lat="45.16321" lon="5.90656">
        <ele>1488</ele>
        <time>2017-02-26T06:59:28.000Z</time>
      </trkpt>
      <trkpt lat="45.16321" lon="5.90656">
        <ele>1488</ele>
        <time>2017-02-26T06:59:38.000Z</time>
      </trkpt>
      <trkpt lat="45.16321" lon="5.90656">
        <ele>1488</ele>
        <time>2017-02-26T06:59:48.000Z</time>
      </trkpt>
      <trkpt lat="45.16321" lon="5.90656">
        <ele>1490</ele>
        <time>2017-02-26T06:59:58.000Z</time>
      </trkpt>
      <trkpt lat="45.1632" lon="5.90641">
        <ele>1490</ele>
        <time>2017-02-26T07:00:08.000Z</time>
      </trkpt>
      <trkpt lat="45.1632" lon="5.90641">
        <ele>1489</ele>
        <time>2017-02-26T07:00:18.000Z</time>
      </trkpt>
      <trkpt lat="45.1632" lon="5.90641">
        <ele>1490</ele>
        <time>2017-02-26T07:00:28.000Z</time>
      </trkpt>
      <trkpt lat="45.1633" lon="5.90636">
        <ele>1490</ele>
        <time>2017-02-26T07:00:36.000Z</time>
      </trkpt>
      <trkpt lat="45.1633" lon="5.90636">
        <ele>1492</ele>
        <time>2017-02-26T07:00:38.000Z</time>
      </trkpt>
      <trkpt lat="45.16337" lon="5.90624">
        <ele>1492</ele>
        <time>2017-02-26T07:00:44.000Z</time>
      </trkpt>
      <trkpt lat="45.16337" lon="5.90624">
        <ele>1494</ele>
        <time>2017-02-26T07:00:48.000Z</time>
      </trkpt>
      <trkpt lat="45.16345" lon="5.90613">
        <ele>1494</ele>
        <time>2017-02-26T07:00:55.000Z</time>
      </trkpt>
      <trkpt lat="45.16345" lon="5.90613">
        <ele>1496</ele>
        <time>2017-02-26T07:00:58.000Z</time>
      </trkpt>
      <trkpt lat="45.16351" lon="5.906">
        <ele>1496</ele>
        <time>2017-02-26T07:01:03.000Z</time>
      </trkpt>
      <trkpt lat="45.16351" lon="5.906">
        <ele>1498</ele>
        <time>2017-02-26T07:01:08.000Z</time>
      </trkpt>
      <trkpt lat="45.1636" lon="5.90591">
        <ele>1498</ele>
        <time>2017-02-26T07:01:11.000Z</time>
      </trkpt>
      <trkpt lat="45.1636" lon="5.90591">
        <ele>1499</ele>
        <time>2017-02-26T07:01:18.000Z</time>
      </trkpt>
      <trkpt lat="45.16367" lon="5.90574">
        <ele>1499</ele>
        <time>2017-02-26T07:01:23.000Z</time>
      </trkpt>
      <trkpt lat="45.16367" lon="5.90574">
        <ele>1501</ele>
        <time>2017-02-26T07:01:28.000Z</time>
      </trkpt>
      <trkpt lat="45.16378" lon="5.90564">
        <ele>1501</ele>
        <time>2017-02-26T07:01:37.000Z</time>
      </trkpt>
      <trkpt lat="45.1638" lon="5.90564">
        <ele>1503</ele>
        <time>2017-02-26T07:01:38.000Z</time>
      </trkpt>
      <trkpt lat="45.16392" lon="5.90563">
        <ele>1503</ele>
        <time>2017-02-26T07:01:45.000Z</time>
      </trkpt>
      <trkpt lat="45.16392" lon="5.90563">
        <ele>1505</ele>
        <time>2017-02-26T07:01:48.000Z</time>
      </trkpt>
      <trkpt lat="45.16408" lon="5.90559">
        <ele>1505</ele>
        <time>2017-02-26T07:01:57.000Z</time>
      </trkpt>
      <trkpt lat="45.1641" lon="5.9056">
        <ele>1507</ele>
        <time>2017-02-26T07:01:58.000Z</time>
      </trkpt>
      <trkpt lat="45.16421" lon="5.9057">
        <ele>1507</ele>
        <time>2017-02-26T07:02:05.000Z</time>
      </trkpt>
      <trkpt lat="45.16421" lon="5.9057">
        <ele>1511</ele>
        <time>2017-02-26T07:02:08.000Z</time>
      </trkpt>
      <trkpt lat="45.16421" lon="5.9057">
        <ele>1512</ele>
        <time>2017-02-26T07:02:18.000Z</time>
      </trkpt>
      <trkpt lat="45.16431" lon="5.90576">
        <ele>1512</ele>
        <time>2017-02-26T07:02:21.000Z</time>
      </trkpt>
      <trkpt lat="45.16431" lon="5.90576">
        <ele>1513</ele>
        <time>2017-02-26T07:02:28.000Z</time>
      </trkpt>
      <trkpt lat="45.16436" lon="5.9059">
        <ele>1515</ele>
        <time>2017-02-26T07:02:38.000Z</time>
      </trkpt>
      <trkpt lat="45.16436" lon="5.9059">
        <ele>1517</ele>
        <time>2017-02-26T07:02:48.000Z</time>
      </trkpt>
      <trkpt lat="45.16445" lon="5.90604">
        <ele>1517</ele>
        <time>2017-02-26T07:02:50.000Z</time>
      </trkpt>
      <trkpt lat="45.16456" lon="5.90623">
        <ele>1518</ele>
        <time>2017-02-26T07:02:58.000Z</time>
      </trkpt>
      <trkpt lat="45.16458" lon="5.90629">
        <ele>1521</ele>
        <time>2017-02-26T07:03:08.000Z</time>
      </trkpt>
      <trkpt lat="45.16461" lon="5.90635">
        <ele>1521</ele>
        <time>2017-02-26T07:03:10.000Z</time>
      </trkpt>
      <trkpt lat="45.16464" lon="5.9064">
        <ele>1521</ele>
        <time>2017-02-26T07:03:18.000Z</time>
      </trkpt>
      <trkpt lat="45.16467" lon="5.90645">
        <ele>1521</ele>
        <time>2017-02-26T07:03:25.000Z</time>
      </trkpt>
      <trkpt lat="45.16469" lon="5.9065">
        <ele>1523</ele>
        <time>2017-02-26T07:03:28.000Z</time>
      </trkpt>
      <trkpt lat="45.16472" lon="5.90654">
        <ele>1524</ele>
        <time>2017-02-26T07:03:38.000Z</time>
      </trkpt>
      <trkpt lat="45.16475" lon="5.90659">
        <ele>1524</ele>
        <time>2017-02-26T07:03:39.000Z</time>
      </trkpt>
      <trkpt lat="45.16475" lon="5.90659">
        <ele>1526</ele>
        <time>2017-02-26T07:03:48.000Z</time>
      </trkpt>
      <trkpt lat="45.16486" lon="5.90677">
        <ele>1526</ele>
        <time>2017-02-26T07:03:55.000Z</time>
      </trkpt>
      <trkpt lat="45.16486" lon="5.90677">
        <ele>1527</ele>
        <time>2017-02-26T07:03:58.000Z</time>
      </trkpt>
      <trkpt lat="45.16502" lon="5.90702">
        <ele>1527</ele>
        <time>2017-02-26T07:04:07.000Z</time>
      </trkpt>
      <trkpt lat="45.16502" lon="5.90702">
        <ele>1529</ele>
        <time>2017-02-26T07:04:08.000Z</time>
      </trkpt>
      <trkpt lat="45.16502" lon="5.90702">
        <ele>1533</ele>
        <time>2017-02-26T07:04:18.000Z</time>
      </trkpt>
      <trkpt lat="45.16502" lon="5.90702">
        <ele>1534</ele>
        <time>2017-02-26T07:04:28.000Z</time>
      </trkpt>
      <trkpt lat="45.16502" lon="5.90702">
        <ele>1536</ele>
        <time>2017-02-26T07:04:38.000Z</time>
      </trkpt>
      <trkpt lat="45.16496" lon="5.90715">
        <ele>1536</ele>
        <time>2017-02-26T07:04:43.000Z</time>
      </trkpt>
      <trkpt lat="45.1649" lon="5.90715">
        <ele>1537</ele>
        <time>2017-02-26T07:04:48.000Z</time>
      </trkpt>
      <trkpt lat="45.16484" lon="5.90715">
        <ele>1537</ele>
        <time>2017-02-26T07:04:49.000Z</time>
      </trkpt>
      <trkpt lat="45.16484" lon="5.90715">
        <ele>1539</ele>
        <time>2017-02-26T07:04:58.000Z</time>
      </trkpt>
      <trkpt lat="45.16472" lon="5.90709">
        <ele>1539</ele>
        <time>2017-02-26T07:05:05.000Z</time>
      </trkpt>
      <trkpt lat="45.16472" lon="5.90709">
        <ele>1541</ele>
        <time>2017-02-26T07:05:08.000Z</time>
      </trkpt>
      <trkpt lat="45.16461" lon="5.907">
        <ele>1542</ele>
        <time>2017-02-26T07:05:18.000Z</time>
      </trkpt>
      <trkpt lat="45.16449" lon="5.90696">
        <ele>1542</ele>
        <time>2017-02-26T07:05:26.000Z</time>
      </trkpt>
      <trkpt lat="45.16449" lon="5.90696">
        <ele>1544</ele>
        <time>2017-02-26T07:05:28.000Z</time>
      </trkpt>
      <trkpt lat="45.16449" lon="5.90696">
        <ele>1546</ele>
        <time>2017-02-26T07:05:38.000Z</time>
      </trkpt>
      <trkpt lat="45.16438" lon="5.90688">
        <ele>1546</ele>
        <time>2017-02-26T07:05:46.000Z</time>
      </trkpt>
      <trkpt lat="45.16438" lon="5.90688">
        <ele>1547</ele>
        <time>2017-02-26T07:05:48.000Z</time>
      </trkpt>
      <trkpt lat="45.16427" lon="5.90681">
        <ele>1547</ele>
        <time>2017-02-26T07:05:54.000Z</time>
      </trkpt>
      <trkpt lat="45.16427" lon="5.90681">
        <ele>1549</ele>
        <time>2017-02-26T07:05:58.000Z</time>
      </trkpt>
      <trkpt lat="45.16427" lon="5.90681">
        <ele>1551</ele>
        <time>2017-02-26T07:06:08.000Z</time>
      </trkpt>
      <trkpt lat="45.16412" lon="5.90681">
        <ele>1551</ele>
        <time>2017-02-26T07:06:14.000Z</time>
      </trkpt>
      <trkpt lat="45.16412" lon="5.90681">
        <ele>1553</ele>
        <time>2017-02-26T07:06:18.000Z</time>
      </trkpt>
      <trkpt lat="45.16403" lon="5.9069">
        <ele>1553</ele>
        <time>2017-02-26T07:06:25.000Z</time>
      </trkpt>
      <trkpt lat="45.16403" lon="5.9069">
        <ele>1553</ele>
        <time>2017-02-26T07:06:28.000Z</time>
      </trkpt>
      <trkpt lat="45.16409" lon="5.90704">
        <ele>1553</ele>
        <time>2017-02-26T07:06:37.000Z</time>
      </trkpt>
      <trkpt lat="45.16409" lon="5.90704">
        <ele>1555</ele>
        <time>2017-02-26T07:06:38.000Z</time>
      </trkpt>
      <trkpt lat="45.16409" lon="5.90704">
        <ele>1557</ele>
        <time>2017-02-26T07:06:48.000Z</time>
      </trkpt>
      <trkpt lat="45.16419" lon="5.907">
        <ele>1557</ele>
        <time>2017-02-26T07:06:57.000Z</time>
      </trkpt>
      <trkpt lat="45.16419" lon="5.907">
        <ele>1559</ele>
        <time>2017-02-26T07:06:58.000Z</time>
      </trkpt>
      <trkpt lat="45.16432" lon="5.90711">
        <ele>1559</ele>
        <time>2017-02-26T07:07:05.000Z</time>
      </trkpt>
      <trkpt lat="45.16434" lon="5.90716">
        <ele>1562</ele>
        <time>2017-02-26T07:07:08.000Z</time>
      </trkpt>
      <trkpt lat="45.16436" lon="5.9072">
        <ele>1562</ele>
        <time>2017-02-26T07:07:17.000Z</time>
      </trkpt>
      <trkpt lat="45.16438" lon="5.90725">
        <ele>1562</ele>
        <time>2017-02-26T07:07:18.000Z</time>
      </trkpt>
      <trkpt lat="45.16441" lon="5.9073">
        <ele>1563</ele>
        <time>2017-02-26T07:07:28.000Z</time>
      </trkpt>
      <trkpt lat="45.16443" lon="5.90735">
        <ele>1563</ele>
        <time>2017-02-26T07:07:29.000Z</time>
      </trkpt>
      <trkpt lat="45.16451" lon="5.90743">
        <ele>1563</ele>
        <time>2017-02-26T07:07:37.000Z</time>
      </trkpt>
      <trkpt lat="45.16452" lon="5.90745">
        <ele>1565</ele>
        <time>2017-02-26T07:07:38.000Z</time>
      </trkpt>
      <trkpt lat="45.16459" lon="5.90754">
        <ele>1565</ele>
        <time>2017-02-26T07:07:45.000Z</time>
      </trkpt>
      <trkpt lat="45.16459" lon="5.90754">
        <ele>1568</ele>
        <time>2017-02-26T07:07:48.000Z</time>
      </trkpt>
      <trkpt lat="45.16459" lon="5.90754">
        <ele>1568</ele>
        <time>2017-02-26T07:07:58.000Z</time>
      </trkpt>
      <trkpt lat="45.16453" lon="5.90768">
        <ele>1568</ele>
        <time>2017-02-26T07:08:02.000Z</time>
      </trkpt>
      <trkpt lat="45.16438" lon="5.90763">
        <ele>1570</ele>
        <time>2017-02-26T07:08:08.000Z</time>
      </trkpt>
      <trkpt lat="45.16434" lon="5.90762">
        <ele>1570</ele>
        <time>2017-02-26T07:08:16.000Z</time>
      </trkpt>
      <trkpt lat="45.1643" lon="5.9076">
        <ele>1571</ele>
        <time>2017-02-26T07:08:18.000Z</time>
      </trkpt>
      <trkpt lat="45.16425" lon="5.90759">
        <ele>1575</ele>
        <time>2017-02-26T07:08:28.000Z</time>
      </trkpt>
      <trkpt lat="45.16421" lon="5.90758">
        <ele>1575</ele>
        <time>2017-02-26T07:08:29.000Z</time>
      </trkpt>
      <trkpt lat="45.16421" lon="5.90758">
        <ele>1576</ele>
        <time>2017-02-26T07:08:38.000Z</time>
      </trkpt>
      <trkpt lat="45.16421" lon="5.90758">
        <ele>1577</ele>
        <time>2017-02-26T07:08:48.000Z</time>
      </trkpt>
      <trkpt lat="45.16421" lon="5.90773">
        <ele>1577</ele>
        <time>2017-02-26T07:08:53.000Z</time>
      </trkpt>
      <trkpt lat="45.16425" lon="5.90775">
        <ele>1579</ele>
        <time>2017-02-26T07:08:58.000Z</time>
      </trkpt>
      <trkpt lat="45.16428" lon="5.90778">
        <ele>1583</ele>
        <time>2017-02-26T07:09:08.000Z</time>
      </trkpt>
      <trkpt lat="45.16431" lon="5.90781">
        <ele>1583</ele>
        <time>2017-02-26T07:09:09.000Z</time>
      </trkpt>
      <trkpt lat="45.16436" lon="5.90793">
        <ele>1583</ele>
        <time>2017-02-26T07:09:17.000Z</time>
      </trkpt>
      <trkpt lat="45.16436" lon="5.90793">
        <ele>1584</ele>
        <time>2017-02-26T07:09:18.000Z</time>
      </trkpt>
      <trkpt lat="45.16436" lon="5.90793">
        <ele>1585</ele>
        <time>2017-02-26T07:09:28.000Z</time>
      </trkpt>
      <trkpt lat="45.16444" lon="5.90807">
        <ele>1585</ele>
        <time>2017-02-26T07:09:33.000Z</time>
      </trkpt>
      <trkpt lat="45.16444" lon="5.90807">
        <ele>1586</ele>
        <time>2017-02-26T07:09:38.000Z</time>
      </trkpt>
      <trkpt lat="45.16451" lon="5.90818">
        <ele>1586</ele>
        <time>2017-02-26T07:09:41.000Z</time>
      </trkpt>
      <trkpt lat="45.16451" lon="5.90818">
        <ele>1588</ele>
        <time>2017-02-26T07:09:48.000Z</time>
      </trkpt>
      <trkpt lat="45.16458" lon="5.90828">
        <ele>1588</ele>
        <time>2017-02-26T07:09:53.000Z</time>
      </trkpt>
      <trkpt lat="45.16458" lon="5.90828">
        <ele>1590</ele>
        <time>2017-02-26T07:09:58.000Z</time>
      </trkpt>
      <trkpt lat="45.16458" lon="5.90828">
        <ele>1592</ele>
        <time>2017-02-26T07:10:08.000Z</time>
      </trkpt>
      <trkpt lat="45.16449" lon="5.90836">
        <ele>1592</ele>
        <time>2017-02-26T07:10:13.000Z</time>
      </trkpt>
      <trkpt lat="45.16446" lon="5.90834">
        <ele>1594</ele>
        <time>2017-02-26T07:10:18.000Z</time>
      </trkpt>
      <trkpt lat="45.16443" lon="5.90831">
        <ele>1595</ele>
        <time>2017-02-26T07:10:28.000Z</time>
      </trkpt>
      <trkpt lat="45.1644" lon="5.90829">
        <ele>1595</ele>
        <time>2017-02-26T07:10:29.000Z</time>
      </trkpt>
      <trkpt lat="45.16436" lon="5.90833">
        <ele>1595</ele>
        <time>2017-02-26T07:10:38.000Z</time>
      </trkpt>
      <trkpt lat="45.16432" lon="5.90836">
        <ele>1595</ele>
        <time>2017-02-26T07:10:45.000Z</time>
      </trkpt>
      <trkpt lat="45.16428" lon="5.9084">
        <ele>1597</ele>
        <time>2017-02-26T07:10:48.000Z</time>
      </trkpt>
      <trkpt lat="45.16425" lon="5.90844">
        <ele>1597</ele>
        <time>2017-02-26T07:10:57.000Z</time>
      </trkpt>
      <trkpt lat="45.16421" lon="5.90847">
        <ele>1599</ele>
        <time>2017-02-26T07:10:58.000Z</time>
      </trkpt>
      <trkpt lat="45.16417" lon="5.90851">
        <ele>1600</ele>
        <time>2017-02-26T07:11:08.000Z</time>
      </trkpt>
      <trkpt lat="45.16413" lon="5.90854">
        <ele>1600</ele>
        <time>2017-02-26T07:11:09.000Z</time>
      </trkpt>
      <trkpt lat="45.16413" lon="5.90854">
        <ele>1602</ele>
        <time>2017-02-26T07:11:18.000Z</time>
      </trkpt>
      <trkpt lat="45.16425" lon="5.90855">
        <ele>1602</ele>
        <time>2017-02-26T07:11:25.000Z</time>
      </trkpt>
      <trkpt lat="45.16425" lon="5.90855">
        <ele>1606</ele>
        <time>2017-02-26T07:11:28.000Z</time>
      </trkpt>
      <trkpt lat="45.16425" lon="5.90855">
        <ele>1606</ele>
        <time>2017-02-26T07:11:38.000Z</time>
      </trkpt>
      <trkpt lat="45.16436" lon="5.90867">
        <ele>1606</ele>
        <time>2017-02-26T07:11:41.000Z</time>
      </trkpt>
      <trkpt lat="45.16437" lon="5.90872">
        <ele>1608</ele>
        <time>2017-02-26T07:11:48.000Z</time>
      </trkpt>
      <trkpt lat="45.16438" lon="5.90876">
        <ele>1608</ele>
        <time>2017-02-26T07:11:53.000Z</time>
      </trkpt>
      <trkpt lat="45.16439" lon="5.90881">
        <ele>1608</ele>
        <time>2017-02-26T07:11:58.000Z</time>
      </trkpt>
      <trkpt lat="45.1644" lon="5.90885">
        <ele>1608</ele>
        <time>2017-02-26T07:12:05.000Z</time>
      </trkpt>
      <trkpt lat="45.16441" lon="5.9089">
        <ele>1610</ele>
        <time>2017-02-26T07:12:08.000Z</time>
      </trkpt>
      <trkpt lat="45.16442" lon="5.90894">
        <ele>1610</ele>
        <time>2017-02-26T07:12:17.000Z</time>
      </trkpt>
      <trkpt lat="45.16443" lon="5.90898">
        <ele>1612</ele>
        <time>2017-02-26T07:12:18.000Z</time>
      </trkpt>
      <trkpt lat="45.16445" lon="5.90903">
        <ele>1614</ele>
        <time>2017-02-26T07:12:28.000Z</time>
      </trkpt>
      <trkpt lat="45.16446" lon="5.90907">
        <ele>1614</ele>
        <time>2017-02-26T07:12:29.000Z</time>
      </trkpt>
      <trkpt lat="45.16446" lon="5.90907">
        <ele>1616</ele>
        <time>2017-02-26T07:12:38.000Z</time>
      </trkpt>
      <trkpt lat="45.16446" lon="5.90907">
        <ele>1618</ele>
        <time>2017-02-26T07:12:48.000Z</time>
      </trkpt>
      <trkpt lat="45.16434" lon="5.9091">
        <ele>1618</ele>
        <time>2017-02-26T07:12:57.000Z</time>
      </trkpt>
      <trkpt lat="45.16434" lon="5.9091">
        <ele>1620</ele>
        <time>2017-02-26T07:12:58.000Z</time>
      </trkpt>
      <trkpt lat="45.16434" lon="5.9091">
        <ele>1621</ele>
        <time>2017-02-26T07:13:08.000Z</time>
      </trkpt>
      <trkpt lat="45.16421" lon="5.90914">
        <ele>1621</ele>
        <time>2017-02-26T07:13:13.000Z</time>
      </trkpt>
      <trkpt lat="45.16417" lon="5.90916">
        <ele>1623</ele>
        <time>2017-02-26T07:13:18.000Z</time>
      </trkpt>
      <trkpt lat="45.16413" lon="5.90917">
        <ele>1623</ele>
        <time>2017-02-26T07:13:25.000Z</time>
      </trkpt>
      <trkpt lat="45.16409" lon="5.90919">
        <ele>1625</ele>
        <time>2017-02-26T07:13:28.000Z</time>
      </trkpt>
      <trkpt lat="45.16405" lon="5.90921">
        <ele>1627</ele>
        <time>2017-02-26T07:13:38.000Z</time>
      </trkpt>
      <trkpt lat="45.16401" lon="5.90922">
        <ele>1627</ele>
        <time>2017-02-26T07:13:39.000Z</time>
      </trkpt>
      <trkpt lat="45.16401" lon="5.90922">
        <ele>1628</ele>
        <time>2017-02-26T07:13:48.000Z</time>
      </trkpt>
      <trkpt lat="45.16401" lon="5.90922">
        <ele>1630</ele>
        <time>2017-02-26T07:13:58.000Z</time>
      </trkpt>
      <trkpt lat="45.16408" lon="5.90937">
        <ele>1630</ele>
        <time>2017-02-26T07:14:03.000Z</time>
      </trkpt>
      <trkpt lat="45.16408" lon="5.90937">
        <ele>1632</ele>
        <time>2017-02-26T07:14:08.000Z</time>
      </trkpt>
      <trkpt lat="45.16421" lon="5.90939">
        <ele>1632</ele>
        <time>2017-02-26T07:14:15.000Z</time>
      </trkpt>
      <trkpt lat="45.16419" lon="5.90943">
        <ele>1633</ele>
        <time>2017-02-26T07:14:18.000Z</time>
      </trkpt>
      <trkpt lat="45.16416" lon="5.90946">
        <ele>1635</ele>
        <time>2017-02-26T07:14:28.000Z</time>
      </trkpt>
      <trkpt lat="45.16413" lon="5.90949">
        <ele>1637</ele>
        <time>2017-02-26T07:14:38.000Z</time>
      </trkpt>
      <trkpt lat="45.1641" lon="5.90953">
        <ele>1637</ele>
        <time>2017-02-26T07:14:47.000Z</time>
      </trkpt>
      <trkpt lat="45.16407" lon="5.90956">
        <ele>1639</ele>
        <time>2017-02-26T07:14:48.000Z</time>
      </trkpt>
      <trkpt lat="45.16404" lon="5.9096">
        <ele>1640</ele>
        <time>2017-02-26T07:14:58.000Z</time>
      </trkpt>
      <trkpt lat="45.16401" lon="5.90963">
        <ele>1640</ele>
        <time>2017-02-26T07:14:59.000Z</time>
      </trkpt>
      <trkpt lat="45.16395" lon="5.90968">
        <ele>1641</ele>
        <time>2017-02-26T07:15:08.000Z</time>
      </trkpt>
      <trkpt lat="45.16388" lon="5.90973">
        <ele>1641</ele>
        <time>2017-02-26T07:15:09.000Z</time>
      </trkpt>
      <trkpt lat="45.16386" lon="5.90978">
        <ele>1643</ele>
        <time>2017-02-26T07:15:18.000Z</time>
      </trkpt>
      <trkpt lat="45.16383" lon="5.90982">
        <ele>1643</ele>
        <time>2017-02-26T07:15:25.000Z</time>
      </trkpt>
      <trkpt lat="45.16381" lon="5.90987">
        <ele>1645</ele>
        <time>2017-02-26T07:15:28.000Z</time>
      </trkpt>
      <trkpt lat="45.16378" lon="5.90992">
        <ele>1646</ele>
        <time>2017-02-26T07:15:38.000Z</time>
      </trkpt>
      <trkpt lat="45.16376" lon="5.90997">
        <ele>1648</ele>
        <time>2017-02-26T07:15:48.000Z</time>
      </trkpt>
      <trkpt lat="45.16373" lon="5.91001">
        <ele>1648</ele>
        <time>2017-02-26T07:15:49.000Z</time>
      </trkpt>
      <trkpt lat="45.16365" lon="5.91009">
        <ele>1648</ele>
        <time>2017-02-26T07:15:57.000Z</time>
      </trkpt>
      <trkpt lat="45.16363" lon="5.9101">
        <ele>1649</ele>
        <time>2017-02-26T07:15:58.000Z</time>
      </trkpt>
      <trkpt lat="45.16352" lon="5.91016">
        <ele>1649</ele>
        <time>2017-02-26T07:16:05.000Z</time>
      </trkpt>
      <trkpt lat="45.16352" lon="5.91016">
        <ele>1651</ele>
        <time>2017-02-26T07:16:08.000Z</time>
      </trkpt>
      <trkpt lat="45.16348" lon="5.9103">
        <ele>1651</ele>
        <time>2017-02-26T07:16:13.000Z</time>
      </trkpt>
      <trkpt lat="45.16345" lon="5.91033">
        <ele>1653</ele>
        <time>2017-02-26T07:16:18.000Z</time>
      </trkpt>
      <trkpt lat="45.16341" lon="5.91036">
        <ele>1654</ele>
        <time>2017-02-26T07:16:28.000Z</time>
      </trkpt>
      <trkpt lat="45.16338" lon="5.91039">
        <ele>1654</ele>
        <time>2017-02-26T07:16:29.000Z</time>
      </trkpt>
      <trkpt lat="45.16338" lon="5.91039">
        <ele>1655</ele>
        <time>2017-02-26T07:16:38.000Z</time>
      </trkpt>
      <trkpt lat="45.16338" lon="5.91039">
        <ele>1657</ele>
        <time>2017-02-26T07:16:48.000Z</time>
      </trkpt>
      <trkpt lat="45.16346" lon="5.91031">
        <ele>1657</ele>
        <time>2017-02-26T07:16:52.000Z</time>
      </trkpt>
      <trkpt lat="45.16346" lon="5.91031">
        <ele>1658</ele>
        <time>2017-02-26T07:16:58.000Z</time>
      </trkpt>
      <trkpt lat="45.16351" lon="5.91046">
        <ele>1658</ele>
        <time>2017-02-26T07:17:00.000Z</time>
      </trkpt>
      <trkpt lat="45.16351" lon="5.91046">
        <ele>1659</ele>
        <time>2017-02-26T07:17:08.000Z</time>
      </trkpt>
      <trkpt lat="45.16362" lon="5.91049">
        <ele>1659</ele>
        <time>2017-02-26T07:17:11.000Z</time>
      </trkpt>
      <trkpt lat="45.16362" lon="5.91049">
        <ele>1660</ele>
        <time>2017-02-26T07:17:18.000Z</time>
      </trkpt>
      <trkpt lat="45.16375" lon="5.91042">
        <ele>1660</ele>
        <time>2017-02-26T07:17:23.000Z</time>
      </trkpt>
      <trkpt lat="45.16375" lon="5.91045">
        <ele>1662</ele>
        <time>2017-02-26T07:17:28.000Z</time>
      </trkpt>
      <trkpt lat="45.16375" lon="5.91048">
        <ele>1663</ele>
        <time>2017-02-26T07:17:38.000Z</time>
      </trkpt>
      <trkpt lat="45.16375" lon="5.91051">
        <ele>1663</ele>
        <time>2017-02-26T07:17:47.000Z</time>
      </trkpt>
      <trkpt lat="45.16375" lon="5.91054">
        <ele>1665</ele>
        <time>2017-02-26T07:17:48.000Z</time>
      </trkpt>
      <trkpt lat="45.16375" lon="5.91056">
        <ele>1667</ele>
        <time>2017-02-26T07:17:58.000Z</time>
      </trkpt>
      <trkpt lat="45.16375" lon="5.91059">
        <ele>1668</ele>
        <time>2017-02-26T07:18:08.000Z</time>
      </trkpt>
      <trkpt lat="45.16375" lon="5.91062">
        <ele>1670</ele>
        <time>2017-02-26T07:18:18.000Z</time>
      </trkpt>
      <trkpt lat="45.16375" lon="5.91065">
        <ele>1675</ele>
        <time>2017-02-26T07:18:28.000Z</time>
      </trkpt>
      <trkpt lat="45.16376" lon="5.91068">
        <ele>1677</ele>
        <time>2017-02-26T07:18:38.000Z</time>
      </trkpt>
      <trkpt lat="45.16376" lon="5.91071">
        <ele>1678</ele>
        <time>2017-02-26T07:18:48.000Z</time>
      </trkpt>
      <trkpt lat="45.16376" lon="5.91074">
        <ele>1679</ele>
        <time>2017-02-26T07:18:58.000Z</time>
      </trkpt>
      <trkpt lat="45.16376" lon="5.91076">
        <ele>1679</ele>
        <time>2017-02-26T07:19:00.000Z</time>
      </trkpt>
      <trkpt lat="45.16386" lon="5.91081">
        <ele>1681</ele>
        <time>2017-02-26T07:19:08.000Z</time>
      </trkpt>
      <trkpt lat="45.16386" lon="5.91081">
        <ele>1683</ele>
        <time>2017-02-26T07:19:18.000Z</time>
      </trkpt>
      <trkpt lat="45.16395" lon="5.91086">
        <ele>1683</ele>
        <time>2017-02-26T07:19:28.000Z</time>
      </trkpt>
      <trkpt lat="45.16395" lon="5.91086">
        <ele>1685</ele>
        <time>2017-02-26T07:19:38.000Z</time>
      </trkpt>
      <trkpt lat="45.1639" lon="5.91099">
        <ele>1685</ele>
        <time>2017-02-26T07:19:44.000Z</time>
      </trkpt>
      <trkpt lat="45.1639" lon="5.91099">
        <ele>1686</ele>
        <time>2017-02-26T07:19:48.000Z</time>
      </trkpt>
      <trkpt lat="45.16382" lon="5.9111">
        <ele>1686</ele>
        <time>2017-02-26T07:19:53.000Z</time>
      </trkpt>
      <trkpt lat="45.16382" lon="5.9111">
        <ele>1688</ele>
        <time>2017-02-26T07:19:58.000Z</time>
      </trkpt>
      <trkpt lat="45.16373" lon="5.91118">
        <ele>1688</ele>
        <time>2017-02-26T07:20:01.000Z</time>
      </trkpt>
      <trkpt lat="45.16373" lon="5.91118">
        <ele>1689</ele>
        <time>2017-02-26T07:20:08.000Z</time>
      </trkpt>
      <trkpt lat="45.16366" lon="5.91129">
        <ele>1689</ele>
        <time>2017-02-26T07:20:13.000Z</time>
      </trkpt>
      <trkpt lat="45.16366" lon="5.91129">
        <ele>1691</ele>
        <time>2017-02-26T07:20:18.000Z</time>
      </trkpt>
      <trkpt lat="45.16359" lon="5.91144">
        <ele>1691</ele>
        <time>2017-02-26T07:20:25.000Z</time>
      </trkpt>
      <trkpt lat="45.16359" lon="5.91144">
        <ele>1693</ele>
        <time>2017-02-26T07:20:28.000Z</time>
      </trkpt>
      <trkpt lat="45.16359" lon="5.91144">
        <ele>1695</ele>
        <time>2017-02-26T07:20:38.000Z</time>
      </trkpt>
      <trkpt lat="45.16362" lon="5.9113">
        <ele>1695</ele>
        <time>2017-02-26T07:20:42.000Z</time>
      </trkpt>
      <trkpt lat="45.16362" lon="5.9113">
        <ele>1696</ele>
        <time>2017-02-26T07:20:48.000Z</time>
      </trkpt>
      <trkpt lat="45.16373" lon="5.91125">
        <ele>1696</ele>
        <time>2017-02-26T07:20:54.000Z</time>
      </trkpt>
      <trkpt lat="45.16373" lon="5.91125">
        <ele>1698</ele>
        <time>2017-02-26T07:20:58.000Z</time>
      </trkpt>
      <trkpt lat="45.16383" lon="5.91125">
        <ele>1698</ele>
        <time>2017-02-26T07:21:06.000Z</time>
      </trkpt>
      <trkpt lat="45.16383" lon="5.91125">
        <ele>1700</ele>
        <time>2017-02-26T07:21:08.000Z</time>
      </trkpt>
      <trkpt lat="45.16392" lon="5.91133">
        <ele>1700</ele>
        <time>2017-02-26T07:21:17.000Z</time>
      </trkpt>
      <trkpt lat="45.16392" lon="5.91133">
        <ele>1701</ele>
        <time>2017-02-26T07:21:18.000Z</time>
      </trkpt>
      <trkpt lat="45.16392" lon="5.91133">
        <ele>1700</ele>
        <time>2017-02-26T07:21:28.000Z</time>
      </trkpt>
      <trkpt lat="45.16392" lon="5.91133">
        <ele>1701</ele>
        <time>2017-02-26T07:21:38.000Z</time>
      </trkpt>
      <trkpt lat="45.16385" lon="5.91122">
        <ele>1701</ele>
        <time>2017-02-26T07:21:45.000Z</time>
      </trkpt>
      <trkpt lat="45.16385" lon="5.91122">
        <ele>1701</ele>
        <time>2017-02-26T07:21:48.000Z</time>
      </trkpt>
      <trkpt lat="45.16385" lon="5.91122">
        <ele>1701</ele>
        <time>2017-02-26T07:21:58.000Z</time>
      </trkpt>
      <trkpt lat="45.16385" lon="5.91122">
        <ele>1701</ele>
        <time>2017-02-26T07:22:08.000Z</time>
      </trkpt>
      <trkpt lat="45.16389" lon="5.91136">
        <ele>1701</ele>
        <time>2017-02-26T07:22:14.000Z</time>
      </trkpt>
      <trkpt lat="45.16389" lon="5.91136">
        <ele>1700</ele>
        <time>2017-02-26T07:22:18.000Z</time>
      </trkpt>
      <trkpt lat="45.16389" lon="5.91136">
        <ele>1701</ele>
        <time>2017-02-26T07:22:28.000Z</time>
      </trkpt>
      <trkpt lat="45.16389" lon="5.91136">
        <ele>1702</ele>
        <time>2017-02-26T07:22:38.000Z</time>
      </trkpt>
      <trkpt lat="45.16389" lon="5.91136">
        <ele>1702</ele>
        <time>2017-02-26T07:22:48.000Z</time>
      </trkpt>
      <trkpt lat="45.16389" lon="5.91136">
        <ele>1701</ele>
        <time>2017-02-26T07:22:58.000Z</time>
      </trkpt>
      <trkpt lat="45.16389" lon="5.91136">
        <ele>1702</ele>
        <time>2017-02-26T07:23:08.000Z</time>
      </trkpt>
      <trkpt lat="45.16399" lon="5.91132">
        <ele>1702</ele>
        <time>2017-02-26T07:23:16.000Z</time>
      </trkpt>
      <trkpt lat="45.16399" lon="5.91132">
        <ele>1704</ele>
        <time>2017-02-26T07:23:18.000Z</time>
      </trkpt>
      <trkpt lat="45.16399" lon="5.91132">
        <ele>1706</ele>
        <time>2017-02-26T07:23:28.000Z</time>
      </trkpt>
      <trkpt lat="45.16411" lon="5.91142">
        <ele>1706</ele>
        <time>2017-02-26T07:23:32.000Z</time>
      </trkpt>
      <trkpt lat="45.16411" lon="5.91142">
        <ele>1707</ele>
        <time>2017-02-26T07:23:38.000Z</time>
      </trkpt>
      <trkpt lat="45.16417" lon="5.91151">
        <ele>1707</ele>
        <time>2017-02-26T07:23:40.000Z</time>
      </trkpt>
      <trkpt lat="45.16417" lon="5.91151">
        <ele>1708</ele>
        <time>2017-02-26T07:23:48.000Z</time>
      </trkpt>
      <trkpt lat="45.16417" lon="5.91151">
        <ele>1710</ele>
        <time>2017-02-26T07:23:58.000Z</time>
      </trkpt>
      <trkpt lat="45.16421" lon="5.91167">
        <ele>1710</ele>
        <time>2017-02-26T07:24:04.000Z</time>
      </trkpt>
      <trkpt lat="45.16421" lon="5.91167">
        <ele>1712</ele>
        <time>2017-02-26T07:24:08.000Z</time>
      </trkpt>
      <trkpt lat="45.16421" lon="5.91167">
        <ele>1714</ele>
        <time>2017-02-26T07:24:18.000Z</time>
      </trkpt>
      <trkpt lat="45.1643" lon="5.91182">
        <ele>1714</ele>
        <time>2017-02-26T07:24:24.000Z</time>
      </trkpt>
      <trkpt lat="45.16428" lon="5.91186">
        <ele>1716</ele>
        <time>2017-02-26T07:24:28.000Z</time>
      </trkpt>
      <trkpt lat="45.16426" lon="5.9119">
        <ele>1716</ele>
        <time>2017-02-26T07:24:36.000Z</time>
      </trkpt>
      <trkpt lat="45.16423" lon="5.91194">
        <ele>1718</ele>
        <time>2017-02-26T07:24:38.000Z</time>
      </trkpt>
      <trkpt lat="45.16421" lon="5.91198">
        <ele>1722</ele>
        <time>2017-02-26T07:24:48.000Z</time>
      </trkpt>
      <trkpt lat="45.16419" lon="5.91202">
        <ele>1723</ele>
        <time>2017-02-26T07:24:58.000Z</time>
      </trkpt>
      <trkpt lat="45.16417" lon="5.91206">
        <ele>1723</ele>
        <time>2017-02-26T07:24:59.000Z</time>
      </trkpt>
      <trkpt lat="45.16417" lon="5.91206">
        <ele>1725</ele>
        <time>2017-02-26T07:25:08.000Z</time>
      </trkpt>
      <trkpt lat="45.16406" lon="5.91213">
        <ele>1725</ele>
        <time>2017-02-26T07:25:12.000Z</time>
      </trkpt>
      <trkpt lat="45.16406" lon="5.91213">
        <ele>1727</ele>
        <time>2017-02-26T07:25:18.000Z</time>
      </trkpt>
      <trkpt lat="45.16395" lon="5.91218">
        <ele>1729</ele>
        <time>2017-02-26T07:25:28.000Z</time>
      </trkpt>
      <trkpt lat="45.16395" lon="5.91218">
        <ele>1733</ele>
        <time>2017-02-26T07:25:38.000Z</time>
      </trkpt>
      <trkpt lat="45.16395" lon="5.91218">
        <ele>1734</ele>
        <time>2017-02-26T07:25:48.000Z</time>
      </trkpt>
      <trkpt lat="45.16398" lon="5.91234">
        <ele>1734</ele>
        <time>2017-02-26T07:25:52.000Z</time>
      </trkpt>
      <trkpt lat="45.16398" lon="5.91234">
        <ele>1737</ele>
        <time>2017-02-26T07:25:58.000Z</time>
      </trkpt>
      <trkpt lat="45.16402" lon="5.91255">
        <ele>1737</ele>
        <time>2017-02-26T07:26:04.000Z</time>
      </trkpt>
      <trkpt lat="45.16402" lon="5.91255">
        <ele>1737</ele>
        <time>2017-02-26T07:26:08.000Z</time>
      </trkpt>
      <trkpt lat="45.16402" lon="5.91255">
        <ele>1739</ele>
        <time>2017-02-26T07:26:18.000Z</time>
      </trkpt>
      <trkpt lat="45.16405" lon="5.91272">
        <ele>1739</ele>
        <time>2017-02-26T07:26:24.000Z</time>
      </trkpt>
      <trkpt lat="45.16405" lon="5.91272">
        <ele>1743</ele>
        <time>2017-02-26T07:26:28.000Z</time>
      </trkpt>
      <trkpt lat="45.16405" lon="5.91272">
        <ele>1744</ele>
        <time>2017-02-26T07:26:38.000Z</time>
      </trkpt>
      <trkpt lat="45.16405" lon="5.91272">
        <ele>1746</ele>
        <time>2017-02-26T07:26:48.000Z</time>
      </trkpt>
      <trkpt lat="45.1639" lon="5.91277">
        <ele>1746</ele>
        <time>2017-02-26T07:26:55.000Z</time>
      </trkpt>
      <trkpt lat="45.16387" lon="5.91278">
        <ele>1748</ele>
        <time>2017-02-26T07:26:58.000Z</time>
      </trkpt>
      <trkpt lat="45.16383" lon="5.91278">
        <ele>1750</ele>
        <time>2017-02-26T07:27:08.000Z</time>
      </trkpt>
      <trkpt lat="45.1638" lon="5.91279">
        <ele>1750</ele>
        <time>2017-02-26T07:27:09.000Z</time>
      </trkpt>
      <trkpt lat="45.1638" lon="5.91279">
        <ele>1752</ele>
        <time>2017-02-26T07:27:18.000Z</time>
      </trkpt>
      <trkpt lat="45.16376" lon="5.91292">
        <ele>1752</ele>
        <time>2017-02-26T07:27:21.000Z</time>
      </trkpt>
      <trkpt lat="45.16376" lon="5.91292">
        <ele>1754</ele>
        <time>2017-02-26T07:27:28.000Z</time>
      </trkpt>
      <trkpt lat="45.16367" lon="5.91304">
        <ele>1754</ele>
        <time>2017-02-26T07:27:33.000Z</time>
      </trkpt>
      <trkpt lat="45.16362" lon="5.91305">
        <ele>1756</ele>
        <time>2017-02-26T07:27:38.000Z</time>
      </trkpt>
      <trkpt lat="45.16357" lon="5.91306">
        <ele>1756</ele>
        <time>2017-02-26T07:27:45.000Z</time>
      </trkpt>
      <trkpt lat="45.16352" lon="5.91307">
        <ele>1758</ele>
        <time>2017-02-26T07:27:48.000Z</time>
      </trkpt>
      <trkpt lat="45.16346" lon="5.91308">
        <ele>1758</ele>
        <time>2017-02-26T07:27:57.000Z</time>
      </trkpt>
      <trkpt lat="45.16341" lon="5.91308">
        <ele>1758</ele>
        <time>2017-02-26T07:27:58.000Z</time>
      </trkpt>
      <trkpt lat="45.16336" lon="5.91309">
        <ele>1760</ele>
        <time>2017-02-26T07:28:08.000Z</time>
      </trkpt>
      <trkpt lat="45.16331" lon="5.9131">
        <ele>1760</ele>
        <time>2017-02-26T07:28:09.000Z</time>
      </trkpt>
      <trkpt lat="45.16327" lon="5.91313">
        <ele>1761</ele>
        <time>2017-02-26T07:28:18.000Z</time>
      </trkpt>
      <trkpt lat="45.16323" lon="5.91316">
        <ele>1762</ele>
        <time>2017-02-26T07:28:28.000Z</time>
      </trkpt>
      <trkpt lat="45.1632" lon="5.91319">
        <ele>1762</ele>
        <time>2017-02-26T07:28:29.000Z</time>
      </trkpt>
      <trkpt lat="45.1632" lon="5.91319">
        <ele>1763</ele>
        <time>2017-02-26T07:28:38.000Z</time>
      </trkpt>
      <trkpt lat="45.16306" lon="5.91328">
        <ele>1763</ele>
        <time>2017-02-26T07:28:45.000Z</time>
      </trkpt>
      <trkpt lat="45.16306" lon="5.91328">
        <ele>1765</ele>
        <time>2017-02-26T07:28:48.000Z</time>
      </trkpt>
      <trkpt lat="45.16306" lon="5.91328">
        <ele>1766</ele>
        <time>2017-02-26T07:28:58.000Z</time>
      </trkpt>
      <trkpt lat="45.16295" lon="5.91326">
        <ele>1766</ele>
        <time>2017-02-26T07:29:01.000Z</time>
      </trkpt>
      <trkpt lat="45.16295" lon="5.91326">
        <ele>1768</ele>
        <time>2017-02-26T07:29:08.000Z</time>
      </trkpt>
      <trkpt lat="45.16283" lon="5.91328">
        <ele>1768</ele>
        <time>2017-02-26T07:29:17.000Z</time>
      </trkpt>
      <trkpt lat="45.16283" lon="5.9133">
        <ele>1772</ele>
        <time>2017-02-26T07:29:18.000Z</time>
      </trkpt>
      <trkpt lat="45.16278" lon="5.91343">
        <ele>1773</ele>
        <time>2017-02-26T07:29:28.000Z</time>
      </trkpt>
      <trkpt lat="45.16276" lon="5.91363">
        <ele>1773</ele>
        <time>2017-02-26T07:29:36.000Z</time>
      </trkpt>
      <trkpt lat="45.16276" lon="5.91363">
        <ele>1775</ele>
        <time>2017-02-26T07:29:38.000Z</time>
      </trkpt>
      <trkpt lat="45.16276" lon="5.91363">
        <ele>1777</ele>
        <time>2017-02-26T07:29:48.000Z</time>
      </trkpt>
      <trkpt lat="45.16266" lon="5.91378">
        <ele>1777</ele>
        <time>2017-02-26T07:29:52.000Z</time>
      </trkpt>
      <trkpt lat="45.16266" lon="5.91378">
        <ele>1779</ele>
        <time>2017-02-26T07:29:58.000Z</time>
      </trkpt>
      <trkpt lat="45.16266" lon="5.91378">
        <ele>1781</ele>
        <time>2017-02-26T07:30:08.000Z</time>
      </trkpt>
      <trkpt lat="45.16266" lon="5.91378">
        <ele>1783</ele>
        <time>2017-02-26T07:30:18.000Z</time>
      </trkpt>
      <trkpt lat="45.16256" lon="5.91388">
        <ele>1787</ele>
        <time>2017-02-26T07:30:28.000Z</time>
      </trkpt>
      <trkpt lat="45.16249" lon="5.91402">
        <ele>1787</ele>
        <time>2017-02-26T07:30:36.000Z</time>
      </trkpt>
      <trkpt lat="45.16249" lon="5.91402">
        <ele>1788</ele>
        <time>2017-02-26T07:30:38.000Z</time>
      </trkpt>
      <trkpt lat="45.16249" lon="5.91402">
        <ele>1789</ele>
        <time>2017-02-26T07:30:48.000Z</time>
      </trkpt>
      <trkpt lat="45.16242" lon="5.91414">
        <ele>1789</ele>
        <time>2017-02-26T07:30:52.000Z</time>
      </trkpt>
      <trkpt lat="45.16242" lon="5.91414">
        <ele>1791</ele>
        <time>2017-02-26T07:30:58.000Z</time>
      </trkpt>
      <trkpt lat="45.16242" lon="5.91414">
        <ele>1793</ele>
        <time>2017-02-26T07:31:08.000Z</time>
      </trkpt>
      <trkpt lat="45.1623" lon="5.91412">
        <ele>1793</ele>
        <time>2017-02-26T07:31:10.000Z</time>
      </trkpt>
      <trkpt lat="45.16218" lon="5.91417">
        <ele>1795</ele>
        <time>2017-02-26T07:31:18.000Z</time>
      </trkpt>
      <trkpt lat="45.16204" lon="5.91422">
        <ele>1795</ele>
        <time>2017-02-26T07:31:26.000Z</time>
      </trkpt>
      <trkpt lat="45.16204" lon="5.91422">
        <ele>1799</ele>
        <time>2017-02-26T07:31:28.000Z</time>
      </trkpt>
      <trkpt lat="45.16204" lon="5.91422">
        <ele>1800</ele>
        <time>2017-02-26T07:31:38.000Z</time>
      </trkpt>
      <trkpt lat="45.16194" lon="5.91424">
        <ele>1800</ele>
        <time>2017-02-26T07:31:42.000Z</time>
      </trkpt>
      <trkpt lat="45.16194" lon="5.91424">
        <ele>1802</ele>
        <time>2017-02-26T07:31:48.000Z</time>
      </trkpt>
      <trkpt lat="45.16194" lon="5.91424">
        <ele>1803</ele>
        <time>2017-02-26T07:31:58.000Z</time>
      </trkpt>
      <trkpt lat="45.16194" lon="5.91424">
        <ele>1804</ele>
        <time>2017-02-26T07:32:08.000Z</time>
      </trkpt>
      <trkpt lat="45.16184" lon="5.91432">
        <ele>1804</ele>
        <time>2017-02-26T07:32:10.000Z</time>
      </trkpt>
      <trkpt lat="45.16184" lon="5.91432">
        <ele>1804</ele>
        <time>2017-02-26T07:32:18.000Z</time>
      </trkpt>
      <trkpt lat="45.16175" lon="5.91424">
        <ele>1804</ele>
        <time>2017-02-26T07:32:20.000Z</time>
      </trkpt>
      <trkpt lat="45.16175" lon="5.91424">
        <ele>1806</ele>
        <time>2017-02-26T07:32:28.000Z</time>
      </trkpt>
      <trkpt lat="45.16175" lon="5.91424">
        <ele>1806</ele>
        <time>2017-02-26T07:32:38.000Z</time>
      </trkpt>
      <trkpt lat="45.16175" lon="5.91424">
        <ele>1808</ele>
        <time>2017-02-26T07:32:48.000Z</time>
      </trkpt>
      <trkpt lat="45.16175" lon="5.91424">
        <ele>1809</ele>
        <time>2017-02-26T07:32:58.000Z</time>
      </trkpt>
      <trkpt lat="45.16164" lon="5.9142">
        <ele>1809</ele>
        <time>2017-02-26T07:33:04.000Z</time>
      </trkpt>
      <trkpt lat="45.16164" lon="5.9142">
        <ele>1811</ele>
        <time>2017-02-26T07:33:08.000Z</time>
      </trkpt>
      <trkpt lat="45.16164" lon="5.9142">
        <ele>1813</ele>
        <time>2017-02-26T07:33:18.000Z</time>
      </trkpt>
      <trkpt lat="45.16158" lon="5.91406">
        <ele>1813</ele>
        <time>2017-02-26T07:33:20.000Z</time>
      </trkpt>
      <trkpt lat="45.16158" lon="5.91406">
        <ele>1818</ele>
        <time>2017-02-26T07:33:28.000Z</time>
      </trkpt>
      <trkpt lat="45.1615" lon="5.91416">
        <ele>1818</ele>
        <time>2017-02-26T07:33:36.000Z</time>
      </trkpt>
      <trkpt lat="45.1615" lon="5.91416">
        <ele>1819</ele>
        <time>2017-02-26T07:33:38.000Z</time>
      </trkpt>
      <trkpt lat="45.16156" lon="5.91429">
        <ele>1819</ele>
        <time>2017-02-26T07:33:44.000Z</time>
      </trkpt>
      <trkpt lat="45.16156" lon="5.91429">
        <ele>1821</ele>
        <time>2017-02-26T07:33:48.000Z</time>
      </trkpt>
      <trkpt lat="45.16167" lon="5.91447">
        <ele>1821</ele>
        <time>2017-02-26T07:33:52.000Z</time>
      </trkpt>
      <trkpt lat="45.16167" lon="5.91447">
        <ele>1823</ele>
        <time>2017-02-26T07:33:58.000Z</time>
      </trkpt>
      <trkpt lat="45.16167" lon="5.91447">
        <ele>1825</ele>
        <time>2017-02-26T07:34:08.000Z</time>
      </trkpt>
      <trkpt lat="45.16167" lon="5.91447">
        <ele>1827</ele>
        <time>2017-02-26T07:34:18.000Z</time>
      </trkpt>
      <trkpt lat="45.16167" lon="5.91447">
        <ele>1828</ele>
        <time>2017-02-26T07:34:28.000Z</time>
      </trkpt>
      <trkpt lat="45.16162" lon="5.91459">
        <ele>1828</ele>
        <time>2017-02-26T07:34:32.000Z</time>
      </trkpt>
      <trkpt lat="45.16162" lon="5.91459">
        <ele>1830</ele>
        <time>2017-02-26T07:34:38.000Z</time>
      </trkpt>
      <trkpt lat="45.16162" lon="5.91459">
        <ele>1831</ele>
        <time>2017-02-26T07:34:48.000Z</time>
      </trkpt>
      <trkpt lat="45.16152" lon="5.91449">
        <ele>1831</ele>
        <time>2017-02-26T07:34:52.000Z</time>
      </trkpt>
      <trkpt lat="45.16152" lon="5.91449">
        <ele>1833</ele>
        <time>2017-02-26T07:34:58.000Z</time>
      </trkpt>
      <trkpt lat="45.16142" lon="5.91443">
        <ele>1833</ele>
        <time>2017-02-26T07:35:04.000Z</time>
      </trkpt>
      <trkpt lat="45.16142" lon="5.91443">
        <ele>1834</ele>
        <time>2017-02-26T07:35:08.000Z</time>
      </trkpt>
      <trkpt lat="45.16132" lon="5.91439">
        <ele>1834</ele>
        <time>2017-02-26T07:35:12.000Z</time>
      </trkpt>
      <trkpt lat="45.1613" lon="5.91438">
        <ele>1834</ele>
        <time>2017-02-26T07:35:18.000Z</time>
      </trkpt>
      <trkpt lat="45.16128" lon="5.91437">
        <ele>1835</ele>
        <time>2017-02-26T07:35:28.000Z</time>
      </trkpt>
      <trkpt lat="45.16127" lon="5.91435">
        <ele>1835</ele>
        <time>2017-02-26T07:35:38.000Z</time>
      </trkpt>
      <trkpt lat="45.16125" lon="5.91434">
        <ele>1835</ele>
        <time>2017-02-26T07:35:48.000Z</time>
      </trkpt>
      <trkpt lat="45.16123" lon="5.91433">
        <ele>1836</ele>
        <time>2017-02-26T07:35:58.000Z</time>
      </trkpt>
      <trkpt lat="45.16121" lon="5.91432">
        <ele>1836</ele>
        <time>2017-02-26T07:35:59.000Z</time>
      </trkpt>
      <trkpt lat="45.16108" lon="5.91423">
        <ele>1838</ele>
        <time>2017-02-26T07:36:08.000Z</time>
      </trkpt>
      <trkpt lat="45.16106" lon="5.9142">
        <ele>1840</ele>
        <time>2017-02-26T07:36:18.000Z</time>
      </trkpt>
      <trkpt lat="45.16104" lon="5.91418">
        <ele>1840</ele>
        <time>2017-02-26T07:36:25.000Z</time>
      </trkpt>
      <trkpt lat="45.16102" lon="5.91415">
        <ele>1842</ele>
        <time>2017-02-26T07:36:28.000Z</time>
      </trkpt>
      <trkpt lat="45.161" lon="5.91412">
        <ele>1842</ele>
        <time>2017-02-26T07:36:38.000Z</time>
      </trkpt>
      <trkpt lat="45.16098" lon="5.9141">
        <ele>1842</ele>
        <time>2017-02-26T07:36:48.000Z</time>
      </trkpt>
      <trkpt lat="45.16096" lon="5.91407">
        <ele>1842</ele>
        <time>2017-02-26T07:36:49.000Z</time>
      </trkpt>
      <trkpt lat="45.16096" lon="5.91401">
        <ele>1843</ele>
        <time>2017-02-26T07:36:58.000Z</time>
      </trkpt>
      <trkpt lat="45.16096" lon="5.91396">
        <ele>1845</ele>
        <time>2017-02-26T07:37:08.000Z</time>
      </trkpt>
      <trkpt lat="45.16096" lon="5.91391">
        <ele>1845</ele>
        <time>2017-02-26T07:37:09.000Z</time>
      </trkpt>
      <trkpt lat="45.16091" lon="5.91393">
        <ele>1847</ele>
        <time>2017-02-26T07:37:18.000Z</time>
      </trkpt>
      <trkpt lat="45.16086" lon="5.91396">
        <ele>1848</ele>
        <time>2017-02-26T07:37:28.000Z</time>
      </trkpt>
      <trkpt lat="45.16081" lon="5.91399">
        <ele>1848</ele>
        <time>2017-02-26T07:37:29.000Z</time>
      </trkpt>
      <trkpt lat="45.16068" lon="5.91393">
        <ele>1848</ele>
        <time>2017-02-26T07:37:37.000Z</time>
      </trkpt>
      <trkpt lat="45.16065" lon="5.91391">
        <ele>1850</ele>
        <time>2017-02-26T07:37:38.000Z</time>
      </trkpt>
      <trkpt lat="45.16062" lon="5.9139">
        <ele>1852</ele>
        <time>2017-02-26T07:37:48.000Z</time>
      </trkpt>
      <trkpt lat="45.16058" lon="5.91388">
        <ele>1852</ele>
        <time>2017-02-26T07:37:49.000Z</time>
      </trkpt>
      <trkpt lat="45.16052" lon="5.91389">
        <ele>1853</ele>
        <time>2017-02-26T07:37:58.000Z</time>
      </trkpt>
      <trkpt lat="45.16046" lon="5.91389">
        <ele>1853</ele>
        <time>2017-02-26T07:37:59.000Z</time>
      </trkpt>
      <trkpt lat="45.16033" lon="5.91392">
        <ele>1853</ele>
        <time>2017-02-26T07:38:07.000Z</time>
      </trkpt>
      <trkpt lat="45.1603" lon="5.9139">
        <ele>1854</ele>
        <time>2017-02-26T07:38:08.000Z</time>
      </trkpt>
      <trkpt lat="45.16027" lon="5.91389">
        <ele>1855</ele>
        <time>2017-02-26T07:38:18.000Z</time>
      </trkpt>
      <trkpt lat="45.16025" lon="5.91387">
        <ele>1855</ele>
        <time>2017-02-26T07:38:19.000Z</time>
      </trkpt>
      <trkpt lat="45.16025" lon="5.91387">
        <ele>1857</ele>
        <time>2017-02-26T07:38:28.000Z</time>
      </trkpt>
      <trkpt lat="45.16018" lon="5.91376">
        <ele>1857</ele>
        <time>2017-02-26T07:38:34.000Z</time>
      </trkpt>
      <trkpt lat="45.16018" lon="5.91376">
        <ele>1859</ele>
        <time>2017-02-26T07:38:38.000Z</time>
      </trkpt>
      <trkpt lat="45.16006" lon="5.91368">
        <ele>1859</ele>
        <time>2017-02-26T07:38:46.000Z</time>
      </trkpt>
      <trkpt lat="45.16006" lon="5.91368">
        <ele>1860</ele>
        <time>2017-02-26T07:38:48.000Z</time>
      </trkpt>
      <trkpt lat="45.15991" lon="5.91373">
        <ele>1862</ele>
        <time>2017-02-26T07:38:58.000Z</time>
      </trkpt>
      <trkpt lat="45.15991" lon="5.91373">
        <ele>1864</ele>
        <time>2017-02-26T07:39:08.000Z</time>
      </trkpt>
      <trkpt lat="45.15991" lon="5.91373">
        <ele>1866</ele>
        <time>2017-02-26T07:39:18.000Z</time>
      </trkpt>
      <trkpt lat="45.15979" lon="5.91368">
        <ele>1866</ele>
        <time>2017-02-26T07:39:22.000Z</time>
      </trkpt>
      <trkpt lat="45.15979" lon="5.91368">
        <ele>1868</ele>
        <time>2017-02-26T07:39:28.000Z</time>
      </trkpt>
      <trkpt lat="45.15979" lon="5.91368">
        <ele>1869</ele>
        <time>2017-02-26T07:39:38.000Z</time>
      </trkpt>
      <trkpt lat="45.15979" lon="5.91368">
        <ele>1871</ele>
        <time>2017-02-26T07:39:48.000Z</time>
      </trkpt>
      <trkpt lat="45.15979" lon="5.91368">
        <ele>1873</ele>
        <time>2017-02-26T07:39:58.000Z</time>
      </trkpt>
      <trkpt lat="45.15979" lon="5.91368">
        <ele>1875</ele>
        <time>2017-02-26T07:40:08.000Z</time>
      </trkpt>
      <trkpt lat="45.15979" lon="5.91368">
        <ele>1877</ele>
        <time>2017-02-26T07:40:18.000Z</time>
      </trkpt>
      <trkpt lat="45.15975" lon="5.91382">
        <ele>1877</ele>
        <time>2017-02-26T07:40:22.000Z</time>
      </trkpt>
      <trkpt lat="45.15975" lon="5.91382">
        <ele>1879</ele>
        <time>2017-02-26T07:40:28.000Z</time>
      </trkpt>
      <trkpt lat="45.15964" lon="5.91374">
        <ele>1881</ele>
        <time>2017-02-26T07:40:38.000Z</time>
      </trkpt>
      <trkpt lat="45.15964" lon="5.91374">
        <ele>1883</ele>
        <time>2017-02-26T07:40:48.000Z</time>
      </trkpt>
      <trkpt lat="45.15955" lon="5.91358">
        <ele>1883</ele>
        <time>2017-02-26T07:40:54.000Z</time>
      </trkpt>
      <trkpt lat="45.15955" lon="5.91358">
        <ele>1885</ele>
        <time>2017-02-26T07:40:58.000Z</time>
      </trkpt>
      <trkpt lat="45.15955" lon="5.91358">
        <ele>1885</ele>
        <time>2017-02-26T07:41:08.000Z</time>
      </trkpt>
      <trkpt lat="45.15955" lon="5.91358">
        <ele>1886</ele>
        <time>2017-02-26T07:41:18.000Z</time>
      </trkpt>
      <trkpt lat="45.1594" lon="5.91356">
        <ele>1886</ele>
        <time>2017-02-26T07:41:22.000Z</time>
      </trkpt>
      <trkpt lat="45.1594" lon="5.91356">
        <ele>1889</ele>
        <time>2017-02-26T07:41:28.000Z</time>
      </trkpt>
      <trkpt lat="45.15932" lon="5.91346">
        <ele>1889</ele>
        <time>2017-02-26T07:41:34.000Z</time>
      </trkpt>
      <trkpt lat="45.15932" lon="5.91346">
        <ele>1890</ele>
        <time>2017-02-26T07:41:38.000Z</time>
      </trkpt>
      <trkpt lat="45.15932" lon="5.91346">
        <ele>1890</ele>
        <time>2017-02-26T07:41:48.000Z</time>
      </trkpt>
      <trkpt lat="45.15932" lon="5.91346">
        <ele>1891</ele>
        <time>2017-02-26T07:41:58.000Z</time>
      </trkpt>
      <trkpt lat="45.15932" lon="5.91346">
        <ele>1893</ele>
        <time>2017-02-26T07:42:08.000Z</time>
      </trkpt>
      <trkpt lat="45.15929" lon="5.9136">
        <ele>1893</ele>
        <time>2017-02-26T07:42:14.000Z</time>
      </trkpt>
      <trkpt lat="45.15929" lon="5.9136">
        <ele>1894</ele>
        <time>2017-02-26T07:42:18.000Z</time>
      </trkpt>
      <trkpt lat="45.15929" lon="5.9136">
        <ele>1896</ele>
        <time>2017-02-26T07:42:28.000Z</time>
      </trkpt>
      <trkpt lat="45.15921" lon="5.91351">
        <ele>1896</ele>
        <time>2017-02-26T07:42:30.000Z</time>
      </trkpt>
      <trkpt lat="45.15921" lon="5.91351">
        <ele>1897</ele>
        <time>2017-02-26T07:42:38.000Z</time>
      </trkpt>
      <trkpt lat="45.15909" lon="5.91348">
        <ele>1897</ele>
        <time>2017-02-26T07:42:42.000Z</time>
      </trkpt>
      <trkpt lat="45.15909" lon="5.91348">
        <ele>1897</ele>
        <time>2017-02-26T07:42:48.000Z</time>
      </trkpt>
      <trkpt lat="45.15896" lon="5.91346">
        <ele>1897</ele>
        <time>2017-02-26T07:42:50.000Z</time>
      </trkpt>
      <trkpt lat="45.15896" lon="5.91346">
        <ele>1899</ele>
        <time>2017-02-26T07:42:58.000Z</time>
      </trkpt>
      <trkpt lat="45.15888" lon="5.91353">
        <ele>1899</ele>
        <time>2017-02-26T07:43:02.000Z</time>
      </trkpt>
      <trkpt lat="45.15888" lon="5.91353">
        <ele>1901</ele>
        <time>2017-02-26T07:43:08.000Z</time>
      </trkpt>
      <trkpt lat="45.15888" lon="5.91353">
        <ele>1901</ele>
        <time>2017-02-26T07:43:18.000Z</time>
      </trkpt>
      <trkpt lat="45.15888" lon="5.91353">
        <ele>1903</ele>
        <time>2017-02-26T07:43:28.000Z</time>
      </trkpt>
      <trkpt lat="45.15876" lon="5.91355">
        <ele>1904</ele>
        <time>2017-02-26T07:43:38.000Z</time>
      </trkpt>
      <trkpt lat="45.15876" lon="5.91355">
        <ele>1905</ele>
        <time>2017-02-26T07:43:48.000Z</time>
      </trkpt>
      <trkpt lat="45.15864" lon="5.91357">
        <ele>1905</ele>
        <time>2017-02-26T07:43:50.000Z</time>
      </trkpt>
      <trkpt lat="45.15864" lon="5.91357">
        <ele>1906</ele>
        <time>2017-02-26T07:43:58.000Z</time>
      </trkpt>
      <trkpt lat="45.15859" lon="5.91371">
        <ele>1906</ele>
        <time>2017-02-26T07:44:06.000Z</time>
      </trkpt>
      <trkpt lat="45.15859" lon="5.91371">
        <ele>1908</ele>
        <time>2017-02-26T07:44:08.000Z</time>
      </trkpt>
      <trkpt lat="45.15859" lon="5.91371">
        <ele>1910</ele>
        <time>2017-02-26T07:44:18.000Z</time>
      </trkpt>
      <trkpt lat="45.1585" lon="5.91386">
        <ele>1910</ele>
        <time>2017-02-26T07:44:22.000Z</time>
      </trkpt>
      <trkpt lat="45.1585" lon="5.91386">
        <ele>1912</ele>
        <time>2017-02-26T07:44:28.000Z</time>
      </trkpt>
      <trkpt lat="45.15839" lon="5.91389">
        <ele>1912</ele>
        <time>2017-02-26T07:44:34.000Z</time>
      </trkpt>
      <trkpt lat="45.15839" lon="5.91389">
        <ele>1912</ele>
        <time>2017-02-26T07:44:38.000Z</time>
      </trkpt>
      <trkpt lat="45.15828" lon="5.91394">
        <ele>1912</ele>
        <time>2017-02-26T07:44:42.000Z</time>
      </trkpt>
      <trkpt lat="45.15828" lon="5.91394">
        <ele>1914</ele>
        <time>2017-02-26T07:44:48.000Z</time>
      </trkpt>
      <trkpt lat="45.15817" lon="5.91399">
        <ele>1918</ele>
        <time>2017-02-26T07:44:58.000Z</time>
      </trkpt>
      <trkpt lat="45.15817" lon="5.91399">
        <ele>1919</ele>
        <time>2017-02-26T07:45:08.000Z</time>
      </trkpt>
      <trkpt lat="45.1581" lon="5.9141">
        <ele>1919</ele>
        <time>2017-02-26T07:45:18.000Z</time>
      </trkpt>
      <trkpt lat="45.1581" lon="5.9141">
        <ele>1918</ele>
        <time>2017-02-26T07:45:28.000Z</time>
      </trkpt>
      <trkpt lat="45.15797" lon="5.91421">
        <ele>1919</ele>
        <time>2017-02-26T07:45:38.000Z</time>
      </trkpt>
      <trkpt lat="45.15797" lon="5.91421">
        <ele>1920</ele>
        <time>2017-02-26T07:45:48.000Z</time>
      </trkpt>
      <trkpt lat="45.15797" lon="5.91421">
        <ele>1921</ele>
        <time>2017-02-26T07:45:58.000Z</time>
      </trkpt>
      <trkpt lat="45.15797" lon="5.91421">
        <ele>1922</ele>
        <time>2017-02-26T07:46:08.000Z</time>
      </trkpt>
      <trkpt lat="45.15787" lon="5.91427">
        <ele>1922</ele>
        <time>2017-02-26T07:46:14.000Z</time>
      </trkpt>
      <trkpt lat="45.15787" lon="5.91427">
        <ele>1922</ele>
        <time>2017-02-26T07:46:18.000Z</time>
      </trkpt>
      <trkpt lat="45.15787" lon="5.91427">
        <ele>1923</ele>
        <time>2017-02-26T07:46:28.000Z</time>
      </trkpt>
      <trkpt lat="45.15787" lon="5.91441">
        <ele>1923</ele>
        <time>2017-02-26T07:46:30.000Z</time>
      </trkpt>
      <trkpt lat="45.15787" lon="5.91441">
        <ele>1926</ele>
        <time>2017-02-26T07:46:38.000Z</time>
      </trkpt>
      <trkpt lat="45.15785" lon="5.91455">
        <ele>1926</ele>
        <time>2017-02-26T07:46:42.000Z</time>
      </trkpt>
      <trkpt lat="45.15785" lon="5.91455">
        <ele>1927</ele>
        <time>2017-02-26T07:46:48.000Z</time>
      </trkpt>
      <trkpt lat="45.15781" lon="5.91469">
        <ele>1927</ele>
        <time>2017-02-26T07:46:50.000Z</time>
      </trkpt>
      <trkpt lat="45.15781" lon="5.91469">
        <ele>1929</ele>
        <time>2017-02-26T07:46:58.000Z</time>
      </trkpt>
      <trkpt lat="45.15775" lon="5.91482">
        <ele>1929</ele>
        <time>2017-02-26T07:47:06.000Z</time>
      </trkpt>
      <trkpt lat="45.15775" lon="5.91482">
        <ele>1931</ele>
        <time>2017-02-26T07:47:08.000Z</time>
      </trkpt>
      <trkpt lat="45.15775" lon="5.91482">
        <ele>1933</ele>
        <time>2017-02-26T07:47:18.000Z</time>
      </trkpt>
      <trkpt lat="45.15772" lon="5.91497">
        <ele>1933</ele>
        <time>2017-02-26T07:47:22.000Z</time>
      </trkpt>
      <trkpt lat="45.15772" lon="5.91497">
        <ele>1936</ele>
        <time>2017-02-26T07:47:28.000Z</time>
      </trkpt>
      <trkpt lat="45.15763" lon="5.91501">
        <ele>1936</ele>
        <time>2017-02-26T07:47:34.000Z</time>
      </trkpt>
      <trkpt lat="45.15763" lon="5.91501">
        <ele>1936</ele>
        <time>2017-02-26T07:47:38.000Z</time>
      </trkpt>
      <trkpt lat="45.15763" lon="5.91501">
        <ele>1938</ele>
        <time>2017-02-26T07:47:48.000Z</time>
      </trkpt>
      <trkpt lat="45.1575" lon="5.91502">
        <ele>1938</ele>
        <time>2017-02-26T07:47:50.000Z</time>
      </trkpt>
      <trkpt lat="45.1575" lon="5.91502">
        <ele>1939</ele>
        <time>2017-02-26T07:47:58.000Z</time>
      </trkpt>
      <trkpt lat="45.15739" lon="5.91509">
        <ele>1939</ele>
        <time>2017-02-26T07:48:02.000Z</time>
      </trkpt>
      <trkpt lat="45.15739" lon="5.91509">
        <ele>1940</ele>
        <time>2017-02-26T07:48:08.000Z</time>
      </trkpt>
      <trkpt lat="45.15734" lon="5.91524">
        <ele>1942</ele>
        <time>2017-02-26T07:48:18.000Z</time>
      </trkpt>
      <trkpt lat="45.15734" lon="5.91524">
        <ele>1944</ele>
        <time>2017-02-26T07:48:28.000Z</time>
      </trkpt>
      <trkpt lat="45.15734" lon="5.91524">
        <ele>1946</ele>
        <time>2017-02-26T07:48:38.000Z</time>
      </trkpt>
      <trkpt lat="45.15736" lon="5.91539">
        <ele>1946</ele>
        <time>2017-02-26T07:48:42.000Z</time>
      </trkpt>
      <trkpt lat="45.15736" lon="5.91539">
        <ele>1950</ele>
        <time>2017-02-26T07:48:48.000Z</time>
      </trkpt>
      <trkpt lat="45.15744" lon="5.91555">
        <ele>1950</ele>
        <time>2017-02-26T07:48:54.000Z</time>
      </trkpt>
      <trkpt lat="45.15744" lon="5.91555">
        <ele>1951</ele>
        <time>2017-02-26T07:48:58.000Z</time>
      </trkpt>
      <trkpt lat="45.15744" lon="5.91555">
        <ele>1953</ele>
        <time>2017-02-26T07:49:08.000Z</time>
      </trkpt>
      <trkpt lat="45.15746" lon="5.91541">
        <ele>1953</ele>
        <time>2017-02-26T07:49:10.000Z</time>
      </trkpt>
      <trkpt lat="45.15746" lon="5.91541">
        <ele>1958</ele>
        <time>2017-02-26T07:49:18.000Z</time>
      </trkpt>
      <trkpt lat="45.15757" lon="5.91543">
        <ele>1958</ele>
        <time>2017-02-26T07:49:22.000Z</time>
      </trkpt>
      <trkpt lat="45.15757" lon="5.91543">
        <ele>1960</ele>
        <time>2017-02-26T07:49:28.000Z</time>
      </trkpt>
      <trkpt lat="45.15757" lon="5.91543">
        <ele>1960</ele>
        <time>2017-02-26T07:49:38.000Z</time>
      </trkpt>
      <trkpt lat="45.15756" lon="5.9156">
        <ele>1960</ele>
        <time>2017-02-26T07:49:42.000Z</time>
      </trkpt>
      <trkpt lat="45.15756" lon="5.9156">
        <ele>1962</ele>
        <time>2017-02-26T07:49:48.000Z</time>
      </trkpt>
      <trkpt lat="45.15766" lon="5.91557">
        <ele>1966</ele>
        <time>2017-02-26T07:49:58.000Z</time>
      </trkpt>
      <trkpt lat="45.15766" lon="5.91557">
        <ele>1967</ele>
        <time>2017-02-26T07:50:08.000Z</time>
      </trkpt>
      <trkpt lat="45.1578" lon="5.91557">
        <ele>1967</ele>
        <time>2017-02-26T07:50:14.000Z</time>
      </trkpt>
      <trkpt lat="45.1578" lon="5.91557">
        <ele>1969</ele>
        <time>2017-02-26T07:50:18.000Z</time>
      </trkpt>
      <trkpt lat="45.1578" lon="5.91557">
        <ele>1973</ele>
        <time>2017-02-26T07:50:28.000Z</time>
      </trkpt>
      <trkpt lat="45.1579" lon="5.91555">
        <ele>1973</ele>
        <time>2017-02-26T07:50:30.000Z</time>
      </trkpt>
      <trkpt lat="45.1579" lon="5.91555">
        <ele>1973</ele>
        <time>2017-02-26T07:50:38.000Z</time>
      </trkpt>
      <trkpt lat="45.1579" lon="5.91555">
        <ele>1975</ele>
        <time>2017-02-26T07:50:48.000Z</time>
      </trkpt>
      <trkpt lat="45.15791" lon="5.91569">
        <ele>1975</ele>
        <time>2017-02-26T07:50:54.000Z</time>
      </trkpt>
      <trkpt lat="45.15791" lon="5.91569">
        <ele>1977</ele>
        <time>2017-02-26T07:50:58.000Z</time>
      </trkpt>
      <trkpt lat="45.15791" lon="5.91569">
        <ele>1979</ele>
        <time>2017-02-26T07:51:08.000Z</time>
      </trkpt>
      <trkpt lat="45.15796" lon="5.91587">
        <ele>1979</ele>
        <time>2017-02-26T07:51:10.000Z</time>
      </trkpt>
      <trkpt lat="45.15796" lon="5.91587">
        <ele>1983</ele>
        <time>2017-02-26T07:51:18.000Z</time>
      </trkpt>
      <trkpt lat="45.15796" lon="5.91587">
        <ele>1983</ele>
        <time>2017-02-26T07:51:28.000Z</time>
      </trkpt>
      <trkpt lat="45.15804" lon="5.91601">
        <ele>1983</ele>
        <time>2017-02-26T07:51:30.000Z</time>
      </trkpt>
      <trkpt lat="45.15804" lon="5.91601">
        <ele>1985</ele>
        <time>2017-02-26T07:51:38.000Z</time>
      </trkpt>
      <trkpt lat="45.15804" lon="5.91601">
        <ele>1989</ele>
        <time>2017-02-26T07:51:48.000Z</time>
      </trkpt>
      <trkpt lat="45.15814" lon="5.91609">
        <ele>1989</ele>
        <time>2017-02-26T07:51:50.000Z</time>
      </trkpt>
      <trkpt lat="45.15814" lon="5.91609">
        <ele>1992</ele>
        <time>2017-02-26T07:51:58.000Z</time>
      </trkpt>
      <trkpt lat="45.15827" lon="5.91616">
        <ele>1992</ele>
        <time>2017-02-26T07:52:06.000Z</time>
      </trkpt>
      <trkpt lat="45.15827" lon="5.91616">
        <ele>1994</ele>
        <time>2017-02-26T07:52:08.000Z</time>
      </trkpt>
      <trkpt lat="45.15827" lon="5.91616">
        <ele>1996</ele>
        <time>2017-02-26T07:52:18.000Z</time>
      </trkpt>
      <trkpt lat="45.15827" lon="5.91616">
        <ele>1996</ele>
        <time>2017-02-26T07:52:28.000Z</time>
      </trkpt>
      <trkpt lat="45.15839" lon="5.91621">
        <ele>1996</ele>
        <time>2017-02-26T07:52:34.000Z</time>
      </trkpt>
      <trkpt lat="45.15839" lon="5.91621">
        <ele>1999</ele>
        <time>2017-02-26T07:52:38.000Z</time>
      </trkpt>
      <trkpt lat="45.15839" lon="5.91621">
        <ele>2002</ele>
        <time>2017-02-26T07:52:48.000Z</time>
      </trkpt>
      <trkpt lat="45.15851" lon="5.91624">
        <ele>2002</ele>
        <time>2017-02-26T07:52:54.000Z</time>
      </trkpt>
      <trkpt lat="45.15851" lon="5.91624">
        <ele>2004</ele>
        <time>2017-02-26T07:52:58.000Z</time>
      </trkpt>
      <trkpt lat="45.15857" lon="5.91636">
        <ele>2004</ele>
        <time>2017-02-26T07:53:06.000Z</time>
      </trkpt>
      <trkpt lat="45.15857" lon="5.91636">
        <ele>2004</ele>
        <time>2017-02-26T07:53:08.000Z</time>
      </trkpt>
      <trkpt lat="45.15857" lon="5.91636">
        <ele>2005</ele>
        <time>2017-02-26T07:53:18.000Z</time>
      </trkpt>
      <trkpt lat="45.15857" lon="5.91636">
        <ele>2010</ele>
        <time>2017-02-26T07:53:28.000Z</time>
      </trkpt>
      <trkpt lat="45.15869" lon="5.91648">
        <ele>2010</ele>
        <time>2017-02-26T07:53:30.000Z</time>
      </trkpt>
      <trkpt lat="45.15869" lon="5.91648">
        <ele>2010</ele>
        <time>2017-02-26T07:53:38.000Z</time>
      </trkpt>
      <trkpt lat="45.15876" lon="5.91658">
        <ele>2010</ele>
        <time>2017-02-26T07:53:42.000Z</time>
      </trkpt>
      <trkpt lat="45.15876" lon="5.91658">
        <ele>2014</ele>
        <time>2017-02-26T07:53:48.000Z</time>
      </trkpt>
      <trkpt lat="45.15876" lon="5.91658">
        <ele>2015</ele>
        <time>2017-02-26T07:53:58.000Z</time>
      </trkpt>
      <trkpt lat="45.15883" lon="5.91669">
        <ele>2015</ele>
        <time>2017-02-26T07:54:02.000Z</time>
      </trkpt>
      <trkpt lat="45.15883" lon="5.91669">
        <ele>2016</ele>
        <time>2017-02-26T07:54:08.000Z</time>
      </trkpt>
      <trkpt lat="45.15885" lon="5.91684">
        <ele>2016</ele>
        <time>2017-02-26T07:54:10.000Z</time>
      </trkpt>
      <trkpt lat="45.15885" lon="5.91684">
        <ele>2019</ele>
        <time>2017-02-26T07:54:18.000Z</time>
      </trkpt>
      <trkpt lat="45.15888" lon="5.91699">
        <ele>2019</ele>
        <time>2017-02-26T07:54:22.000Z</time>
      </trkpt>
      <trkpt lat="45.15888" lon="5.91699">
        <ele>2021</ele>
        <time>2017-02-26T07:54:28.000Z</time>
      </trkpt>
      <trkpt lat="45.15888" lon="5.91699">
        <ele>2022</ele>
        <time>2017-02-26T07:54:38.000Z</time>
      </trkpt>
      <trkpt lat="45.15888" lon="5.91712">
        <ele>2022</ele>
        <time>2017-02-26T07:54:42.000Z</time>
      </trkpt>
      <trkpt lat="45.15888" lon="5.91712">
        <ele>2024</ele>
        <time>2017-02-26T07:54:48.000Z</time>
      </trkpt>
      <trkpt lat="45.15888" lon="5.91712">
        <ele>2026</ele>
        <time>2017-02-26T07:54:58.000Z</time>
      </trkpt>
      <trkpt lat="45.159" lon="5.91719">
        <ele>2026</ele>
        <time>2017-02-26T07:55:06.000Z</time>
      </trkpt>
      <trkpt lat="45.159" lon="5.91719">
        <ele>2027</ele>
        <time>2017-02-26T07:55:08.000Z</time>
      </trkpt>
      <trkpt lat="45.15901" lon="5.91737">
        <ele>2028</ele>
        <time>2017-02-26T07:55:18.000Z</time>
      </trkpt>
      <trkpt lat="45.15901" lon="5.91737">
        <ele>2031</ele>
        <time>2017-02-26T07:55:28.000Z</time>
      </trkpt>
      <trkpt lat="45.15901" lon="5.91737">
        <ele>2033</ele>
        <time>2017-02-26T07:55:38.000Z</time>
      </trkpt>
      <trkpt lat="45.15901" lon="5.91737">
        <ele>2033</ele>
        <time>2017-02-26T07:55:48.000Z</time>
      </trkpt>
      <trkpt lat="45.15912" lon="5.91739">
        <ele>2033</ele>
        <time>2017-02-26T07:55:50.000Z</time>
      </trkpt>
      <trkpt lat="45.15912" lon="5.91739">
        <ele>2036</ele>
        <time>2017-02-26T07:55:58.000Z</time>
      </trkpt>
      <trkpt lat="45.15923" lon="5.91746">
        <ele>2036</ele>
        <time>2017-02-26T07:56:02.000Z</time>
      </trkpt>
      <trkpt lat="45.15923" lon="5.91746">
        <ele>2038</ele>
        <time>2017-02-26T07:56:08.000Z</time>
      </trkpt>
      <trkpt lat="45.15923" lon="5.91746">
        <ele>2040</ele>
        <time>2017-02-26T07:56:18.000Z</time>
      </trkpt>
      <trkpt lat="45.15923" lon="5.91746">
        <ele>2042</ele>
        <time>2017-02-26T07:56:28.000Z</time>
      </trkpt>
      <trkpt lat="45.1594" lon="5.91766">
        <ele>2045</ele>
        <time>2017-02-26T07:56:38.000Z</time>
      </trkpt>
      <trkpt lat="45.1594" lon="5.91766">
        <ele>2045</ele>
        <time>2017-02-26T07:56:48.000Z</time>
      </trkpt>
      <trkpt lat="45.15954" lon="5.91771">
        <ele>2045</ele>
        <time>2017-02-26T07:56:54.000Z</time>
      </trkpt>
      <trkpt lat="45.15954" lon="5.91771">
        <ele>2049</ele>
        <time>2017-02-26T07:56:58.000Z</time>
      </trkpt>
      <trkpt lat="45.15954" lon="5.91771">
        <ele>2049</ele>
        <time>2017-02-26T07:57:08.000Z</time>
      </trkpt>
      <trkpt lat="45.15961" lon="5.91781">
        <ele>2050</ele>
        <time>2017-02-26T07:57:18.000Z</time>
      </trkpt>
      <trkpt lat="45.15961" lon="5.91781">
        <ele>2053</ele>
        <time>2017-02-26T07:57:28.000Z</time>
      </trkpt>
      <trkpt lat="45.15971" lon="5.91784">
        <ele>2053</ele>
        <time>2017-02-26T07:57:34.000Z</time>
      </trkpt>
      <trkpt lat="45.15971" lon="5.91784">
        <ele>2054</ele>
        <time>2017-02-26T07:57:38.000Z</time>
      </trkpt>
      <trkpt lat="45.15971" lon="5.91784">
        <ele>2054</ele>
        <time>2017-02-26T07:57:48.000Z</time>
      </trkpt>
      <trkpt lat="45.15971" lon="5.91784">
        <ele>2054</ele>
        <time>2017-02-26T07:57:58.000Z</time>
      </trkpt>
      <trkpt lat="45.15971" lon="5.91784">
        <ele>2054</ele>
        <time>2017-02-26T07:58:08.000Z</time>
      </trkpt>
      <trkpt lat="45.15971" lon="5.91784">
        <ele>2054</ele>
        <time>2017-02-26T07:58:18.000Z</time>
      </trkpt>
      <trkpt lat="45.15971" lon="5.91784">
        <ele>2054</ele>
        <time>2017-02-26T07:58:28.000Z</time>
      </trkpt>
      <trkpt lat="45.15971" lon="5.91784">
        <ele>2053</ele>
        <time>2017-02-26T07:58:38.000Z</time>
      </trkpt>
      <trkpt lat="45.15971" lon="5.91784">
        <ele>2052</ele>
        <time>2017-02-26T07:58:48.000Z</time>
      </trkpt>
      <trkpt lat="45.15971" lon="5.91784">
        <ele>2052</ele>
        <time>2017-02-26T07:58:58.000Z</time>
      </trkpt>
      <trkpt lat="45.15971" lon="5.91784">
        <ele>2052</ele>
        <time>2017-02-26T07:59:08.000Z</time>
      </trkpt>
      <trkpt lat="45.15971" lon="5.91784">
        <ele>2052</ele>
        <time>2017-02-26T07:59:18.000Z</time>
      </trkpt>
      <trkpt lat="45.15971" lon="5.91784">
        <ele>2050</ele>
        <time>2017-02-26T07:59:28.000Z</time>
      </trkpt>
      <trkpt lat="45.15971" lon="5.91784">
        <ele>2051</ele>
        <time>2017-02-26T07:59:38.000Z</time>
      </trkpt>
      <trkpt lat="45.15971" lon="5.91784">
        <ele>2051</ele>
        <time>2017-02-26T07:59:48.000Z</time>
      </trkpt>
      <trkpt lat="45.15971" lon="5.91784">
        <ele>2050</ele>
        <time>2017-02-26T07:59:58.000Z</time>
      </trkpt>
      <trkpt lat="45.15971" lon="5.91784">
        <ele>2052</ele>
        <time>2017-02-26T08:00:08.000Z</time>
      </trkpt>
      <trkpt lat="45.15971" lon="5.91784">
        <ele>2051</ele>
        <time>2017-02-26T08:00:18.000Z</time>
      </trkpt>
      <trkpt lat="45.15971" lon="5.91784">
        <ele>2050</ele>
        <time>2017-02-26T08:00:28.000Z</time>
      </trkpt>
      <trkpt lat="45.15971" lon="5.91784">
        <ele>2050</ele>
        <time>2017-02-26T08:00:38.000Z</time>
      </trkpt>
      <trkpt lat="45.15971" lon="5.91784">
        <ele>2050</ele>
        <time>2017-02-26T08:00:48.000Z</time>
      </trkpt>
      <trkpt lat="45.15965" lon="5.91797">
        <ele>2050</ele>
        <time>2017-02-26T08:00:54.000Z</time>
      </trkpt>
      <trkpt lat="45.15965" lon="5.91797">
        <ele>2051</ele>
        <time>2017-02-26T08:00:58.000Z</time>
      </trkpt>
      <trkpt lat="45.15965" lon="5.91797">
        <ele>2055</ele>
        <time>2017-02-26T08:01:08.000Z</time>
      </trkpt>
      <trkpt lat="45.15973" lon="5.91806">
        <ele>2058</ele>
        <time>2017-02-26T08:01:18.000Z</time>
      </trkpt>
      <trkpt lat="45.15979" lon="5.91818">
        <ele>2058</ele>
        <time>2017-02-26T08:01:26.000Z</time>
      </trkpt>
      <trkpt lat="45.15979" lon="5.91818">
        <ele>2060</ele>
        <time>2017-02-26T08:01:28.000Z</time>
      </trkpt>
      <trkpt lat="45.15979" lon="5.91818">
        <ele>2061</ele>
        <time>2017-02-26T08:01:38.000Z</time>
      </trkpt>
      <trkpt lat="45.15979" lon="5.91818">
        <ele>2062</ele>
        <time>2017-02-26T08:01:48.000Z</time>
      </trkpt>
      <trkpt lat="45.15977" lon="5.91833">
        <ele>2062</ele>
        <time>2017-02-26T08:01:50.000Z</time>
      </trkpt>
      <trkpt lat="45.15977" lon="5.91833">
        <ele>2065</ele>
        <time>2017-02-26T08:01:58.000Z</time>
      </trkpt>
      <trkpt lat="45.15977" lon="5.91833">
        <ele>2067</ele>
        <time>2017-02-26T08:02:08.000Z</time>
      </trkpt>
      <trkpt lat="45.1599" lon="5.91836">
        <ele>2070</ele>
        <time>2017-02-26T08:02:18.000Z</time>
      </trkpt>
      <trkpt lat="45.1599" lon="5.91836">
        <ele>2070</ele>
        <time>2017-02-26T08:02:28.000Z</time>
      </trkpt>
      <trkpt lat="45.1599" lon="5.91836">
        <ele>2070</ele>
        <time>2017-02-26T08:02:38.000Z</time>
      </trkpt>
      <trkpt lat="45.15982" lon="5.91849">
        <ele>2070</ele>
        <time>2017-02-26T08:02:46.000Z</time>
      </trkpt>
      <trkpt lat="45.15982" lon="5.91849">
        <ele>2069</ele>
        <time>2017-02-26T08:02:48.000Z</time>
      </trkpt>
      <trkpt lat="45.15982" lon="5.91849">
        <ele>2070</ele>
        <time>2017-02-26T08:02:58.000Z</time>
      </trkpt>
      <trkpt lat="45.15972" lon="5.91861">
        <ele>2070</ele>
        <time>2017-02-26T08:03:02.000Z</time>
      </trkpt>
      <trkpt lat="45.15972" lon="5.91861">
        <ele>2073</ele>
        <time>2017-02-26T08:03:08.000Z</time>
      </trkpt>
      <trkpt lat="45.15966" lon="5.91877">
        <ele>2073</ele>
        <time>2017-02-26T08:03:14.000Z</time>
      </trkpt>
      <trkpt lat="45.15966" lon="5.91877">
        <ele>2073</ele>
        <time>2017-02-26T08:03:18.000Z</time>
      </trkpt>
      <trkpt lat="45.15966" lon="5.91877">
        <ele>2076</ele>
        <time>2017-02-26T08:03:28.000Z</time>
      </trkpt>
      <trkpt lat="45.15957" lon="5.91884">
        <ele>2076</ele>
        <time>2017-02-26T08:03:30.000Z</time>
      </trkpt>
      <trkpt lat="45.15957" lon="5.91884">
        <ele>2079</ele>
        <time>2017-02-26T08:03:38.000Z</time>
      </trkpt>
      <trkpt lat="45.15957" lon="5.91884">
        <ele>2082</ele>
        <time>2017-02-26T08:03:48.000Z</time>
      </trkpt>
      <trkpt lat="45.15957" lon="5.919">
        <ele>2082</ele>
        <time>2017-02-26T08:03:50.000Z</time>
      </trkpt>
      <trkpt lat="45.15957" lon="5.919">
        <ele>2085</ele>
        <time>2017-02-26T08:03:58.000Z</time>
      </trkpt>
      <trkpt lat="45.15957" lon="5.919">
        <ele>2089</ele>
        <time>2017-02-26T08:04:08.000Z</time>
      </trkpt>
      <trkpt lat="45.15963" lon="5.91915">
        <ele>2089</ele>
        <time>2017-02-26T08:04:18.000Z</time>
      </trkpt>
      <trkpt lat="45.15963" lon="5.91915">
        <ele>2089</ele>
        <time>2017-02-26T08:04:28.000Z</time>
      </trkpt>
      <trkpt lat="45.15971" lon="5.91925">
        <ele>2089</ele>
        <time>2017-02-26T08:04:34.000Z</time>
      </trkpt>
      <trkpt lat="45.15971" lon="5.91925">
        <ele>2094</ele>
        <time>2017-02-26T08:04:38.000Z</time>
      </trkpt>
      <trkpt lat="45.15975" lon="5.91932">
        <ele>2094</ele>
        <time>2017-02-26T08:04:46.000Z</time>
      </trkpt>
      <trkpt lat="45.15975" lon="5.91932">
        <ele>2095</ele>
        <time>2017-02-26T08:04:48.000Z</time>
      </trkpt>
      <trkpt lat="45.15978" lon="5.91941">
        <ele>2096</ele>
        <time>2017-02-26T08:04:58.000Z</time>
      </trkpt>
      <trkpt lat="45.15978" lon="5.91941">
        <ele>2099</ele>
        <time>2017-02-26T08:05:08.000Z</time>
      </trkpt>
      <trkpt lat="45.15984" lon="5.91953">
        <ele>2099</ele>
        <time>2017-02-26T08:05:14.000Z</time>
      </trkpt>
      <trkpt lat="45.15984" lon="5.91953">
        <ele>2101</ele>
        <time>2017-02-26T08:05:18.000Z</time>
      </trkpt>
      <trkpt lat="45.15984" lon="5.91953">
        <ele>2106</ele>
        <time>2017-02-26T08:05:28.000Z</time>
      </trkpt>
      <trkpt lat="45.1599" lon="5.91964">
        <ele>2106</ele>
        <time>2017-02-26T08:05:37.000Z</time>
      </trkpt>
      <trkpt lat="45.1599" lon="5.91964">
        <ele>2108</ele>
        <time>2017-02-26T08:05:38.000Z</time>
      </trkpt>
      <trkpt lat="45.1599" lon="5.91964">
        <ele>2108</ele>
        <time>2017-02-26T08:05:48.000Z</time>
      </trkpt>
      <trkpt lat="45.1599" lon="5.91964">
        <ele>2108</ele>
        <time>2017-02-26T08:05:58.000Z</time>
      </trkpt>
      <trkpt lat="45.15984" lon="5.91976">
        <ele>2108</ele>
        <time>2017-02-26T08:06:05.000Z</time>
      </trkpt>
      <trkpt lat="45.15984" lon="5.91976">
        <ele>2110</ele>
        <time>2017-02-26T08:06:08.000Z</time>
      </trkpt>
      <trkpt lat="45.15984" lon="5.91976">
        <ele>2111</ele>
        <time>2017-02-26T08:06:18.000Z</time>
      </trkpt>
      <trkpt lat="45.15987" lon="5.9199">
        <ele>2111</ele>
        <time>2017-02-26T08:06:21.000Z</time>
      </trkpt>
      <trkpt lat="45.15987" lon="5.9199">
        <ele>2117</ele>
        <time>2017-02-26T08:06:28.000Z</time>
      </trkpt>
      <trkpt lat="45.15997" lon="5.91985">
        <ele>2117</ele>
        <time>2017-02-26T08:06:37.000Z</time>
      </trkpt>
      <trkpt lat="45.15997" lon="5.91985">
        <ele>2122</ele>
        <time>2017-02-26T08:06:38.000Z</time>
      </trkpt>
      <trkpt lat="45.15997" lon="5.91985">
        <ele>2122</ele>
        <time>2017-02-26T08:06:48.000Z</time>
      </trkpt>
      <trkpt lat="45.16002" lon="5.91996">
        <ele>2122</ele>
        <time>2017-02-26T08:06:57.000Z</time>
      </trkpt>
      <trkpt lat="45.16002" lon="5.91996">
        <ele>2122</ele>
        <time>2017-02-26T08:06:58.000Z</time>
      </trkpt>
      <trkpt lat="45.16002" lon="5.91996">
        <ele>2122</ele>
        <time>2017-02-26T08:07:08.000Z</time>
      </trkpt>
      <trkpt lat="45.16003" lon="5.92013">
        <ele>2122</ele>
        <time>2017-02-26T08:07:13.000Z</time>
      </trkpt>
      <trkpt lat="45.16003" lon="5.92013">
        <ele>2124</ele>
        <time>2017-02-26T08:07:18.000Z</time>
      </trkpt>
      <trkpt lat="45.16003" lon="5.92013">
        <ele>2125</ele>
        <time>2017-02-26T08:07:28.000Z</time>
      </trkpt>
      <trkpt lat="45.16008" lon="5.92027">
        <ele>2125</ele>
        <time>2017-02-26T08:07:33.000Z</time>
      </trkpt>
      <trkpt lat="45.16008" lon="5.92027">
        <ele>2129</ele>
        <time>2017-02-26T08:07:38.000Z</time>
      </trkpt>
      <trkpt lat="45.16014" lon="5.9204">
        <ele>2129</ele>
        <time>2017-02-26T08:07:45.000Z</time>
      </trkpt>
      <trkpt lat="45.16014" lon="5.9204">
        <ele>2131</ele>
        <time>2017-02-26T08:07:48.000Z</time>
      </trkpt>
      <trkpt lat="45.16014" lon="5.9204">
        <ele>2132</ele>
        <time>2017-02-26T08:07:58.000Z</time>
      </trkpt>
      <trkpt lat="45.16014" lon="5.9204">
        <ele>2138</ele>
        <time>2017-02-26T08:08:08.000Z</time>
      </trkpt>
      <trkpt lat="45.16022" lon="5.92031">
        <ele>2138</ele>
        <time>2017-02-26T08:08:13.000Z</time>
      </trkpt>
      <trkpt lat="45.16025" lon="5.92029">
        <ele>2141</ele>
        <time>2017-02-26T08:08:18.000Z</time>
      </trkpt>
      <trkpt lat="45.16029" lon="5.92027">
        <ele>2142</ele>
        <time>2017-02-26T08:08:28.000Z</time>
      </trkpt>
      <trkpt lat="45.16032" lon="5.92025">
        <ele>2142</ele>
        <time>2017-02-26T08:08:29.000Z</time>
      </trkpt>
      <trkpt lat="45.16032" lon="5.92025">
        <ele>2143</ele>
        <time>2017-02-26T08:08:38.000Z</time>
      </trkpt>
      <trkpt lat="45.16045" lon="5.92019">
        <ele>2143</ele>
        <time>2017-02-26T08:08:45.000Z</time>
      </trkpt>
      <trkpt lat="45.16045" lon="5.92019">
        <ele>2149</ele>
        <time>2017-02-26T08:08:48.000Z</time>
      </trkpt>
      <trkpt lat="45.16045" lon="5.92019">
        <ele>2159</ele>
        <time>2017-02-26T08:08:58.000Z</time>
      </trkpt>
      <trkpt lat="45.16051" lon="5.9203">
        <ele>2159</ele>
        <time>2017-02-26T08:09:05.000Z</time>
      </trkpt>
      <trkpt lat="45.16051" lon="5.9203">
        <ele>2159</ele>
        <time>2017-02-26T08:09:08.000Z</time>
      </trkpt>
      <trkpt lat="45.16051" lon="5.9203">
        <ele>2160</ele>
        <time>2017-02-26T08:09:18.000Z</time>
      </trkpt>
      <trkpt lat="45.16051" lon="5.9203">
        <ele>2161</ele>
        <time>2017-02-26T08:09:28.000Z</time>
      </trkpt>
      <trkpt lat="45.16054" lon="5.92048">
        <ele>2161</ele>
        <time>2017-02-26T08:09:33.000Z</time>
      </trkpt>
      <trkpt lat="45.16054" lon="5.92048">
        <ele>2162</ele>
        <time>2017-02-26T08:09:38.000Z</time>
      </trkpt>
      <trkpt lat="45.16054" lon="5.92048">
        <ele>2163</ele>
        <time>2017-02-26T08:09:48.000Z</time>
      </trkpt>
      <trkpt lat="45.1606" lon="5.9206">
        <ele>2163</ele>
        <time>2017-02-26T08:09:57.000Z</time>
      </trkpt>
      <trkpt lat="45.1606" lon="5.9206">
        <ele>2164</ele>
        <time>2017-02-26T08:09:58.000Z</time>
      </trkpt>
      <trkpt lat="45.1606" lon="5.9206">
        <ele>2167</ele>
        <time>2017-02-26T08:10:08.000Z</time>
      </trkpt>
      <trkpt lat="45.1606" lon="5.9206">
        <ele>2167</ele>
        <time>2017-02-26T08:10:18.000Z</time>
      </trkpt>
      <trkpt lat="45.1606" lon="5.9206">
        <ele>2168</ele>
        <time>2017-02-26T08:10:28.000Z</time>
      </trkpt>
      <trkpt lat="45.1606" lon="5.9206">
        <ele>2169</ele>
        <time>2017-02-26T08:10:38.000Z</time>
      </trkpt>
      <trkpt lat="45.1607" lon="5.92057">
        <ele>2169</ele>
        <time>2017-02-26T08:10:45.000Z</time>
      </trkpt>
      <trkpt lat="45.1607" lon="5.92057">
        <ele>2170</ele>
        <time>2017-02-26T08:10:48.000Z</time>
      </trkpt>
      <trkpt lat="45.1607" lon="5.92057">
        <ele>2173</ele>
        <time>2017-02-26T08:10:58.000Z</time>
      </trkpt>
      <trkpt lat="45.1607" lon="5.92057">
        <ele>2175</ele>
        <time>2017-02-26T08:11:08.000Z</time>
      </trkpt>
      <trkpt lat="45.1607" lon="5.92057">
        <ele>2175</ele>
        <time>2017-02-26T08:11:18.000Z</time>
      </trkpt>
      <trkpt lat="45.16077" lon="5.9207">
        <ele>2175</ele>
        <time>2017-02-26T08:11:21.000Z</time>
      </trkpt>
      <trkpt lat="45.16077" lon="5.9207">
        <ele>2179</ele>
        <time>2017-02-26T08:11:28.000Z</time>
      </trkpt>
      <trkpt lat="45.16077" lon="5.9207">
        <ele>2181</ele>
        <time>2017-02-26T08:11:38.000Z</time>
      </trkpt>
      <trkpt lat="45.16082" lon="5.92088">
        <ele>2181</ele>
        <time>2017-02-26T08:11:41.000Z</time>
      </trkpt>
      <trkpt lat="45.16082" lon="5.92088">
        <ele>2182</ele>
        <time>2017-02-26T08:11:48.000Z</time>
      </trkpt>
      <trkpt lat="45.16078" lon="5.92103">
        <ele>2182</ele>
        <time>2017-02-26T08:11:57.000Z</time>
      </trkpt>
      <trkpt lat="45.16078" lon="5.92103">
        <ele>2183</ele>
        <time>2017-02-26T08:11:58.000Z</time>
      </trkpt>
      <trkpt lat="45.16078" lon="5.92103">
        <ele>2184</ele>
        <time>2017-02-26T08:12:08.000Z</time>
      </trkpt>
      <trkpt lat="45.16078" lon="5.92103">
        <ele>2185</ele>
        <time>2017-02-26T08:12:18.000Z</time>
      </trkpt>
      <trkpt lat="45.16088" lon="5.92097">
        <ele>2185</ele>
        <time>2017-02-26T08:12:25.000Z</time>
      </trkpt>
      <trkpt lat="45.16088" lon="5.92097">
        <ele>2186</ele>
        <time>2017-02-26T08:12:28.000Z</time>
      </trkpt>
      <trkpt lat="45.16088" lon="5.92097">
        <ele>2189</ele>
        <time>2017-02-26T08:12:38.000Z</time>
      </trkpt>
      <trkpt lat="45.16096" lon="5.92091">
        <ele>2189</ele>
        <time>2017-02-26T08:12:41.000Z</time>
      </trkpt>
      <trkpt lat="45.16096" lon="5.92091">
        <ele>2189</ele>
        <time>2017-02-26T08:12:48.000Z</time>
      </trkpt>
      <trkpt lat="45.16103" lon="5.92089">
        <ele>2189</ele>
        <time>2017-02-26T08:12:53.000Z</time>
      </trkpt>
      <trkpt lat="45.16103" lon="5.92089">
        <ele>2189</ele>
        <time>2017-02-26T08:12:58.000Z</time>
      </trkpt>
      <trkpt lat="45.16103" lon="5.92089">
        <ele>2190</ele>
        <time>2017-02-26T08:13:08.000Z</time>
      </trkpt>
      <trkpt lat="45.16103" lon="5.92089">
        <ele>2190</ele>
        <time>2017-02-26T08:13:18.000Z</time>
      </trkpt>
      <trkpt lat="45.16103" lon="5.92089">
        <ele>2190</ele>
        <time>2017-02-26T08:13:28.000Z</time>
      </trkpt>
      <trkpt lat="45.16107" lon="5.92086">
        <ele>2190</ele>
        <time>2017-02-26T08:13:33.000Z</time>
      </trkpt>
      <trkpt lat="45.16107" lon="5.92086">
        <ele>2190</ele>
        <time>2017-02-26T08:13:38.000Z</time>
      </trkpt>
      <trkpt lat="45.16107" lon="5.92086">
        <ele>2192</ele>
        <time>2017-02-26T08:13:48.000Z</time>
      </trkpt>
      <trkpt lat="45.16107" lon="5.92086">
        <ele>2191</ele>
        <time>2017-02-26T08:13:58.000Z</time>
      </trkpt>
      <trkpt lat="45.16107" lon="5.92086">
        <ele>2190</ele>
        <time>2017-02-26T08:14:08.000Z</time>
      </trkpt>
      <trkpt lat="45.16107" lon="5.92086">
        <ele>2190</ele>
        <time>2017-02-26T08:14:18.000Z</time>
      </trkpt>
      <trkpt lat="45.16107" lon="5.92086">
        <ele>2190</ele>
        <time>2017-02-26T08:14:28.000Z</time>
      </trkpt>
      <trkpt lat="45.16107" lon="5.92086">
        <ele>2191</ele>
        <time>2017-02-26T08:14:38.000Z</time>
      </trkpt>
      <trkpt lat="45.16107" lon="5.92086">
        <ele>2192</ele>
        <time>2017-02-26T08:14:48.000Z</time>
      </trkpt>
      <trkpt lat="45.16107" lon="5.92086">
        <ele>2193</ele>
        <time>2017-02-26T08:14:58.000Z</time>
      </trkpt>
      <trkpt lat="45.16107" lon="5.92086">
        <ele>2194</ele>
        <time>2017-02-26T08:15:08.000Z</time>
      </trkpt>
      <trkpt lat="45.16106" lon="5.92103">
        <ele>2194</ele>
        <time>2017-02-26T08:15:17.000Z</time>
      </trkpt>
      <trkpt lat="45.16106" lon="5.92103">
        <ele>2196</ele>
        <time>2017-02-26T08:15:18.000Z</time>
      </trkpt>
      <trkpt lat="45.16106" lon="5.92103">
        <ele>2198</ele>
        <time>2017-02-26T08:15:28.000Z</time>
      </trkpt>
      <trkpt lat="45.16106" lon="5.92117">
        <ele>2198</ele>
        <time>2017-02-26T08:15:33.000Z</time>
      </trkpt>
      <trkpt lat="45.16106" lon="5.92117">
        <ele>2199</ele>
        <time>2017-02-26T08:15:38.000Z</time>
      </trkpt>
      <trkpt lat="45.16106" lon="5.92117">
        <ele>2201</ele>
        <time>2017-02-26T08:15:48.000Z</time>
      </trkpt>
      <trkpt lat="45.16106" lon="5.92117">
        <ele>2204</ele>
        <time>2017-02-26T08:15:58.000Z</time>
      </trkpt>
      <trkpt lat="45.1611" lon="5.92132">
        <ele>2204</ele>
        <time>2017-02-26T08:16:01.000Z</time>
      </trkpt>
      <trkpt lat="45.1611" lon="5.92132">
        <ele>2205</ele>
        <time>2017-02-26T08:16:08.000Z</time>
      </trkpt>
      <trkpt lat="45.1611" lon="5.92132">
        <ele>2206</ele>
        <time>2017-02-26T08:16:18.000Z</time>
      </trkpt>
      <trkpt lat="45.1611" lon="5.92132">
        <ele>2206</ele>
        <time>2017-02-26T08:16:28.000Z</time>
      </trkpt>
      <trkpt lat="45.16118" lon="5.9212">
        <ele>2209</ele>
        <time>2017-02-26T08:16:38.000Z</time>
      </trkpt>
      <trkpt lat="45.16118" lon="5.9212">
        <ele>2211</ele>
        <time>2017-02-26T08:16:48.000Z</time>
      </trkpt>
      <trkpt lat="45.16118" lon="5.9212">
        <ele>2211</ele>
        <time>2017-02-26T08:16:58.000Z</time>
      </trkpt>
      <trkpt lat="45.16118" lon="5.9212">
        <ele>2213</ele>
        <time>2017-02-26T08:17:08.000Z</time>
      </trkpt>
      <trkpt lat="45.16118" lon="5.9212">
        <ele>2213</ele>
        <time>2017-02-26T08:17:18.000Z</time>
      </trkpt>
      <trkpt lat="45.16118" lon="5.9212">
        <ele>2214</ele>
        <time>2017-02-26T08:17:28.000Z</time>
      </trkpt>
      <trkpt lat="45.16118" lon="5.9212">
        <ele>2217</ele>
        <time>2017-02-26T08:17:38.000Z</time>
      </trkpt>
      <trkpt lat="45.16126" lon="5.92128">
        <ele>2217</ele>
        <time>2017-02-26T08:17:43.000Z</time>
      </trkpt>
      <trkpt lat="45.16126" lon="5.92128">
        <ele>2217</ele>
        <time>2017-02-26T08:17:48.000Z</time>
      </trkpt>
      <trkpt lat="45.16126" lon="5.92128">
        <ele>2217</ele>
        <time>2017-02-26T08:17:58.000Z</time>
      </trkpt>
      <trkpt lat="45.16136" lon="5.92133">
        <ele>2217</ele>
        <time>2017-02-26T08:18:07.000Z</time>
      </trkpt>
      <trkpt lat="45.16136" lon="5.92133">
        <ele>2221</ele>
        <time>2017-02-26T08:18:08.000Z</time>
      </trkpt>
      <trkpt lat="45.16136" lon="5.92133">
        <ele>2222</ele>
        <time>2017-02-26T08:18:18.000Z</time>
      </trkpt>
      <trkpt lat="45.16136" lon="5.92133">
        <ele>2223</ele>
        <time>2017-02-26T08:18:28.000Z</time>
      </trkpt>
      <trkpt lat="45.16136" lon="5.92133">
        <ele>2223</ele>
        <time>2017-02-26T08:18:38.000Z</time>
      </trkpt>
      <trkpt lat="45.16136" lon="5.92133">
        <ele>2224</ele>
        <time>2017-02-26T08:18:48.000Z</time>
      </trkpt>
      <trkpt lat="45.16144" lon="5.92124">
        <ele>2224</ele>
        <time>2017-02-26T08:18:51.000Z</time>
      </trkpt>
      <trkpt lat="45.16144" lon="5.92124">
        <ele>2225</ele>
        <time>2017-02-26T08:18:58.000Z</time>
      </trkpt>
      <trkpt lat="45.16154" lon="5.92129">
        <ele>2225</ele>
        <time>2017-02-26T08:19:03.000Z</time>
      </trkpt>
      <trkpt lat="45.16154" lon="5.92129">
        <ele>2226</ele>
        <time>2017-02-26T08:19:08.000Z</time>
      </trkpt>
      <trkpt lat="45.16166" lon="5.92138">
        <ele>2226</ele>
        <time>2017-02-26T08:19:15.000Z</time>
      </trkpt>
      <trkpt lat="45.16163" lon="5.92137">
        <ele>2228</ele>
        <time>2017-02-26T08:19:18.000Z</time>
      </trkpt>
      <trkpt lat="45.1616" lon="5.92136">
        <ele>2228</ele>
        <time>2017-02-26T08:19:28.000Z</time>
      </trkpt>
      <trkpt lat="45.16157" lon="5.92135">
        <ele>2229</ele>
        <time>2017-02-26T08:19:38.000Z</time>
      </trkpt>
      <trkpt lat="45.16155" lon="5.92133">
        <ele>2229</ele>
        <time>2017-02-26T08:19:39.000Z</time>
      </trkpt>
      <trkpt lat="45.16155" lon="5.92133">
        <ele>2229</ele>
        <time>2017-02-26T08:19:48.000Z</time>
      </trkpt>
      <trkpt lat="45.16155" lon="5.92133">
        <ele>2233</ele>
        <time>2017-02-26T08:19:58.000Z</time>
      </trkpt>
      <trkpt lat="45.16155" lon="5.92133">
        <ele>2235</ele>
        <time>2017-02-26T08:20:08.000Z</time>
      </trkpt>
      <trkpt lat="45.16157" lon="5.9215">
        <ele>2235</ele>
        <time>2017-02-26T08:20:11.000Z</time>
      </trkpt>
      <trkpt lat="45.16157" lon="5.9215">
        <ele>2237</ele>
        <time>2017-02-26T08:20:18.000Z</time>
      </trkpt>
      <trkpt lat="45.16157" lon="5.9215">
        <ele>2236</ele>
        <time>2017-02-26T08:20:28.000Z</time>
      </trkpt>
      <trkpt lat="45.16166" lon="5.92164">
        <ele>2236</ele>
        <time>2017-02-26T08:20:31.000Z</time>
      </trkpt>
      <trkpt lat="45.16166" lon="5.92164">
        <ele>2237</ele>
        <time>2017-02-26T08:20:38.000Z</time>
      </trkpt>
      <trkpt lat="45.16166" lon="5.92164">
        <ele>2241</ele>
        <time>2017-02-26T08:20:48.000Z</time>
      </trkpt>
      <trkpt lat="45.16174" lon="5.92175">
        <ele>2241</ele>
        <time>2017-02-26T08:20:55.000Z</time>
      </trkpt>
      <trkpt lat="45.16174" lon="5.92175">
        <ele>2243</ele>
        <time>2017-02-26T08:20:58.000Z</time>
      </trkpt>
      <trkpt lat="45.16174" lon="5.92175">
        <ele>2245</ele>
        <time>2017-02-26T08:21:08.000Z</time>
      </trkpt>
      <trkpt lat="45.16185" lon="5.92183">
        <ele>2245</ele>
        <time>2017-02-26T08:21:15.000Z</time>
      </trkpt>
      <trkpt lat="45.16188" lon="5.92189">
        <ele>2246</ele>
        <time>2017-02-26T08:21:18.000Z</time>
      </trkpt>
      <trkpt lat="45.16191" lon="5.92194">
        <ele>2246</ele>
        <time>2017-02-26T08:21:27.000Z</time>
      </trkpt>
      <trkpt lat="45.16194" lon="5.922">
        <ele>2249</ele>
        <time>2017-02-26T08:21:28.000Z</time>
      </trkpt>
      <trkpt lat="45.16197" lon="5.92206">
        <ele>2249</ele>
        <time>2017-02-26T08:21:38.000Z</time>
      </trkpt>
      <trkpt lat="45.162" lon="5.92212">
        <ele>2249</ele>
        <time>2017-02-26T08:21:39.000Z</time>
      </trkpt>
      <trkpt lat="45.162" lon="5.92212">
        <ele>2253</ele>
        <time>2017-02-26T08:21:48.000Z</time>
      </trkpt>
      <trkpt lat="45.162" lon="5.92212">
        <ele>2253</ele>
        <time>2017-02-26T08:21:58.000Z</time>
      </trkpt>
      <trkpt lat="45.162" lon="5.92212">
        <ele>2257</ele>
        <time>2017-02-26T08:22:08.000Z</time>
      </trkpt>
      <trkpt lat="45.16206" lon="5.92232">
        <ele>2257</ele>
        <time>2017-02-26T08:22:15.000Z</time>
      </trkpt>
      <trkpt lat="45.16206" lon="5.92232">
        <ele>2260</ele>
        <time>2017-02-26T08:22:18.000Z</time>
      </trkpt>
      <trkpt lat="45.16206" lon="5.92232">
        <ele>2263</ele>
        <time>2017-02-26T08:22:28.000Z</time>
      </trkpt>
      <trkpt lat="45.16214" lon="5.92243">
        <ele>2263</ele>
        <time>2017-02-26T08:22:31.000Z</time>
      </trkpt>
      <trkpt lat="45.16214" lon="5.92243">
        <ele>2264</ele>
        <time>2017-02-26T08:22:38.000Z</time>
      </trkpt>
      <trkpt lat="45.16222" lon="5.92255">
        <ele>2264</ele>
        <time>2017-02-26T08:22:43.000Z</time>
      </trkpt>
      <trkpt lat="45.16222" lon="5.92255">
        <ele>2265</ele>
        <time>2017-02-26T08:22:48.000Z</time>
      </trkpt>
      <trkpt lat="45.16222" lon="5.92255">
        <ele>2265</ele>
        <time>2017-02-26T08:22:58.000Z</time>
      </trkpt>
      <trkpt lat="45.16222" lon="5.92255">
        <ele>2271</ele>
        <time>2017-02-26T08:23:08.000Z</time>
      </trkpt>
      <trkpt lat="45.16228" lon="5.92269">
        <ele>2271</ele>
        <time>2017-02-26T08:23:15.000Z</time>
      </trkpt>
      <trkpt lat="45.16228" lon="5.92269">
        <ele>2274</ele>
        <time>2017-02-26T08:23:18.000Z</time>
      </trkpt>
      <trkpt lat="45.16228" lon="5.92269">
        <ele>2274</ele>
        <time>2017-02-26T08:23:28.000Z</time>
      </trkpt>
      <trkpt lat="45.16238" lon="5.9228">
        <ele>2274</ele>
        <time>2017-02-26T08:23:31.000Z</time>
      </trkpt>
      <trkpt lat="45.16238" lon="5.9228">
        <ele>2277</ele>
        <time>2017-02-26T08:23:38.000Z</time>
      </trkpt>
      <trkpt lat="45.16249" lon="5.92289">
        <ele>2277</ele>
        <time>2017-02-26T08:23:43.000Z</time>
      </trkpt>
      <trkpt lat="45.1625" lon="5.92293">
        <ele>2277</ele>
        <time>2017-02-26T08:23:48.000Z</time>
      </trkpt>
      <trkpt lat="45.16252" lon="5.92298">
        <ele>2280</ele>
        <time>2017-02-26T08:23:58.000Z</time>
      </trkpt>
      <trkpt lat="45.16253" lon="5.92303">
        <ele>2280</ele>
        <time>2017-02-26T08:23:59.000Z</time>
      </trkpt>
      <trkpt lat="45.16253" lon="5.92303">
        <ele>2283</ele>
        <time>2017-02-26T08:24:08.000Z</time>
      </trkpt>
      <trkpt lat="45.16262" lon="5.92312">
        <ele>2283</ele>
        <time>2017-02-26T08:24:15.000Z</time>
      </trkpt>
      <trkpt lat="45.16262" lon="5.92312">
        <ele>2285</ele>
        <time>2017-02-26T08:24:18.000Z</time>
      </trkpt>
      <trkpt lat="45.16262" lon="5.92312">
        <ele>2298</ele>
        <time>2017-02-26T08:24:28.000Z</time>
      </trkpt>
      <trkpt lat="45.16253" lon="5.92322">
        <ele>2298</ele>
        <time>2017-02-26T08:24:31.000Z</time>
      </trkpt>
      <trkpt lat="45.16253" lon="5.92322">
        <ele>2300</ele>
        <time>2017-02-26T08:24:38.000Z</time>
      </trkpt>
      <trkpt lat="45.16253" lon="5.92322">
        <ele>2302</ele>
        <time>2017-02-26T08:24:48.000Z</time>
      </trkpt>
      <trkpt lat="45.16255" lon="5.92336">
        <ele>2302</ele>
        <time>2017-02-26T08:24:51.000Z</time>
      </trkpt>
      <trkpt lat="45.16257" lon="5.92339">
        <ele>2304</ele>
        <time>2017-02-26T08:24:58.000Z</time>
      </trkpt>
      <trkpt lat="45.16259" lon="5.92343">
        <ele>2304</ele>
        <time>2017-02-26T08:25:08.000Z</time>
      </trkpt>
      <trkpt lat="45.16262" lon="5.92347">
        <ele>2307</ele>
        <time>2017-02-26T08:25:18.000Z</time>
      </trkpt>
      <trkpt lat="45.16264" lon="5.92351">
        <ele>2307</ele>
        <time>2017-02-26T08:25:19.000Z</time>
      </trkpt>
      <trkpt lat="45.16268" lon="5.92353">
        <ele>2311</ele>
        <time>2017-02-26T08:25:28.000Z</time>
      </trkpt>
      <trkpt lat="45.16271" lon="5.92356">
        <ele>2311</ele>
        <time>2017-02-26T08:25:38.000Z</time>
      </trkpt>
      <trkpt lat="45.16274" lon="5.92358">
        <ele>2311</ele>
        <time>2017-02-26T08:25:39.000Z</time>
      </trkpt>
      <trkpt lat="45.16277" lon="5.92363">
        <ele>2312</ele>
        <time>2017-02-26T08:25:48.000Z</time>
      </trkpt>
      <trkpt lat="45.1628" lon="5.92368">
        <ele>2313</ele>
        <time>2017-02-26T08:25:58.000Z</time>
      </trkpt>
      <trkpt lat="45.16282" lon="5.92373">
        <ele>2313</ele>
        <time>2017-02-26T08:25:59.000Z</time>
      </trkpt>
      <trkpt lat="45.16282" lon="5.92373">
        <ele>2316</ele>
        <time>2017-02-26T08:26:08.000Z</time>
      </trkpt>
      <trkpt lat="45.16282" lon="5.92373">
        <ele>2317</ele>
        <time>2017-02-26T08:26:18.000Z</time>
      </trkpt>
      <trkpt lat="45.16289" lon="5.9239">
        <ele>2317</ele>
        <time>2017-02-26T08:26:23.000Z</time>
      </trkpt>
      <trkpt lat="45.16289" lon="5.9239">
        <ele>2319</ele>
        <time>2017-02-26T08:26:28.000Z</time>
      </trkpt>
      <trkpt lat="45.16289" lon="5.9239">
        <ele>2319</ele>
        <time>2017-02-26T08:26:38.000Z</time>
      </trkpt>
      <trkpt lat="45.16298" lon="5.92404">
        <ele>2319</ele>
        <time>2017-02-26T08:26:43.000Z</time>
      </trkpt>
      <trkpt lat="45.16298" lon="5.92404">
        <ele>2322</ele>
        <time>2017-02-26T08:26:48.000Z</time>
      </trkpt>
      <trkpt lat="45.16306" lon="5.92418">
        <ele>2322</ele>
        <time>2017-02-26T08:26:55.000Z</time>
      </trkpt>
      <trkpt lat="45.16306" lon="5.92418">
        <ele>2324</ele>
        <time>2017-02-26T08:26:58.000Z</time>
      </trkpt>
      <trkpt lat="45.16306" lon="5.92418">
        <ele>2324</ele>
        <time>2017-02-26T08:27:08.000Z</time>
      </trkpt>
      <trkpt lat="45.16311" lon="5.92433">
        <ele>2324</ele>
        <time>2017-02-26T08:27:11.000Z</time>
      </trkpt>
      <trkpt lat="45.16311" lon="5.92433">
        <ele>2327</ele>
        <time>2017-02-26T08:27:18.000Z</time>
      </trkpt>
      <trkpt lat="45.16311" lon="5.92433">
        <ele>2329</ele>
        <time>2017-02-26T08:27:28.000Z</time>
      </trkpt>
      <trkpt lat="45.16317" lon="5.92446">
        <ele>2329</ele>
        <time>2017-02-26T08:27:31.000Z</time>
      </trkpt>
      <trkpt lat="45.16314" lon="5.92448">
        <ele>2330</ele>
        <time>2017-02-26T08:27:38.000Z</time>
      </trkpt>
      <trkpt lat="45.16312" lon="5.92451">
        <ele>2331</ele>
        <time>2017-02-26T08:27:48.000Z</time>
      </trkpt>
      <trkpt lat="45.1631" lon="5.92453">
        <ele>2332</ele>
        <time>2017-02-26T08:27:58.000Z</time>
      </trkpt>
      <trkpt lat="45.16308" lon="5.92456">
        <ele>2332</ele>
        <time>2017-02-26T08:27:59.000Z</time>
      </trkpt>
      <trkpt lat="45.16308" lon="5.92456">
        <ele>2337</ele>
        <time>2017-02-26T08:28:08.000Z</time>
      </trkpt>
      <trkpt lat="45.16298" lon="5.92461">
        <ele>2337</ele>
        <time>2017-02-26T08:28:11.000Z</time>
      </trkpt>
      <trkpt lat="45.16298" lon="5.92461">
        <ele>2339</ele>
        <time>2017-02-26T08:28:18.000Z</time>
      </trkpt>
      <trkpt lat="45.16298" lon="5.92461">
        <ele>2339</ele>
        <time>2017-02-26T08:28:28.000Z</time>
      </trkpt>
      <trkpt lat="45.16287" lon="5.92468">
        <ele>2339</ele>
        <time>2017-02-26T08:28:31.000Z</time>
      </trkpt>
      <trkpt lat="45.16287" lon="5.92468">
        <ele>2341</ele>
        <time>2017-02-26T08:28:38.000Z</time>
      </trkpt>
      <trkpt lat="45.16276" lon="5.92466">
        <ele>2341</ele>
        <time>2017-02-26T08:28:43.000Z</time>
      </trkpt>
      <trkpt lat="45.16273" lon="5.92469">
        <ele>2344</ele>
        <time>2017-02-26T08:28:48.000Z</time>
      </trkpt>
      <trkpt lat="45.1627" lon="5.92472">
        <ele>2344</ele>
        <time>2017-02-26T08:28:58.000Z</time>
      </trkpt>
      <trkpt lat="45.16266" lon="5.92475">
        <ele>2344</ele>
        <time>2017-02-26T08:28:59.000Z</time>
      </trkpt>
      <trkpt lat="45.16258" lon="5.92482">
        <ele>2344</ele>
        <time>2017-02-26T08:29:07.000Z</time>
      </trkpt>
      <trkpt lat="45.16258" lon="5.92484">
        <ele>2347</ele>
        <time>2017-02-26T08:29:08.000Z</time>
      </trkpt>
      <trkpt lat="45.16258" lon="5.92487">
        <ele>2349</ele>
        <time>2017-02-26T08:29:18.000Z</time>
      </trkpt>
      <trkpt lat="45.16259" lon="5.9249">
        <ele>2349</ele>
        <time>2017-02-26T08:29:27.000Z</time>
      </trkpt>
      <trkpt lat="45.16259" lon="5.92492">
        <ele>2350</ele>
        <time>2017-02-26T08:29:28.000Z</time>
      </trkpt>
      <trkpt lat="45.1626" lon="5.92495">
        <ele>2354</ele>
        <time>2017-02-26T08:29:38.000Z</time>
      </trkpt>
      <trkpt lat="45.1626" lon="5.92498">
        <ele>2354</ele>
        <time>2017-02-26T08:29:47.000Z</time>
      </trkpt>
      <trkpt lat="45.1626" lon="5.925">
        <ele>2356</ele>
        <time>2017-02-26T08:29:48.000Z</time>
      </trkpt>
      <trkpt lat="45.16261" lon="5.92503">
        <ele>2356</ele>
        <time>2017-02-26T08:29:58.000Z</time>
      </trkpt>
      <trkpt lat="45.16261" lon="5.92506">
        <ele>2356</ele>
        <time>2017-02-26T08:29:59.000Z</time>
      </trkpt>
      <trkpt lat="45.16263" lon="5.9251">
        <ele>2359</ele>
        <time>2017-02-26T08:30:08.000Z</time>
      </trkpt>
      <trkpt lat="45.16265" lon="5.92515">
        <ele>2359</ele>
        <time>2017-02-26T08:30:15.000Z</time>
      </trkpt>
      <trkpt lat="45.16267" lon="5.92519">
        <ele>2359</ele>
        <time>2017-02-26T08:30:18.000Z</time>
      </trkpt>
      <trkpt lat="45.16268" lon="5.92524">
        <ele>2363</ele>
        <time>2017-02-26T08:30:28.000Z</time>
      </trkpt>
      <trkpt lat="45.1627" lon="5.92528">
        <ele>2364</ele>
        <time>2017-02-26T08:30:38.000Z</time>
      </trkpt>
      <trkpt lat="45.16272" lon="5.92532">
        <ele>2364</ele>
        <time>2017-02-26T08:30:39.000Z</time>
      </trkpt>
      <trkpt lat="45.1627" lon="5.92538">
        <ele>2365</ele>
        <time>2017-02-26T08:30:48.000Z</time>
      </trkpt>
      <trkpt lat="45.16267" lon="5.92543">
        <ele>2368</ele>
        <time>2017-02-26T08:30:58.000Z</time>
      </trkpt>
      <trkpt lat="45.16265" lon="5.92548">
        <ele>2368</ele>
        <time>2017-02-26T08:30:59.000Z</time>
      </trkpt>
      <trkpt lat="45.16264" lon="5.92553">
        <ele>2370</ele>
        <time>2017-02-26T08:31:08.000Z</time>
      </trkpt>
      <trkpt lat="45.16264" lon="5.92557">
        <ele>2370</ele>
        <time>2017-02-26T08:31:15.000Z</time>
      </trkpt>
      <trkpt lat="45.16264" lon="5.92562">
        <ele>2371</ele>
        <time>2017-02-26T08:31:18.000Z</time>
      </trkpt>
      <trkpt lat="45.16264" lon="5.92567">
        <ele>2373</ele>
        <time>2017-02-26T08:31:28.000Z</time>
      </trkpt>
      <trkpt lat="45.16264" lon="5.92571">
        <ele>2374</ele>
        <time>2017-02-26T08:31:38.000Z</time>
      </trkpt>
      <trkpt lat="45.16264" lon="5.92576">
        <ele>2374</ele>
        <time>2017-02-26T08:31:39.000Z</time>
      </trkpt>
      <trkpt lat="45.16264" lon="5.92576">
        <ele>2375</ele>
        <time>2017-02-26T08:31:48.000Z</time>
      </trkpt>
      <trkpt lat="45.16264" lon="5.92576">
        <ele>2378</ele>
        <time>2017-02-26T08:31:58.000Z</time>
      </trkpt>
      <trkpt lat="45.16264" lon="5.92576">
        <ele>2380</ele>
        <time>2017-02-26T08:32:08.000Z</time>
      </trkpt>
      <trkpt lat="45.1626" lon="5.92595">
        <ele>2380</ele>
        <time>2017-02-26T08:32:11.000Z</time>
      </trkpt>
      <trkpt lat="45.1626" lon="5.92595">
        <ele>2382</ele>
        <time>2017-02-26T08:32:18.000Z</time>
      </trkpt>
      <trkpt lat="45.16267" lon="5.92608">
        <ele>2382</ele>
        <time>2017-02-26T08:32:27.000Z</time>
      </trkpt>
      <trkpt lat="45.16267" lon="5.92608">
        <ele>2382</ele>
        <time>2017-02-26T08:32:28.000Z</time>
      </trkpt>
      <trkpt lat="45.16267" lon="5.92608">
        <ele>2383</ele>
        <time>2017-02-26T08:32:38.000Z</time>
      </trkpt>
      <trkpt lat="45.16267" lon="5.92608">
        <ele>2387</ele>
        <time>2017-02-26T08:32:48.000Z</time>
      </trkpt>
      <trkpt lat="45.16277" lon="5.92622">
        <ele>2387</ele>
        <time>2017-02-26T08:32:55.000Z</time>
      </trkpt>
      <trkpt lat="45.16277" lon="5.92622">
        <ele>2387</ele>
        <time>2017-02-26T08:32:58.000Z</time>
      </trkpt>
      <trkpt lat="45.16277" lon="5.92622">
        <ele>2391</ele>
        <time>2017-02-26T08:33:08.000Z</time>
      </trkpt>
      <trkpt lat="45.16287" lon="5.92643">
        <ele>2391</ele>
        <time>2017-02-26T08:33:11.000Z</time>
      </trkpt>
      <trkpt lat="45.16287" lon="5.92643">
        <ele>2391</ele>
        <time>2017-02-26T08:33:18.000Z</time>
      </trkpt>
      <trkpt lat="45.16296" lon="5.92659">
        <ele>2391</ele>
        <time>2017-02-26T08:33:27.000Z</time>
      </trkpt>
      <trkpt lat="45.16296" lon="5.92659">
        <ele>2393</ele>
        <time>2017-02-26T08:33:28.000Z</time>
      </trkpt>
      <trkpt lat="45.16296" lon="5.92659">
        <ele>2394</ele>
        <time>2017-02-26T08:33:38.000Z</time>
      </trkpt>
      <trkpt lat="45.16302" lon="5.92674">
        <ele>2394</ele>
        <time>2017-02-26T08:33:43.000Z</time>
      </trkpt>
      <trkpt lat="45.16302" lon="5.92674">
        <ele>2395</ele>
        <time>2017-02-26T08:33:48.000Z</time>
      </trkpt>
      <trkpt lat="45.16302" lon="5.92674">
        <ele>2397</ele>
        <time>2017-02-26T08:33:58.000Z</time>
      </trkpt>
      <trkpt lat="45.16302" lon="5.92674">
        <ele>2397</ele>
        <time>2017-02-26T08:34:08.000Z</time>
      </trkpt>
      <trkpt lat="45.16302" lon="5.92674">
        <ele>2397</ele>
        <time>2017-02-26T08:34:18.000Z</time>
      </trkpt>
      <trkpt lat="45.16302" lon="5.92674">
        <ele>2396</ele>
        <time>2017-02-26T08:34:28.000Z</time>
      </trkpt>
      <trkpt lat="45.16302" lon="5.92674">
        <ele>2397</ele>
        <time>2017-02-26T08:34:38.000Z</time>
      </trkpt>
      <trkpt lat="45.16302" lon="5.92674">
        <ele>2397</ele>
        <time>2017-02-26T08:34:48.000Z</time>
      </trkpt>
      <trkpt lat="45.16302" lon="5.92674">
        <ele>2396</ele>
        <time>2017-02-26T08:34:58.000Z</time>
      </trkpt>
      <trkpt lat="45.16302" lon="5.92674">
        <ele>2395</ele>
        <time>2017-02-26T08:35:08.000Z</time>
      </trkpt>
      <trkpt lat="45.16302" lon="5.92674">
        <ele>2395</ele>
        <time>2017-02-26T08:35:18.000Z</time>
      </trkpt>
      <trkpt lat="45.16302" lon="5.92674">
        <ele>2395</ele>
        <time>2017-02-26T08:35:28.000Z</time>
      </trkpt>
      <trkpt lat="45.16309" lon="5.92679">
        <ele>2395</ele>
        <time>2017-02-26T08:35:37.000Z</time>
      </trkpt>
      <trkpt lat="45.16309" lon="5.92679">
        <ele>2394</ele>
        <time>2017-02-26T08:35:38.000Z</time>
      </trkpt>
      <trkpt lat="45.16309" lon="5.92679">
        <ele>2393</ele>
        <time>2017-02-26T08:35:48.000Z</time>
      </trkpt>
      <trkpt lat="45.16309" lon="5.92679">
        <ele>2393</ele>
        <time>2017-02-26T08:35:58.000Z</time>
      </trkpt>
      <trkpt lat="45.16309" lon="5.92679">
        <ele>2392</ele>
        <time>2017-02-26T08:36:08.000Z</time>
      </trkpt>
      <trkpt lat="45.16309" lon="5.92679">
        <ele>2392</ele>
        <time>2017-02-26T08:36:18.000Z</time>
      </trkpt>
      <trkpt lat="45.16299" lon="5.92684">
        <ele>2392</ele>
        <time>2017-02-26T08:36:25.000Z</time>
      </trkpt>
      <trkpt lat="45.16299" lon="5.92684">
        <ele>2391</ele>
        <time>2017-02-26T08:36:28.000Z</time>
      </trkpt>
      <trkpt lat="45.16299" lon="5.92684">
        <ele>2393</ele>
        <time>2017-02-26T08:36:38.000Z</time>
      </trkpt>
      <trkpt lat="45.16299" lon="5.92684">
        <ele>2394</ele>
        <time>2017-02-26T08:36:48.000Z</time>
      </trkpt>
      <trkpt lat="45.16299" lon="5.92684">
        <ele>2394</ele>
        <time>2017-02-26T08:36:58.000Z</time>
      </trkpt>
      <trkpt lat="45.16299" lon="5.92684">
        <ele>2394</ele>
        <time>2017-02-26T08:37:08.000Z</time>
      </trkpt>
      <trkpt lat="45.16299" lon="5.92684">
        <ele>2391</ele>
        <time>2017-02-26T08:37:18.000Z</time>
      </trkpt>
      <trkpt lat="45.16299" lon="5.92684">
        <ele>2391</ele>
        <time>2017-02-26T08:37:28.000Z</time>
      </trkpt>
      <trkpt lat="45.16299" lon="5.92684">
        <ele>2391</ele>
        <time>2017-02-26T08:37:38.000Z</time>
      </trkpt>
      <trkpt lat="45.16306" lon="5.9268">
        <ele>2391</ele>
        <time>2017-02-26T08:37:41.000Z</time>
      </trkpt>
      <trkpt lat="45.16306" lon="5.9268">
        <ele>2391</ele>
        <time>2017-02-26T08:37:48.000Z</time>
      </trkpt>
      <trkpt lat="45.16306" lon="5.9268">
        <ele>2391</ele>
        <time>2017-02-26T08:37:58.000Z</time>
      </trkpt>
      <trkpt lat="45.16306" lon="5.9268">
        <ele>2390</ele>
        <time>2017-02-26T08:38:08.000Z</time>
      </trkpt>
      <trkpt lat="45.16306" lon="5.9268">
        <ele>2391</ele>
        <time>2017-02-26T08:38:18.000Z</time>
      </trkpt>
      <trkpt lat="45.16306" lon="5.9268">
        <ele>2392</ele>
        <time>2017-02-26T08:38:28.000Z</time>
      </trkpt>
      <trkpt lat="45.16306" lon="5.9268">
        <ele>2392</ele>
        <time>2017-02-26T08:38:38.000Z</time>
      </trkpt>
      <trkpt lat="45.16306" lon="5.9268">
        <ele>2390</ele>
        <time>2017-02-26T08:38:48.000Z</time>
      </trkpt>
      <trkpt lat="45.16306" lon="5.9268">
        <ele>2391</ele>
        <time>2017-02-26T08:38:58.000Z</time>
      </trkpt>
      <trkpt lat="45.16306" lon="5.9268">
        <ele>2391</ele>
        <time>2017-02-26T08:39:08.000Z</time>
      </trkpt>
      <trkpt lat="45.16306" lon="5.9268">
        <ele>2390</ele>
        <time>2017-02-26T08:39:18.000Z</time>
      </trkpt>
      <trkpt lat="45.16306" lon="5.9268">
        <ele>2389</ele>
        <time>2017-02-26T08:39:28.000Z</time>
      </trkpt>
      <trkpt lat="45.16306" lon="5.9268">
        <ele>2393</ele>
        <time>2017-02-26T08:39:38.000Z</time>
      </trkpt>
      <trkpt lat="45.16306" lon="5.9268">
        <ele>2391</ele>
        <time>2017-02-26T08:39:48.000Z</time>
      </trkpt>
      <trkpt lat="45.16306" lon="5.9268">
        <ele>2390</ele>
        <time>2017-02-26T08:39:58.000Z</time>
      </trkpt>
      <trkpt lat="45.16306" lon="5.9268">
        <ele>2392</ele>
        <time>2017-02-26T08:40:08.000Z</time>
      </trkpt>
      <trkpt lat="45.16306" lon="5.9268">
        <ele>2391</ele>
        <time>2017-02-26T08:40:18.000Z</time>
      </trkpt>
      <trkpt lat="45.16306" lon="5.9268">
        <ele>2407</ele>
        <time>2017-02-26T08:40:28.000Z</time>
      </trkpt>
      <trkpt lat="45.16306" lon="5.9268">
        <ele>2407</ele>
        <time>2017-02-26T08:40:38.000Z</time>
      </trkpt>
      <trkpt lat="45.16306" lon="5.9268">
        <ele>2409</ele>
        <time>2017-02-26T08:40:48.000Z</time>
      </trkpt>
      <trkpt lat="45.16306" lon="5.9268">
        <ele>2409</ele>
        <time>2017-02-26T08:40:58.000Z</time>
      </trkpt>
      <trkpt lat="45.16306" lon="5.9268">
        <ele>2409</ele>
        <time>2017-02-26T08:41:08.000Z</time>
      </trkpt>
      <trkpt lat="45.16306" lon="5.9268">
        <ele>2408</ele>
        <time>2017-02-26T08:41:18.000Z</time>
      </trkpt>
      <trkpt lat="45.16306" lon="5.9268">
        <ele>2407</ele>
        <time>2017-02-26T08:41:28.000Z</time>
      </trkpt>
      <trkpt lat="45.16306" lon="5.9268">
        <ele>2406</ele>
        <time>2017-02-26T08:41:38.000Z</time>
      </trkpt>
      <trkpt lat="45.16306" lon="5.9268">
        <ele>2405</ele>
        <time>2017-02-26T08:41:48.000Z</time>
      </trkpt>
      <trkpt lat="45.16306" lon="5.9268">
        <ele>2403</ele>
        <time>2017-02-26T08:41:58.000Z</time>
      </trkpt>
      <trkpt lat="45.16306" lon="5.9268">
        <ele>2403</ele>
        <time>2017-02-26T08:42:08.000Z</time>
      </trkpt>
      <trkpt lat="45.16306" lon="5.9268">
        <ele>2403</ele>
        <time>2017-02-26T08:42:18.000Z</time>
      </trkpt>
      <trkpt lat="45.16306" lon="5.9268">
        <ele>2402</ele>
        <time>2017-02-26T08:42:28.000Z</time>
      </trkpt>
      <trkpt lat="45.16306" lon="5.9268">
        <ele>2402</ele>
        <time>2017-02-26T08:42:38.000Z</time>
      </trkpt>
      <trkpt lat="45.16306" lon="5.9268">
        <ele>2401</ele>
        <time>2017-02-26T08:42:48.000Z</time>
      </trkpt>
      <trkpt lat="45.16306" lon="5.9268">
        <ele>2401</ele>
        <time>2017-02-26T08:42:58.000Z</time>
      </trkpt>
      <trkpt lat="45.16306" lon="5.9268">
        <ele>2401</ele>
        <time>2017-02-26T08:43:08.000Z</time>
      </trkpt>
      <trkpt lat="45.16306" lon="5.9268">
        <ele>2401</ele>
        <time>2017-02-26T08:43:18.000Z</time>
      </trkpt>
      <trkpt lat="45.16306" lon="5.9268">
        <ele>2400</ele>
        <time>2017-02-26T08:43:28.000Z</time>
      </trkpt>
      <trkpt lat="45.16306" lon="5.9268">
        <ele>2401</ele>
        <time>2017-02-26T08:43:38.000Z</time>
      </trkpt>
      <trkpt lat="45.16306" lon="5.9268">
        <ele>2400</ele>
        <time>2017-02-26T08:43:48.000Z</time>
      </trkpt>
      <trkpt lat="45.16306" lon="5.9268">
        <ele>2399</ele>
        <time>2017-02-26T08:43:58.000Z</time>
      </trkpt>
      <trkpt lat="45.16306" lon="5.9268">
        <ele>2401</ele>
        <time>2017-02-26T08:44:08.000Z</time>
      </trkpt>
      <trkpt lat="45.16306" lon="5.9268">
        <ele>2398</ele>
        <time>2017-02-26T08:44:18.000Z</time>
      </trkpt>
      <trkpt lat="45.16306" lon="5.9268">
        <ele>2399</ele>
        <time>2017-02-26T08:44:28.000Z</time>
      </trkpt>
      <trkpt lat="45.16306" lon="5.9268">
        <ele>2399</ele>
        <time>2017-02-26T08:44:38.000Z</time>
      </trkpt>
      <trkpt lat="45.16306" lon="5.9268">
        <ele>2398</ele>
        <time>2017-02-26T08:44:48.000Z</time>
      </trkpt>
      <trkpt lat="45.16306" lon="5.9268">
        <ele>2398</ele>
        <time>2017-02-26T08:44:58.000Z</time>
      </trkpt>
      <trkpt lat="45.16306" lon="5.9268">
        <ele>2398</ele>
        <time>2017-02-26T08:45:08.000Z</time>
      </trkpt>
      <trkpt lat="45.16306" lon="5.9268">
        <ele>2400</ele>
        <time>2017-02-26T08:45:18.000Z</time>
      </trkpt>
      <trkpt lat="45.16306" lon="5.9268">
        <ele>2399</ele>
        <time>2017-02-26T08:45:28.000Z</time>
      </trkpt>
      <trkpt lat="45.16306" lon="5.9268">
        <ele>2400</ele>
        <time>2017-02-26T08:45:38.000Z</time>
      </trkpt>
      <trkpt lat="45.1632" lon="5.92665">
        <ele>2400</ele>
        <time>2017-02-26T08:45:41.000Z</time>
      </trkpt>
      <trkpt lat="45.16339" lon="5.92667">
        <ele>2400</ele>
        <time>2017-02-26T08:45:48.000Z</time>
      </trkpt>
      <trkpt lat="45.16359" lon="5.92668">
        <ele>2400</ele>
        <time>2017-02-26T08:45:49.000Z</time>
      </trkpt>
      <trkpt lat="45.164" lon="5.92675">
        <ele>2400</ele>
        <time>2017-02-26T08:45:57.000Z</time>
      </trkpt>
      <trkpt lat="45.16402" lon="5.92677">
        <ele>2396</ele>
        <time>2017-02-26T08:45:58.000Z</time>
      </trkpt>
      <trkpt lat="45.16413" lon="5.92698">
        <ele>2396</ele>
        <time>2017-02-26T08:46:05.000Z</time>
      </trkpt>
      <trkpt lat="45.16413" lon="5.92698">
        <ele>2393</ele>
        <time>2017-02-26T08:46:08.000Z</time>
      </trkpt>
      <trkpt lat="45.16402" lon="5.92735">
        <ele>2393</ele>
        <time>2017-02-26T08:46:17.000Z</time>
      </trkpt>
      <trkpt lat="45.164" lon="5.92737">
        <ele>2389</ele>
        <time>2017-02-26T08:46:18.000Z</time>
      </trkpt>
      <trkpt lat="45.16391" lon="5.9275">
        <ele>2389</ele>
        <time>2017-02-26T08:46:25.000Z</time>
      </trkpt>
      <trkpt lat="45.16391" lon="5.9275">
        <ele>2383</ele>
        <time>2017-02-26T08:46:28.000Z</time>
      </trkpt>
      <trkpt lat="45.16371" lon="5.9276">
        <ele>2383</ele>
        <time>2017-02-26T08:46:37.000Z</time>
      </trkpt>
      <trkpt lat="45.16363" lon="5.92754">
        <ele>2373</ele>
        <time>2017-02-26T08:46:38.000Z</time>
      </trkpt>
      <trkpt lat="45.16356" lon="5.92748">
        <ele>2369</ele>
        <time>2017-02-26T08:46:48.000Z</time>
      </trkpt>
      <trkpt lat="45.16348" lon="5.92742">
        <ele>2369</ele>
        <time>2017-02-26T08:46:49.000Z</time>
      </trkpt>
      <trkpt lat="45.16337" lon="5.92748">
        <ele>2369</ele>
        <time>2017-02-26T08:46:57.000Z</time>
      </trkpt>
      <trkpt lat="45.16337" lon="5.92752">
        <ele>2362</ele>
        <time>2017-02-26T08:46:58.000Z</time>
      </trkpt>
      <trkpt lat="45.16336" lon="5.92757">
        <ele>2355</ele>
        <time>2017-02-26T08:47:08.000Z</time>
      </trkpt>
      <trkpt lat="45.16336" lon="5.92761">
        <ele>2355</ele>
        <time>2017-02-26T08:47:09.000Z</time>
      </trkpt>
      <trkpt lat="45.16336" lon="5.92761">
        <ele>2350</ele>
        <time>2017-02-26T08:47:18.000Z</time>
      </trkpt>
      <trkpt lat="45.16334" lon="5.92779">
        <ele>2350</ele>
        <time>2017-02-26T08:47:21.000Z</time>
      </trkpt>
      <trkpt lat="45.16331" lon="5.92791">
        <ele>2341</ele>
        <time>2017-02-26T08:47:28.000Z</time>
      </trkpt>
      <trkpt lat="45.16329" lon="5.92803">
        <ele>2341</ele>
        <time>2017-02-26T08:47:29.000Z</time>
      </trkpt>
      <trkpt lat="45.16329" lon="5.92825">
        <ele>2341</ele>
        <time>2017-02-26T08:47:37.000Z</time>
      </trkpt>
      <trkpt lat="45.16331" lon="5.92827">
        <ele>2330</ele>
        <time>2017-02-26T08:47:38.000Z</time>
      </trkpt>
      <trkpt lat="45.1634" lon="5.9284">
        <ele>2330</ele>
        <time>2017-02-26T08:47:45.000Z</time>
      </trkpt>
      <trkpt lat="45.1634" lon="5.9284">
        <ele>2323</ele>
        <time>2017-02-26T08:47:48.000Z</time>
      </trkpt>
      <trkpt lat="45.16333" lon="5.92873">
        <ele>2323</ele>
        <time>2017-02-26T08:47:53.000Z</time>
      </trkpt>
      <trkpt lat="45.16313" lon="5.92878">
        <ele>2308</ele>
        <time>2017-02-26T08:47:58.000Z</time>
      </trkpt>
      <trkpt lat="45.16292" lon="5.92882">
        <ele>2308</ele>
        <time>2017-02-26T08:48:01.000Z</time>
      </trkpt>
      <trkpt lat="45.16279" lon="5.92884">
        <ele>2297</ele>
        <time>2017-02-26T08:48:08.000Z</time>
      </trkpt>
      <trkpt lat="45.16266" lon="5.92886">
        <ele>2297</ele>
        <time>2017-02-26T08:48:09.000Z</time>
      </trkpt>
      <trkpt lat="45.16264" lon="5.92902">
        <ele>2297</ele>
        <time>2017-02-26T08:48:17.000Z</time>
      </trkpt>
      <trkpt lat="45.16266" lon="5.92905">
        <ele>2292</ele>
        <time>2017-02-26T08:48:18.000Z</time>
      </trkpt>
      <trkpt lat="45.16269" lon="5.92908">
        <ele>2292</ele>
        <time>2017-02-26T08:48:28.000Z</time>
      </trkpt>
      <trkpt lat="45.16272" lon="5.92911">
        <ele>2292</ele>
        <time>2017-02-26T08:48:29.000Z</time>
      </trkpt>
      <trkpt lat="45.16272" lon="5.92911">
        <ele>2292</ele>
        <time>2017-02-26T08:48:38.000Z</time>
      </trkpt>
      <trkpt lat="45.16272" lon="5.92911">
        <ele>2291</ele>
        <time>2017-02-26T08:48:48.000Z</time>
      </trkpt>
      <trkpt lat="45.16272" lon="5.92911">
        <ele>2291</ele>
        <time>2017-02-26T08:48:58.000Z</time>
      </trkpt>
      <trkpt lat="45.16272" lon="5.92911">
        <ele>2291</ele>
        <time>2017-02-26T08:49:08.000Z</time>
      </trkpt>
      <trkpt lat="45.16272" lon="5.92911">
        <ele>2288</ele>
        <time>2017-02-26T08:49:18.000Z</time>
      </trkpt>
      <trkpt lat="45.16266" lon="5.92928">
        <ele>2288</ele>
        <time>2017-02-26T08:49:26.000Z</time>
      </trkpt>
      <trkpt lat="45.16266" lon="5.92928">
        <ele>2285</ele>
        <time>2017-02-26T08:49:28.000Z</time>
      </trkpt>
      <trkpt lat="45.16253" lon="5.92929">
        <ele>2285</ele>
        <time>2017-02-26T08:49:34.000Z</time>
      </trkpt>
      <trkpt lat="45.16253" lon="5.92929">
        <ele>2273</ele>
        <time>2017-02-26T08:49:38.000Z</time>
      </trkpt>
      <trkpt lat="45.16219" lon="5.92935">
        <ele>2273</ele>
        <time>2017-02-26T08:49:42.000Z</time>
      </trkpt>
      <trkpt lat="45.16199" lon="5.92945">
        <ele>2267</ele>
        <time>2017-02-26T08:49:48.000Z</time>
      </trkpt>
      <trkpt lat="45.16179" lon="5.92955">
        <ele>2267</ele>
        <time>2017-02-26T08:49:50.000Z</time>
      </trkpt>
      <trkpt lat="45.16179" lon="5.92955">
        <ele>2266</ele>
        <time>2017-02-26T08:49:58.000Z</time>
      </trkpt>
      <trkpt lat="45.16176" lon="5.92975">
        <ele>2266</ele>
        <time>2017-02-26T08:50:02.000Z</time>
      </trkpt>
      <trkpt lat="45.16183" lon="5.92997">
        <ele>2257</ele>
        <time>2017-02-26T08:50:08.000Z</time>
      </trkpt>
      <trkpt lat="45.1619" lon="5.93018">
        <ele>2257</ele>
        <time>2017-02-26T08:50:10.000Z</time>
      </trkpt>
      <trkpt lat="45.16205" lon="5.93069">
        <ele>2247</ele>
        <time>2017-02-26T08:50:18.000Z</time>
      </trkpt>
      <trkpt lat="45.16202" lon="5.93091">
        <ele>2247</ele>
        <time>2017-02-26T08:50:26.000Z</time>
      </trkpt>
      <trkpt lat="45.16202" lon="5.93091">
        <ele>2247</ele>
        <time>2017-02-26T08:50:28.000Z</time>
      </trkpt>
      <trkpt lat="45.16202" lon="5.93091">
        <ele>2242</ele>
        <time>2017-02-26T08:50:38.000Z</time>
      </trkpt>
      <trkpt lat="45.16206" lon="5.93106">
        <ele>2242</ele>
        <time>2017-02-26T08:50:42.000Z</time>
      </trkpt>
      <trkpt lat="45.16206" lon="5.93106">
        <ele>2238</ele>
        <time>2017-02-26T08:50:48.000Z</time>
      </trkpt>
      <trkpt lat="45.16206" lon="5.93106">
        <ele>2238</ele>
        <time>2017-02-26T08:50:58.000Z</time>
      </trkpt>
      <trkpt lat="45.16206" lon="5.93106">
        <ele>2238</ele>
        <time>2017-02-26T08:51:08.000Z</time>
      </trkpt>
      <trkpt lat="45.16198" lon="5.93118">
        <ele>2238</ele>
        <time>2017-02-26T08:51:10.000Z</time>
      </trkpt>
      <trkpt lat="45.1619" lon="5.93136">
        <ele>2224</ele>
        <time>2017-02-26T08:51:18.000Z</time>
      </trkpt>
      <trkpt lat="45.16184" lon="5.93152">
        <ele>2224</ele>
        <time>2017-02-26T08:51:26.000Z</time>
      </trkpt>
      <trkpt lat="45.16184" lon="5.93152">
        <ele>2214</ele>
        <time>2017-02-26T08:51:28.000Z</time>
      </trkpt>
      <trkpt lat="45.16184" lon="5.93152">
        <ele>2212</ele>
        <time>2017-02-26T08:51:38.000Z</time>
      </trkpt>
      <trkpt lat="45.16174" lon="5.9315">
        <ele>2212</ele>
        <time>2017-02-26T08:51:46.000Z</time>
      </trkpt>
      <trkpt lat="45.16174" lon="5.9315">
        <ele>2207</ele>
        <time>2017-02-26T08:51:48.000Z</time>
      </trkpt>
      <trkpt lat="45.16174" lon="5.9315">
        <ele>2202</ele>
        <time>2017-02-26T08:51:58.000Z</time>
      </trkpt>
      <trkpt lat="45.16163" lon="5.93151">
        <ele>2202</ele>
        <time>2017-02-26T08:52:03.000Z</time>
      </trkpt>
      <trkpt lat="45.16163" lon="5.93151">
        <ele>2201</ele>
        <time>2017-02-26T08:52:08.000Z</time>
      </trkpt>
      <trkpt lat="45.16147" lon="5.93145">
        <ele>2201</ele>
        <time>2017-02-26T08:52:15.000Z</time>
      </trkpt>
      <trkpt lat="45.16147" lon="5.93145">
        <ele>2185</ele>
        <time>2017-02-26T08:52:18.000Z</time>
      </trkpt>
      <trkpt lat="45.16128" lon="5.93133">
        <ele>2185</ele>
        <time>2017-02-26T08:52:23.000Z</time>
      </trkpt>
      <trkpt lat="45.16128" lon="5.93133">
        <ele>2171</ele>
        <time>2017-02-26T08:52:28.000Z</time>
      </trkpt>
      <trkpt lat="45.16119" lon="5.93112">
        <ele>2171</ele>
        <time>2017-02-26T08:52:31.000Z</time>
      </trkpt>
      <trkpt lat="45.16112" lon="5.93108">
        <ele>2164</ele>
        <time>2017-02-26T08:52:38.000Z</time>
      </trkpt>
      <trkpt lat="45.16104" lon="5.93105">
        <ele>2164</ele>
        <time>2017-02-26T08:52:39.000Z</time>
      </trkpt>
      <trkpt lat="45.16098" lon="5.93106">
        <ele>2150</ele>
        <time>2017-02-26T08:52:48.000Z</time>
      </trkpt>
      <trkpt lat="45.16091" lon="5.93107">
        <ele>2150</ele>
        <time>2017-02-26T08:52:49.000Z</time>
      </trkpt>
      <trkpt lat="45.1608" lon="5.93108">
        <ele>2150</ele>
        <time>2017-02-26T08:52:57.000Z</time>
      </trkpt>
      <trkpt lat="45.16078" lon="5.93106">
        <ele>2134</ele>
        <time>2017-02-26T08:52:58.000Z</time>
      </trkpt>
      <trkpt lat="45.16069" lon="5.93096">
        <ele>2134</ele>
        <time>2017-02-26T08:53:05.000Z</time>
      </trkpt>
      <trkpt lat="45.16069" lon="5.93096">
        <ele>2123</ele>
        <time>2017-02-26T08:53:08.000Z</time>
      </trkpt>
      <trkpt lat="45.16044" lon="5.93098">
        <ele>2123</ele>
        <time>2017-02-26T08:53:13.000Z</time>
      </trkpt>
      <trkpt lat="45.16044" lon="5.93098">
        <ele>2110</ele>
        <time>2017-02-26T08:53:18.000Z</time>
      </trkpt>
      <trkpt lat="45.16007" lon="5.9308">
        <ele>2110</ele>
        <time>2017-02-26T08:53:25.000Z</time>
      </trkpt>
      <trkpt lat="45.16007" lon="5.9308">
        <ele>2099</ele>
        <time>2017-02-26T08:53:28.000Z</time>
      </trkpt>
      <trkpt lat="45.15963" lon="5.93071">
        <ele>2099</ele>
        <time>2017-02-26T08:53:37.000Z</time>
      </trkpt>
      <trkpt lat="45.15955" lon="5.93072">
        <ele>2084</ele>
        <time>2017-02-26T08:53:38.000Z</time>
      </trkpt>
      <trkpt lat="45.15897" lon="5.93076">
        <ele>2084</ele>
        <time>2017-02-26T08:53:45.000Z</time>
      </trkpt>
      <trkpt lat="45.15897" lon="5.93076">
        <ele>2080</ele>
        <time>2017-02-26T08:53:48.000Z</time>
      </trkpt>
      <trkpt lat="45.15858" lon="5.93079">
        <ele>2080</ele>
        <time>2017-02-26T08:53:53.000Z</time>
      </trkpt>
      <trkpt lat="45.15858" lon="5.93079">
        <ele>2070</ele>
        <time>2017-02-26T08:53:58.000Z</time>
      </trkpt>
      <trkpt lat="45.15833" lon="5.93093">
        <ele>2070</ele>
        <time>2017-02-26T08:54:05.000Z</time>
      </trkpt>
      <trkpt lat="45.15833" lon="5.93093">
        <ele>2064</ele>
        <time>2017-02-26T08:54:08.000Z</time>
      </trkpt>
      <trkpt lat="45.15829" lon="5.93155">
        <ele>2064</ele>
        <time>2017-02-26T08:54:13.000Z</time>
      </trkpt>
      <trkpt lat="45.15827" lon="5.93183">
        <ele>2058</ele>
        <time>2017-02-26T08:54:18.000Z</time>
      </trkpt>
      <trkpt lat="45.15824" lon="5.9321">
        <ele>2058</ele>
        <time>2017-02-26T08:54:21.000Z</time>
      </trkpt>
      <trkpt lat="45.15824" lon="5.9321">
        <ele>2058</ele>
        <time>2017-02-26T08:54:28.000Z</time>
      </trkpt>
      <trkpt lat="45.15824" lon="5.9321">
        <ele>2058</ele>
        <time>2017-02-26T08:54:38.000Z</time>
      </trkpt>
      <trkpt lat="45.15831" lon="5.93239">
        <ele>2058</ele>
        <time>2017-02-26T08:54:41.000Z</time>
      </trkpt>
      <trkpt lat="45.15831" lon="5.93239">
        <ele>2058</ele>
        <time>2017-02-26T08:54:48.000Z</time>
      </trkpt>
      <trkpt lat="45.15831" lon="5.93239">
        <ele>2058</ele>
        <time>2017-02-26T08:54:58.000Z</time>
      </trkpt>
      <trkpt lat="45.15849" lon="5.93232">
        <ele>2057</ele>
        <time>2017-02-26T08:55:08.000Z</time>
      </trkpt>
      <trkpt lat="45.15849" lon="5.93232">
        <ele>2056</ele>
        <time>2017-02-26T08:55:18.000Z</time>
      </trkpt>
      <trkpt lat="45.15837" lon="5.93235">
        <ele>2056</ele>
        <time>2017-02-26T08:55:20.000Z</time>
      </trkpt>
      <trkpt lat="45.15828" lon="5.93241">
        <ele>2056</ele>
        <time>2017-02-26T08:55:28.000Z</time>
      </trkpt>
      <trkpt lat="45.15828" lon="5.93241">
        <ele>2056</ele>
        <time>2017-02-26T08:55:38.000Z</time>
      </trkpt>
      <trkpt lat="45.15834" lon="5.9323">
        <ele>2057</ele>
        <time>2017-02-26T08:55:48.000Z</time>
      </trkpt>
      <trkpt lat="45.15834" lon="5.9323">
        <ele>2057</ele>
        <time>2017-02-26T08:55:58.000Z</time>
      </trkpt>
      <trkpt lat="45.15826" lon="5.93246">
        <ele>2057</ele>
        <time>2017-02-26T08:56:05.000Z</time>
      </trkpt>
      <trkpt lat="45.15826" lon="5.93246">
        <ele>2056</ele>
        <time>2017-02-26T08:56:08.000Z</time>
      </trkpt>
      <trkpt lat="45.15826" lon="5.93246">
        <ele>2056</ele>
        <time>2017-02-26T08:56:18.000Z</time>
      </trkpt>
      <trkpt lat="45.15835" lon="5.93237">
        <ele>2056</ele>
        <time>2017-02-26T08:56:25.000Z</time>
      </trkpt>
      <trkpt lat="45.15835" lon="5.93237">
        <ele>2056</ele>
        <time>2017-02-26T08:56:28.000Z</time>
      </trkpt>
      <trkpt lat="45.15846" lon="5.9323">
        <ele>2056</ele>
        <time>2017-02-26T08:56:33.000Z</time>
      </trkpt>
      <trkpt lat="45.15846" lon="5.9323">
        <ele>2056</ele>
        <time>2017-02-26T08:56:38.000Z</time>
      </trkpt>
      <trkpt lat="45.15846" lon="5.9323">
        <ele>2057</ele>
        <time>2017-02-26T08:56:48.000Z</time>
      </trkpt>
      <trkpt lat="45.15846" lon="5.9323">
        <ele>2057</ele>
        <time>2017-02-26T08:56:58.000Z</time>
      </trkpt>
      <trkpt lat="45.15846" lon="5.9323">
        <ele>2056</ele>
        <time>2017-02-26T08:57:08.000Z</time>
      </trkpt>
      <trkpt lat="45.15833" lon="5.93233">
        <ele>2056</ele>
        <time>2017-02-26T08:57:10.000Z</time>
      </trkpt>
      <trkpt lat="45.15833" lon="5.93233">
        <ele>2057</ele>
        <time>2017-02-26T08:57:18.000Z</time>
      </trkpt>
      <trkpt lat="45.15833" lon="5.93233">
        <ele>2057</ele>
        <time>2017-02-26T08:57:28.000Z</time>
      </trkpt>
      <trkpt lat="45.15833" lon="5.93233">
        <ele>2057</ele>
        <time>2017-02-26T08:57:38.000Z</time>
      </trkpt>
      <trkpt lat="45.15833" lon="5.93233">
        <ele>2057</ele>
        <time>2017-02-26T08:57:48.000Z</time>
      </trkpt>
      <trkpt lat="45.15833" lon="5.93233">
        <ele>2056</ele>
        <time>2017-02-26T08:57:58.000Z</time>
      </trkpt>
      <trkpt lat="45.15833" lon="5.93233">
        <ele>2056</ele>
        <time>2017-02-26T08:58:08.000Z</time>
      </trkpt>
      <trkpt lat="45.15841" lon="5.93222">
        <ele>2056</ele>
        <time>2017-02-26T08:58:10.000Z</time>
      </trkpt>
      <trkpt lat="45.15832" lon="5.93232">
        <ele>2056</ele>
        <time>2017-02-26T08:58:18.000Z</time>
      </trkpt>
      <trkpt lat="45.15832" lon="5.93232">
        <ele>2057</ele>
        <time>2017-02-26T08:58:28.000Z</time>
      </trkpt>
      <trkpt lat="45.15832" lon="5.93232">
        <ele>2057</ele>
        <time>2017-02-26T08:58:38.000Z</time>
      </trkpt>
      <trkpt lat="45.15832" lon="5.93232">
        <ele>2057</ele>
        <time>2017-02-26T08:58:48.000Z</time>
      </trkpt>
      <trkpt lat="45.15832" lon="5.93232">
        <ele>2057</ele>
        <time>2017-02-26T08:58:58.000Z</time>
      </trkpt>
      <trkpt lat="45.15832" lon="5.93232">
        <ele>2057</ele>
        <time>2017-02-26T08:59:08.000Z</time>
      </trkpt>
      <trkpt lat="45.15832" lon="5.93232">
        <ele>2058</ele>
        <time>2017-02-26T08:59:18.000Z</time>
      </trkpt>
      <trkpt lat="45.15823" lon="5.93243">
        <ele>2058</ele>
        <time>2017-02-26T08:59:22.000Z</time>
      </trkpt>
      <trkpt lat="45.15823" lon="5.93243">
        <ele>2057</ele>
        <time>2017-02-26T08:59:28.000Z</time>
      </trkpt>
      <trkpt lat="45.15823" lon="5.93243">
        <ele>2057</ele>
        <time>2017-02-26T08:59:38.000Z</time>
      </trkpt>
      <trkpt lat="45.15823" lon="5.93243">
        <ele>2058</ele>
        <time>2017-02-26T08:59:48.000Z</time>
      </trkpt>
      <trkpt lat="45.15823" lon="5.93243">
        <ele>2058</ele>
        <time>2017-02-26T08:59:58.000Z</time>
      </trkpt>
      <trkpt lat="45.15831" lon="5.93231">
        <ele>2058</ele>
        <time>2017-02-26T09:00:06.000Z</time>
      </trkpt>
      <trkpt lat="45.15831" lon="5.93231">
        <ele>2058</ele>
        <time>2017-02-26T09:00:08.000Z</time>
      </trkpt>
      <trkpt lat="45.15831" lon="5.93231">
        <ele>2057</ele>
        <time>2017-02-26T09:00:18.000Z</time>
      </trkpt>
      <trkpt lat="45.15831" lon="5.93231">
        <ele>2057</ele>
        <time>2017-02-26T09:00:28.000Z</time>
      </trkpt>
      <trkpt lat="45.15831" lon="5.93231">
        <ele>2057</ele>
        <time>2017-02-26T09:00:38.000Z</time>
      </trkpt>
      <trkpt lat="45.15831" lon="5.93231">
        <ele>2057</ele>
        <time>2017-02-26T09:00:48.000Z</time>
      </trkpt>
      <trkpt lat="45.1582" lon="5.93239">
        <ele>2058</ele>
        <time>2017-02-26T09:00:58.000Z</time>
      </trkpt>
      <trkpt lat="45.15809" lon="5.93257">
        <ele>2058</ele>
        <time>2017-02-26T09:01:06.000Z</time>
      </trkpt>
      <trkpt lat="45.15809" lon="5.93257">
        <ele>2059</ele>
        <time>2017-02-26T09:01:08.000Z</time>
      </trkpt>
      <trkpt lat="45.15803" lon="5.93276">
        <ele>2059</ele>
        <time>2017-02-26T09:01:14.000Z</time>
      </trkpt>
      <trkpt lat="45.15803" lon="5.93276">
        <ele>2059</ele>
        <time>2017-02-26T09:01:18.000Z</time>
      </trkpt>
      <trkpt lat="45.15801" lon="5.93293">
        <ele>2059</ele>
        <time>2017-02-26T09:01:22.000Z</time>
      </trkpt>
      <trkpt lat="45.15801" lon="5.93293">
        <ele>2058</ele>
        <time>2017-02-26T09:01:28.000Z</time>
      </trkpt>
      <trkpt lat="45.15798" lon="5.93308">
        <ele>2058</ele>
        <time>2017-02-26T09:01:34.000Z</time>
      </trkpt>
      <trkpt lat="45.15798" lon="5.93308">
        <ele>2058</ele>
        <time>2017-02-26T09:01:38.000Z</time>
      </trkpt>
      <trkpt lat="45.15794" lon="5.93322">
        <ele>2058</ele>
        <time>2017-02-26T09:01:46.000Z</time>
      </trkpt>
      <trkpt lat="45.15794" lon="5.93322">
        <ele>2058</ele>
        <time>2017-02-26T09:01:48.000Z</time>
      </trkpt>
      <trkpt lat="45.15788" lon="5.93339">
        <ele>2058</ele>
        <time>2017-02-26T09:01:54.000Z</time>
      </trkpt>
      <trkpt lat="45.15788" lon="5.93339">
        <ele>2058</ele>
        <time>2017-02-26T09:01:58.000Z</time>
      </trkpt>
      <trkpt lat="45.15781" lon="5.93361">
        <ele>2058</ele>
        <time>2017-02-26T09:02:06.000Z</time>
      </trkpt>
      <trkpt lat="45.15781" lon="5.93361">
        <ele>2058</ele>
        <time>2017-02-26T09:02:08.000Z</time>
      </trkpt>
      <trkpt lat="45.15777" lon="5.93376">
        <ele>2058</ele>
        <time>2017-02-26T09:02:14.000Z</time>
      </trkpt>
      <trkpt lat="45.15777" lon="5.93376">
        <ele>2058</ele>
        <time>2017-02-26T09:02:18.000Z</time>
      </trkpt>
      <trkpt lat="45.15772" lon="5.93395">
        <ele>2058</ele>
        <time>2017-02-26T09:02:22.000Z</time>
      </trkpt>
      <trkpt lat="45.15772" lon="5.93395">
        <ele>2057</ele>
        <time>2017-02-26T09:02:28.000Z</time>
      </trkpt>
      <trkpt lat="45.15772" lon="5.93429">
        <ele>2057</ele>
        <time>2017-02-26T09:02:34.000Z</time>
      </trkpt>
      <trkpt lat="45.15772" lon="5.93429">
        <ele>2054</ele>
        <time>2017-02-26T09:02:38.000Z</time>
      </trkpt>
      <trkpt lat="45.15774" lon="5.93447">
        <ele>2054</ele>
        <time>2017-02-26T09:02:46.000Z</time>
      </trkpt>
      <trkpt lat="45.15774" lon="5.93447">
        <ele>2054</ele>
        <time>2017-02-26T09:02:48.000Z</time>
      </trkpt>
      <trkpt lat="45.15783" lon="5.93467">
        <ele>2054</ele>
        <time>2017-02-26T09:02:58.000Z</time>
      </trkpt>
      <trkpt lat="45.15783" lon="5.93467">
        <ele>2055</ele>
        <time>2017-02-26T09:03:08.000Z</time>
      </trkpt>
      <trkpt lat="45.15789" lon="5.93479">
        <ele>2055</ele>
        <time>2017-02-26T09:03:10.000Z</time>
      </trkpt>
      <trkpt lat="45.158" lon="5.9349">
        <ele>2058</ele>
        <time>2017-02-26T09:03:18.000Z</time>
      </trkpt>
      <trkpt lat="45.158" lon="5.9349">
        <ele>2060</ele>
        <time>2017-02-26T09:03:28.000Z</time>
      </trkpt>
      <trkpt lat="45.15807" lon="5.93503">
        <ele>2060</ele>
        <time>2017-02-26T09:03:34.000Z</time>
      </trkpt>
      <trkpt lat="45.15807" lon="5.93503">
        <ele>2060</ele>
        <time>2017-02-26T09:03:38.000Z</time>
      </trkpt>
      <trkpt lat="45.15817" lon="5.93508">
        <ele>2060</ele>
        <time>2017-02-26T09:03:46.000Z</time>
      </trkpt>
      <trkpt lat="45.15817" lon="5.93508">
        <ele>2061</ele>
        <time>2017-02-26T09:03:48.000Z</time>
      </trkpt>
      <trkpt lat="45.15824" lon="5.93521">
        <ele>2064</ele>
        <time>2017-02-26T09:03:58.000Z</time>
      </trkpt>
      <trkpt lat="45.15824" lon="5.93521">
        <ele>2067</ele>
        <time>2017-02-26T09:04:08.000Z</time>
      </trkpt>
      <trkpt lat="45.15836" lon="5.93525">
        <ele>2067</ele>
        <time>2017-02-26T09:04:10.000Z</time>
      </trkpt>
      <trkpt lat="45.15836" lon="5.93525">
        <ele>2067</ele>
        <time>2017-02-26T09:04:18.000Z</time>
      </trkpt>
      <trkpt lat="45.15836" lon="5.93525">
        <ele>2071</ele>
        <time>2017-02-26T09:04:28.000Z</time>
      </trkpt>
      <trkpt lat="45.15845" lon="5.93533">
        <ele>2071</ele>
        <time>2017-02-26T09:04:30.000Z</time>
      </trkpt>
      <trkpt lat="45.15852" lon="5.93545">
        <ele>2074</ele>
        <time>2017-02-26T09:04:38.000Z</time>
      </trkpt>
      <trkpt lat="45.15852" lon="5.93545">
        <ele>2074</ele>
        <time>2017-02-26T09:04:48.000Z</time>
      </trkpt>
      <trkpt lat="45.15854" lon="5.93559">
        <ele>2074</ele>
        <time>2017-02-26T09:04:58.000Z</time>
      </trkpt>
      <trkpt lat="45.15854" lon="5.93559">
        <ele>2077</ele>
        <time>2017-02-26T09:05:08.000Z</time>
      </trkpt>
      <trkpt lat="45.15853" lon="5.93575">
        <ele>2079</ele>
        <time>2017-02-26T09:05:18.000Z</time>
      </trkpt>
      <trkpt lat="45.15856" lon="5.93588">
        <ele>2079</ele>
        <time>2017-02-26T09:05:26.000Z</time>
      </trkpt>
      <trkpt lat="45.15856" lon="5.93588">
        <ele>2081</ele>
        <time>2017-02-26T09:05:28.000Z</time>
      </trkpt>
      <trkpt lat="45.15856" lon="5.93588">
        <ele>2084</ele>
        <time>2017-02-26T09:05:38.000Z</time>
      </trkpt>
      <trkpt lat="45.15858" lon="5.93604">
        <ele>2084</ele>
        <time>2017-02-26T09:05:42.000Z</time>
      </trkpt>
      <trkpt lat="45.15858" lon="5.93604">
        <ele>2084</ele>
        <time>2017-02-26T09:05:48.000Z</time>
      </trkpt>
      <trkpt lat="45.15858" lon="5.93604">
        <ele>2086</ele>
        <time>2017-02-26T09:05:58.000Z</time>
      </trkpt>
      <trkpt lat="45.15862" lon="5.93619">
        <ele>2086</ele>
        <time>2017-02-26T09:06:02.000Z</time>
      </trkpt>
      <trkpt lat="45.15862" lon="5.93619">
        <ele>2087</ele>
        <time>2017-02-26T09:06:08.000Z</time>
      </trkpt>
      <trkpt lat="45.15869" lon="5.9363">
        <ele>2087</ele>
        <time>2017-02-26T09:06:10.000Z</time>
      </trkpt>
      <trkpt lat="45.15869" lon="5.9363">
        <ele>2090</ele>
        <time>2017-02-26T09:06:18.000Z</time>
      </trkpt>
      <trkpt lat="45.15877" lon="5.93642">
        <ele>2090</ele>
        <time>2017-02-26T09:06:22.000Z</time>
      </trkpt>
      <trkpt lat="45.15877" lon="5.93642">
        <ele>2092</ele>
        <time>2017-02-26T09:06:28.000Z</time>
      </trkpt>
      <trkpt lat="45.15886" lon="5.9365">
        <ele>2093</ele>
        <time>2017-02-26T09:06:38.000Z</time>
      </trkpt>
      <trkpt lat="45.15886" lon="5.9365">
        <ele>2097</ele>
        <time>2017-02-26T09:06:48.000Z</time>
      </trkpt>
      <trkpt lat="45.15883" lon="5.93667">
        <ele>2097</ele>
        <time>2017-02-26T09:06:54.000Z</time>
      </trkpt>
      <trkpt lat="45.15883" lon="5.93667">
        <ele>2099</ele>
        <time>2017-02-26T09:06:58.000Z</time>
      </trkpt>
      <trkpt lat="45.15875" lon="5.93681">
        <ele>2099</ele>
        <time>2017-02-26T09:07:02.000Z</time>
      </trkpt>
      <trkpt lat="45.15875" lon="5.93681">
        <ele>2102</ele>
        <time>2017-02-26T09:07:08.000Z</time>
      </trkpt>
      <trkpt lat="45.15877" lon="5.93695">
        <ele>2102</ele>
        <time>2017-02-26T09:07:14.000Z</time>
      </trkpt>
      <trkpt lat="45.15877" lon="5.93695">
        <ele>2103</ele>
        <time>2017-02-26T09:07:18.000Z</time>
      </trkpt>
      <trkpt lat="45.15877" lon="5.93695">
        <ele>2105</ele>
        <time>2017-02-26T09:07:28.000Z</time>
      </trkpt>
      <trkpt lat="45.15885" lon="5.93709">
        <ele>2105</ele>
        <time>2017-02-26T09:07:30.000Z</time>
      </trkpt>
      <trkpt lat="45.15885" lon="5.93709">
        <ele>2106</ele>
        <time>2017-02-26T09:07:38.000Z</time>
      </trkpt>
      <trkpt lat="45.15895" lon="5.93716">
        <ele>2106</ele>
        <time>2017-02-26T09:07:46.000Z</time>
      </trkpt>
      <trkpt lat="45.15895" lon="5.93716">
        <ele>2110</ele>
        <time>2017-02-26T09:07:48.000Z</time>
      </trkpt>
      <trkpt lat="45.15895" lon="5.93716">
        <ele>2112</ele>
        <time>2017-02-26T09:07:58.000Z</time>
      </trkpt>
      <trkpt lat="45.15888" lon="5.93729">
        <ele>2112</ele>
        <time>2017-02-26T09:08:02.000Z</time>
      </trkpt>
      <trkpt lat="45.15888" lon="5.93729">
        <ele>2114</ele>
        <time>2017-02-26T09:08:08.000Z</time>
      </trkpt>
      <trkpt lat="45.15888" lon="5.93729">
        <ele>2115</ele>
        <time>2017-02-26T09:08:18.000Z</time>
      </trkpt>
      <trkpt lat="45.15889" lon="5.93744">
        <ele>2115</ele>
        <time>2017-02-26T09:08:22.000Z</time>
      </trkpt>
      <trkpt lat="45.15889" lon="5.93744">
        <ele>2115</ele>
        <time>2017-02-26T09:08:28.000Z</time>
      </trkpt>
      <trkpt lat="45.1589" lon="5.93763">
        <ele>2115</ele>
        <time>2017-02-26T09:08:34.000Z</time>
      </trkpt>
      <trkpt lat="45.1589" lon="5.93763">
        <ele>2118</ele>
        <time>2017-02-26T09:08:38.000Z</time>
      </trkpt>
      <trkpt lat="45.15885" lon="5.93779">
        <ele>2118</ele>
        <time>2017-02-26T09:08:46.000Z</time>
      </trkpt>
      <trkpt lat="45.15885" lon="5.93779">
        <ele>2118</ele>
        <time>2017-02-26T09:08:48.000Z</time>
      </trkpt>
      <trkpt lat="45.15883" lon="5.93816">
        <ele>2118</ele>
        <time>2017-02-26T09:08:54.000Z</time>
      </trkpt>
      <trkpt lat="45.15883" lon="5.93816">
        <ele>2114</ele>
        <time>2017-02-26T09:08:58.000Z</time>
      </trkpt>
      <trkpt lat="45.1588" lon="5.93829">
        <ele>2114</ele>
        <time>2017-02-26T09:09:02.000Z</time>
      </trkpt>
      <trkpt lat="45.1588" lon="5.93829">
        <ele>2114</ele>
        <time>2017-02-26T09:09:08.000Z</time>
      </trkpt>
      <trkpt lat="45.1588" lon="5.93842">
        <ele>2114</ele>
        <time>2017-02-26T09:09:10.000Z</time>
      </trkpt>
      <trkpt lat="45.1588" lon="5.93855">
        <ele>2114</ele>
        <time>2017-02-26T09:09:18.000Z</time>
      </trkpt>
      <trkpt lat="45.15881" lon="5.9387">
        <ele>2114</ele>
        <time>2017-02-26T09:09:26.000Z</time>
      </trkpt>
      <trkpt lat="45.15881" lon="5.9387">
        <ele>2114</ele>
        <time>2017-02-26T09:09:28.000Z</time>
      </trkpt>
      <trkpt lat="45.15882" lon="5.93887">
        <ele>2114</ele>
        <time>2017-02-26T09:09:34.000Z</time>
      </trkpt>
      <trkpt lat="45.15882" lon="5.93887">
        <ele>2114</ele>
        <time>2017-02-26T09:09:38.000Z</time>
      </trkpt>
      <trkpt lat="45.15878" lon="5.93906">
        <ele>2114</ele>
        <time>2017-02-26T09:09:42.000Z</time>
      </trkpt>
      <trkpt lat="45.15865" lon="5.93923">
        <ele>2106</ele>
        <time>2017-02-26T09:09:48.000Z</time>
      </trkpt>
      <trkpt lat="45.15851" lon="5.9394">
        <ele>2106</ele>
        <time>2017-02-26T09:09:50.000Z</time>
      </trkpt>
      <trkpt lat="45.15847" lon="5.93952">
        <ele>2104</ele>
        <time>2017-02-26T09:09:58.000Z</time>
      </trkpt>
      <trkpt lat="45.15847" lon="5.93952">
        <ele>2104</ele>
        <time>2017-02-26T09:10:08.000Z</time>
      </trkpt>
      <trkpt lat="45.15846" lon="5.93973">
        <ele>2104</ele>
        <time>2017-02-26T09:10:13.000Z</time>
      </trkpt>
      <trkpt lat="45.15846" lon="5.93973">
        <ele>2105</ele>
        <time>2017-02-26T09:10:18.000Z</time>
      </trkpt>
      <trkpt lat="45.15842" lon="5.93989">
        <ele>2105</ele>
        <time>2017-02-26T09:10:21.000Z</time>
      </trkpt>
      <trkpt lat="45.15842" lon="5.93989">
        <ele>2108</ele>
        <time>2017-02-26T09:10:28.000Z</time>
      </trkpt>
      <trkpt lat="45.15839" lon="5.94007">
        <ele>2108</ele>
        <time>2017-02-26T09:10:33.000Z</time>
      </trkpt>
      <trkpt lat="45.15839" lon="5.94007">
        <ele>2110</ele>
        <time>2017-02-26T09:10:38.000Z</time>
      </trkpt>
      <trkpt lat="45.15842" lon="5.94023">
        <ele>2110</ele>
        <time>2017-02-26T09:10:41.000Z</time>
      </trkpt>
      <trkpt lat="45.15842" lon="5.94023">
        <ele>2110</ele>
        <time>2017-02-26T09:10:48.000Z</time>
      </trkpt>
      <trkpt lat="45.15842" lon="5.94023">
        <ele>2111</ele>
        <time>2017-02-26T09:10:58.000Z</time>
      </trkpt>
      <trkpt lat="45.15845" lon="5.94042">
        <ele>2111</ele>
        <time>2017-02-26T09:11:01.000Z</time>
      </trkpt>
      <trkpt lat="45.15844" lon="5.94054">
        <ele>2112</ele>
        <time>2017-02-26T09:11:08.000Z</time>
      </trkpt>
      <trkpt lat="45.15843" lon="5.94065">
        <ele>2112</ele>
        <time>2017-02-26T09:11:09.000Z</time>
      </trkpt>
      <trkpt lat="45.15843" lon="5.94065">
        <ele>2112</ele>
        <time>2017-02-26T09:11:18.000Z</time>
      </trkpt>
      <trkpt lat="45.15849" lon="5.94077">
        <ele>2112</ele>
        <time>2017-02-26T09:11:21.000Z</time>
      </trkpt>
      <trkpt lat="45.15854" lon="5.94084">
        <ele>2114</ele>
        <time>2017-02-26T09:11:28.000Z</time>
      </trkpt>
      <trkpt lat="45.15858" lon="5.94091">
        <ele>2114</ele>
        <time>2017-02-26T09:11:29.000Z</time>
      </trkpt>
      <trkpt lat="45.15867" lon="5.94105">
        <ele>2114</ele>
        <time>2017-02-26T09:11:37.000Z</time>
      </trkpt>
      <trkpt lat="45.15869" lon="5.94108">
        <ele>2114</ele>
        <time>2017-02-26T09:11:38.000Z</time>
      </trkpt>
      <trkpt lat="45.15884" lon="5.94128">
        <ele>2114</ele>
        <time>2017-02-26T09:11:45.000Z</time>
      </trkpt>
      <trkpt lat="45.15884" lon="5.94128">
        <ele>2114</ele>
        <time>2017-02-26T09:11:48.000Z</time>
      </trkpt>
      <trkpt lat="45.15893" lon="5.94174">
        <ele>2114</ele>
        <time>2017-02-26T09:11:53.000Z</time>
      </trkpt>
      <trkpt lat="45.15881" lon="5.94206">
        <ele>2095</ele>
        <time>2017-02-26T09:11:58.000Z</time>
      </trkpt>
      <trkpt lat="45.15868" lon="5.94237">
        <ele>2095</ele>
        <time>2017-02-26T09:12:01.000Z</time>
      </trkpt>
      <trkpt lat="45.15868" lon="5.94237">
        <ele>2093</ele>
        <time>2017-02-26T09:12:08.000Z</time>
      </trkpt>
      <trkpt lat="45.15868" lon="5.94237">
        <ele>2094</ele>
        <time>2017-02-26T09:12:18.000Z</time>
      </trkpt>
      <trkpt lat="45.15855" lon="5.94278">
        <ele>2094</ele>
        <time>2017-02-26T09:12:21.000Z</time>
      </trkpt>
      <trkpt lat="45.15855" lon="5.94278">
        <ele>2095</ele>
        <time>2017-02-26T09:12:28.000Z</time>
      </trkpt>
      <trkpt lat="45.1586" lon="5.94295">
        <ele>2095</ele>
        <time>2017-02-26T09:12:33.000Z</time>
      </trkpt>
      <trkpt lat="45.1586" lon="5.94295">
        <ele>2096</ele>
        <time>2017-02-26T09:12:38.000Z</time>
      </trkpt>
      <trkpt lat="45.15857" lon="5.94311">
        <ele>2096</ele>
        <time>2017-02-26T09:12:41.000Z</time>
      </trkpt>
      <trkpt lat="45.15857" lon="5.94311">
        <ele>2097</ele>
        <time>2017-02-26T09:12:48.000Z</time>
      </trkpt>
      <trkpt lat="45.15858" lon="5.94325">
        <ele>2097</ele>
        <time>2017-02-26T09:12:53.000Z</time>
      </trkpt>
      <trkpt lat="45.15858" lon="5.94325">
        <ele>2099</ele>
        <time>2017-02-26T09:12:58.000Z</time>
      </trkpt>
      <trkpt lat="45.15854" lon="5.94339">
        <ele>2099</ele>
        <time>2017-02-26T09:13:00.000Z</time>
      </trkpt>
      <trkpt lat="45.15848" lon="5.94357">
        <ele>2099</ele>
        <time>2017-02-26T09:13:08.000Z</time>
      </trkpt>
      <trkpt lat="45.15843" lon="5.94377">
        <ele>2099</ele>
        <time>2017-02-26T09:13:16.000Z</time>
      </trkpt>
      <trkpt lat="45.15843" lon="5.94377">
        <ele>2099</ele>
        <time>2017-02-26T09:13:18.000Z</time>
      </trkpt>
      <trkpt lat="45.15837" lon="5.94393">
        <ele>2100</ele>
        <time>2017-02-26T09:13:28.000Z</time>
      </trkpt>
      <trkpt lat="45.15837" lon="5.94393">
        <ele>2102</ele>
        <time>2017-02-26T09:13:38.000Z</time>
      </trkpt>
      <trkpt lat="45.15841" lon="5.94414">
        <ele>2102</ele>
        <time>2017-02-26T09:13:44.000Z</time>
      </trkpt>
      <trkpt lat="45.15841" lon="5.94414">
        <ele>2102</ele>
        <time>2017-02-26T09:13:48.000Z</time>
      </trkpt>
      <trkpt lat="45.15839" lon="5.94434">
        <ele>2102</ele>
        <time>2017-02-26T09:13:56.000Z</time>
      </trkpt>
      <trkpt lat="45.15839" lon="5.94434">
        <ele>2105</ele>
        <time>2017-02-26T09:13:58.000Z</time>
      </trkpt>
      <trkpt lat="45.15837" lon="5.94454">
        <ele>2107</ele>
        <time>2017-02-26T09:14:08.000Z</time>
      </trkpt>
      <trkpt lat="45.15837" lon="5.94454">
        <ele>2107</ele>
        <time>2017-02-26T09:14:18.000Z</time>
      </trkpt>
      <trkpt lat="45.15837" lon="5.94469">
        <ele>2107</ele>
        <time>2017-02-26T09:14:23.000Z</time>
      </trkpt>
      <trkpt lat="45.15839" lon="5.94474">
        <ele>2110</ele>
        <time>2017-02-26T09:14:28.000Z</time>
      </trkpt>
      <trkpt lat="45.15841" lon="5.94479">
        <ele>2110</ele>
        <time>2017-02-26T09:14:35.000Z</time>
      </trkpt>
      <trkpt lat="45.15842" lon="5.94485">
        <ele>2112</ele>
        <time>2017-02-26T09:14:38.000Z</time>
      </trkpt>
      <trkpt lat="45.15844" lon="5.9449">
        <ele>2114</ele>
        <time>2017-02-26T09:14:48.000Z</time>
      </trkpt>
      <trkpt lat="45.15846" lon="5.94495">
        <ele>2114</ele>
        <time>2017-02-26T09:14:49.000Z</time>
      </trkpt>
      <trkpt lat="45.15846" lon="5.94495">
        <ele>2115</ele>
        <time>2017-02-26T09:14:58.000Z</time>
      </trkpt>
      <trkpt lat="45.15847" lon="5.9451">
        <ele>2115</ele>
        <time>2017-02-26T09:15:01.000Z</time>
      </trkpt>
      <trkpt lat="45.15847" lon="5.9451">
        <ele>2116</ele>
        <time>2017-02-26T09:15:08.000Z</time>
      </trkpt>
      <trkpt lat="45.15853" lon="5.94526">
        <ele>2116</ele>
        <time>2017-02-26T09:15:13.000Z</time>
      </trkpt>
      <trkpt lat="45.15853" lon="5.94526">
        <ele>2117</ele>
        <time>2017-02-26T09:15:18.000Z</time>
      </trkpt>
      <trkpt lat="45.15841" lon="5.94531">
        <ele>2117</ele>
        <time>2017-02-26T09:15:25.000Z</time>
      </trkpt>
      <trkpt lat="45.15841" lon="5.94531">
        <ele>2120</ele>
        <time>2017-02-26T09:15:28.000Z</time>
      </trkpt>
      <trkpt lat="45.15829" lon="5.9453">
        <ele>2120</ele>
        <time>2017-02-26T09:15:37.000Z</time>
      </trkpt>
      <trkpt lat="45.15829" lon="5.9453">
        <ele>2121</ele>
        <time>2017-02-26T09:15:38.000Z</time>
      </trkpt>
      <trkpt lat="45.15829" lon="5.9453">
        <ele>2124</ele>
        <time>2017-02-26T09:15:48.000Z</time>
      </trkpt>
      <trkpt lat="45.15829" lon="5.9453">
        <ele>2127</ele>
        <time>2017-02-26T09:15:58.000Z</time>
      </trkpt>
      <trkpt lat="45.15821" lon="5.94541">
        <ele>2127</ele>
        <time>2017-02-26T09:16:01.000Z</time>
      </trkpt>
      <trkpt lat="45.15821" lon="5.94541">
        <ele>2129</ele>
        <time>2017-02-26T09:16:08.000Z</time>
      </trkpt>
      <trkpt lat="45.15822" lon="5.94552">
        <ele>2129</ele>
        <time>2017-02-26T09:16:13.000Z</time>
      </trkpt>
      <trkpt lat="45.15822" lon="5.94552">
        <ele>2131</ele>
        <time>2017-02-26T09:16:18.000Z</time>
      </trkpt>
      <trkpt lat="45.15822" lon="5.94552">
        <ele>2133</ele>
        <time>2017-02-26T09:16:28.000Z</time>
      </trkpt>
      <trkpt lat="45.1581" lon="5.94549">
        <ele>2133</ele>
        <time>2017-02-26T09:16:33.000Z</time>
      </trkpt>
      <trkpt lat="45.15806" lon="5.9455">
        <ele>2133</ele>
        <time>2017-02-26T09:16:38.000Z</time>
      </trkpt>
      <trkpt lat="45.15803" lon="5.94551">
        <ele>2136</ele>
        <time>2017-02-26T09:16:48.000Z</time>
      </trkpt>
      <trkpt lat="45.15799" lon="5.94552">
        <ele>2136</ele>
        <time>2017-02-26T09:16:49.000Z</time>
      </trkpt>
      <trkpt lat="45.15799" lon="5.94552">
        <ele>2138</ele>
        <time>2017-02-26T09:16:58.000Z</time>
      </trkpt>
      <trkpt lat="45.1579" lon="5.94559">
        <ele>2138</ele>
        <time>2017-02-26T09:17:01.000Z</time>
      </trkpt>
      <trkpt lat="45.1579" lon="5.94559">
        <ele>2141</ele>
        <time>2017-02-26T09:17:08.000Z</time>
      </trkpt>
      <trkpt lat="45.15782" lon="5.9457">
        <ele>2141</ele>
        <time>2017-02-26T09:17:13.000Z</time>
      </trkpt>
      <trkpt lat="45.1578" lon="5.94575">
        <ele>2142</ele>
        <time>2017-02-26T09:17:18.000Z</time>
      </trkpt>
      <trkpt lat="45.15779" lon="5.9458">
        <ele>2143</ele>
        <time>2017-02-26T09:17:28.000Z</time>
      </trkpt>
      <trkpt lat="45.15777" lon="5.94585">
        <ele>2143</ele>
        <time>2017-02-26T09:17:29.000Z</time>
      </trkpt>
      <trkpt lat="45.15777" lon="5.94585">
        <ele>2146</ele>
        <time>2017-02-26T09:17:38.000Z</time>
      </trkpt>
      <trkpt lat="45.15777" lon="5.94599">
        <ele>2146</ele>
        <time>2017-02-26T09:17:41.000Z</time>
      </trkpt>
      <trkpt lat="45.15777" lon="5.94599">
        <ele>2147</ele>
        <time>2017-02-26T09:17:48.000Z</time>
      </trkpt>
      <trkpt lat="45.15772" lon="5.94612">
        <ele>2147</ele>
        <time>2017-02-26T09:17:53.000Z</time>
      </trkpt>
      <trkpt lat="45.15772" lon="5.94615">
        <ele>2148</ele>
        <time>2017-02-26T09:17:58.000Z</time>
      </trkpt>
      <trkpt lat="45.15772" lon="5.94617">
        <ele>2150</ele>
        <time>2017-02-26T09:18:08.000Z</time>
      </trkpt>
      <trkpt lat="45.15773" lon="5.9462">
        <ele>2149</ele>
        <time>2017-02-26T09:18:18.000Z</time>
      </trkpt>
      <trkpt lat="45.15773" lon="5.94622">
        <ele>2150</ele>
        <time>2017-02-26T09:18:28.000Z</time>
      </trkpt>
      <trkpt lat="45.15773" lon="5.94625">
        <ele>2150</ele>
        <time>2017-02-26T09:18:29.000Z</time>
      </trkpt>
      <trkpt lat="45.15773" lon="5.94625">
        <ele>2150</ele>
        <time>2017-02-26T09:18:38.000Z</time>
      </trkpt>
      <trkpt lat="45.15773" lon="5.94625">
        <ele>2150</ele>
        <time>2017-02-26T09:18:48.000Z</time>
      </trkpt>
      <trkpt lat="45.15773" lon="5.94625">
        <ele>2149</ele>
        <time>2017-02-26T09:18:58.000Z</time>
      </trkpt>
      <trkpt lat="45.15773" lon="5.94625">
        <ele>2150</ele>
        <time>2017-02-26T09:19:08.000Z</time>
      </trkpt>
      <trkpt lat="45.15773" lon="5.94625">
        <ele>2149</ele>
        <time>2017-02-26T09:19:18.000Z</time>
      </trkpt>
      <trkpt lat="45.15773" lon="5.94625">
        <ele>2148</ele>
        <time>2017-02-26T09:19:28.000Z</time>
      </trkpt>
      <trkpt lat="45.15773" lon="5.94625">
        <ele>2148</ele>
        <time>2017-02-26T09:19:38.000Z</time>
      </trkpt>
      <trkpt lat="45.15773" lon="5.94625">
        <ele>2148</ele>
        <time>2017-02-26T09:19:48.000Z</time>
      </trkpt>
      <trkpt lat="45.15773" lon="5.94625">
        <ele>2148</ele>
        <time>2017-02-26T09:19:58.000Z</time>
      </trkpt>
      <trkpt lat="45.15773" lon="5.94625">
        <ele>2149</ele>
        <time>2017-02-26T09:20:08.000Z</time>
      </trkpt>
      <trkpt lat="45.15767" lon="5.94644">
        <ele>2149</ele>
        <time>2017-02-26T09:20:17.000Z</time>
      </trkpt>
      <trkpt lat="45.15767" lon="5.94644">
        <ele>2149</ele>
        <time>2017-02-26T09:20:18.000Z</time>
      </trkpt>
      <trkpt lat="45.15767" lon="5.94644">
        <ele>2150</ele>
        <time>2017-02-26T09:20:28.000Z</time>
      </trkpt>
      <trkpt lat="45.15754" lon="5.9466">
        <ele>2150</ele>
        <time>2017-02-26T09:20:31.000Z</time>
      </trkpt>
      <trkpt lat="45.15754" lon="5.9466">
        <ele>2150</ele>
        <time>2017-02-26T09:20:38.000Z</time>
      </trkpt>
      <trkpt lat="45.15754" lon="5.9466">
        <ele>2153</ele>
        <time>2017-02-26T09:20:48.000Z</time>
      </trkpt>
      <trkpt lat="45.15743" lon="5.94665">
        <ele>2153</ele>
        <time>2017-02-26T09:20:51.000Z</time>
      </trkpt>
      <trkpt lat="45.15736" lon="5.94671">
        <ele>2154</ele>
        <time>2017-02-26T09:20:58.000Z</time>
      </trkpt>
      <trkpt lat="45.15729" lon="5.94676">
        <ele>2154</ele>
        <time>2017-02-26T09:20:59.000Z</time>
      </trkpt>
      <trkpt lat="45.15729" lon="5.94676">
        <ele>2157</ele>
        <time>2017-02-26T09:21:08.000Z</time>
      </trkpt>
      <trkpt lat="45.15715" lon="5.94681">
        <ele>2157</ele>
        <time>2017-02-26T09:21:15.000Z</time>
      </trkpt>
      <trkpt lat="45.15712" lon="5.94682">
        <ele>2157</ele>
        <time>2017-02-26T09:21:18.000Z</time>
      </trkpt>
      <trkpt lat="45.15709" lon="5.94682">
        <ele>2157</ele>
        <time>2017-02-26T09:21:27.000Z</time>
      </trkpt>
      <trkpt lat="45.15706" lon="5.94683">
        <ele>2158</ele>
        <time>2017-02-26T09:21:28.000Z</time>
      </trkpt>
      <trkpt lat="45.15703" lon="5.94684">
        <ele>2161</ele>
        <time>2017-02-26T09:21:38.000Z</time>
      </trkpt>
      <trkpt lat="45.157" lon="5.94685">
        <ele>2161</ele>
        <time>2017-02-26T09:21:39.000Z</time>
      </trkpt>
      <trkpt lat="45.157" lon="5.94685">
        <ele>2163</ele>
        <time>2017-02-26T09:21:48.000Z</time>
      </trkpt>
      <trkpt lat="45.157" lon="5.94685">
        <ele>2163</ele>
        <time>2017-02-26T09:21:58.000Z</time>
      </trkpt>
      <trkpt lat="45.15689" lon="5.94686">
        <ele>2163</ele>
        <time>2017-02-26T09:22:03.000Z</time>
      </trkpt>
      <trkpt lat="45.15685" lon="5.94687">
        <ele>2165</ele>
        <time>2017-02-26T09:22:08.000Z</time>
      </trkpt>
      <trkpt lat="45.1568" lon="5.94689">
        <ele>2167</ele>
        <time>2017-02-26T09:22:18.000Z</time>
      </trkpt>
      <trkpt lat="45.15675" lon="5.9469">
        <ele>2167</ele>
        <time>2017-02-26T09:22:19.000Z</time>
      </trkpt>
      <trkpt lat="45.15666" lon="5.94691">
        <ele>2167</ele>
        <time>2017-02-26T09:22:27.000Z</time>
      </trkpt>
      <trkpt lat="45.15664" lon="5.94692">
        <ele>2168</ele>
        <time>2017-02-26T09:22:28.000Z</time>
      </trkpt>
      <trkpt lat="45.1565" lon="5.94698">
        <ele>2168</ele>
        <time>2017-02-26T09:22:35.000Z</time>
      </trkpt>
      <trkpt lat="45.1565" lon="5.94698">
        <ele>2168</ele>
        <time>2017-02-26T09:22:38.000Z</time>
      </trkpt>
      <trkpt lat="45.15638" lon="5.94705">
        <ele>2168</ele>
        <time>2017-02-26T09:22:47.000Z</time>
      </trkpt>
      <trkpt lat="45.15638" lon="5.94705">
        <ele>2168</ele>
        <time>2017-02-26T09:22:48.000Z</time>
      </trkpt>
      <trkpt lat="45.15638" lon="5.94705">
        <ele>2171</ele>
        <time>2017-02-26T09:22:58.000Z</time>
      </trkpt>
      <trkpt lat="45.15626" lon="5.94709">
        <ele>2171</ele>
        <time>2017-02-26T09:23:03.000Z</time>
      </trkpt>
      <trkpt lat="45.15623" lon="5.94705">
        <ele>2171</ele>
        <time>2017-02-26T09:23:08.000Z</time>
      </trkpt>
      <trkpt lat="45.1562" lon="5.94701">
        <ele>2174</ele>
        <time>2017-02-26T09:23:18.000Z</time>
      </trkpt>
      <trkpt lat="45.15617" lon="5.94697">
        <ele>2174</ele>
        <time>2017-02-26T09:23:19.000Z</time>
      </trkpt>
      <trkpt lat="45.15613" lon="5.94698">
        <ele>2176</ele>
        <time>2017-02-26T09:23:28.000Z</time>
      </trkpt>
      <trkpt lat="45.15608" lon="5.94698">
        <ele>2178</ele>
        <time>2017-02-26T09:23:38.000Z</time>
      </trkpt>
      <trkpt lat="45.15603" lon="5.94698">
        <ele>2178</ele>
        <time>2017-02-26T09:23:39.000Z</time>
      </trkpt>
      <trkpt lat="45.15603" lon="5.94698">
        <ele>2178</ele>
        <time>2017-02-26T09:23:48.000Z</time>
      </trkpt>
      <trkpt lat="45.15592" lon="5.94702">
        <ele>2178</ele>
        <time>2017-02-26T09:23:51.000Z</time>
      </trkpt>
      <trkpt lat="45.15592" lon="5.94702">
        <ele>2181</ele>
        <time>2017-02-26T09:23:58.000Z</time>
      </trkpt>
      <trkpt lat="45.15582" lon="5.94703">
        <ele>2181</ele>
        <time>2017-02-26T09:24:03.000Z</time>
      </trkpt>
      <trkpt lat="45.15582" lon="5.94703">
        <ele>2181</ele>
        <time>2017-02-26T09:24:08.000Z</time>
      </trkpt>
      <trkpt lat="45.15574" lon="5.94709">
        <ele>2181</ele>
        <time>2017-02-26T09:24:15.000Z</time>
      </trkpt>
      <trkpt lat="45.15574" lon="5.94709">
        <ele>2184</ele>
        <time>2017-02-26T09:24:18.000Z</time>
      </trkpt>
      <trkpt lat="45.15574" lon="5.94709">
        <ele>2183</ele>
        <time>2017-02-26T09:24:28.000Z</time>
      </trkpt>
      <trkpt lat="45.15574" lon="5.94709">
        <ele>2184</ele>
        <time>2017-02-26T09:24:38.000Z</time>
      </trkpt>
      <trkpt lat="45.15559" lon="5.94711">
        <ele>2184</ele>
        <time>2017-02-26T09:24:45.000Z</time>
      </trkpt>
      <trkpt lat="45.15559" lon="5.94711">
        <ele>2187</ele>
        <time>2017-02-26T09:24:48.000Z</time>
      </trkpt>
      <trkpt lat="45.15559" lon="5.94711">
        <ele>2187</ele>
        <time>2017-02-26T09:24:58.000Z</time>
      </trkpt>
      <trkpt lat="45.15549" lon="5.94716">
        <ele>2187</ele>
        <time>2017-02-26T09:25:05.000Z</time>
      </trkpt>
      <trkpt lat="45.15549" lon="5.94716">
        <ele>2191</ele>
        <time>2017-02-26T09:25:08.000Z</time>
      </trkpt>
      <trkpt lat="45.15549" lon="5.94716">
        <ele>2192</ele>
        <time>2017-02-26T09:25:18.000Z</time>
      </trkpt>
      <trkpt lat="45.1554" lon="5.94721">
        <ele>2192</ele>
        <time>2017-02-26T09:25:25.000Z</time>
      </trkpt>
      <trkpt lat="45.1554" lon="5.94721">
        <ele>2192</ele>
        <time>2017-02-26T09:25:28.000Z</time>
      </trkpt>
      <trkpt lat="45.1554" lon="5.94721">
        <ele>2193</ele>
        <time>2017-02-26T09:25:38.000Z</time>
      </trkpt>
      <trkpt lat="45.15529" lon="5.94728">
        <ele>2193</ele>
        <time>2017-02-26T09:25:41.000Z</time>
      </trkpt>
      <trkpt lat="45.15529" lon="5.94728">
        <ele>2196</ele>
        <time>2017-02-26T09:25:48.000Z</time>
      </trkpt>
      <trkpt lat="45.15529" lon="5.94728">
        <ele>2197</ele>
        <time>2017-02-26T09:25:58.000Z</time>
      </trkpt>
      <trkpt lat="45.15529" lon="5.94728">
        <ele>2198</ele>
        <time>2017-02-26T09:26:08.000Z</time>
      </trkpt>
      <trkpt lat="45.15529" lon="5.94728">
        <ele>2203</ele>
        <time>2017-02-26T09:26:18.000Z</time>
      </trkpt>
      <trkpt lat="45.15533" lon="5.94742">
        <ele>2203</ele>
        <time>2017-02-26T09:26:24.000Z</time>
      </trkpt>
      <trkpt lat="45.15533" lon="5.94742">
        <ele>2204</ele>
        <time>2017-02-26T09:26:28.000Z</time>
      </trkpt>
      <trkpt lat="45.15533" lon="5.94742">
        <ele>2204</ele>
        <time>2017-02-26T09:26:38.000Z</time>
      </trkpt>
      <trkpt lat="45.15523" lon="5.94751">
        <ele>2204</ele>
        <time>2017-02-26T09:26:40.000Z</time>
      </trkpt>
      <trkpt lat="45.15523" lon="5.94751">
        <ele>2205</ele>
        <time>2017-02-26T09:26:48.000Z</time>
      </trkpt>
      <trkpt lat="45.15513" lon="5.94752">
        <ele>2205</ele>
        <time>2017-02-26T09:26:52.000Z</time>
      </trkpt>
      <trkpt lat="45.15513" lon="5.94752">
        <ele>2209</ele>
        <time>2017-02-26T09:26:58.000Z</time>
      </trkpt>
      <trkpt lat="45.15513" lon="5.94752">
        <ele>2210</ele>
        <time>2017-02-26T09:27:08.000Z</time>
      </trkpt>
      <trkpt lat="45.1552" lon="5.94763">
        <ele>2210</ele>
        <time>2017-02-26T09:27:16.000Z</time>
      </trkpt>
      <trkpt lat="45.1552" lon="5.94763">
        <ele>2210</ele>
        <time>2017-02-26T09:27:18.000Z</time>
      </trkpt>
      <trkpt lat="45.1552" lon="5.94763">
        <ele>2213</ele>
        <time>2017-02-26T09:27:28.000Z</time>
      </trkpt>
      <trkpt lat="45.15532" lon="5.94768">
        <ele>2213</ele>
        <time>2017-02-26T09:27:32.000Z</time>
      </trkpt>
      <trkpt lat="45.15532" lon="5.94768">
        <ele>2216</ele>
        <time>2017-02-26T09:27:38.000Z</time>
      </trkpt>
      <trkpt lat="45.15539" lon="5.94778">
        <ele>2216</ele>
        <time>2017-02-26T09:27:44.000Z</time>
      </trkpt>
      <trkpt lat="45.15539" lon="5.94778">
        <ele>2215</ele>
        <time>2017-02-26T09:27:48.000Z</time>
      </trkpt>
      <trkpt lat="45.15552" lon="5.9478">
        <ele>2215</ele>
        <time>2017-02-26T09:27:56.000Z</time>
      </trkpt>
      <trkpt lat="45.15552" lon="5.9478">
        <ele>2217</ele>
        <time>2017-02-26T09:27:58.000Z</time>
      </trkpt>
      <trkpt lat="45.15552" lon="5.9478">
        <ele>2217</ele>
        <time>2017-02-26T09:28:08.000Z</time>
      </trkpt>
      <trkpt lat="45.15542" lon="5.94791">
        <ele>2217</ele>
        <time>2017-02-26T09:28:16.000Z</time>
      </trkpt>
      <trkpt lat="45.15542" lon="5.94791">
        <ele>2221</ele>
        <time>2017-02-26T09:28:18.000Z</time>
      </trkpt>
      <trkpt lat="45.15542" lon="5.94791">
        <ele>2223</ele>
        <time>2017-02-26T09:28:28.000Z</time>
      </trkpt>
      <trkpt lat="45.1553" lon="5.94791">
        <ele>2223</ele>
        <time>2017-02-26T09:28:32.000Z</time>
      </trkpt>
      <trkpt lat="45.1553" lon="5.94791">
        <ele>2224</ele>
        <time>2017-02-26T09:28:38.000Z</time>
      </trkpt>
      <trkpt lat="45.1553" lon="5.94791">
        <ele>2228</ele>
        <time>2017-02-26T09:28:48.000Z</time>
      </trkpt>
      <trkpt lat="45.1553" lon="5.94791">
        <ele>2229</ele>
        <time>2017-02-26T09:28:58.000Z</time>
      </trkpt>
      <trkpt lat="45.15534" lon="5.94805">
        <ele>2229</ele>
        <time>2017-02-26T09:29:00.000Z</time>
      </trkpt>
      <trkpt lat="45.15534" lon="5.94805">
        <ele>2232</ele>
        <time>2017-02-26T09:29:08.000Z</time>
      </trkpt>
      <trkpt lat="45.15544" lon="5.94819">
        <ele>2232</ele>
        <time>2017-02-26T09:29:16.000Z</time>
      </trkpt>
      <trkpt lat="45.15544" lon="5.94819">
        <ele>2231</ele>
        <time>2017-02-26T09:29:18.000Z</time>
      </trkpt>
      <trkpt lat="45.15548" lon="5.94833">
        <ele>2231</ele>
        <time>2017-02-26T09:29:24.000Z</time>
      </trkpt>
      <trkpt lat="45.15548" lon="5.94833">
        <ele>2232</ele>
        <time>2017-02-26T09:29:28.000Z</time>
      </trkpt>
      <trkpt lat="45.15548" lon="5.94833">
        <ele>2235</ele>
        <time>2017-02-26T09:29:38.000Z</time>
      </trkpt>
      <trkpt lat="45.15548" lon="5.94833">
        <ele>2239</ele>
        <time>2017-02-26T09:29:48.000Z</time>
      </trkpt>
      <trkpt lat="45.15558" lon="5.94839">
        <ele>2239</ele>
        <time>2017-02-26T09:29:52.000Z</time>
      </trkpt>
      <trkpt lat="45.15558" lon="5.94839">
        <ele>2242</ele>
        <time>2017-02-26T09:29:58.000Z</time>
      </trkpt>
      <trkpt lat="45.15572" lon="5.9484">
        <ele>2242</ele>
        <time>2017-02-26T09:30:04.000Z</time>
      </trkpt>
      <trkpt lat="45.15572" lon="5.9484">
        <ele>2242</ele>
        <time>2017-02-26T09:30:08.000Z</time>
      </trkpt>
      <trkpt lat="45.15579" lon="5.94843">
        <ele>2242</ele>
        <time>2017-02-26T09:30:16.000Z</time>
      </trkpt>
      <trkpt lat="45.15579" lon="5.94843">
        <ele>2244</ele>
        <time>2017-02-26T09:30:18.000Z</time>
      </trkpt>
      <trkpt lat="45.15579" lon="5.94843">
        <ele>2245</ele>
        <time>2017-02-26T09:30:28.000Z</time>
      </trkpt>
      <trkpt lat="45.15579" lon="5.94843">
        <ele>2247</ele>
        <time>2017-02-26T09:30:38.000Z</time>
      </trkpt>
      <trkpt lat="45.15584" lon="5.94857">
        <ele>2247</ele>
        <time>2017-02-26T09:30:40.000Z</time>
      </trkpt>
      <trkpt lat="45.15584" lon="5.94857">
        <ele>2247</ele>
        <time>2017-02-26T09:30:48.000Z</time>
      </trkpt>
      <trkpt lat="45.15579" lon="5.94871">
        <ele>2247</ele>
        <time>2017-02-26T09:30:56.000Z</time>
      </trkpt>
      <trkpt lat="45.15579" lon="5.94871">
        <ele>2250</ele>
        <time>2017-02-26T09:30:58.000Z</time>
      </trkpt>
      <trkpt lat="45.15573" lon="5.94875">
        <ele>2250</ele>
        <time>2017-02-26T09:31:04.000Z</time>
      </trkpt>
      <trkpt lat="45.15573" lon="5.94875">
        <ele>2252</ele>
        <time>2017-02-26T09:31:08.000Z</time>
      </trkpt>
      <trkpt lat="45.15564" lon="5.94884">
        <ele>2252</ele>
        <time>2017-02-26T09:31:16.000Z</time>
      </trkpt>
      <trkpt lat="45.15564" lon="5.94884">
        <ele>2254</ele>
        <time>2017-02-26T09:31:18.000Z</time>
      </trkpt>
      <trkpt lat="45.15554" lon="5.94886">
        <ele>2256</ele>
        <time>2017-02-26T09:31:28.000Z</time>
      </trkpt>
      <trkpt lat="45.15554" lon="5.94886">
        <ele>2259</ele>
        <time>2017-02-26T09:31:38.000Z</time>
      </trkpt>
      <trkpt lat="45.15545" lon="5.94896">
        <ele>2259</ele>
        <time>2017-02-26T09:31:40.000Z</time>
      </trkpt>
      <trkpt lat="45.15545" lon="5.94896">
        <ele>2261</ele>
        <time>2017-02-26T09:31:48.000Z</time>
      </trkpt>
      <trkpt lat="45.15532" lon="5.94904">
        <ele>2261</ele>
        <time>2017-02-26T09:31:56.000Z</time>
      </trkpt>
      <trkpt lat="45.15532" lon="5.94904">
        <ele>2263</ele>
        <time>2017-02-26T09:31:58.000Z</time>
      </trkpt>
      <trkpt lat="45.15532" lon="5.94904">
        <ele>2265</ele>
        <time>2017-02-26T09:32:08.000Z</time>
      </trkpt>
      <trkpt lat="45.15522" lon="5.94892">
        <ele>2265</ele>
        <time>2017-02-26T09:32:16.000Z</time>
      </trkpt>
      <trkpt lat="45.15522" lon="5.94892">
        <ele>2265</ele>
        <time>2017-02-26T09:32:18.000Z</time>
      </trkpt>
      <trkpt lat="45.15522" lon="5.94892">
        <ele>2266</ele>
        <time>2017-02-26T09:32:28.000Z</time>
      </trkpt>
      <trkpt lat="45.15511" lon="5.94884">
        <ele>2266</ele>
        <time>2017-02-26T09:32:34.000Z</time>
      </trkpt>
      <trkpt lat="45.15511" lon="5.94884">
        <ele>2268</ele>
        <time>2017-02-26T09:32:38.000Z</time>
      </trkpt>
      <trkpt lat="45.15511" lon="5.94884">
        <ele>2271</ele>
        <time>2017-02-26T09:32:48.000Z</time>
      </trkpt>
      <trkpt lat="45.15499" lon="5.94887">
        <ele>2271</ele>
        <time>2017-02-26T09:32:54.000Z</time>
      </trkpt>
      <trkpt lat="45.15499" lon="5.94887">
        <ele>2273</ele>
        <time>2017-02-26T09:32:58.000Z</time>
      </trkpt>
      <trkpt lat="45.15499" lon="5.94887">
        <ele>2273</ele>
        <time>2017-02-26T09:33:08.000Z</time>
      </trkpt>
      <trkpt lat="45.15499" lon="5.94887">
        <ele>2277</ele>
        <time>2017-02-26T09:33:18.000Z</time>
      </trkpt>
      <trkpt lat="45.15493" lon="5.949">
        <ele>2277</ele>
        <time>2017-02-26T09:33:26.000Z</time>
      </trkpt>
      <trkpt lat="45.15493" lon="5.949">
        <ele>2278</ele>
        <time>2017-02-26T09:33:28.000Z</time>
      </trkpt>
      <trkpt lat="45.15493" lon="5.949">
        <ele>2279</ele>
        <time>2017-02-26T09:33:38.000Z</time>
      </trkpt>
      <trkpt lat="45.15493" lon="5.949">
        <ele>2280</ele>
        <time>2017-02-26T09:33:48.000Z</time>
      </trkpt>
      <trkpt lat="45.15493" lon="5.949">
        <ele>2280</ele>
        <time>2017-02-26T09:33:58.000Z</time>
      </trkpt>
      <trkpt lat="45.15482" lon="5.949">
        <ele>2280</ele>
        <time>2017-02-26T09:34:01.000Z</time>
      </trkpt>
      <trkpt lat="45.15482" lon="5.949">
        <ele>2283</ele>
        <time>2017-02-26T09:34:08.000Z</time>
      </trkpt>
      <trkpt lat="45.15471" lon="5.94902">
        <ele>2283</ele>
        <time>2017-02-26T09:34:13.000Z</time>
      </trkpt>
      <trkpt lat="45.15468" lon="5.94906">
        <ele>2283</ele>
        <time>2017-02-26T09:34:18.000Z</time>
      </trkpt>
      <trkpt lat="45.15464" lon="5.9491">
        <ele>2284</ele>
        <time>2017-02-26T09:34:28.000Z</time>
      </trkpt>
      <trkpt lat="45.15461" lon="5.94914">
        <ele>2284</ele>
        <time>2017-02-26T09:34:29.000Z</time>
      </trkpt>
      <trkpt lat="45.1545" lon="5.94921">
        <ele>2284</ele>
        <time>2017-02-26T09:34:37.000Z</time>
      </trkpt>
      <trkpt lat="45.15449" lon="5.94922">
        <ele>2288</ele>
        <time>2017-02-26T09:34:38.000Z</time>
      </trkpt>
      <trkpt lat="45.15448" lon="5.94924">
        <ele>2290</ele>
        <time>2017-02-26T09:34:48.000Z</time>
      </trkpt>
      <trkpt lat="45.15446" lon="5.94925">
        <ele>2290</ele>
        <time>2017-02-26T09:34:57.000Z</time>
      </trkpt>
      <trkpt lat="45.15445" lon="5.94927">
        <ele>2292</ele>
        <time>2017-02-26T09:34:58.000Z</time>
      </trkpt>
      <trkpt lat="45.15444" lon="5.94929">
        <ele>2292</ele>
        <time>2017-02-26T09:35:08.000Z</time>
      </trkpt>
      <trkpt lat="45.15443" lon="5.9493">
        <ele>2295</ele>
        <time>2017-02-26T09:35:18.000Z</time>
      </trkpt>
      <trkpt lat="45.15441" lon="5.94932">
        <ele>2298</ele>
        <time>2017-02-26T09:35:28.000Z</time>
      </trkpt>
      <trkpt lat="45.1544" lon="5.94933">
        <ele>2298</ele>
        <time>2017-02-26T09:35:29.000Z</time>
      </trkpt>
      <trkpt lat="45.15438" lon="5.94952">
        <ele>2298</ele>
        <time>2017-02-26T09:35:37.000Z</time>
      </trkpt>
      <trkpt lat="45.15438" lon="5.94956">
        <ele>2298</ele>
        <time>2017-02-26T09:35:38.000Z</time>
      </trkpt>
      <trkpt lat="45.15437" lon="5.9496">
        <ele>2301</ele>
        <time>2017-02-26T09:35:48.000Z</time>
      </trkpt>
      <trkpt lat="45.15437" lon="5.94963">
        <ele>2301</ele>
        <time>2017-02-26T09:35:49.000Z</time>
      </trkpt>
      <trkpt lat="45.15437" lon="5.94963">
        <ele>2303</ele>
        <time>2017-02-26T09:35:58.000Z</time>
      </trkpt>
      <trkpt lat="45.15437" lon="5.94963">
        <ele>2304</ele>
        <time>2017-02-26T09:36:08.000Z</time>
      </trkpt>
      <trkpt lat="45.15437" lon="5.94963">
        <ele>2306</ele>
        <time>2017-02-26T09:36:18.000Z</time>
      </trkpt>
      <trkpt lat="45.15444" lon="5.94974">
        <ele>2306</ele>
        <time>2017-02-26T09:36:21.000Z</time>
      </trkpt>
      <trkpt lat="45.15444" lon="5.94974">
        <ele>2308</ele>
        <time>2017-02-26T09:36:28.000Z</time>
      </trkpt>
      <trkpt lat="45.15444" lon="5.94974">
        <ele>2309</ele>
        <time>2017-02-26T09:36:38.000Z</time>
      </trkpt>
      <trkpt lat="45.15439" lon="5.94987">
        <ele>2309</ele>
        <time>2017-02-26T09:36:41.000Z</time>
      </trkpt>
      <trkpt lat="45.15441" lon="5.9499">
        <ele>2310</ele>
        <time>2017-02-26T09:36:48.000Z</time>
      </trkpt>
      <trkpt lat="45.15443" lon="5.94994">
        <ele>2313</ele>
        <time>2017-02-26T09:36:58.000Z</time>
      </trkpt>
      <trkpt lat="45.15444" lon="5.94997">
        <ele>2314</ele>
        <time>2017-02-26T09:37:08.000Z</time>
      </trkpt>
      <trkpt lat="45.15446" lon="5.95">
        <ele>2314</ele>
        <time>2017-02-26T09:37:09.000Z</time>
      </trkpt>
      <trkpt lat="45.15446" lon="5.95">
        <ele>2315</ele>
        <time>2017-02-26T09:37:18.000Z</time>
      </trkpt>
      <trkpt lat="45.15444" lon="5.95014">
        <ele>2315</ele>
        <time>2017-02-26T09:37:21.000Z</time>
      </trkpt>
      <trkpt lat="45.15444" lon="5.95014">
        <ele>2319</ele>
        <time>2017-02-26T09:37:28.000Z</time>
      </trkpt>
      <trkpt lat="45.15444" lon="5.95014">
        <ele>2321</ele>
        <time>2017-02-26T09:37:38.000Z</time>
      </trkpt>
      <trkpt lat="45.15444" lon="5.95014">
        <ele>2321</ele>
        <time>2017-02-26T09:37:48.000Z</time>
      </trkpt>
      <trkpt lat="45.15444" lon="5.95014">
        <ele>2322</ele>
        <time>2017-02-26T09:37:58.000Z</time>
      </trkpt>
      <trkpt lat="45.15457" lon="5.95018">
        <ele>2322</ele>
        <time>2017-02-26T09:38:01.000Z</time>
      </trkpt>
      <trkpt lat="45.15463" lon="5.95019">
        <ele>2323</ele>
        <time>2017-02-26T09:38:08.000Z</time>
      </trkpt>
      <trkpt lat="45.15469" lon="5.95019">
        <ele>2323</ele>
        <time>2017-02-26T09:38:09.000Z</time>
      </trkpt>
      <trkpt lat="45.15482" lon="5.95027">
        <ele>2323</ele>
        <time>2017-02-26T09:38:17.000Z</time>
      </trkpt>
      <trkpt lat="45.15486" lon="5.95032">
        <ele>2323</ele>
        <time>2017-02-26T09:38:18.000Z</time>
      </trkpt>
      <trkpt lat="45.15491" lon="5.95036">
        <ele>2321</ele>
        <time>2017-02-26T09:38:28.000Z</time>
      </trkpt>
      <trkpt lat="45.15495" lon="5.9504">
        <ele>2321</ele>
        <time>2017-02-26T09:38:29.000Z</time>
      </trkpt>
      <trkpt lat="45.15498" lon="5.95044">
        <ele>2321</ele>
        <time>2017-02-26T09:38:38.000Z</time>
      </trkpt>
      <trkpt lat="45.15501" lon="5.95048">
        <ele>2323</ele>
        <time>2017-02-26T09:38:48.000Z</time>
      </trkpt>
      <trkpt lat="45.15504" lon="5.95051">
        <ele>2323</ele>
        <time>2017-02-26T09:38:49.000Z</time>
      </trkpt>
      <trkpt lat="45.15504" lon="5.95051">
        <ele>2324</ele>
        <time>2017-02-26T09:38:58.000Z</time>
      </trkpt>
      <trkpt lat="45.15514" lon="5.95061">
        <ele>2324</ele>
        <time>2017-02-26T09:39:01.000Z</time>
      </trkpt>
      <trkpt lat="45.15518" lon="5.95066">
        <ele>2325</ele>
        <time>2017-02-26T09:39:08.000Z</time>
      </trkpt>
      <trkpt lat="45.15522" lon="5.95071">
        <ele>2325</ele>
        <time>2017-02-26T09:39:09.000Z</time>
      </trkpt>
      <trkpt lat="45.15525" lon="5.95073">
        <ele>2325</ele>
        <time>2017-02-26T09:39:18.000Z</time>
      </trkpt>
      <trkpt lat="45.15528" lon="5.95075">
        <ele>2326</ele>
        <time>2017-02-26T09:39:28.000Z</time>
      </trkpt>
      <trkpt lat="45.15531" lon="5.95077">
        <ele>2326</ele>
        <time>2017-02-26T09:39:29.000Z</time>
      </trkpt>
      <trkpt lat="45.15531" lon="5.95077">
        <ele>2328</ele>
        <time>2017-02-26T09:39:38.000Z</time>
      </trkpt>
      <trkpt lat="45.15544" lon="5.95081">
        <ele>2328</ele>
        <time>2017-02-26T09:39:45.000Z</time>
      </trkpt>
      <trkpt lat="45.15544" lon="5.95081">
        <ele>2329</ele>
        <time>2017-02-26T09:39:48.000Z</time>
      </trkpt>
      <trkpt lat="45.15556" lon="5.95087">
        <ele>2329</ele>
        <time>2017-02-26T09:39:57.000Z</time>
      </trkpt>
      <trkpt lat="45.15557" lon="5.95088">
        <ele>2331</ele>
        <time>2017-02-26T09:39:58.000Z</time>
      </trkpt>
      <trkpt lat="45.15566" lon="5.95095">
        <ele>2331</ele>
        <time>2017-02-26T09:40:05.000Z</time>
      </trkpt>
      <trkpt lat="45.15566" lon="5.95095">
        <ele>2332</ele>
        <time>2017-02-26T09:40:08.000Z</time>
      </trkpt>
      <trkpt lat="45.15575" lon="5.95097">
        <ele>2332</ele>
        <time>2017-02-26T09:40:13.000Z</time>
      </trkpt>
      <trkpt lat="45.15575" lon="5.95097">
        <ele>2334</ele>
        <time>2017-02-26T09:40:18.000Z</time>
      </trkpt>
      <trkpt lat="45.15575" lon="5.95097">
        <ele>2334</ele>
        <time>2017-02-26T09:40:28.000Z</time>
      </trkpt>
      <trkpt lat="45.15575" lon="5.95097">
        <ele>2338</ele>
        <time>2017-02-26T09:40:38.000Z</time>
      </trkpt>
      <trkpt lat="45.15585" lon="5.951">
        <ele>2338</ele>
        <time>2017-02-26T09:40:45.000Z</time>
      </trkpt>
      <trkpt lat="45.15585" lon="5.951">
        <ele>2340</ele>
        <time>2017-02-26T09:40:48.000Z</time>
      </trkpt>
      <trkpt lat="45.15596" lon="5.95106">
        <ele>2340</ele>
        <time>2017-02-26T09:40:53.000Z</time>
      </trkpt>
      <trkpt lat="45.15596" lon="5.95106">
        <ele>2341</ele>
        <time>2017-02-26T09:40:58.000Z</time>
      </trkpt>
      <trkpt lat="45.15606" lon="5.95114">
        <ele>2341</ele>
        <time>2017-02-26T09:41:05.000Z</time>
      </trkpt>
      <trkpt lat="45.15606" lon="5.95114">
        <ele>2343</ele>
        <time>2017-02-26T09:41:08.000Z</time>
      </trkpt>
      <trkpt lat="45.15617" lon="5.95117">
        <ele>2343</ele>
        <time>2017-02-26T09:41:13.000Z</time>
      </trkpt>
      <trkpt lat="45.15617" lon="5.95117">
        <ele>2343</ele>
        <time>2017-02-26T09:41:18.000Z</time>
      </trkpt>
      <trkpt lat="45.15617" lon="5.95117">
        <ele>2347</ele>
        <time>2017-02-26T09:41:28.000Z</time>
      </trkpt>
      <trkpt lat="45.15611" lon="5.95125">
        <ele>2347</ele>
        <time>2017-02-26T09:41:33.000Z</time>
      </trkpt>
      <trkpt lat="45.15611" lon="5.95125">
        <ele>2347</ele>
        <time>2017-02-26T09:41:38.000Z</time>
      </trkpt>
      <trkpt lat="45.15611" lon="5.95125">
        <ele>2352</ele>
        <time>2017-02-26T09:41:48.000Z</time>
      </trkpt>
      <trkpt lat="45.15605" lon="5.95138">
        <ele>2352</ele>
        <time>2017-02-26T09:41:53.000Z</time>
      </trkpt>
      <trkpt lat="45.15604" lon="5.95142">
        <ele>2352</ele>
        <time>2017-02-26T09:41:58.000Z</time>
      </trkpt>
      <trkpt lat="45.15602" lon="5.95147">
        <ele>2352</ele>
        <time>2017-02-26T09:42:08.000Z</time>
      </trkpt>
      <trkpt lat="45.156" lon="5.95151">
        <ele>2352</ele>
        <time>2017-02-26T09:42:09.000Z</time>
      </trkpt>
      <trkpt lat="45.156" lon="5.95151">
        <ele>2355</ele>
        <time>2017-02-26T09:42:18.000Z</time>
      </trkpt>
      <trkpt lat="45.156" lon="5.95151">
        <ele>2357</ele>
        <time>2017-02-26T09:42:28.000Z</time>
      </trkpt>
      <trkpt lat="45.15592" lon="5.9516">
        <ele>2357</ele>
        <time>2017-02-26T09:42:33.000Z</time>
      </trkpt>
      <trkpt lat="45.15592" lon="5.9516">
        <ele>2357</ele>
        <time>2017-02-26T09:42:38.000Z</time>
      </trkpt>
      <trkpt lat="45.15592" lon="5.9516">
        <ele>2358</ele>
        <time>2017-02-26T09:42:48.000Z</time>
      </trkpt>
      <trkpt lat="45.15592" lon="5.9516">
        <ele>2360</ele>
        <time>2017-02-26T09:42:58.000Z</time>
      </trkpt>
      <trkpt lat="45.15603" lon="5.95167">
        <ele>2360</ele>
        <time>2017-02-26T09:43:01.000Z</time>
      </trkpt>
      <trkpt lat="45.15603" lon="5.95167">
        <ele>2363</ele>
        <time>2017-02-26T09:43:08.000Z</time>
      </trkpt>
      <trkpt lat="45.15614" lon="5.9517">
        <ele>2363</ele>
        <time>2017-02-26T09:43:13.000Z</time>
      </trkpt>
      <trkpt lat="45.15614" lon="5.9517">
        <ele>2363</ele>
        <time>2017-02-26T09:43:18.000Z</time>
      </trkpt>
      <trkpt lat="45.15614" lon="5.9517">
        <ele>2366</ele>
        <time>2017-02-26T09:43:28.000Z</time>
      </trkpt>
      <trkpt lat="45.15624" lon="5.95179">
        <ele>2366</ele>
        <time>2017-02-26T09:43:37.000Z</time>
      </trkpt>
      <trkpt lat="45.15624" lon="5.95179">
        <ele>2367</ele>
        <time>2017-02-26T09:43:38.000Z</time>
      </trkpt>
      <trkpt lat="45.15624" lon="5.95179">
        <ele>2370</ele>
        <time>2017-02-26T09:43:48.000Z</time>
      </trkpt>
      <trkpt lat="45.15628" lon="5.9519">
        <ele>2370</ele>
        <time>2017-02-26T09:43:57.000Z</time>
      </trkpt>
      <trkpt lat="45.15628" lon="5.9519">
        <ele>2370</ele>
        <time>2017-02-26T09:43:58.000Z</time>
      </trkpt>
      <trkpt lat="45.15639" lon="5.95196">
        <ele>2370</ele>
        <time>2017-02-26T09:44:05.000Z</time>
      </trkpt>
      <trkpt lat="45.15639" lon="5.95196">
        <ele>2374</ele>
        <time>2017-02-26T09:44:08.000Z</time>
      </trkpt>
      <trkpt lat="45.15639" lon="5.95196">
        <ele>2375</ele>
        <time>2017-02-26T09:44:18.000Z</time>
      </trkpt>
      <trkpt lat="45.15639" lon="5.95196">
        <ele>2377</ele>
        <time>2017-02-26T09:44:28.000Z</time>
      </trkpt>
      <trkpt lat="45.15652" lon="5.95193">
        <ele>2377</ele>
        <time>2017-02-26T09:44:33.000Z</time>
      </trkpt>
      <trkpt lat="45.15652" lon="5.95193">
        <ele>2379</ele>
        <time>2017-02-26T09:44:38.000Z</time>
      </trkpt>
      <trkpt lat="45.15652" lon="5.95193">
        <ele>2379</ele>
        <time>2017-02-26T09:44:48.000Z</time>
      </trkpt>
      <trkpt lat="45.15652" lon="5.95212">
        <ele>2379</ele>
        <time>2017-02-26T09:44:53.000Z</time>
      </trkpt>
      <trkpt lat="45.15652" lon="5.95212">
        <ele>2382</ele>
        <time>2017-02-26T09:44:58.000Z</time>
      </trkpt>
      <trkpt lat="45.15652" lon="5.95212">
        <ele>2384</ele>
        <time>2017-02-26T09:45:08.000Z</time>
      </trkpt>
      <trkpt lat="45.15652" lon="5.95212">
        <ele>2384</ele>
        <time>2017-02-26T09:45:18.000Z</time>
      </trkpt>
      <trkpt lat="45.15664" lon="5.95212">
        <ele>2384</ele>
        <time>2017-02-26T09:45:21.000Z</time>
      </trkpt>
      <trkpt lat="45.15664" lon="5.95212">
        <ele>2387</ele>
        <time>2017-02-26T09:45:28.000Z</time>
      </trkpt>
      <trkpt lat="45.15672" lon="5.95202">
        <ele>2387</ele>
        <time>2017-02-26T09:45:33.000Z</time>
      </trkpt>
      <trkpt lat="45.15671" lon="5.952">
        <ele>2388</ele>
        <time>2017-02-26T09:45:38.000Z</time>
      </trkpt>
      <trkpt lat="45.1567" lon="5.95198">
        <ele>2390</ele>
        <time>2017-02-26T09:45:48.000Z</time>
      </trkpt>
      <trkpt lat="45.15669" lon="5.95195">
        <ele>2390</ele>
        <time>2017-02-26T09:45:57.000Z</time>
      </trkpt>
      <trkpt lat="45.15667" lon="5.95193">
        <ele>2390</ele>
        <time>2017-02-26T09:45:58.000Z</time>
      </trkpt>
      <trkpt lat="45.15666" lon="5.9519">
        <ele>2390</ele>
        <time>2017-02-26T09:46:08.000Z</time>
      </trkpt>
      <trkpt lat="45.15665" lon="5.95188">
        <ele>2390</ele>
        <time>2017-02-26T09:46:09.000Z</time>
      </trkpt>
      <trkpt lat="45.15666" lon="5.95191">
        <ele>2391</ele>
        <time>2017-02-26T09:46:18.000Z</time>
      </trkpt>
      <trkpt lat="45.15667" lon="5.95193">
        <ele>2390</ele>
        <time>2017-02-26T09:46:28.000Z</time>
      </trkpt>
      <trkpt lat="45.15669" lon="5.95196">
        <ele>2392</ele>
        <time>2017-02-26T09:46:38.000Z</time>
      </trkpt>
      <trkpt lat="45.1567" lon="5.95199">
        <ele>2393</ele>
        <time>2017-02-26T09:46:48.000Z</time>
      </trkpt>
      <trkpt lat="45.15671" lon="5.95201">
        <ele>2393</ele>
        <time>2017-02-26T09:46:49.000Z</time>
      </trkpt>
      <trkpt lat="45.15672" lon="5.95206">
        <ele>2394</ele>
        <time>2017-02-26T09:46:58.000Z</time>
      </trkpt>
      <trkpt lat="45.15672" lon="5.95212">
        <ele>2395</ele>
        <time>2017-02-26T09:47:08.000Z</time>
      </trkpt>
      <trkpt lat="45.15673" lon="5.95217">
        <ele>2395</ele>
        <time>2017-02-26T09:47:09.000Z</time>
      </trkpt>
      <trkpt lat="45.15673" lon="5.95217">
        <ele>2399</ele>
        <time>2017-02-26T09:47:18.000Z</time>
      </trkpt>
      <trkpt lat="45.15676" lon="5.95231">
        <ele>2399</ele>
        <time>2017-02-26T09:47:25.000Z</time>
      </trkpt>
      <trkpt lat="45.15676" lon="5.95231">
        <ele>2400</ele>
        <time>2017-02-26T09:47:28.000Z</time>
      </trkpt>
      <trkpt lat="45.15685" lon="5.95225">
        <ele>2400</ele>
        <time>2017-02-26T09:47:33.000Z</time>
      </trkpt>
      <trkpt lat="45.15687" lon="5.95225">
        <ele>2400</ele>
        <time>2017-02-26T09:47:38.000Z</time>
      </trkpt>
      <trkpt lat="45.15689" lon="5.95225">
        <ele>2401</ele>
        <time>2017-02-26T09:47:48.000Z</time>
      </trkpt>
      <trkpt lat="45.1569" lon="5.95225">
        <ele>2405</ele>
        <time>2017-02-26T09:47:58.000Z</time>
      </trkpt>
      <trkpt lat="45.15692" lon="5.95226">
        <ele>2405</ele>
        <time>2017-02-26T09:48:08.000Z</time>
      </trkpt>
      <trkpt lat="45.15693" lon="5.95226">
        <ele>2405</ele>
        <time>2017-02-26T09:48:18.000Z</time>
      </trkpt>
      <trkpt lat="45.15695" lon="5.95226">
        <ele>2407</ele>
        <time>2017-02-26T09:48:28.000Z</time>
      </trkpt>
      <trkpt lat="45.15697" lon="5.95226">
        <ele>2407</ele>
        <time>2017-02-26T09:48:29.000Z</time>
      </trkpt>
      <trkpt lat="45.15697" lon="5.95226">
        <ele>2408</ele>
        <time>2017-02-26T09:48:38.000Z</time>
      </trkpt>
      <trkpt lat="45.15694" lon="5.9524">
        <ele>2408</ele>
        <time>2017-02-26T09:48:45.000Z</time>
      </trkpt>
      <trkpt lat="45.15694" lon="5.9524">
        <ele>2411</ele>
        <time>2017-02-26T09:48:48.000Z</time>
      </trkpt>
      <trkpt lat="45.15694" lon="5.9524">
        <ele>2411</ele>
        <time>2017-02-26T09:48:58.000Z</time>
      </trkpt>
      <trkpt lat="45.15703" lon="5.95239">
        <ele>2411</ele>
        <time>2017-02-26T09:49:05.000Z</time>
      </trkpt>
      <trkpt lat="45.15703" lon="5.95239">
        <ele>2412</ele>
        <time>2017-02-26T09:49:08.000Z</time>
      </trkpt>
      <trkpt lat="45.15703" lon="5.95239">
        <ele>2415</ele>
        <time>2017-02-26T09:49:18.000Z</time>
      </trkpt>
      <trkpt lat="45.15703" lon="5.95239">
        <ele>2417</ele>
        <time>2017-02-26T09:49:28.000Z</time>
      </trkpt>
      <trkpt lat="45.15713" lon="5.95235">
        <ele>2417</ele>
        <time>2017-02-26T09:49:33.000Z</time>
      </trkpt>
      <trkpt lat="45.15713" lon="5.95235">
        <ele>2417</ele>
        <time>2017-02-26T09:49:38.000Z</time>
      </trkpt>
      <trkpt lat="45.15713" lon="5.95235">
        <ele>2420</ele>
        <time>2017-02-26T09:49:48.000Z</time>
      </trkpt>
      <trkpt lat="45.15713" lon="5.95235">
        <ele>2422</ele>
        <time>2017-02-26T09:49:58.000Z</time>
      </trkpt>
      <trkpt lat="45.15713" lon="5.95249">
        <ele>2422</ele>
        <time>2017-02-26T09:50:01.000Z</time>
      </trkpt>
      <trkpt lat="45.15713" lon="5.95249">
        <ele>2422</ele>
        <time>2017-02-26T09:50:08.000Z</time>
      </trkpt>
      <trkpt lat="45.15713" lon="5.95249">
        <ele>2425</ele>
        <time>2017-02-26T09:50:18.000Z</time>
      </trkpt>
      <trkpt lat="45.15723" lon="5.9524">
        <ele>2425</ele>
        <time>2017-02-26T09:50:24.000Z</time>
      </trkpt>
      <trkpt lat="45.15723" lon="5.9524">
        <ele>2425</ele>
        <time>2017-02-26T09:50:28.000Z</time>
      </trkpt>
      <trkpt lat="45.15723" lon="5.9524">
        <ele>2426</ele>
        <time>2017-02-26T09:50:38.000Z</time>
      </trkpt>
      <trkpt lat="45.15723" lon="5.9524">
        <ele>2430</ele>
        <time>2017-02-26T09:50:48.000Z</time>
      </trkpt>
      <trkpt lat="45.15723" lon="5.9524">
        <ele>2431</ele>
        <time>2017-02-26T09:50:58.000Z</time>
      </trkpt>
      <trkpt lat="45.15726" lon="5.95252">
        <ele>2431</ele>
        <time>2017-02-26T09:51:00.000Z</time>
      </trkpt>
      <trkpt lat="45.1573" lon="5.95252">
        <ele>2432</ele>
        <time>2017-02-26T09:51:08.000Z</time>
      </trkpt>
      <trkpt lat="45.15735" lon="5.95252">
        <ele>2432</ele>
        <time>2017-02-26T09:51:17.000Z</time>
      </trkpt>
      <trkpt lat="45.15739" lon="5.95252">
        <ele>2432</ele>
        <time>2017-02-26T09:51:18.000Z</time>
      </trkpt>
      <trkpt lat="45.15743" lon="5.95252">
        <ele>2436</ele>
        <time>2017-02-26T09:51:28.000Z</time>
      </trkpt>
      <trkpt lat="45.15747" lon="5.95252">
        <ele>2436</ele>
        <time>2017-02-26T09:51:29.000Z</time>
      </trkpt>
      <trkpt lat="45.15749" lon="5.95256">
        <ele>2437</ele>
        <time>2017-02-26T09:51:38.000Z</time>
      </trkpt>
      <trkpt lat="45.15751" lon="5.95259">
        <ele>2438</ele>
        <time>2017-02-26T09:51:48.000Z</time>
      </trkpt>
      <trkpt lat="45.15752" lon="5.95263">
        <ele>2438</ele>
        <time>2017-02-26T09:51:57.000Z</time>
      </trkpt>
      <trkpt lat="45.15754" lon="5.95267">
        <ele>2441</ele>
        <time>2017-02-26T09:51:58.000Z</time>
      </trkpt>
      <trkpt lat="45.15755" lon="5.9527">
        <ele>2442</ele>
        <time>2017-02-26T09:52:08.000Z</time>
      </trkpt>
      <trkpt lat="45.15757" lon="5.95274">
        <ele>2442</ele>
        <time>2017-02-26T09:52:09.000Z</time>
      </trkpt>
      <trkpt lat="45.15757" lon="5.95274">
        <ele>2445</ele>
        <time>2017-02-26T09:52:18.000Z</time>
      </trkpt>
      <trkpt lat="45.15766" lon="5.95281">
        <ele>2445</ele>
        <time>2017-02-26T09:52:25.000Z</time>
      </trkpt>
      <trkpt lat="45.15766" lon="5.95281">
        <ele>2446</ele>
        <time>2017-02-26T09:52:28.000Z</time>
      </trkpt>
      <trkpt lat="45.15766" lon="5.95281">
        <ele>2447</ele>
        <time>2017-02-26T09:52:38.000Z</time>
      </trkpt>
      <trkpt lat="45.15766" lon="5.95281">
        <ele>2447</ele>
        <time>2017-02-26T09:52:48.000Z</time>
      </trkpt>
      <trkpt lat="45.15766" lon="5.95281">
        <ele>2447</ele>
        <time>2017-02-26T09:52:58.000Z</time>
      </trkpt>
      <trkpt lat="45.15772" lon="5.95291">
        <ele>2447</ele>
        <time>2017-02-26T09:53:01.000Z</time>
      </trkpt>
      <trkpt lat="45.15772" lon="5.95291">
        <ele>2448</ele>
        <time>2017-02-26T09:53:08.000Z</time>
      </trkpt>
      <trkpt lat="45.15772" lon="5.95291">
        <ele>2451</ele>
        <time>2017-02-26T09:53:18.000Z</time>
      </trkpt>
      <trkpt lat="45.15765" lon="5.95304">
        <ele>2451</ele>
        <time>2017-02-26T09:53:21.000Z</time>
      </trkpt>
      <trkpt lat="45.15765" lon="5.95304">
        <ele>2452</ele>
        <time>2017-02-26T09:53:28.000Z</time>
      </trkpt>
      <trkpt lat="45.15759" lon="5.95322">
        <ele>2455</ele>
        <time>2017-02-26T09:53:38.000Z</time>
      </trkpt>
      <trkpt lat="45.15759" lon="5.95322">
        <ele>2457</ele>
        <time>2017-02-26T09:53:48.000Z</time>
      </trkpt>
      <trkpt lat="45.15751" lon="5.95331">
        <ele>2457</ele>
        <time>2017-02-26T09:53:50.000Z</time>
      </trkpt>
      <trkpt lat="45.15753" lon="5.95332">
        <ele>2458</ele>
        <time>2017-02-26T09:53:58.000Z</time>
      </trkpt>
      <trkpt lat="45.15754" lon="5.95332">
        <ele>2460</ele>
        <time>2017-02-26T09:54:08.000Z</time>
      </trkpt>
      <trkpt lat="45.15756" lon="5.95333">
        <ele>2460</ele>
        <time>2017-02-26T09:54:18.000Z</time>
      </trkpt>
      <trkpt lat="45.15757" lon="5.95334">
        <ele>2460</ele>
        <time>2017-02-26T09:54:28.000Z</time>
      </trkpt>
      <trkpt lat="45.15759" lon="5.95335">
        <ele>2461</ele>
        <time>2017-02-26T09:54:38.000Z</time>
      </trkpt>
      <trkpt lat="45.15761" lon="5.95336">
        <ele>2462</ele>
        <time>2017-02-26T09:54:48.000Z</time>
      </trkpt>
      <trkpt lat="45.15762" lon="5.95337">
        <ele>2463</ele>
        <time>2017-02-26T09:54:58.000Z</time>
      </trkpt>
      <trkpt lat="45.15764" lon="5.95338">
        <ele>2465</ele>
        <time>2017-02-26T09:55:08.000Z</time>
      </trkpt>
      <trkpt lat="45.15765" lon="5.95338">
        <ele>2465</ele>
        <time>2017-02-26T09:55:09.000Z</time>
      </trkpt>
      <trkpt lat="45.15765" lon="5.95338">
        <ele>2467</ele>
        <time>2017-02-26T09:55:18.000Z</time>
      </trkpt>
      <trkpt lat="45.15775" lon="5.95343">
        <ele>2467</ele>
        <time>2017-02-26T09:55:25.000Z</time>
      </trkpt>
      <trkpt lat="45.15775" lon="5.95343">
        <ele>2468</ele>
        <time>2017-02-26T09:55:28.000Z</time>
      </trkpt>
      <trkpt lat="45.15775" lon="5.95343">
        <ele>2470</ele>
        <time>2017-02-26T09:55:38.000Z</time>
      </trkpt>
      <trkpt lat="45.15775" lon="5.95343">
        <ele>2470</ele>
        <time>2017-02-26T09:55:48.000Z</time>
      </trkpt>
      <trkpt lat="45.15775" lon="5.95343">
        <ele>2471</ele>
        <time>2017-02-26T09:55:58.000Z</time>
      </trkpt>
      <trkpt lat="45.15763" lon="5.95352">
        <ele>2471</ele>
        <time>2017-02-26T09:56:02.000Z</time>
      </trkpt>
      <trkpt lat="45.15763" lon="5.95352">
        <ele>2474</ele>
        <time>2017-02-26T09:56:08.000Z</time>
      </trkpt>
      <trkpt lat="45.15754" lon="5.95363">
        <ele>2476</ele>
        <time>2017-02-26T09:56:18.000Z</time>
      </trkpt>
      <trkpt lat="45.15745" lon="5.95375">
        <ele>2476</ele>
        <time>2017-02-26T09:56:26.000Z</time>
      </trkpt>
      <trkpt lat="45.15745" lon="5.95375">
        <ele>2478</ele>
        <time>2017-02-26T09:56:28.000Z</time>
      </trkpt>
      <trkpt lat="45.15745" lon="5.95375">
        <ele>2479</ele>
        <time>2017-02-26T09:56:38.000Z</time>
      </trkpt>
      <trkpt lat="45.15745" lon="5.95375">
        <ele>2484</ele>
        <time>2017-02-26T09:56:48.000Z</time>
      </trkpt>
      <trkpt lat="45.15745" lon="5.95375">
        <ele>2484</ele>
        <time>2017-02-26T09:56:58.000Z</time>
      </trkpt>
      <trkpt lat="45.15752" lon="5.95387">
        <ele>2484</ele>
        <time>2017-02-26T09:57:00.000Z</time>
      </trkpt>
      <trkpt lat="45.15752" lon="5.95387">
        <ele>2487</ele>
        <time>2017-02-26T09:57:08.000Z</time>
      </trkpt>
      <trkpt lat="45.15752" lon="5.95387">
        <ele>2487</ele>
        <time>2017-02-26T09:57:18.000Z</time>
      </trkpt>
      <trkpt lat="45.15752" lon="5.95387">
        <ele>2490</ele>
        <time>2017-02-26T09:57:28.000Z</time>
      </trkpt>
      <trkpt lat="45.15749" lon="5.954">
        <ele>2490</ele>
        <time>2017-02-26T09:57:34.000Z</time>
      </trkpt>
      <trkpt lat="45.15749" lon="5.954">
        <ele>2490</ele>
        <time>2017-02-26T09:57:38.000Z</time>
      </trkpt>
      <trkpt lat="45.15749" lon="5.954">
        <ele>2491</ele>
        <time>2017-02-26T09:57:48.000Z</time>
      </trkpt>
      <trkpt lat="45.15735" lon="5.95406">
        <ele>2492</ele>
        <time>2017-02-26T09:57:58.000Z</time>
      </trkpt>
      <trkpt lat="45.15735" lon="5.95406">
        <ele>2495</ele>
        <time>2017-02-26T09:58:08.000Z</time>
      </trkpt>
      <trkpt lat="45.15735" lon="5.95406">
        <ele>2495</ele>
        <time>2017-02-26T09:58:18.000Z</time>
      </trkpt>
      <trkpt lat="45.15741" lon="5.95418">
        <ele>2495</ele>
        <time>2017-02-26T09:58:21.000Z</time>
      </trkpt>
      <trkpt lat="45.15741" lon="5.95418">
        <ele>2498</ele>
        <time>2017-02-26T09:58:28.000Z</time>
      </trkpt>
      <trkpt lat="45.15741" lon="5.95418">
        <ele>2498</ele>
        <time>2017-02-26T09:58:38.000Z</time>
      </trkpt>
      <trkpt lat="45.15741" lon="5.95418">
        <ele>2499</ele>
        <time>2017-02-26T09:58:48.000Z</time>
      </trkpt>
      <trkpt lat="45.15748" lon="5.95432">
        <ele>2499</ele>
        <time>2017-02-26T09:58:53.000Z</time>
      </trkpt>
      <trkpt lat="45.15748" lon="5.95432">
        <ele>2500</ele>
        <time>2017-02-26T09:58:58.000Z</time>
      </trkpt>
      <trkpt lat="45.15737" lon="5.95435">
        <ele>2500</ele>
        <time>2017-02-26T09:59:05.000Z</time>
      </trkpt>
      <trkpt lat="45.15737" lon="5.95435">
        <ele>2503</ele>
        <time>2017-02-26T09:59:08.000Z</time>
      </trkpt>
      <trkpt lat="45.15737" lon="5.95435">
        <ele>2503</ele>
        <time>2017-02-26T09:59:18.000Z</time>
      </trkpt>
      <trkpt lat="45.15724" lon="5.95432">
        <ele>2503</ele>
        <time>2017-02-26T09:59:25.000Z</time>
      </trkpt>
      <trkpt lat="45.15724" lon="5.95432">
        <ele>2506</ele>
        <time>2017-02-26T09:59:28.000Z</time>
      </trkpt>
      <trkpt lat="45.15724" lon="5.95432">
        <ele>2508</ele>
        <time>2017-02-26T09:59:38.000Z</time>
      </trkpt>
      <trkpt lat="45.15717" lon="5.95444">
        <ele>2508</ele>
        <time>2017-02-26T09:59:45.000Z</time>
      </trkpt>
      <trkpt lat="45.15717" lon="5.95444">
        <ele>2509</ele>
        <time>2017-02-26T09:59:48.000Z</time>
      </trkpt>
      <trkpt lat="45.15717" lon="5.95444">
        <ele>2510</ele>
        <time>2017-02-26T09:59:58.000Z</time>
      </trkpt>
      <trkpt lat="45.15722" lon="5.95456">
        <ele>2510</ele>
        <time>2017-02-26T10:00:01.000Z</time>
      </trkpt>
      <trkpt lat="45.15722" lon="5.95456">
        <ele>2513</ele>
        <time>2017-02-26T10:00:08.000Z</time>
      </trkpt>
      <trkpt lat="45.15722" lon="5.95456">
        <ele>2516</ele>
        <time>2017-02-26T10:00:18.000Z</time>
      </trkpt>
      <trkpt lat="45.15712" lon="5.95468">
        <ele>2516</ele>
        <time>2017-02-26T10:00:21.000Z</time>
      </trkpt>
      <trkpt lat="45.15711" lon="5.95471">
        <ele>2517</ele>
        <time>2017-02-26T10:00:28.000Z</time>
      </trkpt>
      <trkpt lat="45.15711" lon="5.95473">
        <ele>2517</ele>
        <time>2017-02-26T10:00:38.000Z</time>
      </trkpt>
      <trkpt lat="45.1571" lon="5.95476">
        <ele>2519</ele>
        <time>2017-02-26T10:00:48.000Z</time>
      </trkpt>
      <trkpt lat="45.1571" lon="5.95479">
        <ele>2520</ele>
        <time>2017-02-26T10:00:58.000Z</time>
      </trkpt>
      <trkpt lat="45.15709" lon="5.95482">
        <ele>2524</ele>
        <time>2017-02-26T10:01:08.000Z</time>
      </trkpt>
      <trkpt lat="45.15709" lon="5.95485">
        <ele>2524</ele>
        <time>2017-02-26T10:01:09.000Z</time>
      </trkpt>
      <trkpt lat="45.1572" lon="5.95481">
        <ele>2524</ele>
        <time>2017-02-26T10:01:17.000Z</time>
      </trkpt>
      <trkpt lat="45.15722" lon="5.95481">
        <ele>2524</ele>
        <time>2017-02-26T10:01:18.000Z</time>
      </trkpt>
      <trkpt lat="45.15736" lon="5.95482">
        <ele>2524</ele>
        <time>2017-02-26T10:01:25.000Z</time>
      </trkpt>
      <trkpt lat="45.15736" lon="5.95482">
        <ele>2527</ele>
        <time>2017-02-26T10:01:28.000Z</time>
      </trkpt>
      <trkpt lat="45.15736" lon="5.95482">
        <ele>2529</ele>
        <time>2017-02-26T10:01:38.000Z</time>
      </trkpt>
      <trkpt lat="45.15736" lon="5.95482">
        <ele>2531</ele>
        <time>2017-02-26T10:01:48.000Z</time>
      </trkpt>
      <trkpt lat="45.15732" lon="5.95497">
        <ele>2531</ele>
        <time>2017-02-26T10:01:57.000Z</time>
      </trkpt>
      <trkpt lat="45.15732" lon="5.95497">
        <ele>2531</ele>
        <time>2017-02-26T10:01:58.000Z</time>
      </trkpt>
      <trkpt lat="45.15732" lon="5.95497">
        <ele>2530</ele>
        <time>2017-02-26T10:02:08.000Z</time>
      </trkpt>
      <trkpt lat="45.15725" lon="5.95507">
        <ele>2530</ele>
        <time>2017-02-26T10:02:13.000Z</time>
      </trkpt>
      <trkpt lat="45.15722" lon="5.95508">
        <ele>2532</ele>
        <time>2017-02-26T10:02:18.000Z</time>
      </trkpt>
      <trkpt lat="45.15719" lon="5.95508">
        <ele>2535</ele>
        <time>2017-02-26T10:02:28.000Z</time>
      </trkpt>
      <trkpt lat="45.15715" lon="5.95508">
        <ele>2535</ele>
        <time>2017-02-26T10:02:29.000Z</time>
      </trkpt>
      <trkpt lat="45.15704" lon="5.95511">
        <ele>2535</ele>
        <time>2017-02-26T10:02:37.000Z</time>
      </trkpt>
      <trkpt lat="45.15705" lon="5.95513">
        <ele>2537</ele>
        <time>2017-02-26T10:02:38.000Z</time>
      </trkpt>
      <trkpt lat="45.15706" lon="5.95514">
        <ele>2540</ele>
        <time>2017-02-26T10:02:48.000Z</time>
      </trkpt>
      <trkpt lat="45.15708" lon="5.95516">
        <ele>2540</ele>
        <time>2017-02-26T10:02:58.000Z</time>
      </trkpt>
      <trkpt lat="45.15709" lon="5.95518">
        <ele>2543</ele>
        <time>2017-02-26T10:03:08.000Z</time>
      </trkpt>
      <trkpt lat="45.1571" lon="5.9552">
        <ele>2543</ele>
        <time>2017-02-26T10:03:09.000Z</time>
      </trkpt>
      <trkpt lat="45.15721" lon="5.95529">
        <ele>2543</ele>
        <time>2017-02-26T10:03:17.000Z</time>
      </trkpt>
      <trkpt lat="45.15721" lon="5.95529">
        <ele>2544</ele>
        <time>2017-02-26T10:03:18.000Z</time>
      </trkpt>
      <trkpt lat="45.15721" lon="5.95529">
        <ele>2548</ele>
        <time>2017-02-26T10:03:28.000Z</time>
      </trkpt>
      <trkpt lat="45.15721" lon="5.95529">
        <ele>2548</ele>
        <time>2017-02-26T10:03:38.000Z</time>
      </trkpt>
      <trkpt lat="45.15725" lon="5.95542">
        <ele>2548</ele>
        <time>2017-02-26T10:03:45.000Z</time>
      </trkpt>
      <trkpt lat="45.15725" lon="5.95542">
        <ele>2549</ele>
        <time>2017-02-26T10:03:48.000Z</time>
      </trkpt>
      <trkpt lat="45.15725" lon="5.95542">
        <ele>2551</ele>
        <time>2017-02-26T10:03:58.000Z</time>
      </trkpt>
      <trkpt lat="45.15714" lon="5.95539">
        <ele>2551</ele>
        <time>2017-02-26T10:04:01.000Z</time>
      </trkpt>
      <trkpt lat="45.15714" lon="5.95539">
        <ele>2552</ele>
        <time>2017-02-26T10:04:08.000Z</time>
      </trkpt>
      <trkpt lat="45.15714" lon="5.95539">
        <ele>2555</ele>
        <time>2017-02-26T10:04:18.000Z</time>
      </trkpt>
      <trkpt lat="45.15704" lon="5.95544">
        <ele>2555</ele>
        <time>2017-02-26T10:04:21.000Z</time>
      </trkpt>
      <trkpt lat="45.15704" lon="5.95544">
        <ele>2557</ele>
        <time>2017-02-26T10:04:28.000Z</time>
      </trkpt>
      <trkpt lat="45.15696" lon="5.95555">
        <ele>2557</ele>
        <time>2017-02-26T10:04:37.000Z</time>
      </trkpt>
      <trkpt lat="45.15698" lon="5.95556">
        <ele>2557</ele>
        <time>2017-02-26T10:04:38.000Z</time>
      </trkpt>
      <trkpt lat="45.15708" lon="5.95562">
        <ele>2557</ele>
        <time>2017-02-26T10:04:45.000Z</time>
      </trkpt>
      <trkpt lat="45.15708" lon="5.95562">
        <ele>2558</ele>
        <time>2017-02-26T10:04:48.000Z</time>
      </trkpt>
      <trkpt lat="45.15708" lon="5.95562">
        <ele>2559</ele>
        <time>2017-02-26T10:04:58.000Z</time>
      </trkpt>
      <trkpt lat="45.15717" lon="5.95572">
        <ele>2559</ele>
        <time>2017-02-26T10:05:01.000Z</time>
      </trkpt>
      <trkpt lat="45.15717" lon="5.95572">
        <ele>2560</ele>
        <time>2017-02-26T10:05:08.000Z</time>
      </trkpt>
      <trkpt lat="45.15717" lon="5.95572">
        <ele>2561</ele>
        <time>2017-02-26T10:05:18.000Z</time>
      </trkpt>
      <trkpt lat="45.15705" lon="5.9557">
        <ele>2561</ele>
        <time>2017-02-26T10:05:25.000Z</time>
      </trkpt>
      <trkpt lat="45.15705" lon="5.9557">
        <ele>2564</ele>
        <time>2017-02-26T10:05:28.000Z</time>
      </trkpt>
      <trkpt lat="45.15705" lon="5.9557">
        <ele>2565</ele>
        <time>2017-02-26T10:05:38.000Z</time>
      </trkpt>
      <trkpt lat="45.15694" lon="5.95569">
        <ele>2565</ele>
        <time>2017-02-26T10:05:41.000Z</time>
      </trkpt>
      <trkpt lat="45.15694" lon="5.95569">
        <ele>2567</ele>
        <time>2017-02-26T10:05:48.000Z</time>
      </trkpt>
      <trkpt lat="45.15694" lon="5.95569">
        <ele>2568</ele>
        <time>2017-02-26T10:05:58.000Z</time>
      </trkpt>
      <trkpt lat="45.15694" lon="5.95569">
        <ele>2569</ele>
        <time>2017-02-26T10:06:08.000Z</time>
      </trkpt>
      <trkpt lat="45.15701" lon="5.95583">
        <ele>2569</ele>
        <time>2017-02-26T10:06:13.000Z</time>
      </trkpt>
      <trkpt lat="45.15701" lon="5.95583">
        <ele>2570</ele>
        <time>2017-02-26T10:06:18.000Z</time>
      </trkpt>
      <trkpt lat="45.15701" lon="5.95583">
        <ele>2573</ele>
        <time>2017-02-26T10:06:28.000Z</time>
      </trkpt>
      <trkpt lat="45.15701" lon="5.95583">
        <ele>2573</ele>
        <time>2017-02-26T10:06:38.000Z</time>
      </trkpt>
      <trkpt lat="45.15701" lon="5.95583">
        <ele>2573</ele>
        <time>2017-02-26T10:06:48.000Z</time>
      </trkpt>
      <trkpt lat="45.15712" lon="5.95595">
        <ele>2573</ele>
        <time>2017-02-26T10:06:52.000Z</time>
      </trkpt>
      <trkpt lat="45.15712" lon="5.95595">
        <ele>2574</ele>
        <time>2017-02-26T10:06:58.000Z</time>
      </trkpt>
      <trkpt lat="45.15716" lon="5.95611">
        <ele>2574</ele>
        <time>2017-02-26T10:07:04.000Z</time>
      </trkpt>
      <trkpt lat="45.15716" lon="5.95611">
        <ele>2574</ele>
        <time>2017-02-26T10:07:08.000Z</time>
      </trkpt>
      <trkpt lat="45.15716" lon="5.95611">
        <ele>2577</ele>
        <time>2017-02-26T10:07:18.000Z</time>
      </trkpt>
      <trkpt lat="45.15702" lon="5.95612">
        <ele>2577</ele>
        <time>2017-02-26T10:07:24.000Z</time>
      </trkpt>
      <trkpt lat="45.15703" lon="5.95615">
        <ele>2577</ele>
        <time>2017-02-26T10:07:28.000Z</time>
      </trkpt>
      <trkpt lat="45.15705" lon="5.95619">
        <ele>2579</ele>
        <time>2017-02-26T10:07:38.000Z</time>
      </trkpt>
      <trkpt lat="45.15706" lon="5.95622">
        <ele>2579</ele>
        <time>2017-02-26T10:07:44.000Z</time>
      </trkpt>
      <trkpt lat="45.15707" lon="5.95626">
        <ele>2580</ele>
        <time>2017-02-26T10:07:48.000Z</time>
      </trkpt>
      <trkpt lat="45.15708" lon="5.9563">
        <ele>2581</ele>
        <time>2017-02-26T10:07:58.000Z</time>
      </trkpt>
      <trkpt lat="45.15709" lon="5.95633">
        <ele>2581</ele>
        <time>2017-02-26T10:08:00.000Z</time>
      </trkpt>
      <trkpt lat="45.15709" lon="5.95633">
        <ele>2582</ele>
        <time>2017-02-26T10:08:08.000Z</time>
      </trkpt>
      <trkpt lat="45.15709" lon="5.95633">
        <ele>2585</ele>
        <time>2017-02-26T10:08:18.000Z</time>
      </trkpt>
      <trkpt lat="45.15702" lon="5.95648">
        <ele>2585</ele>
        <time>2017-02-26T10:08:26.000Z</time>
      </trkpt>
      <trkpt lat="45.15702" lon="5.95648">
        <ele>2587</ele>
        <time>2017-02-26T10:08:28.000Z</time>
      </trkpt>
      <trkpt lat="45.15702" lon="5.95648">
        <ele>2588</ele>
        <time>2017-02-26T10:08:38.000Z</time>
      </trkpt>
      <trkpt lat="45.15689" lon="5.95654">
        <ele>2588</ele>
        <time>2017-02-26T10:08:40.000Z</time>
      </trkpt>
      <trkpt lat="45.15689" lon="5.95654">
        <ele>2589</ele>
        <time>2017-02-26T10:08:48.000Z</time>
      </trkpt>
      <trkpt lat="45.15689" lon="5.95654">
        <ele>2592</ele>
        <time>2017-02-26T10:08:58.000Z</time>
      </trkpt>
      <trkpt lat="45.15689" lon="5.95654">
        <ele>2592</ele>
        <time>2017-02-26T10:09:08.000Z</time>
      </trkpt>
      <trkpt lat="45.15695" lon="5.95668">
        <ele>2592</ele>
        <time>2017-02-26T10:09:13.000Z</time>
      </trkpt>
      <trkpt lat="45.15697" lon="5.9567">
        <ele>2592</ele>
        <time>2017-02-26T10:09:18.000Z</time>
      </trkpt>
      <trkpt lat="45.157" lon="5.95673">
        <ele>2592</ele>
        <time>2017-02-26T10:09:28.000Z</time>
      </trkpt>
      <trkpt lat="45.15702" lon="5.95675">
        <ele>2592</ele>
        <time>2017-02-26T10:09:38.000Z</time>
      </trkpt>
      <trkpt lat="45.15704" lon="5.95678">
        <ele>2592</ele>
        <time>2017-02-26T10:09:48.000Z</time>
      </trkpt>
      <trkpt lat="45.15707" lon="5.9568">
        <ele>2593</ele>
        <time>2017-02-26T10:09:58.000Z</time>
      </trkpt>
      <trkpt lat="45.15709" lon="5.95682">
        <ele>2596</ele>
        <time>2017-02-26T10:10:08.000Z</time>
      </trkpt>
      <trkpt lat="45.15711" lon="5.95685">
        <ele>2596</ele>
        <time>2017-02-26T10:10:16.000Z</time>
      </trkpt>
      <trkpt lat="45.15714" lon="5.95687">
        <ele>2596</ele>
        <time>2017-02-26T10:10:18.000Z</time>
      </trkpt>
      <trkpt lat="45.15716" lon="5.9569">
        <ele>2598</ele>
        <time>2017-02-26T10:10:28.000Z</time>
      </trkpt>
      <trkpt lat="45.15718" lon="5.95692">
        <ele>2599</ele>
        <time>2017-02-26T10:10:38.000Z</time>
      </trkpt>
      <trkpt lat="45.1572" lon="5.95695">
        <ele>2600</ele>
        <time>2017-02-26T10:10:48.000Z</time>
      </trkpt>
      <trkpt lat="45.15723" lon="5.95697">
        <ele>2600</ele>
        <time>2017-02-26T10:10:49.000Z</time>
      </trkpt>
      <trkpt lat="45.15727" lon="5.95698">
        <ele>2600</ele>
        <time>2017-02-26T10:10:58.000Z</time>
      </trkpt>
      <trkpt lat="45.15732" lon="5.957">
        <ele>2601</ele>
        <time>2017-02-26T10:11:08.000Z</time>
      </trkpt>
      <trkpt lat="45.15737" lon="5.95701">
        <ele>2601</ele>
        <time>2017-02-26T10:11:09.000Z</time>
      </trkpt>
      <trkpt lat="45.15737" lon="5.95701">
        <ele>2605</ele>
        <time>2017-02-26T10:11:18.000Z</time>
      </trkpt>
      <trkpt lat="45.15737" lon="5.95701">
        <ele>2608</ele>
        <time>2017-02-26T10:11:28.000Z</time>
      </trkpt>
      <trkpt lat="45.15737" lon="5.95701">
        <ele>2609</ele>
        <time>2017-02-26T10:11:38.000Z</time>
      </trkpt>
      <trkpt lat="45.15747" lon="5.95699">
        <ele>2609</ele>
        <time>2017-02-26T10:11:41.000Z</time>
      </trkpt>
      <trkpt lat="45.15747" lon="5.95699">
        <ele>2609</ele>
        <time>2017-02-26T10:11:48.000Z</time>
      </trkpt>
      <trkpt lat="45.15748" lon="5.95716">
        <ele>2609</ele>
        <time>2017-02-26T10:11:57.000Z</time>
      </trkpt>
      <trkpt lat="45.15748" lon="5.95716">
        <ele>2610</ele>
        <time>2017-02-26T10:11:58.000Z</time>
      </trkpt>
      <trkpt lat="45.15748" lon="5.95716">
        <ele>2612</ele>
        <time>2017-02-26T10:12:08.000Z</time>
      </trkpt>
      <trkpt lat="45.15741" lon="5.95731">
        <ele>2612</ele>
        <time>2017-02-26T10:12:10.000Z</time>
      </trkpt>
      <trkpt lat="45.15741" lon="5.95731">
        <ele>2613</ele>
        <time>2017-02-26T10:12:18.000Z</time>
      </trkpt>
      <trkpt lat="45.15741" lon="5.95731">
        <ele>2615</ele>
        <time>2017-02-26T10:12:28.000Z</time>
      </trkpt>
      <trkpt lat="45.15741" lon="5.95731">
        <ele>2616</ele>
        <time>2017-02-26T10:12:38.000Z</time>
      </trkpt>
      <trkpt lat="45.15741" lon="5.95731">
        <ele>2617</ele>
        <time>2017-02-26T10:12:48.000Z</time>
      </trkpt>
      <trkpt lat="45.15749" lon="5.95722">
        <ele>2620</ele>
        <time>2017-02-26T10:12:58.000Z</time>
      </trkpt>
      <trkpt lat="45.15749" lon="5.95722">
        <ele>2620</ele>
        <time>2017-02-26T10:13:08.000Z</time>
      </trkpt>
      <trkpt lat="45.15749" lon="5.95722">
        <ele>2623</ele>
        <time>2017-02-26T10:13:18.000Z</time>
      </trkpt>
      <trkpt lat="45.15761" lon="5.95716">
        <ele>2625</ele>
        <time>2017-02-26T10:13:28.000Z</time>
      </trkpt>
      <trkpt lat="45.15761" lon="5.95716">
        <ele>2628</ele>
        <time>2017-02-26T10:13:38.000Z</time>
      </trkpt>
      <trkpt lat="45.15761" lon="5.95716">
        <ele>2629</ele>
        <time>2017-02-26T10:13:48.000Z</time>
      </trkpt>
      <trkpt lat="45.15761" lon="5.95716">
        <ele>2631</ele>
        <time>2017-02-26T10:13:58.000Z</time>
      </trkpt>
      <trkpt lat="45.15766" lon="5.95725">
        <ele>2631</ele>
        <time>2017-02-26T10:14:00.000Z</time>
      </trkpt>
      <trkpt lat="45.15766" lon="5.95725">
        <ele>2632</ele>
        <time>2017-02-26T10:14:08.000Z</time>
      </trkpt>
      <trkpt lat="45.15765" lon="5.95738">
        <ele>2632</ele>
        <time>2017-02-26T10:14:12.000Z</time>
      </trkpt>
      <trkpt lat="45.15765" lon="5.95738">
        <ele>2633</ele>
        <time>2017-02-26T10:14:18.000Z</time>
      </trkpt>
      <trkpt lat="45.15761" lon="5.95749">
        <ele>2633</ele>
        <time>2017-02-26T10:14:24.000Z</time>
      </trkpt>
      <trkpt lat="45.15761" lon="5.95749">
        <ele>2636</ele>
        <time>2017-02-26T10:14:28.000Z</time>
      </trkpt>
      <trkpt lat="45.15769" lon="5.95738">
        <ele>2636</ele>
        <time>2017-02-26T10:14:38.000Z</time>
      </trkpt>
      <trkpt lat="45.15769" lon="5.95738">
        <ele>2640</ele>
        <time>2017-02-26T10:14:48.000Z</time>
      </trkpt>
      <trkpt lat="45.15777" lon="5.9573">
        <ele>2640</ele>
        <time>2017-02-26T10:14:50.000Z</time>
      </trkpt>
      <trkpt lat="45.15777" lon="5.9573">
        <ele>2641</ele>
        <time>2017-02-26T10:14:58.000Z</time>
      </trkpt>
      <trkpt lat="45.15789" lon="5.95724">
        <ele>2641</ele>
        <time>2017-02-26T10:15:06.000Z</time>
      </trkpt>
      <trkpt lat="45.15789" lon="5.95724">
        <ele>2643</ele>
        <time>2017-02-26T10:15:08.000Z</time>
      </trkpt>
      <trkpt lat="45.15791" lon="5.95704">
        <ele>2647</ele>
        <time>2017-02-26T10:15:18.000Z</time>
      </trkpt>
      <trkpt lat="45.15791" lon="5.95704">
        <ele>2649</ele>
        <time>2017-02-26T10:15:28.000Z</time>
      </trkpt>
      <trkpt lat="45.15791" lon="5.95704">
        <ele>2649</ele>
        <time>2017-02-26T10:15:38.000Z</time>
      </trkpt>
      <trkpt lat="45.15791" lon="5.95704">
        <ele>2650</ele>
        <time>2017-02-26T10:15:48.000Z</time>
      </trkpt>
      <trkpt lat="45.15795" lon="5.95718">
        <ele>2650</ele>
        <time>2017-02-26T10:15:50.000Z</time>
      </trkpt>
      <trkpt lat="45.15795" lon="5.95718">
        <ele>2650</ele>
        <time>2017-02-26T10:15:58.000Z</time>
      </trkpt>
      <trkpt lat="45.15794" lon="5.95735">
        <ele>2650</ele>
        <time>2017-02-26T10:16:06.000Z</time>
      </trkpt>
      <trkpt lat="45.15794" lon="5.95735">
        <ele>2651</ele>
        <time>2017-02-26T10:16:08.000Z</time>
      </trkpt>
      <trkpt lat="45.15794" lon="5.95735">
        <ele>2652</ele>
        <time>2017-02-26T10:16:18.000Z</time>
      </trkpt>
      <trkpt lat="45.15794" lon="5.95735">
        <ele>2653</ele>
        <time>2017-02-26T10:16:28.000Z</time>
      </trkpt>
      <trkpt lat="45.15802" lon="5.95748">
        <ele>2653</ele>
        <time>2017-02-26T10:16:34.000Z</time>
      </trkpt>
      <trkpt lat="45.15802" lon="5.95748">
        <ele>2653</ele>
        <time>2017-02-26T10:16:38.000Z</time>
      </trkpt>
      <trkpt lat="45.15802" lon="5.95748">
        <ele>2657</ele>
        <time>2017-02-26T10:16:48.000Z</time>
      </trkpt>
      <trkpt lat="45.15797" lon="5.95763">
        <ele>2657</ele>
        <time>2017-02-26T10:16:52.000Z</time>
      </trkpt>
      <trkpt lat="45.15797" lon="5.95763">
        <ele>2675</ele>
        <time>2017-02-26T10:16:58.000Z</time>
      </trkpt>
      <trkpt lat="45.15797" lon="5.95763">
        <ele>2676</ele>
        <time>2017-02-26T10:17:08.000Z</time>
      </trkpt>
      <trkpt lat="45.15796" lon="5.95778">
        <ele>2676</ele>
        <time>2017-02-26T10:17:12.000Z</time>
      </trkpt>
      <trkpt lat="45.15796" lon="5.95778">
        <ele>2676</ele>
        <time>2017-02-26T10:17:18.000Z</time>
      </trkpt>
      <trkpt lat="45.15809" lon="5.95772">
        <ele>2676</ele>
        <time>2017-02-26T10:17:24.000Z</time>
      </trkpt>
      <trkpt lat="45.15809" lon="5.95772">
        <ele>2680</ele>
        <time>2017-02-26T10:17:28.000Z</time>
      </trkpt>
      <trkpt lat="45.15809" lon="5.95772">
        <ele>2681</ele>
        <time>2017-02-26T10:17:38.000Z</time>
      </trkpt>
      <trkpt lat="45.15809" lon="5.95772">
        <ele>2681</ele>
        <time>2017-02-26T10:17:48.000Z</time>
      </trkpt>
      <trkpt lat="45.15809" lon="5.95772">
        <ele>2681</ele>
        <time>2017-02-26T10:17:58.000Z</time>
      </trkpt>
      <trkpt lat="45.15809" lon="5.95772">
        <ele>2682</ele>
        <time>2017-02-26T10:18:08.000Z</time>
      </trkpt>
      <trkpt lat="45.15809" lon="5.95772">
        <ele>2685</ele>
        <time>2017-02-26T10:18:18.000Z</time>
      </trkpt>
      <trkpt lat="45.15803" lon="5.95787">
        <ele>2685</ele>
        <time>2017-02-26T10:18:20.000Z</time>
      </trkpt>
      <trkpt lat="45.15803" lon="5.95787">
        <ele>2686</ele>
        <time>2017-02-26T10:18:28.000Z</time>
      </trkpt>
      <trkpt lat="45.15803" lon="5.95787">
        <ele>2687</ele>
        <time>2017-02-26T10:18:38.000Z</time>
      </trkpt>
      <trkpt lat="45.15815" lon="5.95791">
        <ele>2687</ele>
        <time>2017-02-26T10:18:44.000Z</time>
      </trkpt>
      <trkpt lat="45.15815" lon="5.95791">
        <ele>2689</ele>
        <time>2017-02-26T10:18:48.000Z</time>
      </trkpt>
      <trkpt lat="45.15815" lon="5.95791">
        <ele>2692</ele>
        <time>2017-02-26T10:18:58.000Z</time>
      </trkpt>
      <trkpt lat="45.15824" lon="5.95784">
        <ele>2693</ele>
        <time>2017-02-26T10:19:08.000Z</time>
      </trkpt>
      <trkpt lat="45.15824" lon="5.95784">
        <ele>2694</ele>
        <time>2017-02-26T10:19:18.000Z</time>
      </trkpt>
      <trkpt lat="45.15824" lon="5.95784">
        <ele>2696</ele>
        <time>2017-02-26T10:19:28.000Z</time>
      </trkpt>
      <trkpt lat="45.15824" lon="5.95784">
        <ele>2697</ele>
        <time>2017-02-26T10:19:38.000Z</time>
      </trkpt>
      <trkpt lat="45.15824" lon="5.95784">
        <ele>2697</ele>
        <time>2017-02-26T10:19:48.000Z</time>
      </trkpt>
      <trkpt lat="45.15823" lon="5.95799">
        <ele>2697</ele>
        <time>2017-02-26T10:19:52.000Z</time>
      </trkpt>
      <trkpt lat="45.15823" lon="5.95799">
        <ele>2702</ele>
        <time>2017-02-26T10:19:58.000Z</time>
      </trkpt>
      <trkpt lat="45.15814" lon="5.95804">
        <ele>2702</ele>
        <time>2017-02-26T10:20:04.000Z</time>
      </trkpt>
      <trkpt lat="45.15814" lon="5.95804">
        <ele>2703</ele>
        <time>2017-02-26T10:20:08.000Z</time>
      </trkpt>
      <trkpt lat="45.15811" lon="5.95818">
        <ele>2703</ele>
        <time>2017-02-26T10:20:16.000Z</time>
      </trkpt>
      <trkpt lat="45.15811" lon="5.95818">
        <ele>2704</ele>
        <time>2017-02-26T10:20:18.000Z</time>
      </trkpt>
      <trkpt lat="45.15811" lon="5.95818">
        <ele>2705</ele>
        <time>2017-02-26T10:20:28.000Z</time>
      </trkpt>
      <trkpt lat="45.15804" lon="5.95817">
        <ele>2705</ele>
        <time>2017-02-26T10:20:35.000Z</time>
      </trkpt>
      <trkpt lat="45.15804" lon="5.95817">
        <ele>2707</ele>
        <time>2017-02-26T10:20:38.000Z</time>
      </trkpt>
      <trkpt lat="45.15804" lon="5.95817">
        <ele>2708</ele>
        <time>2017-02-26T10:20:48.000Z</time>
      </trkpt>
      <trkpt lat="45.15809" lon="5.9582">
        <ele>2708</ele>
        <time>2017-02-26T10:20:55.000Z</time>
      </trkpt>
      <trkpt lat="45.15809" lon="5.9582">
        <ele>2708</ele>
        <time>2017-02-26T10:20:58.000Z</time>
      </trkpt>
      <trkpt lat="45.15809" lon="5.9582">
        <ele>2712</ele>
        <time>2017-02-26T10:21:08.000Z</time>
      </trkpt>
      <trkpt lat="45.15815" lon="5.9582">
        <ele>2712</ele>
        <time>2017-02-26T10:21:11.000Z</time>
      </trkpt>
      <trkpt lat="45.15815" lon="5.9582">
        <ele>2714</ele>
        <time>2017-02-26T10:21:18.000Z</time>
      </trkpt>
      <trkpt lat="45.15813" lon="5.95827">
        <ele>2714</ele>
        <time>2017-02-26T10:21:27.000Z</time>
      </trkpt>
      <trkpt lat="45.15813" lon="5.95827">
        <ele>2714</ele>
        <time>2017-02-26T10:21:28.000Z</time>
      </trkpt>
      <trkpt lat="45.15813" lon="5.95827">
        <ele>2716</ele>
        <time>2017-02-26T10:21:38.000Z</time>
      </trkpt>
      <trkpt lat="45.15813" lon="5.95827">
        <ele>2716</ele>
        <time>2017-02-26T10:21:48.000Z</time>
      </trkpt>
      <trkpt lat="45.15813" lon="5.95827">
        <ele>2716</ele>
        <time>2017-02-26T10:21:58.000Z</time>
      </trkpt>
      <trkpt lat="45.15807" lon="5.95834">
        <ele>2716</ele>
        <time>2017-02-26T10:22:07.000Z</time>
      </trkpt>
      <trkpt lat="45.15807" lon="5.95834">
        <ele>2718</ele>
        <time>2017-02-26T10:22:08.000Z</time>
      </trkpt>
      <trkpt lat="45.15807" lon="5.95834">
        <ele>2718</ele>
        <time>2017-02-26T10:22:18.000Z</time>
      </trkpt>
      <trkpt lat="45.15807" lon="5.95834">
        <ele>2719</ele>
        <time>2017-02-26T10:22:28.000Z</time>
      </trkpt>
      <trkpt lat="45.15807" lon="5.95834">
        <ele>2721</ele>
        <time>2017-02-26T10:22:38.000Z</time>
      </trkpt>
      <trkpt lat="45.15807" lon="5.95834">
        <ele>2722</ele>
        <time>2017-02-26T10:22:48.000Z</time>
      </trkpt>
      <trkpt lat="45.15804" lon="5.95845">
        <ele>2722</ele>
        <time>2017-02-26T10:22:51.000Z</time>
      </trkpt>
      <trkpt lat="45.15806" lon="5.95846">
        <ele>2723</ele>
        <time>2017-02-26T10:22:58.000Z</time>
      </trkpt>
      <trkpt lat="45.15808" lon="5.95847">
        <ele>2723</ele>
        <time>2017-02-26T10:23:03.000Z</time>
      </trkpt>
      <trkpt lat="45.1581" lon="5.95848">
        <ele>2724</ele>
        <time>2017-02-26T10:23:08.000Z</time>
      </trkpt>
      <trkpt lat="45.15812" lon="5.95849">
        <ele>2726</ele>
        <time>2017-02-26T10:23:18.000Z</time>
      </trkpt>
      <trkpt lat="45.15814" lon="5.9585">
        <ele>2726</ele>
        <time>2017-02-26T10:23:27.000Z</time>
      </trkpt>
      <trkpt lat="45.15816" lon="5.95851">
        <ele>2726</ele>
        <time>2017-02-26T10:23:28.000Z</time>
      </trkpt>
      <trkpt lat="45.15818" lon="5.95851">
        <ele>2729</ele>
        <time>2017-02-26T10:23:38.000Z</time>
      </trkpt>
      <trkpt lat="45.1582" lon="5.95852">
        <ele>2729</ele>
        <time>2017-02-26T10:23:39.000Z</time>
      </trkpt>
      <trkpt lat="45.1582" lon="5.95852">
        <ele>2731</ele>
        <time>2017-02-26T10:23:48.000Z</time>
      </trkpt>
      <trkpt lat="45.15823" lon="5.95842">
        <ele>2731</ele>
        <time>2017-02-26T10:23:55.000Z</time>
      </trkpt>
      <trkpt lat="45.15823" lon="5.95842">
        <ele>2731</ele>
        <time>2017-02-26T10:23:58.000Z</time>
      </trkpt>
      <trkpt lat="45.15823" lon="5.95842">
        <ele>2732</ele>
        <time>2017-02-26T10:24:08.000Z</time>
      </trkpt>
      <trkpt lat="45.15823" lon="5.95842">
        <ele>2732</ele>
        <time>2017-02-26T10:24:18.000Z</time>
      </trkpt>
      <trkpt lat="45.15823" lon="5.95842">
        <ele>2732</ele>
        <time>2017-02-26T10:24:28.000Z</time>
      </trkpt>
      <trkpt lat="45.15823" lon="5.95842">
        <ele>2732</ele>
        <time>2017-02-26T10:24:38.000Z</time>
      </trkpt>
      <trkpt lat="45.15823" lon="5.95842">
        <ele>2732</ele>
        <time>2017-02-26T10:24:48.000Z</time>
      </trkpt>
      <trkpt lat="45.15823" lon="5.95842">
        <ele>2732</ele>
        <time>2017-02-26T10:24:58.000Z</time>
      </trkpt>
      <trkpt lat="45.15823" lon="5.95842">
        <ele>2732</ele>
        <time>2017-02-26T10:25:08.000Z</time>
      </trkpt>
      <trkpt lat="45.15823" lon="5.95842">
        <ele>2732</ele>
        <time>2017-02-26T10:25:18.000Z</time>
      </trkpt>
      <trkpt lat="45.15823" lon="5.95842">
        <ele>2732</ele>
        <time>2017-02-26T10:25:28.000Z</time>
      </trkpt>
      <trkpt lat="45.15823" lon="5.95842">
        <ele>2732</ele>
        <time>2017-02-26T10:25:38.000Z</time>
      </trkpt>
      <trkpt lat="45.15823" lon="5.95842">
        <ele>2733</ele>
        <time>2017-02-26T10:25:48.000Z</time>
      </trkpt>
      <trkpt lat="45.15823" lon="5.95842">
        <ele>2733</ele>
        <time>2017-02-26T10:25:58.000Z</time>
      </trkpt>
      <trkpt lat="45.15823" lon="5.95842">
        <ele>2733</ele>
        <time>2017-02-26T10:26:08.000Z</time>
      </trkpt>
      <trkpt lat="45.15823" lon="5.95842">
        <ele>2732</ele>
        <time>2017-02-26T10:26:18.000Z</time>
      </trkpt>
      <trkpt lat="45.15824" lon="5.95834">
        <ele>2732</ele>
        <time>2017-02-26T10:26:20.000Z</time>
      </trkpt>
      <trkpt lat="45.15824" lon="5.95834">
        <ele>2732</ele>
        <time>2017-02-26T10:26:28.000Z</time>
      </trkpt>
      <trkpt lat="45.15824" lon="5.95834">
        <ele>2732</ele>
        <time>2017-02-26T10:26:38.000Z</time>
      </trkpt>
      <trkpt lat="45.15824" lon="5.95834">
        <ele>2732</ele>
        <time>2017-02-26T10:26:48.000Z</time>
      </trkpt>
      <trkpt lat="45.15824" lon="5.95834">
        <ele>2731</ele>
        <time>2017-02-26T10:26:58.000Z</time>
      </trkpt>
      <trkpt lat="45.15824" lon="5.95834">
        <ele>2732</ele>
        <time>2017-02-26T10:27:08.000Z</time>
      </trkpt>
      <trkpt lat="45.15824" lon="5.95834">
        <ele>2731</ele>
        <time>2017-02-26T10:27:18.000Z</time>
      </trkpt>
      <trkpt lat="45.15824" lon="5.95834">
        <ele>2730</ele>
        <time>2017-02-26T10:27:28.000Z</time>
      </trkpt>
      <trkpt lat="45.15824" lon="5.95834">
        <ele>2730</ele>
        <time>2017-02-26T10:27:38.000Z</time>
      </trkpt>
      <trkpt lat="45.15824" lon="5.95834">
        <ele>2732</ele>
        <time>2017-02-26T10:27:48.000Z</time>
      </trkpt>
      <trkpt lat="45.15824" lon="5.95834">
        <ele>2732</ele>
        <time>2017-02-26T10:27:58.000Z</time>
      </trkpt>
      <trkpt lat="45.15824" lon="5.95834">
        <ele>2731</ele>
        <time>2017-02-26T10:28:08.000Z</time>
      </trkpt>
      <trkpt lat="45.15824" lon="5.95834">
        <ele>2731</ele>
        <time>2017-02-26T10:28:18.000Z</time>
      </trkpt>
      <trkpt lat="45.15824" lon="5.95834">
        <ele>2731</ele>
        <time>2017-02-26T10:28:28.000Z</time>
      </trkpt>
      <trkpt lat="45.15824" lon="5.95834">
        <ele>2731</ele>
        <time>2017-02-26T10:28:38.000Z</time>
      </trkpt>
      <trkpt lat="45.15824" lon="5.95834">
        <ele>2732</ele>
        <time>2017-02-26T10:28:48.000Z</time>
      </trkpt>
      <trkpt lat="45.15824" lon="5.95834">
        <ele>2732</ele>
        <time>2017-02-26T10:28:58.000Z</time>
      </trkpt>
      <trkpt lat="45.15824" lon="5.95834">
        <ele>2733</ele>
        <time>2017-02-26T10:29:08.000Z</time>
      </trkpt>
      <trkpt lat="45.15824" lon="5.95834">
        <ele>2733</ele>
        <time>2017-02-26T10:29:18.000Z</time>
      </trkpt>
      <trkpt lat="45.15824" lon="5.95834">
        <ele>2733</ele>
        <time>2017-02-26T10:29:28.000Z</time>
      </trkpt>
      <trkpt lat="45.15824" lon="5.95834">
        <ele>2733</ele>
        <time>2017-02-26T10:29:38.000Z</time>
      </trkpt>
      <trkpt lat="45.15824" lon="5.95834">
        <ele>2731</ele>
        <time>2017-02-26T10:29:48.000Z</time>
      </trkpt>
      <trkpt lat="45.15824" lon="5.95834">
        <ele>2732</ele>
        <time>2017-02-26T10:29:58.000Z</time>
      </trkpt>
      <trkpt lat="45.15824" lon="5.95834">
        <ele>2732</ele>
        <time>2017-02-26T10:30:08.000Z</time>
      </trkpt>
      <trkpt lat="45.15824" lon="5.95834">
        <ele>2733</ele>
        <time>2017-02-26T10:30:18.000Z</time>
      </trkpt>
      <trkpt lat="45.15824" lon="5.95834">
        <ele>2733</ele>
        <time>2017-02-26T10:30:28.000Z</time>
      </trkpt>
      <trkpt lat="45.15824" lon="5.95834">
        <ele>2733</ele>
        <time>2017-02-26T10:30:38.000Z</time>
      </trkpt>
      <trkpt lat="45.15824" lon="5.95834">
        <ele>2732</ele>
        <time>2017-02-26T10:30:48.000Z</time>
      </trkpt>
      <trkpt lat="45.15824" lon="5.95834">
        <ele>2733</ele>
        <time>2017-02-26T10:30:58.000Z</time>
      </trkpt>
      <trkpt lat="45.15824" lon="5.95834">
        <ele>2733</ele>
        <time>2017-02-26T10:31:08.000Z</time>
      </trkpt>
      <trkpt lat="45.15824" lon="5.95834">
        <ele>2731</ele>
        <time>2017-02-26T10:31:18.000Z</time>
      </trkpt>
      <trkpt lat="45.15824" lon="5.95834">
        <ele>2731</ele>
        <time>2017-02-26T10:31:28.000Z</time>
      </trkpt>
      <trkpt lat="45.15824" lon="5.95834">
        <ele>2731</ele>
        <time>2017-02-26T10:31:38.000Z</time>
      </trkpt>
      <trkpt lat="45.15824" lon="5.95834">
        <ele>2731</ele>
        <time>2017-02-26T10:31:48.000Z</time>
      </trkpt>
      <trkpt lat="45.15824" lon="5.95834">
        <ele>2730</ele>
        <time>2017-02-26T10:31:58.000Z</time>
      </trkpt>
      <trkpt lat="45.15824" lon="5.95834">
        <ele>2731</ele>
        <time>2017-02-26T10:32:08.000Z</time>
      </trkpt>
      <trkpt lat="45.15824" lon="5.95834">
        <ele>2731</ele>
        <time>2017-02-26T10:32:18.000Z</time>
      </trkpt>
      <trkpt lat="45.15824" lon="5.95834">
        <ele>2731</ele>
        <time>2017-02-26T10:32:28.000Z</time>
      </trkpt>
      <trkpt lat="45.15824" lon="5.95834">
        <ele>2732</ele>
        <time>2017-02-26T10:32:38.000Z</time>
      </trkpt>
      <trkpt lat="45.15824" lon="5.95834">
        <ele>2732</ele>
        <time>2017-02-26T10:32:48.000Z</time>
      </trkpt>
      <trkpt lat="45.15824" lon="5.95834">
        <ele>2733</ele>
        <time>2017-02-26T10:32:58.000Z</time>
      </trkpt>
      <trkpt lat="45.15824" lon="5.95834">
        <ele>2733</ele>
        <time>2017-02-26T10:33:08.000Z</time>
      </trkpt>
      <trkpt lat="45.15824" lon="5.95834">
        <ele>2733</ele>
        <time>2017-02-26T10:33:18.000Z</time>
      </trkpt>
      <trkpt lat="45.15824" lon="5.95834">
        <ele>2732</ele>
        <time>2017-02-26T10:33:28.000Z</time>
      </trkpt>
      <trkpt lat="45.15824" lon="5.95834">
        <ele>2733</ele>
        <time>2017-02-26T10:33:38.000Z</time>
      </trkpt>
      <trkpt lat="45.15824" lon="5.95834">
        <ele>2733</ele>
        <time>2017-02-26T10:33:48.000Z</time>
      </trkpt>
      <trkpt lat="45.15824" lon="5.95834">
        <ele>2733</ele>
        <time>2017-02-26T10:33:58.000Z</time>
      </trkpt>
      <trkpt lat="45.15824" lon="5.95834">
        <ele>2733</ele>
        <time>2017-02-26T10:34:08.000Z</time>
      </trkpt>
      <trkpt lat="45.15824" lon="5.95834">
        <ele>2732</ele>
        <time>2017-02-26T10:34:18.000Z</time>
      </trkpt>
      <trkpt lat="45.15824" lon="5.95834">
        <ele>2732</ele>
        <time>2017-02-26T10:34:28.000Z</time>
      </trkpt>
      <trkpt lat="45.15824" lon="5.95834">
        <ele>2732</ele>
        <time>2017-02-26T10:34:38.000Z</time>
      </trkpt>
      <trkpt lat="45.15824" lon="5.95834">
        <ele>2732</ele>
        <time>2017-02-26T10:34:48.000Z</time>
      </trkpt>
      <trkpt lat="45.15824" lon="5.95834">
        <ele>2732</ele>
        <time>2017-02-26T10:34:58.000Z</time>
      </trkpt>
      <trkpt lat="45.15824" lon="5.95834">
        <ele>2732</ele>
        <time>2017-02-26T10:35:08.000Z</time>
      </trkpt>
      <trkpt lat="45.15824" lon="5.95834">
        <ele>2732</ele>
        <time>2017-02-26T10:35:18.000Z</time>
      </trkpt>
      <trkpt lat="45.15824" lon="5.95834">
        <ele>2732</ele>
        <time>2017-02-26T10:35:28.000Z</time>
      </trkpt>
      <trkpt lat="45.15822" lon="5.95846">
        <ele>2732</ele>
        <time>2017-02-26T10:35:36.000Z</time>
      </trkpt>
      <trkpt lat="45.15822" lon="5.95846">
        <ele>2732</ele>
        <time>2017-02-26T10:35:38.000Z</time>
      </trkpt>
      <trkpt lat="45.15805" lon="5.95875">
        <ele>2732</ele>
        <time>2017-02-26T10:35:44.000Z</time>
      </trkpt>
      <trkpt lat="45.15805" lon="5.95875">
        <ele>2724</ele>
        <time>2017-02-26T10:35:48.000Z</time>
      </trkpt>
      <trkpt lat="45.15799" lon="5.95912">
        <ele>2724</ele>
        <time>2017-02-26T10:35:52.000Z</time>
      </trkpt>
      <trkpt lat="45.15794" lon="5.95921">
        <ele>2719</ele>
        <time>2017-02-26T10:35:58.000Z</time>
      </trkpt>
      <trkpt lat="45.15789" lon="5.95931">
        <ele>2719</ele>
        <time>2017-02-26T10:36:00.000Z</time>
      </trkpt>
      <trkpt lat="45.15757" lon="5.95972">
        <ele>2714</ele>
        <time>2017-02-26T10:36:08.000Z</time>
      </trkpt>
      <trkpt lat="45.15752" lon="5.96016">
        <ele>2714</ele>
        <time>2017-02-26T10:36:16.000Z</time>
      </trkpt>
      <trkpt lat="45.15752" lon="5.96016">
        <ele>2703</ele>
        <time>2017-02-26T10:36:18.000Z</time>
      </trkpt>
      <trkpt lat="45.15792" lon="5.9608">
        <ele>2703</ele>
        <time>2017-02-26T10:36:24.000Z</time>
      </trkpt>
      <trkpt lat="45.15792" lon="5.9608">
        <ele>2695</ele>
        <time>2017-02-26T10:36:28.000Z</time>
      </trkpt>
      <trkpt lat="45.15814" lon="5.96135">
        <ele>2695</ele>
        <time>2017-02-26T10:36:32.000Z</time>
      </trkpt>
      <trkpt lat="45.15818" lon="5.96154">
        <ele>2692</ele>
        <time>2017-02-26T10:36:38.000Z</time>
      </trkpt>
      <trkpt lat="45.15823" lon="5.96173">
        <ele>2692</ele>
        <time>2017-02-26T10:36:40.000Z</time>
      </trkpt>
      <trkpt lat="45.15823" lon="5.96173">
        <ele>2691</ele>
        <time>2017-02-26T10:36:48.000Z</time>
      </trkpt>
      <trkpt lat="45.15823" lon="5.96173">
        <ele>2690</ele>
        <time>2017-02-26T10:36:58.000Z</time>
      </trkpt>
      <trkpt lat="45.1583" lon="5.9618">
        <ele>2690</ele>
        <time>2017-02-26T10:37:00.000Z</time>
      </trkpt>
      <trkpt lat="45.1583" lon="5.9618">
        <ele>2689</ele>
        <time>2017-02-26T10:37:08.000Z</time>
      </trkpt>
      <trkpt lat="45.15836" lon="5.96178">
        <ele>2689</ele>
        <time>2017-02-26T10:37:12.000Z</time>
      </trkpt>
      <trkpt lat="45.15836" lon="5.96178">
        <ele>2686</ele>
        <time>2017-02-26T10:37:18.000Z</time>
      </trkpt>
      <trkpt lat="45.15842" lon="5.96179">
        <ele>2686</ele>
        <time>2017-02-26T10:37:20.000Z</time>
      </trkpt>
      <trkpt lat="45.15848" lon="5.96182">
        <ele>2681</ele>
        <time>2017-02-26T10:37:28.000Z</time>
      </trkpt>
      <trkpt lat="45.15848" lon="5.96182">
        <ele>2680</ele>
        <time>2017-02-26T10:37:38.000Z</time>
      </trkpt>
      <trkpt lat="45.15848" lon="5.96182">
        <ele>2680</ele>
        <time>2017-02-26T10:37:48.000Z</time>
      </trkpt>
      <trkpt lat="45.15848" lon="5.96182">
        <ele>2679</ele>
        <time>2017-02-26T10:37:58.000Z</time>
      </trkpt>
      <trkpt lat="45.15856" lon="5.96194">
        <ele>2679</ele>
        <time>2017-02-26T10:38:04.000Z</time>
      </trkpt>
      <trkpt lat="45.15856" lon="5.96194">
        <ele>2674</ele>
        <time>2017-02-26T10:38:08.000Z</time>
      </trkpt>
      <trkpt lat="45.15854" lon="5.96211">
        <ele>2674</ele>
        <time>2017-02-26T10:38:16.000Z</time>
      </trkpt>
      <trkpt lat="45.15854" lon="5.96211">
        <ele>2674</ele>
        <time>2017-02-26T10:38:18.000Z</time>
      </trkpt>
      <trkpt lat="45.15854" lon="5.96219">
        <ele>2673</ele>
        <time>2017-02-26T10:38:28.000Z</time>
      </trkpt>
      <trkpt lat="45.15854" lon="5.96219">
        <ele>2676</ele>
        <time>2017-02-26T10:38:38.000Z</time>
      </trkpt>
      <trkpt lat="45.15853" lon="5.96227">
        <ele>2676</ele>
        <time>2017-02-26T10:38:44.000Z</time>
      </trkpt>
      <trkpt lat="45.15853" lon="5.96227">
        <ele>2676</ele>
        <time>2017-02-26T10:38:48.000Z</time>
      </trkpt>
      <trkpt lat="45.15853" lon="5.96227">
        <ele>2676</ele>
        <time>2017-02-26T10:38:58.000Z</time>
      </trkpt>
      <trkpt lat="45.1585" lon="5.96233">
        <ele>2676</ele>
        <time>2017-02-26T10:39:00.000Z</time>
      </trkpt>
      <trkpt lat="45.1585" lon="5.96233">
        <ele>2676</ele>
        <time>2017-02-26T10:39:08.000Z</time>
      </trkpt>
      <trkpt lat="45.1585" lon="5.96233">
        <ele>2676</ele>
        <time>2017-02-26T10:39:18.000Z</time>
      </trkpt>
      <trkpt lat="45.1585" lon="5.96233">
        <ele>2674</ele>
        <time>2017-02-26T10:39:28.000Z</time>
      </trkpt>
      <trkpt lat="45.1585" lon="5.96233">
        <ele>2674</ele>
        <time>2017-02-26T10:39:38.000Z</time>
      </trkpt>
      <trkpt lat="45.1585" lon="5.96233">
        <ele>2674</ele>
        <time>2017-02-26T10:39:48.000Z</time>
      </trkpt>
      <trkpt lat="45.15851" lon="5.96242">
        <ele>2674</ele>
        <time>2017-02-26T10:39:52.000Z</time>
      </trkpt>
      <trkpt lat="45.15851" lon="5.96242">
        <ele>2674</ele>
        <time>2017-02-26T10:39:58.000Z</time>
      </trkpt>
      <trkpt lat="45.15851" lon="5.96242">
        <ele>2673</ele>
        <time>2017-02-26T10:40:08.000Z</time>
      </trkpt>
      <trkpt lat="45.15851" lon="5.96242">
        <ele>2673</ele>
        <time>2017-02-26T10:40:18.000Z</time>
      </trkpt>
      <trkpt lat="45.15847" lon="5.96266">
        <ele>2672</ele>
        <time>2017-02-26T10:40:28.000Z</time>
      </trkpt>
      <trkpt lat="45.15847" lon="5.96266">
        <ele>2670</ele>
        <time>2017-02-26T10:40:38.000Z</time>
      </trkpt>
      <trkpt lat="45.15847" lon="5.96266">
        <ele>2671</ele>
        <time>2017-02-26T10:40:48.000Z</time>
      </trkpt>
      <trkpt lat="45.15847" lon="5.96266">
        <ele>2670</ele>
        <time>2017-02-26T10:40:58.000Z</time>
      </trkpt>
      <trkpt lat="45.15847" lon="5.96266">
        <ele>2670</ele>
        <time>2017-02-26T10:41:08.000Z</time>
      </trkpt>
      <trkpt lat="45.15847" lon="5.96266">
        <ele>2670</ele>
        <time>2017-02-26T10:41:18.000Z</time>
      </trkpt>
      <trkpt lat="45.15847" lon="5.96266">
        <ele>2671</ele>
        <time>2017-02-26T10:41:28.000Z</time>
      </trkpt>
      <trkpt lat="45.15847" lon="5.96266">
        <ele>2671</ele>
        <time>2017-02-26T10:41:38.000Z</time>
      </trkpt>
      <trkpt lat="45.15847" lon="5.96266">
        <ele>2671</ele>
        <time>2017-02-26T10:41:48.000Z</time>
      </trkpt>
      <trkpt lat="45.15847" lon="5.96266">
        <ele>2671</ele>
        <time>2017-02-26T10:41:58.000Z</time>
      </trkpt>
      <trkpt lat="45.15847" lon="5.96266">
        <ele>2670</ele>
        <time>2017-02-26T10:42:08.000Z</time>
      </trkpt>
      <trkpt lat="45.15847" lon="5.96266">
        <ele>2670</ele>
        <time>2017-02-26T10:42:18.000Z</time>
      </trkpt>
      <trkpt lat="45.15847" lon="5.96266">
        <ele>2671</ele>
        <time>2017-02-26T10:42:28.000Z</time>
      </trkpt>
      <trkpt lat="45.15847" lon="5.96266">
        <ele>2670</ele>
        <time>2017-02-26T10:42:38.000Z</time>
      </trkpt>
      <trkpt lat="45.1585" lon="5.96281">
        <ele>2670</ele>
        <time>2017-02-26T10:42:40.000Z</time>
      </trkpt>
      <trkpt lat="45.15861" lon="5.9629">
        <ele>2666</ele>
        <time>2017-02-26T10:42:48.000Z</time>
      </trkpt>
      <trkpt lat="45.15866" lon="5.96289">
        <ele>2661</ele>
        <time>2017-02-26T10:42:58.000Z</time>
      </trkpt>
      <trkpt lat="45.15872" lon="5.96288">
        <ele>2661</ele>
        <time>2017-02-26T10:43:00.000Z</time>
      </trkpt>
      <trkpt lat="45.15886" lon="5.96283">
        <ele>2652</ele>
        <time>2017-02-26T10:43:08.000Z</time>
      </trkpt>
      <trkpt lat="45.1589" lon="5.96278">
        <ele>2652</ele>
        <time>2017-02-26T10:43:16.000Z</time>
      </trkpt>
      <trkpt lat="45.15895" lon="5.96274">
        <ele>2645</ele>
        <time>2017-02-26T10:43:18.000Z</time>
      </trkpt>
      <trkpt lat="45.15899" lon="5.9627">
        <ele>2645</ele>
        <time>2017-02-26T10:43:24.000Z</time>
      </trkpt>
      <trkpt lat="45.15904" lon="5.96265">
        <ele>2643</ele>
        <time>2017-02-26T10:43:28.000Z</time>
      </trkpt>
      <trkpt lat="45.15908" lon="5.96261">
        <ele>2640</ele>
        <time>2017-02-26T10:43:38.000Z</time>
      </trkpt>
      <trkpt lat="45.15913" lon="5.96257">
        <ele>2640</ele>
        <time>2017-02-26T10:43:40.000Z</time>
      </trkpt>
      <trkpt lat="45.15913" lon="5.96257">
        <ele>2623</ele>
        <time>2017-02-26T10:43:48.000Z</time>
      </trkpt>
      <trkpt lat="45.15939" lon="5.96252">
        <ele>2623</ele>
        <time>2017-02-26T10:43:52.000Z</time>
      </trkpt>
      <trkpt lat="45.15957" lon="5.96248">
        <ele>2609</ele>
        <time>2017-02-26T10:43:58.000Z</time>
      </trkpt>
      <trkpt lat="45.15974" lon="5.96244">
        <ele>2609</ele>
        <time>2017-02-26T10:44:00.000Z</time>
      </trkpt>
      <trkpt lat="45.1598" lon="5.9625">
        <ele>2595</ele>
        <time>2017-02-26T10:44:08.000Z</time>
      </trkpt>
      <trkpt lat="45.15986" lon="5.96256">
        <ele>2587</ele>
        <time>2017-02-26T10:44:18.000Z</time>
      </trkpt>
      <trkpt lat="45.15993" lon="5.96262">
        <ele>2587</ele>
        <time>2017-02-26T10:44:20.000Z</time>
      </trkpt>
      <trkpt lat="45.16038" lon="5.96285">
        <ele>2570</ele>
        <time>2017-02-26T10:44:28.000Z</time>
      </trkpt>
      <trkpt lat="45.16038" lon="5.96285">
        <ele>2569</ele>
        <time>2017-02-26T10:44:38.000Z</time>
      </trkpt>
      <trkpt lat="45.1603" lon="5.96278">
        <ele>2569</ele>
        <time>2017-02-26T10:44:40.000Z</time>
      </trkpt>
      <trkpt lat="45.16033" lon="5.96252">
        <ele>2569</ele>
        <time>2017-02-26T10:44:48.000Z</time>
      </trkpt>
      <trkpt lat="45.16035" lon="5.96228">
        <ele>2569</ele>
        <time>2017-02-26T10:44:56.000Z</time>
      </trkpt>
      <trkpt lat="45.16035" lon="5.96228">
        <ele>2563</ele>
        <time>2017-02-26T10:44:58.000Z</time>
      </trkpt>
      <trkpt lat="45.16023" lon="5.96226">
        <ele>2560</ele>
        <time>2017-02-26T10:45:08.000Z</time>
      </trkpt>
      <trkpt lat="45.16023" lon="5.96226">
        <ele>2557</ele>
        <time>2017-02-26T10:45:18.000Z</time>
      </trkpt>
      <trkpt lat="45.16023" lon="5.96226">
        <ele>2550</ele>
        <time>2017-02-26T10:45:28.000Z</time>
      </trkpt>
      <trkpt lat="45.16016" lon="5.96223">
        <ele>2550</ele>
        <time>2017-02-26T10:45:36.000Z</time>
      </trkpt>
      <trkpt lat="45.16016" lon="5.96223">
        <ele>2550</ele>
        <time>2017-02-26T10:45:38.000Z</time>
      </trkpt>
      <trkpt lat="45.16016" lon="5.96223">
        <ele>2549</ele>
        <time>2017-02-26T10:45:48.000Z</time>
      </trkpt>
      <trkpt lat="45.16025" lon="5.96222">
        <ele>2549</ele>
        <time>2017-02-26T10:45:56.000Z</time>
      </trkpt>
      <trkpt lat="45.16025" lon="5.96222">
        <ele>2543</ele>
        <time>2017-02-26T10:45:58.000Z</time>
      </trkpt>
      <trkpt lat="45.16037" lon="5.96235">
        <ele>2535</ele>
        <time>2017-02-26T10:46:08.000Z</time>
      </trkpt>
      <trkpt lat="45.16037" lon="5.96235">
        <ele>2530</ele>
        <time>2017-02-26T10:46:18.000Z</time>
      </trkpt>
      <trkpt lat="45.16051" lon="5.96233">
        <ele>2530</ele>
        <time>2017-02-26T10:46:24.000Z</time>
      </trkpt>
      <trkpt lat="45.16051" lon="5.96233">
        <ele>2526</ele>
        <time>2017-02-26T10:46:28.000Z</time>
      </trkpt>
      <trkpt lat="45.16062" lon="5.96242">
        <ele>2526</ele>
        <time>2017-02-26T10:46:32.000Z</time>
      </trkpt>
      <trkpt lat="45.16062" lon="5.96242">
        <ele>2522</ele>
        <time>2017-02-26T10:46:38.000Z</time>
      </trkpt>
      <trkpt lat="45.16062" lon="5.96242">
        <ele>2522</ele>
        <time>2017-02-26T10:46:48.000Z</time>
      </trkpt>
      <trkpt lat="45.16075" lon="5.96234">
        <ele>2522</ele>
        <time>2017-02-26T10:46:52.000Z</time>
      </trkpt>
      <trkpt lat="45.16083" lon="5.96244">
        <ele>2516</ele>
        <time>2017-02-26T10:46:58.000Z</time>
      </trkpt>
      <trkpt lat="45.16091" lon="5.96254">
        <ele>2516</ele>
        <time>2017-02-26T10:47:00.000Z</time>
      </trkpt>
      <trkpt lat="45.161" lon="5.96255">
        <ele>2504</ele>
        <time>2017-02-26T10:47:08.000Z</time>
      </trkpt>
      <trkpt lat="45.161" lon="5.96255">
        <ele>2496</ele>
        <time>2017-02-26T10:47:18.000Z</time>
      </trkpt>
      <trkpt lat="45.16131" lon="5.96261">
        <ele>2496</ele>
        <time>2017-02-26T10:47:24.000Z</time>
      </trkpt>
      <trkpt lat="45.16131" lon="5.96261">
        <ele>2484</ele>
        <time>2017-02-26T10:47:28.000Z</time>
      </trkpt>
      <trkpt lat="45.16168" lon="5.96256">
        <ele>2484</ele>
        <time>2017-02-26T10:47:32.000Z</time>
      </trkpt>
      <trkpt lat="45.16168" lon="5.96256">
        <ele>2468</ele>
        <time>2017-02-26T10:47:38.000Z</time>
      </trkpt>
      <trkpt lat="45.16168" lon="5.96256">
        <ele>2468</ele>
        <time>2017-02-26T10:47:48.000Z</time>
      </trkpt>
      <trkpt lat="45.16168" lon="5.96256">
        <ele>2468</ele>
        <time>2017-02-26T10:47:58.000Z</time>
      </trkpt>
      <trkpt lat="45.16198" lon="5.96259">
        <ele>2468</ele>
        <time>2017-02-26T10:48:04.000Z</time>
      </trkpt>
      <trkpt lat="45.16198" lon="5.96259">
        <ele>2459</ele>
        <time>2017-02-26T10:48:08.000Z</time>
      </trkpt>
      <trkpt lat="45.16208" lon="5.96254">
        <ele>2459</ele>
        <time>2017-02-26T10:48:12.000Z</time>
      </trkpt>
      <trkpt lat="45.16208" lon="5.96254">
        <ele>2449</ele>
        <time>2017-02-26T10:48:18.000Z</time>
      </trkpt>
      <trkpt lat="45.1623" lon="5.9628">
        <ele>2449</ele>
        <time>2017-02-26T10:48:24.000Z</time>
      </trkpt>
      <trkpt lat="45.1623" lon="5.9628">
        <ele>2438</ele>
        <time>2017-02-26T10:48:28.000Z</time>
      </trkpt>
      <trkpt lat="45.16262" lon="5.96284">
        <ele>2438</ele>
        <time>2017-02-26T10:48:32.000Z</time>
      </trkpt>
      <trkpt lat="45.16274" lon="5.96298">
        <ele>2424</ele>
        <time>2017-02-26T10:48:38.000Z</time>
      </trkpt>
      <trkpt lat="45.16286" lon="5.96313">
        <ele>2424</ele>
        <time>2017-02-26T10:48:40.000Z</time>
      </trkpt>
      <trkpt lat="45.16328" lon="5.96333">
        <ele>2411</ele>
        <time>2017-02-26T10:48:48.000Z</time>
      </trkpt>
      <trkpt lat="45.16363" lon="5.96357">
        <ele>2411</ele>
        <time>2017-02-26T10:48:56.000Z</time>
      </trkpt>
      <trkpt lat="45.16363" lon="5.96357">
        <ele>2405</ele>
        <time>2017-02-26T10:48:58.000Z</time>
      </trkpt>
      <trkpt lat="45.16404" lon="5.96378">
        <ele>2405</ele>
        <time>2017-02-26T10:49:04.000Z</time>
      </trkpt>
      <trkpt lat="45.16404" lon="5.96378">
        <ele>2400</ele>
        <time>2017-02-26T10:49:08.000Z</time>
      </trkpt>
      <trkpt lat="45.16428" lon="5.96388">
        <ele>2400</ele>
        <time>2017-02-26T10:49:12.000Z</time>
      </trkpt>
      <trkpt lat="45.16428" lon="5.96388">
        <ele>2399</ele>
        <time>2017-02-26T10:49:18.000Z</time>
      </trkpt>
      <trkpt lat="45.16428" lon="5.96388">
        <ele>2397</ele>
        <time>2017-02-26T10:49:28.000Z</time>
      </trkpt>
      <trkpt lat="45.16428" lon="5.96388">
        <ele>2397</ele>
        <time>2017-02-26T10:49:38.000Z</time>
      </trkpt>
      <trkpt lat="45.16428" lon="5.96388">
        <ele>2397</ele>
        <time>2017-02-26T10:49:48.000Z</time>
      </trkpt>
      <trkpt lat="45.16435" lon="5.96402">
        <ele>2397</ele>
        <time>2017-02-26T10:49:56.000Z</time>
      </trkpt>
      <trkpt lat="45.16435" lon="5.96402">
        <ele>2396</ele>
        <time>2017-02-26T10:49:58.000Z</time>
      </trkpt>
      <trkpt lat="45.1643" lon="5.964">
        <ele>2396</ele>
        <time>2017-02-26T10:50:04.000Z</time>
      </trkpt>
      <trkpt lat="45.1643" lon="5.964">
        <ele>2397</ele>
        <time>2017-02-26T10:50:08.000Z</time>
      </trkpt>
      <trkpt lat="45.1643" lon="5.964">
        <ele>2397</ele>
        <time>2017-02-26T10:50:18.000Z</time>
      </trkpt>
      <trkpt lat="45.16423" lon="5.96401">
        <ele>2397</ele>
        <time>2017-02-26T10:50:20.000Z</time>
      </trkpt>
      <trkpt lat="45.16418" lon="5.96403">
        <ele>2398</ele>
        <time>2017-02-26T10:50:28.000Z</time>
      </trkpt>
      <trkpt lat="45.16418" lon="5.96403">
        <ele>2398</ele>
        <time>2017-02-26T10:50:38.000Z</time>
      </trkpt>
      <trkpt lat="45.16418" lon="5.96403">
        <ele>2397</ele>
        <time>2017-02-26T10:50:48.000Z</time>
      </trkpt>
      <trkpt lat="45.16418" lon="5.96403">
        <ele>2398</ele>
        <time>2017-02-26T10:50:58.000Z</time>
      </trkpt>
      <trkpt lat="45.16414" lon="5.96406">
        <ele>2398</ele>
        <time>2017-02-26T10:51:08.000Z</time>
      </trkpt>
      <trkpt lat="45.16414" lon="5.96406">
        <ele>2397</ele>
        <time>2017-02-26T10:51:18.000Z</time>
      </trkpt>
      <trkpt lat="45.16414" lon="5.96406">
        <ele>2398</ele>
        <time>2017-02-26T10:51:28.000Z</time>
      </trkpt>
      <trkpt lat="45.16409" lon="5.96407">
        <ele>2398</ele>
        <time>2017-02-26T10:51:36.000Z</time>
      </trkpt>
      <trkpt lat="45.16409" lon="5.96407">
        <ele>2398</ele>
        <time>2017-02-26T10:51:38.000Z</time>
      </trkpt>
      <trkpt lat="45.16409" lon="5.96407">
        <ele>2398</ele>
        <time>2017-02-26T10:51:48.000Z</time>
      </trkpt>
      <trkpt lat="45.16403" lon="5.96407">
        <ele>2398</ele>
        <time>2017-02-26T10:51:52.000Z</time>
      </trkpt>
      <trkpt lat="45.16403" lon="5.96407">
        <ele>2398</ele>
        <time>2017-02-26T10:51:58.000Z</time>
      </trkpt>
      <trkpt lat="45.16403" lon="5.96407">
        <ele>2397</ele>
        <time>2017-02-26T10:52:08.000Z</time>
      </trkpt>
      <trkpt lat="45.16403" lon="5.96407">
        <ele>2396</ele>
        <time>2017-02-26T10:52:18.000Z</time>
      </trkpt>
      <trkpt lat="45.16403" lon="5.96407">
        <ele>2397</ele>
        <time>2017-02-26T10:52:28.000Z</time>
      </trkpt>
      <trkpt lat="45.16403" lon="5.96407">
        <ele>2396</ele>
        <time>2017-02-26T10:52:38.000Z</time>
      </trkpt>
      <trkpt lat="45.16403" lon="5.96407">
        <ele>2396</ele>
        <time>2017-02-26T10:52:48.000Z</time>
      </trkpt>
      <trkpt lat="45.16403" lon="5.96407">
        <ele>2396</ele>
        <time>2017-02-26T10:52:58.000Z</time>
      </trkpt>
      <trkpt lat="45.16403" lon="5.96407">
        <ele>2395</ele>
        <time>2017-02-26T10:53:08.000Z</time>
      </trkpt>
      <trkpt lat="45.16403" lon="5.96407">
        <ele>2397</ele>
        <time>2017-02-26T10:53:18.000Z</time>
      </trkpt>
      <trkpt lat="45.16403" lon="5.96407">
        <ele>2398</ele>
        <time>2017-02-26T10:53:28.000Z</time>
      </trkpt>
      <trkpt lat="45.16403" lon="5.96407">
        <ele>2397</ele>
        <time>2017-02-26T10:53:38.000Z</time>
      </trkpt>
      <trkpt lat="45.16403" lon="5.96407">
        <ele>2397</ele>
        <time>2017-02-26T10:53:48.000Z</time>
      </trkpt>
      <trkpt lat="45.16403" lon="5.96407">
        <ele>2397</ele>
        <time>2017-02-26T10:53:58.000Z</time>
      </trkpt>
      <trkpt lat="45.16392" lon="5.96409">
        <ele>2397</ele>
        <time>2017-02-26T10:54:04.000Z</time>
      </trkpt>
      <trkpt lat="45.16391" lon="5.96411">
        <ele>2397</ele>
        <time>2017-02-26T10:54:08.000Z</time>
      </trkpt>
      <trkpt lat="45.16389" lon="5.96414">
        <ele>2397</ele>
        <time>2017-02-26T10:54:18.000Z</time>
      </trkpt>
      <trkpt lat="45.16387" lon="5.96416">
        <ele>2395</ele>
        <time>2017-02-26T10:54:28.000Z</time>
      </trkpt>
      <trkpt lat="45.16386" lon="5.96419">
        <ele>2395</ele>
        <time>2017-02-26T10:54:38.000Z</time>
      </trkpt>
      <trkpt lat="45.16384" lon="5.96421">
        <ele>2396</ele>
        <time>2017-02-26T10:54:48.000Z</time>
      </trkpt>
      <trkpt lat="45.16383" lon="5.96424">
        <ele>2396</ele>
        <time>2017-02-26T10:54:49.000Z</time>
      </trkpt>
      <trkpt lat="45.16381" lon="5.96426">
        <ele>2397</ele>
        <time>2017-02-26T10:56:13.000Z</time>
      </trkpt>
      <trkpt lat="45.16379" lon="5.96429">
        <ele>2397</ele>
        <time>2017-02-26T10:56:23.000Z</time>
      </trkpt>
      <trkpt lat="45.16378" lon="5.96431">
        <ele>2397</ele>
        <time>2017-02-26T10:56:24.000Z</time>
      </trkpt>
      <trkpt lat="45.16388" lon="5.96442">
        <ele>2397</ele>
        <time>2017-02-26T10:56:32.000Z</time>
      </trkpt>
      <trkpt lat="45.1639" lon="5.96444">
        <ele>2397</ele>
        <time>2017-02-26T10:56:33.000Z</time>
      </trkpt>
      <trkpt lat="45.16392" lon="5.96447">
        <ele>2397</ele>
        <time>2017-02-26T10:56:43.000Z</time>
      </trkpt>
      <trkpt lat="45.16394" lon="5.96449">
        <ele>2397</ele>
        <time>2017-02-26T10:56:44.000Z</time>
      </trkpt>
      <trkpt lat="45.164" lon="5.96459">
        <ele>2397</ele>
        <time>2017-02-26T10:56:52.000Z</time>
      </trkpt>
      <trkpt lat="45.16403" lon="5.96462">
        <ele>2398</ele>
        <time>2017-02-26T10:56:53.000Z</time>
      </trkpt>
      <trkpt lat="45.16405" lon="5.96465">
        <ele>2398</ele>
        <time>2017-02-26T10:57:00.000Z</time>
      </trkpt>
      <trkpt lat="45.16408" lon="5.96468">
        <ele>2398</ele>
        <time>2017-02-26T10:57:03.000Z</time>
      </trkpt>
      <trkpt lat="45.1641" lon="5.96471">
        <ele>2398</ele>
        <time>2017-02-26T10:57:12.000Z</time>
      </trkpt>
      <trkpt lat="45.16413" lon="5.96474">
        <ele>2399</ele>
        <time>2017-02-26T10:57:13.000Z</time>
      </trkpt>
      <trkpt lat="45.16415" lon="5.96477">
        <ele>2401</ele>
        <time>2017-02-26T10:57:23.000Z</time>
      </trkpt>
      <trkpt lat="45.16418" lon="5.9648">
        <ele>2401</ele>
        <time>2017-02-26T10:57:24.000Z</time>
      </trkpt>
      <trkpt lat="45.16418" lon="5.9648">
        <ele>2402</ele>
        <time>2017-02-26T10:57:33.000Z</time>
      </trkpt>
      <trkpt lat="45.16426" lon="5.9649">
        <ele>2402</ele>
        <time>2017-02-26T10:57:36.000Z</time>
      </trkpt>
      <trkpt lat="45.16429" lon="5.96493">
        <ele>2403</ele>
        <time>2017-02-26T10:57:43.000Z</time>
      </trkpt>
      <trkpt lat="45.16431" lon="5.96497">
        <ele>2403</ele>
        <time>2017-02-26T10:57:44.000Z</time>
      </trkpt>
      <trkpt lat="45.16431" lon="5.96497">
        <ele>2404</ele>
        <time>2017-02-26T10:57:53.000Z</time>
      </trkpt>
      <trkpt lat="45.1644" lon="5.96509">
        <ele>2404</ele>
        <time>2017-02-26T10:57:56.000Z</time>
      </trkpt>
      <trkpt lat="45.1644" lon="5.96509">
        <ele>2405</ele>
        <time>2017-02-26T10:58:03.000Z</time>
      </trkpt>
      <trkpt lat="45.16448" lon="5.9652">
        <ele>2405</ele>
        <time>2017-02-26T10:58:08.000Z</time>
      </trkpt>
      <trkpt lat="45.16451" lon="5.96524">
        <ele>2407</ele>
        <time>2017-02-26T10:58:13.000Z</time>
      </trkpt>
      <trkpt lat="45.16454" lon="5.96528">
        <ele>2407</ele>
        <time>2017-02-26T10:58:20.000Z</time>
      </trkpt>
      <trkpt lat="45.16458" lon="5.96533">
        <ele>2408</ele>
        <time>2017-02-26T10:58:23.000Z</time>
      </trkpt>
      <trkpt lat="45.16461" lon="5.96537">
        <ele>2408</ele>
        <time>2017-02-26T10:58:32.000Z</time>
      </trkpt>
      <trkpt lat="45.16464" lon="5.96542">
        <ele>2409</ele>
        <time>2017-02-26T10:58:33.000Z</time>
      </trkpt>
      <trkpt lat="45.16467" lon="5.96546">
        <ele>2409</ele>
        <time>2017-02-26T10:58:43.000Z</time>
      </trkpt>
      <trkpt lat="45.1647" lon="5.96551">
        <ele>2409</ele>
        <time>2017-02-26T10:58:44.000Z</time>
      </trkpt>
      <trkpt lat="45.16473" lon="5.96558">
        <ele>2409</ele>
        <time>2017-02-26T10:58:52.000Z</time>
      </trkpt>
      <trkpt lat="45.16473" lon="5.96559">
        <ele>2410</ele>
        <time>2017-02-26T10:58:53.000Z</time>
      </trkpt>
      <trkpt lat="45.16477" lon="5.96566">
        <ele>2410</ele>
        <time>2017-02-26T10:59:00.000Z</time>
      </trkpt>
      <trkpt lat="45.16477" lon="5.96566">
        <ele>2412</ele>
        <time>2017-02-26T10:59:03.000Z</time>
      </trkpt>
      <trkpt lat="45.1648" lon="5.96575">
        <ele>2412</ele>
        <time>2017-02-26T10:59:08.000Z</time>
      </trkpt>
      <trkpt lat="45.1648" lon="5.96575">
        <ele>2413</ele>
        <time>2017-02-26T10:59:13.000Z</time>
      </trkpt>
      <trkpt lat="45.16483" lon="5.96587">
        <ele>2413</ele>
        <time>2017-02-26T10:59:20.000Z</time>
      </trkpt>
      <trkpt lat="45.16483" lon="5.96587">
        <ele>2415</ele>
        <time>2017-02-26T10:59:23.000Z</time>
      </trkpt>
      <trkpt lat="45.16485" lon="5.96596">
        <ele>2415</ele>
        <time>2017-02-26T10:59:28.000Z</time>
      </trkpt>
      <trkpt lat="45.16485" lon="5.96596">
        <ele>2417</ele>
        <time>2017-02-26T10:59:33.000Z</time>
      </trkpt>
      <trkpt lat="45.16488" lon="5.96605">
        <ele>2417</ele>
        <time>2017-02-26T10:59:36.000Z</time>
      </trkpt>
      <trkpt lat="45.1649" lon="5.96609">
        <ele>2418</ele>
        <time>2017-02-26T10:59:43.000Z</time>
      </trkpt>
      <trkpt lat="45.16492" lon="5.96613">
        <ele>2418</ele>
        <time>2017-02-26T10:59:44.000Z</time>
      </trkpt>
      <trkpt lat="45.16492" lon="5.96613">
        <ele>2419</ele>
        <time>2017-02-26T10:59:53.000Z</time>
      </trkpt>
      <trkpt lat="45.16499" lon="5.96627">
        <ele>2419</ele>
        <time>2017-02-26T11:00:00.000Z</time>
      </trkpt>
      <trkpt lat="45.16499" lon="5.96627">
        <ele>2421</ele>
        <time>2017-02-26T11:00:03.000Z</time>
      </trkpt>
      <trkpt lat="45.16504" lon="5.96639">
        <ele>2421</ele>
        <time>2017-02-26T11:00:12.000Z</time>
      </trkpt>
      <trkpt lat="45.16504" lon="5.96639">
        <ele>2423</ele>
        <time>2017-02-26T11:00:13.000Z</time>
      </trkpt>
      <trkpt lat="45.16504" lon="5.96639">
        <ele>2424</ele>
        <time>2017-02-26T11:00:23.000Z</time>
      </trkpt>
      <trkpt lat="45.16516" lon="5.96644">
        <ele>2424</ele>
        <time>2017-02-26T11:00:32.000Z</time>
      </trkpt>
      <trkpt lat="45.16516" lon="5.96644">
        <ele>2425</ele>
        <time>2017-02-26T11:00:33.000Z</time>
      </trkpt>
      <trkpt lat="45.16516" lon="5.96644">
        <ele>2428</ele>
        <time>2017-02-26T11:00:43.000Z</time>
      </trkpt>
      <trkpt lat="45.16528" lon="5.96647">
        <ele>2428</ele>
        <time>2017-02-26T11:00:48.000Z</time>
      </trkpt>
      <trkpt lat="45.16531" lon="5.96651">
        <ele>2429</ele>
        <time>2017-02-26T11:00:53.000Z</time>
      </trkpt>
      <trkpt lat="45.16534" lon="5.96656">
        <ele>2429</ele>
        <time>2017-02-26T11:01:00.000Z</time>
      </trkpt>
      <trkpt lat="45.16537" lon="5.9666">
        <ele>2431</ele>
        <time>2017-02-26T11:01:03.000Z</time>
      </trkpt>
      <trkpt lat="45.16539" lon="5.96665">
        <ele>2431</ele>
        <time>2017-02-26T11:01:08.000Z</time>
      </trkpt>
      <trkpt lat="45.16542" lon="5.96669">
        <ele>2432</ele>
        <time>2017-02-26T11:01:13.000Z</time>
      </trkpt>
      <trkpt lat="45.16545" lon="5.96674">
        <ele>2433</ele>
        <time>2017-02-26T11:01:23.000Z</time>
      </trkpt>
      <trkpt lat="45.16548" lon="5.96678">
        <ele>2433</ele>
        <time>2017-02-26T11:01:24.000Z</time>
      </trkpt>
      <trkpt lat="45.16548" lon="5.96678">
        <ele>2434</ele>
        <time>2017-02-26T11:01:33.000Z</time>
      </trkpt>
      <trkpt lat="45.16555" lon="5.9669">
        <ele>2434</ele>
        <time>2017-02-26T11:01:36.000Z</time>
      </trkpt>
      <trkpt lat="45.16557" lon="5.96696">
        <ele>2434</ele>
        <time>2017-02-26T11:01:43.000Z</time>
      </trkpt>
      <trkpt lat="45.16559" lon="5.96702">
        <ele>2434</ele>
        <time>2017-02-26T11:01:52.000Z</time>
      </trkpt>
      <trkpt lat="45.16562" lon="5.96708">
        <ele>2436</ele>
        <time>2017-02-26T11:01:53.000Z</time>
      </trkpt>
      <trkpt lat="45.16564" lon="5.96713">
        <ele>2437</ele>
        <time>2017-02-26T11:02:03.000Z</time>
      </trkpt>
      <trkpt lat="45.16567" lon="5.96719">
        <ele>2437</ele>
        <time>2017-02-26T11:02:04.000Z</time>
      </trkpt>
      <trkpt lat="45.16567" lon="5.96719">
        <ele>2438</ele>
        <time>2017-02-26T11:02:13.000Z</time>
      </trkpt>
      <trkpt lat="45.16574" lon="5.96729">
        <ele>2438</ele>
        <time>2017-02-26T11:02:16.000Z</time>
      </trkpt>
      <trkpt lat="45.16574" lon="5.96729">
        <ele>2440</ele>
        <time>2017-02-26T11:02:23.000Z</time>
      </trkpt>
      <trkpt lat="45.16582" lon="5.96739">
        <ele>2440</ele>
        <time>2017-02-26T11:02:28.000Z</time>
      </trkpt>
      <trkpt lat="45.16583" lon="5.96744">
        <ele>2443</ele>
        <time>2017-02-26T11:02:33.000Z</time>
      </trkpt>
      <trkpt lat="45.16584" lon="5.9675">
        <ele>2444</ele>
        <time>2017-02-26T11:02:43.000Z</time>
      </trkpt>
      <trkpt lat="45.16585" lon="5.96755">
        <ele>2444</ele>
        <time>2017-02-26T11:02:44.000Z</time>
      </trkpt>
      <trkpt lat="45.16585" lon="5.96755">
        <ele>2446</ele>
        <time>2017-02-26T11:02:53.000Z</time>
      </trkpt>
      <trkpt lat="45.16588" lon="5.9677">
        <ele>2446</ele>
        <time>2017-02-26T11:02:56.000Z</time>
      </trkpt>
      <trkpt lat="45.16588" lon="5.9677">
        <ele>2447</ele>
        <time>2017-02-26T11:03:03.000Z</time>
      </trkpt>
      <trkpt lat="45.16588" lon="5.96785">
        <ele>2447</ele>
        <time>2017-02-26T11:03:08.000Z</time>
      </trkpt>
      <trkpt lat="45.16588" lon="5.96785">
        <ele>2448</ele>
        <time>2017-02-26T11:03:13.000Z</time>
      </trkpt>
      <trkpt lat="45.16594" lon="5.96801">
        <ele>2448</ele>
        <time>2017-02-26T11:03:20.000Z</time>
      </trkpt>
      <trkpt lat="45.16594" lon="5.96801">
        <ele>2449</ele>
        <time>2017-02-26T11:03:23.000Z</time>
      </trkpt>
      <trkpt lat="45.16599" lon="5.96815">
        <ele>2449</ele>
        <time>2017-02-26T11:03:32.000Z</time>
      </trkpt>
      <trkpt lat="45.16599" lon="5.96815">
        <ele>2449</ele>
        <time>2017-02-26T11:03:33.000Z</time>
      </trkpt>
      <trkpt lat="45.16599" lon="5.96815">
        <ele>2450</ele>
        <time>2017-02-26T11:03:43.000Z</time>
      </trkpt>
      <trkpt lat="45.16601" lon="5.96826">
        <ele>2450</ele>
        <time>2017-02-26T11:03:47.000Z</time>
      </trkpt>
      <trkpt lat="45.16603" lon="5.96827">
        <ele>2449</ele>
        <time>2017-02-26T11:17:23.000Z</time>
      </trkpt>
      <trkpt lat="45.16603" lon="5.96827">
        <ele>2449</ele>
        <time>2017-02-26T11:17:33.000Z</time>
      </trkpt>
      <trkpt lat="45.166" lon="5.96841">
        <ele>2449</ele>
        <time>2017-02-26T11:17:40.000Z</time>
      </trkpt>
      <trkpt lat="45.166" lon="5.96841">
        <ele>2449</ele>
        <time>2017-02-26T11:17:43.000Z</time>
      </trkpt>
      <trkpt lat="45.16597" lon="5.96849">
        <ele>2449</ele>
        <time>2017-02-26T11:17:48.000Z</time>
      </trkpt>
      <trkpt lat="45.16597" lon="5.96849">
        <ele>2452</ele>
        <time>2017-02-26T11:17:53.000Z</time>
      </trkpt>
      <trkpt lat="45.16593" lon="5.9686">
        <ele>2452</ele>
        <time>2017-02-26T11:18:00.000Z</time>
      </trkpt>
      <trkpt lat="45.16593" lon="5.9686">
        <ele>2453</ele>
        <time>2017-02-26T11:18:03.000Z</time>
      </trkpt>
      <trkpt lat="45.16589" lon="5.96874">
        <ele>2453</ele>
        <time>2017-02-26T11:18:12.000Z</time>
      </trkpt>
      <trkpt lat="45.16589" lon="5.96874">
        <ele>2455</ele>
        <time>2017-02-26T11:18:13.000Z</time>
      </trkpt>
      <trkpt lat="45.16589" lon="5.96874">
        <ele>2456</ele>
        <time>2017-02-26T11:18:23.000Z</time>
      </trkpt>
      <trkpt lat="45.16584" lon="5.9689">
        <ele>2456</ele>
        <time>2017-02-26T11:18:28.000Z</time>
      </trkpt>
      <trkpt lat="45.16583" lon="5.96895">
        <ele>2458</ele>
        <time>2017-02-26T11:18:33.000Z</time>
      </trkpt>
      <trkpt lat="45.16581" lon="5.969">
        <ele>2459</ele>
        <time>2017-02-26T11:18:43.000Z</time>
      </trkpt>
      <trkpt lat="45.16579" lon="5.96905">
        <ele>2459</ele>
        <time>2017-02-26T11:18:44.000Z</time>
      </trkpt>
      <trkpt lat="45.16578" lon="5.96911">
        <ele>2461</ele>
        <time>2017-02-26T11:18:53.000Z</time>
      </trkpt>
      <trkpt lat="45.16576" lon="5.96918">
        <ele>2461</ele>
        <time>2017-02-26T11:19:00.000Z</time>
      </trkpt>
      <trkpt lat="45.16575" lon="5.96924">
        <ele>2463</ele>
        <time>2017-02-26T11:19:03.000Z</time>
      </trkpt>
      <trkpt lat="45.16573" lon="5.96931">
        <ele>2463</ele>
        <time>2017-02-26T11:19:12.000Z</time>
      </trkpt>
      <trkpt lat="45.16572" lon="5.96937">
        <ele>2464</ele>
        <time>2017-02-26T11:19:13.000Z</time>
      </trkpt>
      <trkpt lat="45.16571" lon="5.96944">
        <ele>2466</ele>
        <time>2017-02-26T11:19:23.000Z</time>
      </trkpt>
      <trkpt lat="45.16569" lon="5.9695">
        <ele>2466</ele>
        <time>2017-02-26T11:19:24.000Z</time>
      </trkpt>
      <trkpt lat="45.16569" lon="5.9695">
        <ele>2466</ele>
        <time>2017-02-26T11:19:33.000Z</time>
      </trkpt>
      <trkpt lat="45.16562" lon="5.96965">
        <ele>2466</ele>
        <time>2017-02-26T11:19:40.000Z</time>
      </trkpt>
      <trkpt lat="45.16562" lon="5.96965">
        <ele>2468</ele>
        <time>2017-02-26T11:19:43.000Z</time>
      </trkpt>
      <trkpt lat="45.16557" lon="5.96978">
        <ele>2468</ele>
        <time>2017-02-26T11:19:52.000Z</time>
      </trkpt>
      <trkpt lat="45.16557" lon="5.96978">
        <ele>2470</ele>
        <time>2017-02-26T11:19:53.000Z</time>
      </trkpt>
      <trkpt lat="45.16557" lon="5.96978">
        <ele>2471</ele>
        <time>2017-02-26T11:20:03.000Z</time>
      </trkpt>
      <trkpt lat="45.16558" lon="5.96993">
        <ele>2471</ele>
        <time>2017-02-26T11:20:08.000Z</time>
      </trkpt>
      <trkpt lat="45.1656" lon="5.96997">
        <ele>2472</ele>
        <time>2017-02-26T11:20:13.000Z</time>
      </trkpt>
      <trkpt lat="45.16563" lon="5.97001">
        <ele>2475</ele>
        <time>2017-02-26T11:20:23.000Z</time>
      </trkpt>
      <trkpt lat="45.16565" lon="5.97005">
        <ele>2475</ele>
        <time>2017-02-26T11:20:24.000Z</time>
      </trkpt>
      <trkpt lat="45.16565" lon="5.97005">
        <ele>2476</ele>
        <time>2017-02-26T11:20:33.000Z</time>
      </trkpt>
      <trkpt lat="45.16566" lon="5.97021">
        <ele>2476</ele>
        <time>2017-02-26T11:20:40.000Z</time>
      </trkpt>
      <trkpt lat="45.16566" lon="5.97021">
        <ele>2477</ele>
        <time>2017-02-26T11:20:43.000Z</time>
      </trkpt>
      <trkpt lat="45.16564" lon="5.9703">
        <ele>2477</ele>
        <time>2017-02-26T11:20:48.000Z</time>
      </trkpt>
      <trkpt lat="45.16564" lon="5.9703">
        <ele>2479</ele>
        <time>2017-02-26T11:20:53.000Z</time>
      </trkpt>
      <trkpt lat="45.16563" lon="5.97046">
        <ele>2479</ele>
        <time>2017-02-26T11:21:00.000Z</time>
      </trkpt>
      <trkpt lat="45.16563" lon="5.97046">
        <ele>2482</ele>
        <time>2017-02-26T11:21:03.000Z</time>
      </trkpt>
      <trkpt lat="45.16567" lon="5.97061">
        <ele>2482</ele>
        <time>2017-02-26T11:21:12.000Z</time>
      </trkpt>
      <trkpt lat="45.16567" lon="5.97061">
        <ele>2483</ele>
        <time>2017-02-26T11:21:13.000Z</time>
      </trkpt>
      <trkpt lat="45.16567" lon="5.97061">
        <ele>2484</ele>
        <time>2017-02-26T11:21:23.000Z</time>
      </trkpt>
      <trkpt lat="45.16571" lon="5.97077">
        <ele>2484</ele>
        <time>2017-02-26T11:21:32.000Z</time>
      </trkpt>
      <trkpt lat="45.16571" lon="5.97077">
        <ele>2486</ele>
        <time>2017-02-26T11:21:33.000Z</time>
      </trkpt>
      <trkpt lat="45.16571" lon="5.97077">
        <ele>2487</ele>
        <time>2017-02-26T11:21:43.000Z</time>
      </trkpt>
      <trkpt lat="45.16577" lon="5.97093">
        <ele>2487</ele>
        <time>2017-02-26T11:21:48.000Z</time>
      </trkpt>
      <trkpt lat="45.16577" lon="5.97099">
        <ele>2489</ele>
        <time>2017-02-26T11:21:53.000Z</time>
      </trkpt>
      <trkpt lat="45.16577" lon="5.97104">
        <ele>2491</ele>
        <time>2017-02-26T11:22:03.000Z</time>
      </trkpt>
      <trkpt lat="45.16577" lon="5.97109">
        <ele>2491</ele>
        <time>2017-02-26T11:22:04.000Z</time>
      </trkpt>
      <trkpt lat="45.16578" lon="5.97114">
        <ele>2492</ele>
        <time>2017-02-26T11:22:13.000Z</time>
      </trkpt>
      <trkpt lat="45.16578" lon="5.97119">
        <ele>2492</ele>
        <time>2017-02-26T11:22:20.000Z</time>
      </trkpt>
      <trkpt lat="45.16579" lon="5.97123">
        <ele>2493</ele>
        <time>2017-02-26T11:22:23.000Z</time>
      </trkpt>
      <trkpt lat="45.16579" lon="5.97128">
        <ele>2493</ele>
        <time>2017-02-26T11:22:32.000Z</time>
      </trkpt>
      <trkpt lat="45.1658" lon="5.97133">
        <ele>2495</ele>
        <time>2017-02-26T11:22:33.000Z</time>
      </trkpt>
      <trkpt lat="45.1658" lon="5.97138">
        <ele>2498</ele>
        <time>2017-02-26T11:22:43.000Z</time>
      </trkpt>
      <trkpt lat="45.16581" lon="5.97142">
        <ele>2498</ele>
        <time>2017-02-26T11:22:53.000Z</time>
      </trkpt>
      <trkpt lat="45.16581" lon="5.97147">
        <ele>2500</ele>
        <time>2017-02-26T11:23:03.000Z</time>
      </trkpt>
      <trkpt lat="45.16582" lon="5.97152">
        <ele>2500</ele>
        <time>2017-02-26T11:23:04.000Z</time>
      </trkpt>
      <trkpt lat="45.16582" lon="5.97152">
        <ele>2501</ele>
        <time>2017-02-26T11:23:13.000Z</time>
      </trkpt>
      <trkpt lat="45.16582" lon="5.9717">
        <ele>2501</ele>
        <time>2017-02-26T11:23:20.000Z</time>
      </trkpt>
      <trkpt lat="45.16582" lon="5.9717">
        <ele>2503</ele>
        <time>2017-02-26T11:23:23.000Z</time>
      </trkpt>
      <trkpt lat="45.16582" lon="5.9717">
        <ele>2505</ele>
        <time>2017-02-26T11:23:33.000Z</time>
      </trkpt>
      <trkpt lat="45.1658" lon="5.97187">
        <ele>2505</ele>
        <time>2017-02-26T11:23:36.000Z</time>
      </trkpt>
      <trkpt lat="45.1658" lon="5.97193">
        <ele>2507</ele>
        <time>2017-02-26T11:23:43.000Z</time>
      </trkpt>
      <trkpt lat="45.1658" lon="5.97198">
        <ele>2507</ele>
        <time>2017-02-26T11:23:52.000Z</time>
      </trkpt>
      <trkpt lat="45.1658" lon="5.97204">
        <ele>2509</ele>
        <time>2017-02-26T11:23:53.000Z</time>
      </trkpt>
      <trkpt lat="45.1658" lon="5.9721">
        <ele>2510</ele>
        <time>2017-02-26T11:24:03.000Z</time>
      </trkpt>
      <trkpt lat="45.1658" lon="5.97215">
        <ele>2510</ele>
        <time>2017-02-26T11:24:04.000Z</time>
      </trkpt>
      <trkpt lat="45.1658" lon="5.97215">
        <ele>2510</ele>
        <time>2017-02-26T11:24:13.000Z</time>
      </trkpt>
      <trkpt lat="45.16578" lon="5.97232">
        <ele>2510</ele>
        <time>2017-02-26T11:24:20.000Z</time>
      </trkpt>
      <trkpt lat="45.16578" lon="5.97232">
        <ele>2512</ele>
        <time>2017-02-26T11:24:23.000Z</time>
      </trkpt>
      <trkpt lat="45.16578" lon="5.97232">
        <ele>2513</ele>
        <time>2017-02-26T11:24:33.000Z</time>
      </trkpt>
      <trkpt lat="45.16577" lon="5.97248">
        <ele>2513</ele>
        <time>2017-02-26T11:24:36.000Z</time>
      </trkpt>
      <trkpt lat="45.16577" lon="5.97248">
        <ele>2515</ele>
        <time>2017-02-26T11:24:43.000Z</time>
      </trkpt>
      <trkpt lat="45.16577" lon="5.97248">
        <ele>2518</ele>
        <time>2017-02-26T11:24:53.000Z</time>
      </trkpt>
      <trkpt lat="45.16576" lon="5.97265">
        <ele>2518</ele>
        <time>2017-02-26T11:24:56.000Z</time>
      </trkpt>
      <trkpt lat="45.16573" lon="5.97264">
        <ele>2520</ele>
        <time>2017-02-26T11:25:03.000Z</time>
      </trkpt>
      <trkpt lat="45.1657" lon="5.97263">
        <ele>2522</ele>
        <time>2017-02-26T11:25:13.000Z</time>
      </trkpt>
      <trkpt lat="45.16567" lon="5.97262">
        <ele>2522</ele>
        <time>2017-02-26T11:25:20.000Z</time>
      </trkpt>
      <trkpt lat="45.16564" lon="5.97261">
        <ele>2523</ele>
        <time>2017-02-26T11:25:23.000Z</time>
      </trkpt>
      <trkpt lat="45.16561" lon="5.9726">
        <ele>2523</ele>
        <time>2017-02-26T11:25:32.000Z</time>
      </trkpt>
      <trkpt lat="45.16558" lon="5.97259">
        <ele>2525</ele>
        <time>2017-02-26T11:25:33.000Z</time>
      </trkpt>
      <trkpt lat="45.16555" lon="5.97258">
        <ele>2526</ele>
        <time>2017-02-26T11:25:43.000Z</time>
      </trkpt>
      <trkpt lat="45.16552" lon="5.97257">
        <ele>2526</ele>
        <time>2017-02-26T11:25:44.000Z</time>
      </trkpt>
      <trkpt lat="45.16552" lon="5.97257">
        <ele>2528</ele>
        <time>2017-02-26T11:25:53.000Z</time>
      </trkpt>
      <trkpt lat="45.16545" lon="5.97248">
        <ele>2528</ele>
        <time>2017-02-26T11:25:56.000Z</time>
      </trkpt>
      <trkpt lat="45.16545" lon="5.97248">
        <ele>2529</ele>
        <time>2017-02-26T11:26:03.000Z</time>
      </trkpt>
      <trkpt lat="45.16541" lon="5.97236">
        <ele>2529</ele>
        <time>2017-02-26T11:26:08.000Z</time>
      </trkpt>
      <trkpt lat="45.16539" lon="5.97231">
        <ele>2530</ele>
        <time>2017-02-26T11:26:13.000Z</time>
      </trkpt>
      <trkpt lat="45.16537" lon="5.97227">
        <ele>2530</ele>
        <time>2017-02-26T11:26:20.000Z</time>
      </trkpt>
      <trkpt lat="45.16535" lon="5.97222">
        <ele>2533</ele>
        <time>2017-02-26T11:26:23.000Z</time>
      </trkpt>
      <trkpt lat="45.16533" lon="5.97217">
        <ele>2533</ele>
        <time>2017-02-26T11:26:32.000Z</time>
      </trkpt>
      <trkpt lat="45.16531" lon="5.97213">
        <ele>2535</ele>
        <time>2017-02-26T11:26:33.000Z</time>
      </trkpt>
      <trkpt lat="45.16529" lon="5.97208">
        <ele>2536</ele>
        <time>2017-02-26T11:26:43.000Z</time>
      </trkpt>
      <trkpt lat="45.16527" lon="5.97204">
        <ele>2536</ele>
        <time>2017-02-26T11:26:44.000Z</time>
      </trkpt>
      <trkpt lat="45.16527" lon="5.97204">
        <ele>2538</ele>
        <time>2017-02-26T11:26:53.000Z</time>
      </trkpt>
      <trkpt lat="45.16524" lon="5.97192">
        <ele>2538</ele>
        <time>2017-02-26T11:26:56.000Z</time>
      </trkpt>
      <trkpt lat="45.16522" lon="5.97195">
        <ele>2539</ele>
        <time>2017-02-26T11:27:03.000Z</time>
      </trkpt>
      <trkpt lat="45.1652" lon="5.97199">
        <ele>2541</ele>
        <time>2017-02-26T11:27:13.000Z</time>
      </trkpt>
      <trkpt lat="45.16519" lon="5.97202">
        <ele>2543</ele>
        <time>2017-02-26T11:27:23.000Z</time>
      </trkpt>
      <trkpt lat="45.16517" lon="5.97206">
        <ele>2543</ele>
        <time>2017-02-26T11:27:24.000Z</time>
      </trkpt>
      <trkpt lat="45.16517" lon="5.97206">
        <ele>2544</ele>
        <time>2017-02-26T11:27:33.000Z</time>
      </trkpt>
      <trkpt lat="45.16514" lon="5.97219">
        <ele>2544</ele>
        <time>2017-02-26T11:27:36.000Z</time>
      </trkpt>
      <trkpt lat="45.16514" lon="5.97219">
        <ele>2548</ele>
        <time>2017-02-26T11:27:43.000Z</time>
      </trkpt>
      <trkpt lat="45.1651" lon="5.97234">
        <ele>2548</ele>
        <time>2017-02-26T11:27:52.000Z</time>
      </trkpt>
      <trkpt lat="45.1651" lon="5.97234">
        <ele>2550</ele>
        <time>2017-02-26T11:27:53.000Z</time>
      </trkpt>
      <trkpt lat="45.1651" lon="5.97234">
        <ele>2551</ele>
        <time>2017-02-26T11:28:03.000Z</time>
      </trkpt>
      <trkpt lat="45.16506" lon="5.97251">
        <ele>2551</ele>
        <time>2017-02-26T11:28:08.000Z</time>
      </trkpt>
      <trkpt lat="45.16506" lon="5.97251">
        <ele>2552</ele>
        <time>2017-02-26T11:28:13.000Z</time>
      </trkpt>
      <trkpt lat="45.16506" lon="5.97251">
        <ele>2555</ele>
        <time>2017-02-26T11:28:23.000Z</time>
      </trkpt>
      <trkpt lat="45.16499" lon="5.97237">
        <ele>2555</ele>
        <time>2017-02-26T11:28:32.000Z</time>
      </trkpt>
      <trkpt lat="45.16499" lon="5.97237">
        <ele>2557</ele>
        <time>2017-02-26T11:28:33.000Z</time>
      </trkpt>
      <trkpt lat="45.16499" lon="5.97237">
        <ele>2558</ele>
        <time>2017-02-26T11:28:43.000Z</time>
      </trkpt>
      <trkpt lat="45.16495" lon="5.97221">
        <ele>2558</ele>
        <time>2017-02-26T11:28:48.000Z</time>
      </trkpt>
      <trkpt lat="45.16495" lon="5.97221">
        <ele>2561</ele>
        <time>2017-02-26T11:28:53.000Z</time>
      </trkpt>
      <trkpt lat="45.16492" lon="5.9721">
        <ele>2561</ele>
        <time>2017-02-26T11:29:00.000Z</time>
      </trkpt>
      <trkpt lat="45.16492" lon="5.9721">
        <ele>2562</ele>
        <time>2017-02-26T11:29:03.000Z</time>
      </trkpt>
      <trkpt lat="45.16492" lon="5.9721">
        <ele>2564</ele>
        <time>2017-02-26T11:29:13.000Z</time>
      </trkpt>
      <trkpt lat="45.1649" lon="5.97223">
        <ele>2564</ele>
        <time>2017-02-26T11:29:16.000Z</time>
      </trkpt>
      <trkpt lat="45.1649" lon="5.97223">
        <ele>2565</ele>
        <time>2017-02-26T11:29:23.000Z</time>
      </trkpt>
      <trkpt lat="45.16483" lon="5.97235">
        <ele>2565</ele>
        <time>2017-02-26T11:29:32.000Z</time>
      </trkpt>
      <trkpt lat="45.16483" lon="5.97235">
        <ele>2567</ele>
        <time>2017-02-26T11:29:33.000Z</time>
      </trkpt>
      <trkpt lat="45.16483" lon="5.97235">
        <ele>2570</ele>
        <time>2017-02-26T11:29:43.000Z</time>
      </trkpt>
      <trkpt lat="45.16478" lon="5.97247">
        <ele>2570</ele>
        <time>2017-02-26T11:29:48.000Z</time>
      </trkpt>
      <trkpt lat="45.16477" lon="5.97251">
        <ele>2572</ele>
        <time>2017-02-26T11:29:53.000Z</time>
      </trkpt>
      <trkpt lat="45.16475" lon="5.97256">
        <ele>2574</ele>
        <time>2017-02-26T11:30:03.000Z</time>
      </trkpt>
      <trkpt lat="45.16474" lon="5.97261">
        <ele>2574</ele>
        <time>2017-02-26T11:30:04.000Z</time>
      </trkpt>
      <trkpt lat="45.16474" lon="5.97261">
        <ele>2576</ele>
        <time>2017-02-26T11:30:13.000Z</time>
      </trkpt>
      <trkpt lat="45.16473" lon="5.97272">
        <ele>2576</ele>
        <time>2017-02-26T11:30:16.000Z</time>
      </trkpt>
      <trkpt lat="45.16471" lon="5.97274">
        <ele>2577</ele>
        <time>2017-02-26T11:30:23.000Z</time>
      </trkpt>
      <trkpt lat="45.16469" lon="5.97276">
        <ele>2577</ele>
        <time>2017-02-26T11:30:32.000Z</time>
      </trkpt>
      <trkpt lat="45.16467" lon="5.97278">
        <ele>2579</ele>
        <time>2017-02-26T11:30:33.000Z</time>
      </trkpt>
      <trkpt lat="45.16465" lon="5.9728">
        <ele>2582</ele>
        <time>2017-02-26T11:30:43.000Z</time>
      </trkpt>
      <trkpt lat="45.16463" lon="5.97282">
        <ele>2582</ele>
        <time>2017-02-26T11:30:44.000Z</time>
      </trkpt>
      <trkpt lat="45.16463" lon="5.97282">
        <ele>2583</ele>
        <time>2017-02-26T11:30:53.000Z</time>
      </trkpt>
      <trkpt lat="45.16458" lon="5.97294">
        <ele>2583</ele>
        <time>2017-02-26T11:31:00.000Z</time>
      </trkpt>
      <trkpt lat="45.16458" lon="5.97294">
        <ele>2586</ele>
        <time>2017-02-26T11:31:03.000Z</time>
      </trkpt>
      <trkpt lat="45.16458" lon="5.97294">
        <ele>2588</ele>
        <time>2017-02-26T11:31:13.000Z</time>
      </trkpt>
      <trkpt lat="45.16454" lon="5.97308">
        <ele>2588</ele>
        <time>2017-02-26T11:31:16.000Z</time>
      </trkpt>
      <trkpt lat="45.16454" lon="5.97308">
        <ele>2589</ele>
        <time>2017-02-26T11:31:23.000Z</time>
      </trkpt>
      <trkpt lat="45.16451" lon="5.97324">
        <ele>2589</ele>
        <time>2017-02-26T11:31:32.000Z</time>
      </trkpt>
      <trkpt lat="45.16451" lon="5.97324">
        <ele>2591</ele>
        <time>2017-02-26T11:31:33.000Z</time>
      </trkpt>
      <trkpt lat="45.16451" lon="5.97324">
        <ele>2593</ele>
        <time>2017-02-26T11:31:43.000Z</time>
      </trkpt>
      <trkpt lat="45.16446" lon="5.9734">
        <ele>2593</ele>
        <time>2017-02-26T11:31:48.000Z</time>
      </trkpt>
      <trkpt lat="45.16444" lon="5.97344">
        <ele>2593</ele>
        <time>2017-02-26T11:31:53.000Z</time>
      </trkpt>
      <trkpt lat="45.16443" lon="5.97347">
        <ele>2593</ele>
        <time>2017-02-26T11:32:00.000Z</time>
      </trkpt>
      <trkpt lat="45.16442" lon="5.97351">
        <ele>2594</ele>
        <time>2017-02-26T11:32:03.000Z</time>
      </trkpt>
      <trkpt lat="45.16441" lon="5.97355">
        <ele>2594</ele>
        <time>2017-02-26T11:32:12.000Z</time>
      </trkpt>
      <trkpt lat="45.1644" lon="5.97359">
        <ele>2597</ele>
        <time>2017-02-26T11:32:13.000Z</time>
      </trkpt>
      <trkpt lat="45.16439" lon="5.97362">
        <ele>2597</ele>
        <time>2017-02-26T11:32:23.000Z</time>
      </trkpt>
      <trkpt lat="45.16438" lon="5.97366">
        <ele>2597</ele>
        <time>2017-02-26T11:32:24.000Z</time>
      </trkpt>
      <trkpt lat="45.1644" lon="5.97377">
        <ele>2597</ele>
        <time>2017-02-26T11:32:32.000Z</time>
      </trkpt>
      <trkpt lat="45.1644" lon="5.97378">
        <ele>2597</ele>
        <time>2017-02-26T11:32:33.000Z</time>
      </trkpt>
      <trkpt lat="45.16439" lon="5.97385">
        <ele>2597</ele>
        <time>2017-02-26T11:32:40.000Z</time>
      </trkpt>
      <trkpt lat="45.16439" lon="5.97385">
        <ele>2598</ele>
        <time>2017-02-26T11:32:43.000Z</time>
      </trkpt>
      <trkpt lat="45.16441" lon="5.97394">
        <ele>2598</ele>
        <time>2017-02-26T11:32:48.000Z</time>
      </trkpt>
      <trkpt lat="45.16441" lon="5.97394">
        <ele>2599</ele>
        <time>2017-02-26T11:32:53.000Z</time>
      </trkpt>
      <trkpt lat="45.16442" lon="5.97407">
        <ele>2599</ele>
        <time>2017-02-26T11:33:00.000Z</time>
      </trkpt>
      <trkpt lat="45.16442" lon="5.97407">
        <ele>2601</ele>
        <time>2017-02-26T11:33:03.000Z</time>
      </trkpt>
      <trkpt lat="45.16444" lon="5.97416">
        <ele>2601</ele>
        <time>2017-02-26T11:33:08.000Z</time>
      </trkpt>
      <trkpt lat="45.16444" lon="5.97416">
        <ele>2602</ele>
        <time>2017-02-26T11:33:13.000Z</time>
      </trkpt>
      <trkpt lat="45.16445" lon="5.97423">
        <ele>2602</ele>
        <time>2017-02-26T11:33:16.000Z</time>
      </trkpt>
      <trkpt lat="45.16445" lon="5.97426">
        <ele>2604</ele>
        <time>2017-02-26T11:33:23.000Z</time>
      </trkpt>
      <trkpt lat="45.16446" lon="5.9743">
        <ele>2604</ele>
        <time>2017-02-26T11:33:24.000Z</time>
      </trkpt>
      <trkpt lat="45.16447" lon="5.97438">
        <ele>2604</ele>
        <time>2017-02-26T11:33:32.000Z</time>
      </trkpt>
      <trkpt lat="45.16447" lon="5.97438">
        <ele>2605</ele>
        <time>2017-02-26T11:33:33.000Z</time>
      </trkpt>
      <trkpt lat="45.16447" lon="5.97438">
        <ele>2607</ele>
        <time>2017-02-26T11:33:43.000Z</time>
      </trkpt>
      <trkpt lat="45.16446" lon="5.97452">
        <ele>2607</ele>
        <time>2017-02-26T11:33:48.000Z</time>
      </trkpt>
      <trkpt lat="45.16445" lon="5.97455">
        <ele>2611</ele>
        <time>2017-02-26T11:33:53.000Z</time>
      </trkpt>
      <trkpt lat="45.16444" lon="5.97458">
        <ele>2611</ele>
        <time>2017-02-26T11:33:56.000Z</time>
      </trkpt>
      <trkpt lat="45.16443" lon="5.9746">
        <ele>2613</ele>
        <time>2017-02-26T11:34:03.000Z</time>
      </trkpt>
      <trkpt lat="45.16441" lon="5.97463">
        <ele>2613</ele>
        <time>2017-02-26T11:34:04.000Z</time>
      </trkpt>
      <trkpt lat="45.16441" lon="5.97463">
        <ele>2614</ele>
        <time>2017-02-26T11:34:13.000Z</time>
      </trkpt>
      <trkpt lat="45.16445" lon="5.97467">
        <ele>2614</ele>
        <time>2017-02-26T11:34:20.000Z</time>
      </trkpt>
      <trkpt lat="45.16445" lon="5.97467">
        <ele>2616</ele>
        <time>2017-02-26T11:34:23.000Z</time>
      </trkpt>
      <trkpt lat="45.16445" lon="5.97467">
        <ele>2619</ele>
        <time>2017-02-26T11:34:33.000Z</time>
      </trkpt>
      <trkpt lat="45.16451" lon="5.97474">
        <ele>2619</ele>
        <time>2017-02-26T11:34:36.000Z</time>
      </trkpt>
      <trkpt lat="45.16451" lon="5.97474">
        <ele>2621</ele>
        <time>2017-02-26T11:34:43.000Z</time>
      </trkpt>
      <trkpt lat="45.16456" lon="5.97479">
        <ele>2621</ele>
        <time>2017-02-26T11:34:48.000Z</time>
      </trkpt>
      <trkpt lat="45.16456" lon="5.97479">
        <ele>2623</ele>
        <time>2017-02-26T11:34:53.000Z</time>
      </trkpt>
      <trkpt lat="45.16462" lon="5.97484">
        <ele>2623</ele>
        <time>2017-02-26T11:35:00.000Z</time>
      </trkpt>
      <trkpt lat="45.16462" lon="5.97484">
        <ele>2624</ele>
        <time>2017-02-26T11:35:03.000Z</time>
      </trkpt>
      <trkpt lat="45.16469" lon="5.97489">
        <ele>2624</ele>
        <time>2017-02-26T11:35:08.000Z</time>
      </trkpt>
      <trkpt lat="45.16469" lon="5.97489">
        <ele>2626</ele>
        <time>2017-02-26T11:35:13.000Z</time>
      </trkpt>
      <trkpt lat="45.16476" lon="5.97493">
        <ele>2626</ele>
        <time>2017-02-26T11:35:16.000Z</time>
      </trkpt>
      <trkpt lat="45.16476" lon="5.97493">
        <ele>2626</ele>
        <time>2017-02-26T11:35:23.000Z</time>
      </trkpt>
      <trkpt lat="45.16481" lon="5.97502">
        <ele>2626</ele>
        <time>2017-02-26T11:35:28.000Z</time>
      </trkpt>
      <trkpt lat="45.16481" lon="5.97502">
        <ele>2628</ele>
        <time>2017-02-26T11:35:33.000Z</time>
      </trkpt>
      <trkpt lat="45.16484" lon="5.97509">
        <ele>2628</ele>
        <time>2017-02-26T11:35:36.000Z</time>
      </trkpt>
      <trkpt lat="45.16486" lon="5.97513">
        <ele>2630</ele>
        <time>2017-02-26T11:35:43.000Z</time>
      </trkpt>
      <trkpt lat="45.16488" lon="5.97516">
        <ele>2630</ele>
        <time>2017-02-26T11:35:44.000Z</time>
      </trkpt>
      <trkpt lat="45.16492" lon="5.97526">
        <ele>2630</ele>
        <time>2017-02-26T11:35:52.000Z</time>
      </trkpt>
      <trkpt lat="45.16493" lon="5.97529">
        <ele>2633</ele>
        <time>2017-02-26T11:35:53.000Z</time>
      </trkpt>
      <trkpt lat="45.16495" lon="5.97532">
        <ele>2633</ele>
        <time>2017-02-26T11:36:00.000Z</time>
      </trkpt>
      <trkpt lat="45.16496" lon="5.97535">
        <ele>2636</ele>
        <time>2017-02-26T11:36:03.000Z</time>
      </trkpt>
      <trkpt lat="45.16497" lon="5.97538">
        <ele>2636</ele>
        <time>2017-02-26T11:36:08.000Z</time>
      </trkpt>
      <trkpt lat="45.16499" lon="5.97541">
        <ele>2636</ele>
        <time>2017-02-26T11:36:13.000Z</time>
      </trkpt>
      <trkpt lat="45.165" lon="5.97544">
        <ele>2636</ele>
        <time>2017-02-26T11:36:16.000Z</time>
      </trkpt>
      <trkpt lat="45.16501" lon="5.97547">
        <ele>2639</ele>
        <time>2017-02-26T11:36:23.000Z</time>
      </trkpt>
      <trkpt lat="45.16503" lon="5.9755">
        <ele>2639</ele>
        <time>2017-02-26T11:36:28.000Z</time>
      </trkpt>
      <trkpt lat="45.16504" lon="5.97554">
        <ele>2639</ele>
        <time>2017-02-26T11:36:33.000Z</time>
      </trkpt>
      <trkpt lat="45.16505" lon="5.97557">
        <ele>2639</ele>
        <time>2017-02-26T11:36:36.000Z</time>
      </trkpt>
      <trkpt lat="45.16507" lon="5.9756">
        <ele>2641</ele>
        <time>2017-02-26T11:36:43.000Z</time>
      </trkpt>
      <trkpt lat="45.16508" lon="5.97563">
        <ele>2641</ele>
        <time>2017-02-26T11:36:44.000Z</time>
      </trkpt>
      <trkpt lat="45.16513" lon="5.97567">
        <ele>2641</ele>
        <time>2017-02-26T11:36:52.000Z</time>
      </trkpt>
      <trkpt lat="45.16513" lon="5.97567">
        <ele>2645</ele>
        <time>2017-02-26T11:36:53.000Z</time>
      </trkpt>
      <trkpt lat="45.16513" lon="5.97567">
        <ele>2647</ele>
        <time>2017-02-26T11:37:03.000Z</time>
      </trkpt>
      <trkpt lat="45.16513" lon="5.97567">
        <ele>2649</ele>
        <time>2017-02-26T11:37:13.000Z</time>
      </trkpt>
      <trkpt lat="45.16524" lon="5.97577">
        <ele>2649</ele>
        <time>2017-02-26T11:37:16.000Z</time>
      </trkpt>
      <trkpt lat="45.16524" lon="5.97577">
        <ele>2651</ele>
        <time>2017-02-26T11:37:23.000Z</time>
      </trkpt>
      <trkpt lat="45.16524" lon="5.97577">
        <ele>2653</ele>
        <time>2017-02-26T11:37:33.000Z</time>
      </trkpt>
      <trkpt lat="45.16527" lon="5.97591">
        <ele>2653</ele>
        <time>2017-02-26T11:37:36.000Z</time>
      </trkpt>
      <trkpt lat="45.16527" lon="5.97591">
        <ele>2655</ele>
        <time>2017-02-26T11:37:43.000Z</time>
      </trkpt>
      <trkpt lat="45.16527" lon="5.97591">
        <ele>2658</ele>
        <time>2017-02-26T11:37:53.000Z</time>
      </trkpt>
      <trkpt lat="45.16532" lon="5.97604">
        <ele>2658</ele>
        <time>2017-02-26T11:37:56.000Z</time>
      </trkpt>
      <trkpt lat="45.16534" lon="5.97607">
        <ele>2660</ele>
        <time>2017-02-26T11:38:03.000Z</time>
      </trkpt>
      <trkpt lat="45.16536" lon="5.97611">
        <ele>2660</ele>
        <time>2017-02-26T11:38:12.000Z</time>
      </trkpt>
      <trkpt lat="45.16537" lon="5.97614">
        <ele>2663</ele>
        <time>2017-02-26T11:38:13.000Z</time>
      </trkpt>
      <trkpt lat="45.16539" lon="5.97618">
        <ele>2664</ele>
        <time>2017-02-26T11:38:23.000Z</time>
      </trkpt>
      <trkpt lat="45.16541" lon="5.97621">
        <ele>2664</ele>
        <time>2017-02-26T11:38:24.000Z</time>
      </trkpt>
      <trkpt lat="45.16541" lon="5.97621">
        <ele>2666</ele>
        <time>2017-02-26T11:38:33.000Z</time>
      </trkpt>
      <trkpt lat="45.16541" lon="5.97621">
        <ele>2668</ele>
        <time>2017-02-26T11:38:43.000Z</time>
      </trkpt>
      <trkpt lat="45.16541" lon="5.97621">
        <ele>2671</ele>
        <time>2017-02-26T11:38:53.000Z</time>
      </trkpt>
      <trkpt lat="45.16547" lon="5.97633">
        <ele>2671</ele>
        <time>2017-02-26T11:38:56.000Z</time>
      </trkpt>
      <trkpt lat="45.16547" lon="5.97633">
        <ele>2673</ele>
        <time>2017-02-26T11:39:03.000Z</time>
      </trkpt>
      <trkpt lat="45.16547" lon="5.97633">
        <ele>2674</ele>
        <time>2017-02-26T11:39:13.000Z</time>
      </trkpt>
      <trkpt lat="45.16544" lon="5.97647">
        <ele>2674</ele>
        <time>2017-02-26T11:39:16.000Z</time>
      </trkpt>
      <trkpt lat="45.16544" lon="5.97647">
        <ele>2675</ele>
        <time>2017-02-26T11:39:23.000Z</time>
      </trkpt>
      <trkpt lat="45.16541" lon="5.97658">
        <ele>2675</ele>
        <time>2017-02-26T11:39:32.000Z</time>
      </trkpt>
      <trkpt lat="45.16541" lon="5.97658">
        <ele>2677</ele>
        <time>2017-02-26T11:39:33.000Z</time>
      </trkpt>
      <trkpt lat="45.16541" lon="5.97658">
        <ele>2679</ele>
        <time>2017-02-26T11:39:43.000Z</time>
      </trkpt>
      <trkpt lat="45.16543" lon="5.97664">
        <ele>2679</ele>
        <time>2017-02-26T11:39:48.000Z</time>
      </trkpt>
      <trkpt lat="45.16543" lon="5.97664">
        <ele>2682</ele>
        <time>2017-02-26T11:39:53.000Z</time>
      </trkpt>
      <trkpt lat="45.16547" lon="5.97671">
        <ele>2682</ele>
        <time>2017-02-26T11:39:56.000Z</time>
      </trkpt>
      <trkpt lat="45.16547" lon="5.97674">
        <ele>2683</ele>
        <time>2017-02-26T11:40:03.000Z</time>
      </trkpt>
      <trkpt lat="45.16546" lon="5.97677">
        <ele>2683</ele>
        <time>2017-02-26T11:40:08.000Z</time>
      </trkpt>
      <trkpt lat="45.16546" lon="5.9768">
        <ele>2685</ele>
        <time>2017-02-26T11:40:13.000Z</time>
      </trkpt>
      <trkpt lat="45.16546" lon="5.97683">
        <ele>2688</ele>
        <time>2017-02-26T11:40:23.000Z</time>
      </trkpt>
      <trkpt lat="45.16546" lon="5.97686">
        <ele>2688</ele>
        <time>2017-02-26T11:40:32.000Z</time>
      </trkpt>
      <trkpt lat="45.16545" lon="5.97689">
        <ele>2688</ele>
        <time>2017-02-26T11:40:33.000Z</time>
      </trkpt>
      <trkpt lat="45.16545" lon="5.97693">
        <ele>2689</ele>
        <time>2017-02-26T11:40:43.000Z</time>
      </trkpt>
      <trkpt lat="45.16545" lon="5.97696">
        <ele>2689</ele>
        <time>2017-02-26T11:40:44.000Z</time>
      </trkpt>
      <trkpt lat="45.16546" lon="5.97699">
        <ele>2691</ele>
        <time>2017-02-26T11:40:53.000Z</time>
      </trkpt>
      <trkpt lat="45.16548" lon="5.97703">
        <ele>2691</ele>
        <time>2017-02-26T11:40:56.000Z</time>
      </trkpt>
      <trkpt lat="45.16549" lon="5.97707">
        <ele>2695</ele>
        <time>2017-02-26T11:41:03.000Z</time>
      </trkpt>
      <trkpt lat="45.1655" lon="5.97711">
        <ele>2695</ele>
        <time>2017-02-26T11:41:04.000Z</time>
      </trkpt>
      <trkpt lat="45.1655" lon="5.97711">
        <ele>2697</ele>
        <time>2017-02-26T11:41:13.000Z</time>
      </trkpt>
      <trkpt lat="45.16552" lon="5.97719">
        <ele>2697</ele>
        <time>2017-02-26T11:41:16.000Z</time>
      </trkpt>
      <trkpt lat="45.16552" lon="5.97719">
        <ele>2698</ele>
        <time>2017-02-26T11:41:23.000Z</time>
      </trkpt>
      <trkpt lat="45.16552" lon="5.97736">
        <ele>2698</ele>
        <time>2017-02-26T11:41:32.000Z</time>
      </trkpt>
      <trkpt lat="45.16552" lon="5.97736">
        <ele>2699</ele>
        <time>2017-02-26T11:41:33.000Z</time>
      </trkpt>
      <trkpt lat="45.16552" lon="5.97736">
        <ele>2701</ele>
        <time>2017-02-26T11:41:43.000Z</time>
      </trkpt>
      <trkpt lat="45.16554" lon="5.97755">
        <ele>2701</ele>
        <time>2017-02-26T11:41:48.000Z</time>
      </trkpt>
      <trkpt lat="45.16554" lon="5.97755">
        <ele>2702</ele>
        <time>2017-02-26T11:41:53.000Z</time>
      </trkpt>
      <trkpt lat="45.1655" lon="5.97763">
        <ele>2702</ele>
        <time>2017-02-26T11:41:56.000Z</time>
      </trkpt>
      <trkpt lat="45.1655" lon="5.97763">
        <ele>2704</ele>
        <time>2017-02-26T11:42:03.000Z</time>
      </trkpt>
      <trkpt lat="45.1655" lon="5.97776">
        <ele>2704</ele>
        <time>2017-02-26T11:42:08.000Z</time>
      </trkpt>
      <trkpt lat="45.1655" lon="5.97776">
        <ele>2706</ele>
        <time>2017-02-26T11:42:13.000Z</time>
      </trkpt>
      <trkpt lat="45.16551" lon="5.97789">
        <ele>2706</ele>
        <time>2017-02-26T11:42:20.000Z</time>
      </trkpt>
      <trkpt lat="45.16551" lon="5.97789">
        <ele>2708</ele>
        <time>2017-02-26T11:42:23.000Z</time>
      </trkpt>
      <trkpt lat="45.16551" lon="5.97789">
        <ele>2709</ele>
        <time>2017-02-26T11:42:33.000Z</time>
      </trkpt>
      <trkpt lat="45.16552" lon="5.97808">
        <ele>2709</ele>
        <time>2017-02-26T11:42:36.000Z</time>
      </trkpt>
      <trkpt lat="45.16552" lon="5.97808">
        <ele>2711</ele>
        <time>2017-02-26T11:42:43.000Z</time>
      </trkpt>
      <trkpt lat="45.16552" lon="5.97825">
        <ele>2711</ele>
        <time>2017-02-26T11:42:52.000Z</time>
      </trkpt>
      <trkpt lat="45.16552" lon="5.97825">
        <ele>2713</ele>
        <time>2017-02-26T11:42:53.000Z</time>
      </trkpt>
      <trkpt lat="45.16552" lon="5.97825">
        <ele>2715</ele>
        <time>2017-02-26T11:43:03.000Z</time>
      </trkpt>
      <trkpt lat="45.16552" lon="5.97842">
        <ele>2715</ele>
        <time>2017-02-26T11:43:08.000Z</time>
      </trkpt>
      <trkpt lat="45.16552" lon="5.97842">
        <ele>2715</ele>
        <time>2017-02-26T11:43:13.000Z</time>
      </trkpt>
      <trkpt lat="45.16554" lon="5.97857">
        <ele>2715</ele>
        <time>2017-02-26T11:43:20.000Z</time>
      </trkpt>
      <trkpt lat="45.16554" lon="5.97857">
        <ele>2718</ele>
        <time>2017-02-26T11:43:23.000Z</time>
      </trkpt>
      <trkpt lat="45.16553" lon="5.9787">
        <ele>2718</ele>
        <time>2017-02-26T11:43:32.000Z</time>
      </trkpt>
      <trkpt lat="45.16553" lon="5.9787">
        <ele>2719</ele>
        <time>2017-02-26T11:43:33.000Z</time>
      </trkpt>
      <trkpt lat="45.16553" lon="5.9787">
        <ele>2721</ele>
        <time>2017-02-26T11:43:43.000Z</time>
      </trkpt>
      <trkpt lat="45.16552" lon="5.97887">
        <ele>2721</ele>
        <time>2017-02-26T11:43:48.000Z</time>
      </trkpt>
      <trkpt lat="45.16551" lon="5.97893">
        <ele>2722</ele>
        <time>2017-02-26T11:43:53.000Z</time>
      </trkpt>
      <trkpt lat="45.16551" lon="5.979">
        <ele>2722</ele>
        <time>2017-02-26T11:44:00.000Z</time>
      </trkpt>
      <trkpt lat="45.1655" lon="5.97906">
        <ele>2724</ele>
        <time>2017-02-26T11:44:03.000Z</time>
      </trkpt>
      <trkpt lat="45.1655" lon="5.97912">
        <ele>2724</ele>
        <time>2017-02-26T11:44:12.000Z</time>
      </trkpt>
      <trkpt lat="45.1655" lon="5.97919">
        <ele>2724</ele>
        <time>2017-02-26T11:44:13.000Z</time>
      </trkpt>
      <trkpt lat="45.16549" lon="5.97925">
        <ele>2727</ele>
        <time>2017-02-26T11:44:23.000Z</time>
      </trkpt>
      <trkpt lat="45.16549" lon="5.97931">
        <ele>2727</ele>
        <time>2017-02-26T11:44:24.000Z</time>
      </trkpt>
      <trkpt lat="45.16549" lon="5.97931">
        <ele>2726</ele>
        <time>2017-02-26T11:44:33.000Z</time>
      </trkpt>
      <trkpt lat="45.16548" lon="5.9795">
        <ele>2726</ele>
        <time>2017-02-26T11:44:36.000Z</time>
      </trkpt>
      <trkpt lat="45.16548" lon="5.9795">
        <ele>2726</ele>
        <time>2017-02-26T11:44:43.000Z</time>
      </trkpt>
      <trkpt lat="45.16547" lon="5.97968">
        <ele>2726</ele>
        <time>2017-02-26T11:44:48.000Z</time>
      </trkpt>
      <trkpt lat="45.16547" lon="5.97975">
        <ele>2726</ele>
        <time>2017-02-26T11:44:53.000Z</time>
      </trkpt>
      <trkpt lat="45.16546" lon="5.97981">
        <ele>2726</ele>
        <time>2017-02-26T11:45:00.000Z</time>
      </trkpt>
      <trkpt lat="45.16546" lon="5.97988">
        <ele>2726</ele>
        <time>2017-02-26T11:45:03.000Z</time>
      </trkpt>
      <trkpt lat="45.16546" lon="5.97995">
        <ele>2726</ele>
        <time>2017-02-26T11:45:12.000Z</time>
      </trkpt>
      <trkpt lat="45.16546" lon="5.98001">
        <ele>2727</ele>
        <time>2017-02-26T11:45:13.000Z</time>
      </trkpt>
      <trkpt lat="45.16545" lon="5.98008">
        <ele>2730</ele>
        <time>2017-02-26T11:45:23.000Z</time>
      </trkpt>
      <trkpt lat="45.16545" lon="5.98014">
        <ele>2730</ele>
        <time>2017-02-26T11:45:24.000Z</time>
      </trkpt>
      <trkpt lat="45.16545" lon="5.98014">
        <ele>2731</ele>
        <time>2017-02-26T11:45:33.000Z</time>
      </trkpt>
      <trkpt lat="45.16542" lon="5.98028">
        <ele>2731</ele>
        <time>2017-02-26T11:45:36.000Z</time>
      </trkpt>
      <trkpt lat="45.16542" lon="5.98033">
        <ele>2732</ele>
        <time>2017-02-26T11:45:43.000Z</time>
      </trkpt>
      <trkpt lat="45.16541" lon="5.98037">
        <ele>2732</ele>
        <time>2017-02-26T11:45:44.000Z</time>
      </trkpt>
      <trkpt lat="45.16539" lon="5.9805">
        <ele>2732</ele>
        <time>2017-02-26T11:45:52.000Z</time>
      </trkpt>
      <trkpt lat="45.16538" lon="5.98054">
        <ele>2733</ele>
        <time>2017-02-26T11:45:53.000Z</time>
      </trkpt>
      <trkpt lat="45.16538" lon="5.98058">
        <ele>2733</ele>
        <time>2017-02-26T11:46:00.000Z</time>
      </trkpt>
      <trkpt lat="45.16537" lon="5.98061">
        <ele>2735</ele>
        <time>2017-02-26T11:46:03.000Z</time>
      </trkpt>
      <trkpt lat="45.16536" lon="5.98065">
        <ele>2735</ele>
        <time>2017-02-26T11:46:08.000Z</time>
      </trkpt>
      <trkpt lat="45.16536" lon="5.98069">
        <ele>2736</ele>
        <time>2017-02-26T11:46:13.000Z</time>
      </trkpt>
      <trkpt lat="45.16535" lon="5.98073">
        <ele>2736</ele>
        <time>2017-02-26T11:46:20.000Z</time>
      </trkpt>
      <trkpt lat="45.16534" lon="5.98077">
        <ele>2738</ele>
        <time>2017-02-26T11:46:23.000Z</time>
      </trkpt>
      <trkpt lat="45.16534" lon="5.98081">
        <ele>2738</ele>
        <time>2017-02-26T11:46:28.000Z</time>
      </trkpt>
      <trkpt lat="45.16533" lon="5.98085">
        <ele>2740</ele>
        <time>2017-02-26T11:46:33.000Z</time>
      </trkpt>
      <trkpt lat="45.16533" lon="5.98089">
        <ele>2742</ele>
        <time>2017-02-26T11:46:43.000Z</time>
      </trkpt>
      <trkpt lat="45.16532" lon="5.98093">
        <ele>2742</ele>
        <time>2017-02-26T11:46:44.000Z</time>
      </trkpt>
      <trkpt lat="45.16527" lon="5.98102">
        <ele>2742</ele>
        <time>2017-02-26T11:46:52.000Z</time>
      </trkpt>
      <trkpt lat="45.16525" lon="5.98105">
        <ele>2743</ele>
        <time>2017-02-26T11:46:53.000Z</time>
      </trkpt>
      <trkpt lat="45.16523" lon="5.98107">
        <ele>2743</ele>
        <time>2017-02-26T11:47:00.000Z</time>
      </trkpt>
      <trkpt lat="45.16522" lon="5.9811">
        <ele>2745</ele>
        <time>2017-02-26T11:47:03.000Z</time>
      </trkpt>
      <trkpt lat="45.1652" lon="5.98113">
        <ele>2745</ele>
        <time>2017-02-26T11:47:08.000Z</time>
      </trkpt>
      <trkpt lat="45.16519" lon="5.98116">
        <ele>2749</ele>
        <time>2017-02-26T11:47:13.000Z</time>
      </trkpt>
      <trkpt lat="45.16517" lon="5.98119">
        <ele>2749</ele>
        <time>2017-02-26T11:47:23.000Z</time>
      </trkpt>
      <trkpt lat="45.16516" lon="5.98122">
        <ele>2749</ele>
        <time>2017-02-26T11:47:24.000Z</time>
      </trkpt>
      <trkpt lat="45.16516" lon="5.98122">
        <ele>2750</ele>
        <time>2017-02-26T11:47:33.000Z</time>
      </trkpt>
      <trkpt lat="45.16516" lon="5.98122">
        <ele>2751</ele>
        <time>2017-02-26T11:47:43.000Z</time>
      </trkpt>
      <trkpt lat="45.16518" lon="5.98138">
        <ele>2751</ele>
        <time>2017-02-26T11:47:52.000Z</time>
      </trkpt>
      <trkpt lat="45.16518" lon="5.98138">
        <ele>2753</ele>
        <time>2017-02-26T11:47:53.000Z</time>
      </trkpt>
      <trkpt lat="45.16518" lon="5.98138">
        <ele>2757</ele>
        <time>2017-02-26T11:48:03.000Z</time>
      </trkpt>
      <trkpt lat="45.16523" lon="5.98152">
        <ele>2757</ele>
        <time>2017-02-26T11:48:08.000Z</time>
      </trkpt>
      <trkpt lat="45.16523" lon="5.98152">
        <ele>2758</ele>
        <time>2017-02-26T11:48:13.000Z</time>
      </trkpt>
      <trkpt lat="45.16528" lon="5.98161">
        <ele>2758</ele>
        <time>2017-02-26T11:48:20.000Z</time>
      </trkpt>
      <trkpt lat="45.16528" lon="5.98161">
        <ele>2759</ele>
        <time>2017-02-26T11:48:23.000Z</time>
      </trkpt>
      <trkpt lat="45.16528" lon="5.98161">
        <ele>2761</ele>
        <time>2017-02-26T11:48:33.000Z</time>
      </trkpt>
      <trkpt lat="45.16538" lon="5.98169">
        <ele>2761</ele>
        <time>2017-02-26T11:48:36.000Z</time>
      </trkpt>
      <trkpt lat="45.16538" lon="5.98169">
        <ele>2762</ele>
        <time>2017-02-26T11:48:43.000Z</time>
      </trkpt>
      <trkpt lat="45.16545" lon="5.98178">
        <ele>2762</ele>
        <time>2017-02-26T11:48:48.000Z</time>
      </trkpt>
      <trkpt lat="45.16547" lon="5.98183">
        <ele>2763</ele>
        <time>2017-02-26T11:48:53.000Z</time>
      </trkpt>
      <trkpt lat="45.1655" lon="5.98188">
        <ele>2763</ele>
        <time>2017-02-26T11:49:00.000Z</time>
      </trkpt>
      <trkpt lat="45.16552" lon="5.98193">
        <ele>2764</ele>
        <time>2017-02-26T11:49:03.000Z</time>
      </trkpt>
      <trkpt lat="45.16554" lon="5.98198">
        <ele>2764</ele>
        <time>2017-02-26T11:49:12.000Z</time>
      </trkpt>
      <trkpt lat="45.16557" lon="5.98203">
        <ele>2765</ele>
        <time>2017-02-26T11:49:13.000Z</time>
      </trkpt>
      <trkpt lat="45.16559" lon="5.98208">
        <ele>2768</ele>
        <time>2017-02-26T11:49:23.000Z</time>
      </trkpt>
      <trkpt lat="45.16561" lon="5.98213">
        <ele>2768</ele>
        <time>2017-02-26T11:49:24.000Z</time>
      </trkpt>
      <trkpt lat="45.16561" lon="5.98213">
        <ele>2769</ele>
        <time>2017-02-26T11:49:33.000Z</time>
      </trkpt>
      <trkpt lat="45.16565" lon="5.98225">
        <ele>2769</ele>
        <time>2017-02-26T11:49:36.000Z</time>
      </trkpt>
      <trkpt lat="45.16565" lon="5.98225">
        <ele>2769</ele>
        <time>2017-02-26T11:49:43.000Z</time>
      </trkpt>
      <trkpt lat="45.16568" lon="5.98239">
        <ele>2769</ele>
        <time>2017-02-26T11:49:52.000Z</time>
      </trkpt>
      <trkpt lat="45.16568" lon="5.9824">
        <ele>2771</ele>
        <time>2017-02-26T11:49:53.000Z</time>
      </trkpt>
      <trkpt lat="45.1657" lon="5.98248">
        <ele>2771</ele>
        <time>2017-02-26T11:50:00.000Z</time>
      </trkpt>
      <trkpt lat="45.1657" lon="5.98248">
        <ele>2773</ele>
        <time>2017-02-26T11:50:03.000Z</time>
      </trkpt>
      <trkpt lat="45.1657" lon="5.98248">
        <ele>2775</ele>
        <time>2017-02-26T11:50:13.000Z</time>
      </trkpt>
      <trkpt lat="45.16573" lon="5.98264">
        <ele>2775</ele>
        <time>2017-02-26T11:50:16.000Z</time>
      </trkpt>
      <trkpt lat="45.16574" lon="5.98271">
        <ele>2776</ele>
        <time>2017-02-26T11:50:23.000Z</time>
      </trkpt>
      <trkpt lat="45.16574" lon="5.98277">
        <ele>2776</ele>
        <time>2017-02-26T11:50:32.000Z</time>
      </trkpt>
      <trkpt lat="45.16574" lon="5.98284">
        <ele>2779</ele>
        <time>2017-02-26T11:50:33.000Z</time>
      </trkpt>
      <trkpt lat="45.16575" lon="5.98291">
        <ele>2780</ele>
        <time>2017-02-26T11:50:43.000Z</time>
      </trkpt>
      <trkpt lat="45.16575" lon="5.98298">
        <ele>2780</ele>
        <time>2017-02-26T11:50:44.000Z</time>
      </trkpt>
      <trkpt lat="45.16575" lon="5.98298">
        <ele>2780</ele>
        <time>2017-02-26T11:50:53.000Z</time>
      </trkpt>
      <trkpt lat="45.16579" lon="5.98315">
        <ele>2780</ele>
        <time>2017-02-26T11:50:56.000Z</time>
      </trkpt>
      <trkpt lat="45.1658" lon="5.98321">
        <ele>2780</ele>
        <time>2017-02-26T11:51:03.000Z</time>
      </trkpt>
      <trkpt lat="45.16581" lon="5.98328">
        <ele>2780</ele>
        <time>2017-02-26T11:51:04.000Z</time>
      </trkpt>
      <trkpt lat="45.16581" lon="5.98328">
        <ele>2780</ele>
        <time>2017-02-26T11:51:13.000Z</time>
      </trkpt>
      <trkpt lat="45.16585" lon="5.98345">
        <ele>2780</ele>
        <time>2017-02-26T11:51:16.000Z</time>
      </trkpt>
      <trkpt lat="45.16585" lon="5.98345">
        <ele>2780</ele>
        <time>2017-02-26T11:51:23.000Z</time>
      </trkpt>
      <trkpt lat="45.16589" lon="5.98361">
        <ele>2780</ele>
        <time>2017-02-26T11:51:32.000Z</time>
      </trkpt>
      <trkpt lat="45.16589" lon="5.98361">
        <ele>2782</ele>
        <time>2017-02-26T11:51:33.000Z</time>
      </trkpt>
      <trkpt lat="45.16589" lon="5.98361">
        <ele>2784</ele>
        <time>2017-02-26T11:51:43.000Z</time>
      </trkpt>
      <trkpt lat="45.16595" lon="5.98375">
        <ele>2784</ele>
        <time>2017-02-26T11:51:48.000Z</time>
      </trkpt>
      <trkpt lat="45.16597" lon="5.9838">
        <ele>2785</ele>
        <time>2017-02-26T11:51:53.000Z</time>
      </trkpt>
      <trkpt lat="45.16598" lon="5.98385">
        <ele>2785</ele>
        <time>2017-02-26T11:52:00.000Z</time>
      </trkpt>
      <trkpt lat="45.166" lon="5.98391">
        <ele>2787</ele>
        <time>2017-02-26T11:52:03.000Z</time>
      </trkpt>
      <trkpt lat="45.16601" lon="5.98396">
        <ele>2787</ele>
        <time>2017-02-26T11:52:12.000Z</time>
      </trkpt>
      <trkpt lat="45.16603" lon="5.98401">
        <ele>2787</ele>
        <time>2017-02-26T11:52:13.000Z</time>
      </trkpt>
      <trkpt lat="45.16604" lon="5.98406">
        <ele>2787</ele>
        <time>2017-02-26T11:52:20.000Z</time>
      </trkpt>
      <trkpt lat="45.16606" lon="5.98412">
        <ele>2789</ele>
        <time>2017-02-26T11:52:23.000Z</time>
      </trkpt>
      <trkpt lat="45.16607" lon="5.98417">
        <ele>2789</ele>
        <time>2017-02-26T11:52:28.000Z</time>
      </trkpt>
      <trkpt lat="45.16609" lon="5.98422">
        <ele>2790</ele>
        <time>2017-02-26T11:52:33.000Z</time>
      </trkpt>
      <trkpt lat="45.1661" lon="5.98428">
        <ele>2791</ele>
        <time>2017-02-26T11:52:43.000Z</time>
      </trkpt>
      <trkpt lat="45.16612" lon="5.98433">
        <ele>2791</ele>
        <time>2017-02-26T11:52:44.000Z</time>
      </trkpt>
      <trkpt lat="45.16612" lon="5.98433">
        <ele>2794</ele>
        <time>2017-02-26T11:52:53.000Z</time>
      </trkpt>
      <trkpt lat="45.16615" lon="5.98445">
        <ele>2794</ele>
        <time>2017-02-26T11:52:56.000Z</time>
      </trkpt>
      <trkpt lat="45.16616" lon="5.9845">
        <ele>2796</ele>
        <time>2017-02-26T11:53:03.000Z</time>
      </trkpt>
      <trkpt lat="45.16618" lon="5.98455">
        <ele>2796</ele>
        <time>2017-02-26T11:53:08.000Z</time>
      </trkpt>
      <trkpt lat="45.1662" lon="5.9846">
        <ele>2798</ele>
        <time>2017-02-26T11:53:13.000Z</time>
      </trkpt>
      <trkpt lat="45.16622" lon="5.98465">
        <ele>2799</ele>
        <time>2017-02-26T11:53:23.000Z</time>
      </trkpt>
      <trkpt lat="45.16623" lon="5.98469">
        <ele>2799</ele>
        <time>2017-02-26T11:53:24.000Z</time>
      </trkpt>
      <trkpt lat="45.16626" lon="5.98472">
        <ele>2801</ele>
        <time>2017-02-26T11:53:33.000Z</time>
      </trkpt>
      <trkpt lat="45.16628" lon="5.98475">
        <ele>2801</ele>
        <time>2017-02-26T11:53:40.000Z</time>
      </trkpt>
      <trkpt lat="45.16631" lon="5.98477">
        <ele>2804</ele>
        <time>2017-02-26T11:53:43.000Z</time>
      </trkpt>
      <trkpt lat="45.16633" lon="5.9848">
        <ele>2804</ele>
        <time>2017-02-26T11:53:48.000Z</time>
      </trkpt>
      <trkpt lat="45.16636" lon="5.98482">
        <ele>2805</ele>
        <time>2017-02-26T11:53:53.000Z</time>
      </trkpt>
      <trkpt lat="45.16638" lon="5.98485">
        <ele>2807</ele>
        <time>2017-02-26T11:54:03.000Z</time>
      </trkpt>
      <trkpt lat="45.16641" lon="5.98487">
        <ele>2807</ele>
        <time>2017-02-26T11:54:04.000Z</time>
      </trkpt>
      <trkpt lat="45.16641" lon="5.98493">
        <ele>2808</ele>
        <time>2017-02-26T11:54:13.000Z</time>
      </trkpt>
      <trkpt lat="45.16641" lon="5.98498">
        <ele>2808</ele>
        <time>2017-02-26T11:54:20.000Z</time>
      </trkpt>
      <trkpt lat="45.16642" lon="5.98504">
        <ele>2811</ele>
        <time>2017-02-26T11:54:23.000Z</time>
      </trkpt>
      <trkpt lat="45.16642" lon="5.98509">
        <ele>2811</ele>
        <time>2017-02-26T11:54:28.000Z</time>
      </trkpt>
      <trkpt lat="45.16643" lon="5.98515">
        <ele>2811</ele>
        <time>2017-02-26T11:54:33.000Z</time>
      </trkpt>
      <trkpt lat="45.16643" lon="5.9852">
        <ele>2814</ele>
        <time>2017-02-26T11:54:43.000Z</time>
      </trkpt>
      <trkpt lat="45.16644" lon="5.98526">
        <ele>2814</ele>
        <time>2017-02-26T11:54:44.000Z</time>
      </trkpt>
      <trkpt lat="45.16644" lon="5.98526">
        <ele>2816</ele>
        <time>2017-02-26T11:54:53.000Z</time>
      </trkpt>
      <trkpt lat="45.16645" lon="5.98539">
        <ele>2816</ele>
        <time>2017-02-26T11:55:00.000Z</time>
      </trkpt>
      <trkpt lat="45.16645" lon="5.98539">
        <ele>2816</ele>
        <time>2017-02-26T11:55:03.000Z</time>
      </trkpt>
      <trkpt lat="45.16645" lon="5.98539">
        <ele>2818</ele>
        <time>2017-02-26T11:55:13.000Z</time>
      </trkpt>
      <trkpt lat="45.16645" lon="5.98539">
        <ele>2820</ele>
        <time>2017-02-26T11:55:23.000Z</time>
      </trkpt>
      <trkpt lat="45.16651" lon="5.98549">
        <ele>2820</ele>
        <time>2017-02-26T11:55:28.000Z</time>
      </trkpt>
      <trkpt lat="45.16654" lon="5.98548">
        <ele>2821</ele>
        <time>2017-02-26T11:55:33.000Z</time>
      </trkpt>
      <trkpt lat="45.16657" lon="5.98547">
        <ele>2822</ele>
        <time>2017-02-26T11:55:43.000Z</time>
      </trkpt>
      <trkpt lat="45.1666" lon="5.98545">
        <ele>2822</ele>
        <time>2017-02-26T11:55:44.000Z</time>
      </trkpt>
      <trkpt lat="45.1666" lon="5.98545">
        <ele>2825</ele>
        <time>2017-02-26T11:55:53.000Z</time>
      </trkpt>
      <trkpt lat="45.16666" lon="5.98547">
        <ele>2825</ele>
        <time>2017-02-26T11:55:56.000Z</time>
      </trkpt>
      <trkpt lat="45.16668" lon="5.98549">
        <ele>2827</ele>
        <time>2017-02-26T11:56:03.000Z</time>
      </trkpt>
      <trkpt lat="45.1667" lon="5.9855">
        <ele>2827</ele>
        <time>2017-02-26T11:56:04.000Z</time>
      </trkpt>
      <trkpt lat="45.1667" lon="5.9855">
        <ele>2828</ele>
        <time>2017-02-26T11:56:13.000Z</time>
      </trkpt>
      <trkpt lat="45.16675" lon="5.98564">
        <ele>2828</ele>
        <time>2017-02-26T11:56:20.000Z</time>
      </trkpt>
      <trkpt lat="45.16675" lon="5.98564">
        <ele>2830</ele>
        <time>2017-02-26T11:56:23.000Z</time>
      </trkpt>
      <trkpt lat="45.16675" lon="5.98564">
        <ele>2832</ele>
        <time>2017-02-26T11:56:33.000Z</time>
      </trkpt>
      <trkpt lat="45.16675" lon="5.98564">
        <ele>2832</ele>
        <time>2017-02-26T11:56:43.000Z</time>
      </trkpt>
      <trkpt lat="45.1668" lon="5.98578">
        <ele>2832</ele>
        <time>2017-02-26T11:56:52.000Z</time>
      </trkpt>
      <trkpt lat="45.1668" lon="5.98578">
        <ele>2832</ele>
        <time>2017-02-26T11:56:53.000Z</time>
      </trkpt>
      <trkpt lat="45.1668" lon="5.98578">
        <ele>2833</ele>
        <time>2017-02-26T11:57:03.000Z</time>
      </trkpt>
      <trkpt lat="45.16683" lon="5.98594">
        <ele>2833</ele>
        <time>2017-02-26T11:57:08.000Z</time>
      </trkpt>
      <trkpt lat="45.16685" lon="5.98599">
        <ele>2836</ele>
        <time>2017-02-26T11:57:13.000Z</time>
      </trkpt>
      <trkpt lat="45.16687" lon="5.98605">
        <ele>2837</ele>
        <time>2017-02-26T11:57:23.000Z</time>
      </trkpt>
      <trkpt lat="45.16689" lon="5.9861">
        <ele>2837</ele>
        <time>2017-02-26T11:57:24.000Z</time>
      </trkpt>
      <trkpt lat="45.16689" lon="5.9861">
        <ele>2837</ele>
        <time>2017-02-26T11:57:33.000Z</time>
      </trkpt>
      <trkpt lat="45.16693" lon="5.98626">
        <ele>2837</ele>
        <time>2017-02-26T11:57:40.000Z</time>
      </trkpt>
      <trkpt lat="45.16693" lon="5.98626">
        <ele>2839</ele>
        <time>2017-02-26T11:57:43.000Z</time>
      </trkpt>
      <trkpt lat="45.16693" lon="5.98626">
        <ele>2841</ele>
        <time>2017-02-26T11:57:53.000Z</time>
      </trkpt>
      <trkpt lat="45.16695" lon="5.98641">
        <ele>2841</ele>
        <time>2017-02-26T11:58:00.000Z</time>
      </trkpt>
      <trkpt lat="45.16695" lon="5.98641">
        <ele>2843</ele>
        <time>2017-02-26T11:58:03.000Z</time>
      </trkpt>
      <trkpt lat="45.16695" lon="5.98641">
        <ele>2845</ele>
        <time>2017-02-26T11:58:13.000Z</time>
      </trkpt>
      <trkpt lat="45.16703" lon="5.98648">
        <ele>2845</ele>
        <time>2017-02-26T11:58:16.000Z</time>
      </trkpt>
      <trkpt lat="45.16703" lon="5.98648">
        <ele>2848</ele>
        <time>2017-02-26T11:58:23.000Z</time>
      </trkpt>
      <trkpt lat="45.16714" lon="5.98656">
        <ele>2848</ele>
        <time>2017-02-26T11:58:32.000Z</time>
      </trkpt>
      <trkpt lat="45.16714" lon="5.98656">
        <ele>2849</ele>
        <time>2017-02-26T11:58:33.000Z</time>
      </trkpt>
      <trkpt lat="45.16714" lon="5.98656">
        <ele>2851</ele>
        <time>2017-02-26T11:58:43.000Z</time>
      </trkpt>
      <trkpt lat="45.16722" lon="5.98664">
        <ele>2851</ele>
        <time>2017-02-26T11:58:48.000Z</time>
      </trkpt>
      <trkpt lat="45.16722" lon="5.98664">
        <ele>2852</ele>
        <time>2017-02-26T11:58:53.000Z</time>
      </trkpt>
      <trkpt lat="45.16722" lon="5.98664">
        <ele>2854</ele>
        <time>2017-02-26T11:59:03.000Z</time>
      </trkpt>
      <trkpt lat="45.16733" lon="5.98671">
        <ele>2854</ele>
        <time>2017-02-26T11:59:08.000Z</time>
      </trkpt>
      <trkpt lat="45.16733" lon="5.98671">
        <ele>2856</ele>
        <time>2017-02-26T11:59:13.000Z</time>
      </trkpt>
      <trkpt lat="45.16733" lon="5.98671">
        <ele>2857</ele>
        <time>2017-02-26T11:59:23.000Z</time>
      </trkpt>
      <trkpt lat="45.16745" lon="5.98672">
        <ele>2857</ele>
        <time>2017-02-26T11:59:28.000Z</time>
      </trkpt>
      <trkpt lat="45.16748" lon="5.98672">
        <ele>2860</ele>
        <time>2017-02-26T11:59:33.000Z</time>
      </trkpt>
      <trkpt lat="45.16751" lon="5.98671">
        <ele>2862</ele>
        <time>2017-02-26T11:59:43.000Z</time>
      </trkpt>
      <trkpt lat="45.16755" lon="5.9867">
        <ele>2862</ele>
        <time>2017-02-26T11:59:44.000Z</time>
      </trkpt>
      <trkpt lat="45.16757" lon="5.98673">
        <ele>2865</ele>
        <time>2017-02-26T11:59:53.000Z</time>
      </trkpt>
      <trkpt lat="45.16759" lon="5.98677">
        <ele>2865</ele>
        <time>2017-02-26T12:00:03.000Z</time>
      </trkpt>
      <trkpt lat="45.16762" lon="5.9868">
        <ele>2865</ele>
        <time>2017-02-26T12:00:04.000Z</time>
      </trkpt>
      <trkpt lat="45.16762" lon="5.9868">
        <ele>2867</ele>
        <time>2017-02-26T12:00:13.000Z</time>
      </trkpt>
      <trkpt lat="45.16765" lon="5.98693">
        <ele>2867</ele>
        <time>2017-02-26T12:00:20.000Z</time>
      </trkpt>
      <trkpt lat="45.16765" lon="5.98693">
        <ele>2870</ele>
        <time>2017-02-26T12:00:23.000Z</time>
      </trkpt>
      <trkpt lat="45.16765" lon="5.98693">
        <ele>2873</ele>
        <time>2017-02-26T12:00:33.000Z</time>
      </trkpt>
      <trkpt lat="45.16766" lon="5.98708">
        <ele>2873</ele>
        <time>2017-02-26T12:00:36.000Z</time>
      </trkpt>
      <trkpt lat="45.16766" lon="5.98708">
        <ele>2874</ele>
        <time>2017-02-26T12:00:43.000Z</time>
      </trkpt>
      <trkpt lat="45.16766" lon="5.98708">
        <ele>2876</ele>
        <time>2017-02-26T12:00:53.000Z</time>
      </trkpt>
      <trkpt lat="45.16769" lon="5.98723">
        <ele>2876</ele>
        <time>2017-02-26T12:01:00.000Z</time>
      </trkpt>
      <trkpt lat="45.16769" lon="5.98723">
        <ele>2878</ele>
        <time>2017-02-26T12:01:03.000Z</time>
      </trkpt>
      <trkpt lat="45.16769" lon="5.98723">
        <ele>2880</ele>
        <time>2017-02-26T12:01:13.000Z</time>
      </trkpt>
      <trkpt lat="45.16776" lon="5.98729">
        <ele>2880</ele>
        <time>2017-02-26T12:01:20.000Z</time>
      </trkpt>
      <trkpt lat="45.16776" lon="5.98729">
        <ele>2881</ele>
        <time>2017-02-26T12:01:23.000Z</time>
      </trkpt>
      <trkpt lat="45.16776" lon="5.98729">
        <ele>2885</ele>
        <time>2017-02-26T12:01:33.000Z</time>
      </trkpt>
      <trkpt lat="45.16775" lon="5.98743">
        <ele>2885</ele>
        <time>2017-02-26T12:01:36.000Z</time>
      </trkpt>
      <trkpt lat="45.16775" lon="5.98743">
        <ele>2886</ele>
        <time>2017-02-26T12:01:43.000Z</time>
      </trkpt>
      <trkpt lat="45.16775" lon="5.98743">
        <ele>2888</ele>
        <time>2017-02-26T12:01:53.000Z</time>
      </trkpt>
      <trkpt lat="45.16777" lon="5.9876">
        <ele>2888</ele>
        <time>2017-02-26T12:01:56.000Z</time>
      </trkpt>
      <trkpt lat="45.16777" lon="5.9876">
        <ele>2890</ele>
        <time>2017-02-26T12:02:03.000Z</time>
      </trkpt>
      <trkpt lat="45.16777" lon="5.9876">
        <ele>2892</ele>
        <time>2017-02-26T12:02:13.000Z</time>
      </trkpt>
      <trkpt lat="45.16777" lon="5.9876">
        <ele>2893</ele>
        <time>2017-02-26T12:02:23.000Z</time>
      </trkpt>
      <trkpt lat="45.16787" lon="5.98759">
        <ele>2893</ele>
        <time>2017-02-26T12:02:28.000Z</time>
      </trkpt>
      <trkpt lat="45.16787" lon="5.98759">
        <ele>2894</ele>
        <time>2017-02-26T12:02:33.000Z</time>
      </trkpt>
      <trkpt lat="45.16787" lon="5.98759">
        <ele>2897</ele>
        <time>2017-02-26T12:02:43.000Z</time>
      </trkpt>
      <trkpt lat="45.16787" lon="5.98759">
        <ele>2898</ele>
        <time>2017-02-26T12:02:53.000Z</time>
      </trkpt>
      <trkpt lat="45.16789" lon="5.98775">
        <ele>2898</ele>
        <time>2017-02-26T12:02:56.000Z</time>
      </trkpt>
      <trkpt lat="45.16789" lon="5.98775">
        <ele>2900</ele>
        <time>2017-02-26T12:03:03.000Z</time>
      </trkpt>
      <trkpt lat="45.16789" lon="5.98775">
        <ele>2902</ele>
        <time>2017-02-26T12:03:13.000Z</time>
      </trkpt>
      <trkpt lat="45.16795" lon="5.98784">
        <ele>2902</ele>
        <time>2017-02-26T12:03:16.000Z</time>
      </trkpt>
      <trkpt lat="45.16795" lon="5.98784">
        <ele>2904</ele>
        <time>2017-02-26T12:03:23.000Z</time>
      </trkpt>
      <trkpt lat="45.16804" lon="5.98785">
        <ele>2904</ele>
        <time>2017-02-26T12:03:28.000Z</time>
      </trkpt>
      <trkpt lat="45.16807" lon="5.98785">
        <ele>2904</ele>
        <time>2017-02-26T12:03:33.000Z</time>
      </trkpt>
      <trkpt lat="45.16811" lon="5.98785">
        <ele>2907</ele>
        <time>2017-02-26T12:03:43.000Z</time>
      </trkpt>
      <trkpt lat="45.16814" lon="5.98785">
        <ele>2907</ele>
        <time>2017-02-26T12:03:44.000Z</time>
      </trkpt>
      <trkpt lat="45.16814" lon="5.98785">
        <ele>2909</ele>
        <time>2017-02-26T12:03:53.000Z</time>
      </trkpt>
      <trkpt lat="45.16813" lon="5.98795">
        <ele>2909</ele>
        <time>2017-02-26T12:04:00.000Z</time>
      </trkpt>
      <trkpt lat="45.16813" lon="5.98795">
        <ele>2911</ele>
        <time>2017-02-26T12:04:03.000Z</time>
      </trkpt>
      <trkpt lat="45.16813" lon="5.98795">
        <ele>2912</ele>
        <time>2017-02-26T12:04:13.000Z</time>
      </trkpt>
      <trkpt lat="45.1682" lon="5.98802">
        <ele>2912</ele>
        <time>2017-02-26T12:04:20.000Z</time>
      </trkpt>
      <trkpt lat="45.1682" lon="5.98802">
        <ele>2914</ele>
        <time>2017-02-26T12:04:23.000Z</time>
      </trkpt>
      <trkpt lat="45.1682" lon="5.98802">
        <ele>2915</ele>
        <time>2017-02-26T12:04:33.000Z</time>
      </trkpt>
      <trkpt lat="45.1683" lon="5.98801">
        <ele>2915</ele>
        <time>2017-02-26T12:04:36.000Z</time>
      </trkpt>
      <trkpt lat="45.16832" lon="5.98802">
        <ele>2917</ele>
        <time>2017-02-26T12:04:43.000Z</time>
      </trkpt>
      <trkpt lat="45.16835" lon="5.98803">
        <ele>2917</ele>
        <time>2017-02-26T12:04:48.000Z</time>
      </trkpt>
      <trkpt lat="45.16837" lon="5.98804">
        <ele>2919</ele>
        <time>2017-02-26T12:04:53.000Z</time>
      </trkpt>
      <trkpt lat="45.16839" lon="5.98805">
        <ele>2921</ele>
        <time>2017-02-26T12:05:03.000Z</time>
      </trkpt>
      <trkpt lat="45.16842" lon="5.98806">
        <ele>2921</ele>
        <time>2017-02-26T12:05:08.000Z</time>
      </trkpt>
      <trkpt lat="45.16844" lon="5.98807">
        <ele>2922</ele>
        <time>2017-02-26T12:05:13.000Z</time>
      </trkpt>
      <trkpt lat="45.16846" lon="5.98808">
        <ele>2926</ele>
        <time>2017-02-26T12:05:23.000Z</time>
      </trkpt>
      <trkpt lat="45.16849" lon="5.98809">
        <ele>2926</ele>
        <time>2017-02-26T12:05:24.000Z</time>
      </trkpt>
      <trkpt lat="45.1685" lon="5.98809">
        <ele>2927</ele>
        <time>2017-02-26T12:05:33.000Z</time>
      </trkpt>
      <trkpt lat="45.16851" lon="5.9881">
        <ele>2927</ele>
        <time>2017-02-26T12:05:43.000Z</time>
      </trkpt>
      <trkpt lat="45.16852" lon="5.98811">
        <ele>2926</ele>
        <time>2017-02-26T12:05:53.000Z</time>
      </trkpt>
      <trkpt lat="45.16854" lon="5.98811">
        <ele>2925</ele>
        <time>2017-02-26T12:06:03.000Z</time>
      </trkpt>
      <trkpt lat="45.16855" lon="5.98812">
        <ele>2925</ele>
        <time>2017-02-26T12:06:13.000Z</time>
      </trkpt>
      <trkpt lat="45.16856" lon="5.98813">
        <ele>2926</ele>
        <time>2017-02-26T12:06:23.000Z</time>
      </trkpt>
      <trkpt lat="45.16857" lon="5.98814">
        <ele>2926</ele>
        <time>2017-02-26T12:06:24.000Z</time>
      </trkpt>
      <trkpt lat="45.16857" lon="5.98814">
        <ele>2927</ele>
        <time>2017-02-26T12:06:33.000Z</time>
      </trkpt>
      <trkpt lat="45.16857" lon="5.98814">
        <ele>2928</ele>
        <time>2017-02-26T12:06:43.000Z</time>
      </trkpt>
      <trkpt lat="45.16857" lon="5.98814">
        <ele>2928</ele>
        <time>2017-02-26T12:06:53.000Z</time>
      </trkpt>
      <trkpt lat="45.16857" lon="5.98814">
        <ele>2928</ele>
        <time>2017-02-26T12:07:03.000Z</time>
      </trkpt>
      <trkpt lat="45.16857" lon="5.98814">
        <ele>2930</ele>
        <time>2017-02-26T12:07:13.000Z</time>
      </trkpt>
      <trkpt lat="45.16857" lon="5.98814">
        <ele>2928</ele>
        <time>2017-02-26T12:07:23.000Z</time>
      </trkpt>
      <trkpt lat="45.16857" lon="5.98814">
        <ele>2928</ele>
        <time>2017-02-26T12:07:33.000Z</time>
      </trkpt>
      <trkpt lat="45.16857" lon="5.98814">
        <ele>2928</ele>
        <time>2017-02-26T12:07:43.000Z</time>
      </trkpt>
      <trkpt lat="45.16857" lon="5.98814">
        <ele>2928</ele>
        <time>2017-02-26T12:07:53.000Z</time>
      </trkpt>
      <trkpt lat="45.16857" lon="5.98814">
        <ele>2928</ele>
        <time>2017-02-26T12:08:03.000Z</time>
      </trkpt>
      <trkpt lat="45.16851" lon="5.9881">
        <ele>2928</ele>
        <time>2017-02-26T12:08:08.000Z</time>
      </trkpt>
      <trkpt lat="45.16851" lon="5.9881">
        <ele>2926</ele>
        <time>2017-02-26T12:08:13.000Z</time>
      </trkpt>
      <trkpt lat="45.16851" lon="5.9881">
        <ele>2926</ele>
        <time>2017-02-26T12:08:23.000Z</time>
      </trkpt>
      <trkpt lat="45.16851" lon="5.9881">
        <ele>2925</ele>
        <time>2017-02-26T12:08:33.000Z</time>
      </trkpt>
      <trkpt lat="45.16851" lon="5.9881">
        <ele>2925</ele>
        <time>2017-02-26T12:08:43.000Z</time>
      </trkpt>
      <trkpt lat="45.16851" lon="5.9881">
        <ele>2926</ele>
        <time>2017-02-26T12:08:53.000Z</time>
      </trkpt>
      <trkpt lat="45.16851" lon="5.9881">
        <ele>2926</ele>
        <time>2017-02-26T12:09:03.000Z</time>
      </trkpt>
      <trkpt lat="45.16851" lon="5.9881">
        <ele>2926</ele>
        <time>2017-02-26T12:09:13.000Z</time>
      </trkpt>
      <trkpt lat="45.16851" lon="5.9881">
        <ele>2925</ele>
        <time>2017-02-26T12:09:23.000Z</time>
      </trkpt>
      <trkpt lat="45.16851" lon="5.9881">
        <ele>2926</ele>
        <time>2017-02-26T12:09:33.000Z</time>
      </trkpt>
      <trkpt lat="45.16851" lon="5.9881">
        <ele>2926</ele>
        <time>2017-02-26T12:09:43.000Z</time>
      </trkpt>
      <trkpt lat="45.16851" lon="5.9881">
        <ele>2926</ele>
        <time>2017-02-26T12:09:53.000Z</time>
      </trkpt>
      <trkpt lat="45.16851" lon="5.9881">
        <ele>2927</ele>
        <time>2017-02-26T12:10:03.000Z</time>
      </trkpt>
      <trkpt lat="45.16851" lon="5.9881">
        <ele>2927</ele>
        <time>2017-02-26T12:10:13.000Z</time>
      </trkpt>
      <trkpt lat="45.16851" lon="5.9881">
        <ele>2925</ele>
        <time>2017-02-26T12:10:23.000Z</time>
      </trkpt>
      <trkpt lat="45.16851" lon="5.9881">
        <ele>2927</ele>
        <time>2017-02-26T12:10:33.000Z</time>
      </trkpt>
      <trkpt lat="45.16851" lon="5.9881">
        <ele>2927</ele>
        <time>2017-02-26T12:10:43.000Z</time>
      </trkpt>
      <trkpt lat="45.16851" lon="5.9881">
        <ele>2927</ele>
        <time>2017-02-26T12:10:53.000Z</time>
      </trkpt>
      <trkpt lat="45.16851" lon="5.9881">
        <ele>2926</ele>
        <time>2017-02-26T12:11:03.000Z</time>
      </trkpt>
      <trkpt lat="45.16851" lon="5.9881">
        <ele>2926</ele>
        <time>2017-02-26T12:11:13.000Z</time>
      </trkpt>
      <trkpt lat="45.16851" lon="5.9881">
        <ele>2927</ele>
        <time>2017-02-26T12:11:23.000Z</time>
      </trkpt>
      <trkpt lat="45.16851" lon="5.9881">
        <ele>2927</ele>
        <time>2017-02-26T12:11:33.000Z</time>
      </trkpt>
      <trkpt lat="45.16851" lon="5.9881">
        <ele>2927</ele>
        <time>2017-02-26T12:11:43.000Z</time>
      </trkpt>
      <trkpt lat="45.16851" lon="5.9881">
        <ele>2927</ele>
        <time>2017-02-26T12:11:53.000Z</time>
      </trkpt>
      <trkpt lat="45.16851" lon="5.9881">
        <ele>2928</ele>
        <time>2017-02-26T12:12:03.000Z</time>
      </trkpt>
      <trkpt lat="45.16851" lon="5.9881">
        <ele>2928</ele>
        <time>2017-02-26T12:12:13.000Z</time>
      </trkpt>
      <trkpt lat="45.16849" lon="5.98813">
        <ele>2928</ele>
        <time>2017-02-26T12:12:20.000Z</time>
      </trkpt>
      <trkpt lat="45.16849" lon="5.98813">
        <ele>2927</ele>
        <time>2017-02-26T12:12:23.000Z</time>
      </trkpt>
      <trkpt lat="45.16849" lon="5.98813">
        <ele>2928</ele>
        <time>2017-02-26T12:12:33.000Z</time>
      </trkpt>
      <trkpt lat="45.16849" lon="5.98813">
        <ele>2928</ele>
        <time>2017-02-26T12:12:43.000Z</time>
      </trkpt>
      <trkpt lat="45.16849" lon="5.98813">
        <ele>2928</ele>
        <time>2017-02-26T12:12:53.000Z</time>
      </trkpt>
      <trkpt lat="45.16849" lon="5.98813">
        <ele>2927</ele>
        <time>2017-02-26T12:13:03.000Z</time>
      </trkpt>
      <trkpt lat="45.16849" lon="5.98813">
        <ele>2927</ele>
        <time>2017-02-26T12:13:13.000Z</time>
      </trkpt>
      <trkpt lat="45.16849" lon="5.98813">
        <ele>2927</ele>
        <time>2017-02-26T12:13:23.000Z</time>
      </trkpt>
      <trkpt lat="45.16849" lon="5.98813">
        <ele>2927</ele>
        <time>2017-02-26T12:13:33.000Z</time>
      </trkpt>
      <trkpt lat="45.16849" lon="5.98813">
        <ele>2927</ele>
        <time>2017-02-26T12:13:43.000Z</time>
      </trkpt>
      <trkpt lat="45.16849" lon="5.98813">
        <ele>2927</ele>
        <time>2017-02-26T12:13:53.000Z</time>
      </trkpt>
      <trkpt lat="45.16849" lon="5.98813">
        <ele>2926</ele>
        <time>2017-02-26T12:14:03.000Z</time>
      </trkpt>
      <trkpt lat="45.16849" lon="5.98813">
        <ele>2926</ele>
        <time>2017-02-26T12:14:13.000Z</time>
      </trkpt>
      <trkpt lat="45.16849" lon="5.98813">
        <ele>2928</ele>
        <time>2017-02-26T12:14:23.000Z</time>
      </trkpt>
      <trkpt lat="45.16849" lon="5.98813">
        <ele>2926</ele>
        <time>2017-02-26T12:14:33.000Z</time>
      </trkpt>
      <trkpt lat="45.16849" lon="5.98813">
        <ele>2926</ele>
        <time>2017-02-26T12:14:43.000Z</time>
      </trkpt>
      <trkpt lat="45.16849" lon="5.98813">
        <ele>2925</ele>
        <time>2017-02-26T12:14:53.000Z</time>
      </trkpt>
      <trkpt lat="45.16849" lon="5.98813">
        <ele>2927</ele>
        <time>2017-02-26T12:15:03.000Z</time>
      </trkpt>
      <trkpt lat="45.16849" lon="5.98813">
        <ele>2927</ele>
        <time>2017-02-26T12:15:13.000Z</time>
      </trkpt>
      <trkpt lat="45.16849" lon="5.98813">
        <ele>2928</ele>
        <time>2017-02-26T12:15:23.000Z</time>
      </trkpt>
      <trkpt lat="45.16849" lon="5.98813">
        <ele>2928</ele>
        <time>2017-02-26T12:15:33.000Z</time>
      </trkpt>
      <trkpt lat="45.16849" lon="5.98813">
        <ele>2928</ele>
        <time>2017-02-26T12:15:43.000Z</time>
      </trkpt>
      <trkpt lat="45.16843" lon="5.9881">
        <ele>2928</ele>
        <time>2017-02-26T12:15:48.000Z</time>
      </trkpt>
      <trkpt lat="45.16843" lon="5.9881">
        <ele>2926</ele>
        <time>2017-02-26T12:15:53.000Z</time>
      </trkpt>
      <trkpt lat="45.16823" lon="5.98803">
        <ele>2926</ele>
        <time>2017-02-26T12:15:56.000Z</time>
      </trkpt>
      <trkpt lat="45.1682" lon="5.98804">
        <ele>2919</ele>
        <time>2017-02-26T12:16:03.000Z</time>
      </trkpt>
      <trkpt lat="45.16818" lon="5.98804">
        <ele>2919</ele>
        <time>2017-02-26T12:16:04.000Z</time>
      </trkpt>
      <trkpt lat="45.16796" lon="5.98781">
        <ele>2919</ele>
        <time>2017-02-26T12:16:12.000Z</time>
      </trkpt>
      <trkpt lat="45.16794" lon="5.9878">
        <ele>2909</ele>
        <time>2017-02-26T12:16:13.000Z</time>
      </trkpt>
      <trkpt lat="45.16783" lon="5.98771">
        <ele>2909</ele>
        <time>2017-02-26T12:16:20.000Z</time>
      </trkpt>
      <trkpt lat="45.16783" lon="5.98771">
        <ele>2901</ele>
        <time>2017-02-26T12:16:23.000Z</time>
      </trkpt>
      <trkpt lat="45.1674" lon="5.9879">
        <ele>2901</ele>
        <time>2017-02-26T12:16:28.000Z</time>
      </trkpt>
      <trkpt lat="45.1674" lon="5.9879">
        <ele>2892</ele>
        <time>2017-02-26T12:16:33.000Z</time>
      </trkpt>
      <trkpt lat="45.16731" lon="5.98752">
        <ele>2892</ele>
        <time>2017-02-26T12:16:36.000Z</time>
      </trkpt>
      <trkpt lat="45.16718" lon="5.98712">
        <ele>2870</ele>
        <time>2017-02-26T12:16:43.000Z</time>
      </trkpt>
      <trkpt lat="45.16704" lon="5.98672">
        <ele>2870</ele>
        <time>2017-02-26T12:16:44.000Z</time>
      </trkpt>
      <trkpt lat="45.16669" lon="5.98632">
        <ele>2870</ele>
        <time>2017-02-26T12:16:52.000Z</time>
      </trkpt>
      <trkpt lat="45.16668" lon="5.98625">
        <ele>2855</ele>
        <time>2017-02-26T12:16:53.000Z</time>
      </trkpt>
      <trkpt lat="45.16664" lon="5.9858">
        <ele>2855</ele>
        <time>2017-02-26T12:17:00.000Z</time>
      </trkpt>
      <trkpt lat="45.16664" lon="5.9858">
        <ele>2849</ele>
        <time>2017-02-26T12:17:03.000Z</time>
      </trkpt>
      <trkpt lat="45.1665" lon="5.98535">
        <ele>2849</ele>
        <time>2017-02-26T12:17:08.000Z</time>
      </trkpt>
      <trkpt lat="45.16649" lon="5.98508">
        <ele>2834</ele>
        <time>2017-02-26T12:17:13.000Z</time>
      </trkpt>
      <trkpt lat="45.16647" lon="5.98482">
        <ele>2834</ele>
        <time>2017-02-26T12:17:16.000Z</time>
      </trkpt>
      <trkpt lat="45.16633" lon="5.98444">
        <ele>2819</ele>
        <time>2017-02-26T12:17:23.000Z</time>
      </trkpt>
      <trkpt lat="45.16619" lon="5.98407">
        <ele>2819</ele>
        <time>2017-02-26T12:17:24.000Z</time>
      </trkpt>
      <trkpt lat="45.16606" lon="5.98282">
        <ele>2819</ele>
        <time>2017-02-26T12:17:32.000Z</time>
      </trkpt>
      <trkpt lat="45.166" lon="5.98264">
        <ele>2809</ele>
        <time>2017-02-26T12:17:33.000Z</time>
      </trkpt>
      <trkpt lat="45.16595" lon="5.98246">
        <ele>2805</ele>
        <time>2017-02-26T12:17:43.000Z</time>
      </trkpt>
      <trkpt lat="45.1659" lon="5.98229">
        <ele>2805</ele>
        <time>2017-02-26T12:17:44.000Z</time>
      </trkpt>
      <trkpt lat="45.16574" lon="5.98178">
        <ele>2805</ele>
        <time>2017-02-26T12:17:52.000Z</time>
      </trkpt>
      <trkpt lat="45.16572" lon="5.98176">
        <ele>2801</ele>
        <time>2017-02-26T12:17:53.000Z</time>
      </trkpt>
      <trkpt lat="45.16563" lon="5.98161">
        <ele>2801</ele>
        <time>2017-02-26T12:18:00.000Z</time>
      </trkpt>
      <trkpt lat="45.16563" lon="5.98161">
        <ele>2797</ele>
        <time>2017-02-26T12:18:03.000Z</time>
      </trkpt>
      <trkpt lat="45.16572" lon="5.98138">
        <ele>2797</ele>
        <time>2017-02-26T12:18:08.000Z</time>
      </trkpt>
      <trkpt lat="45.16572" lon="5.98138">
        <ele>2787</ele>
        <time>2017-02-26T12:18:13.000Z</time>
      </trkpt>
      <trkpt lat="45.16557" lon="5.98098">
        <ele>2787</ele>
        <time>2017-02-26T12:18:16.000Z</time>
      </trkpt>
      <trkpt lat="45.16564" lon="5.98047">
        <ele>2761</ele>
        <time>2017-02-26T12:18:23.000Z</time>
      </trkpt>
      <trkpt lat="45.16571" lon="5.97996">
        <ele>2761</ele>
        <time>2017-02-26T12:18:24.000Z</time>
      </trkpt>
      <trkpt lat="45.16556" lon="5.97908">
        <ele>2761</ele>
        <time>2017-02-26T12:18:32.000Z</time>
      </trkpt>
      <trkpt lat="45.16555" lon="5.97906">
        <ele>2752</ele>
        <time>2017-02-26T12:18:33.000Z</time>
      </trkpt>
      <trkpt lat="45.16548" lon="5.97887">
        <ele>2752</ele>
        <time>2017-02-26T12:18:40.000Z</time>
      </trkpt>
      <trkpt lat="45.16548" lon="5.97887">
        <ele>2749</ele>
        <time>2017-02-26T12:18:43.000Z</time>
      </trkpt>
      <trkpt lat="45.16557" lon="5.9782">
        <ele>2749</ele>
        <time>2017-02-26T12:18:48.000Z</time>
      </trkpt>
      <trkpt lat="45.1656" lon="5.97794">
        <ele>2735</ele>
        <time>2017-02-26T12:18:53.000Z</time>
      </trkpt>
      <trkpt lat="45.16562" lon="5.97767">
        <ele>2735</ele>
        <time>2017-02-26T12:18:56.000Z</time>
      </trkpt>
      <trkpt lat="45.16561" lon="5.97746">
        <ele>2728</ele>
        <time>2017-02-26T12:19:03.000Z</time>
      </trkpt>
      <trkpt lat="45.16561" lon="5.97725">
        <ele>2728</ele>
        <time>2017-02-26T12:19:04.000Z</time>
      </trkpt>
      <trkpt lat="45.16561" lon="5.97725">
        <ele>2717</ele>
        <time>2017-02-26T12:19:13.000Z</time>
      </trkpt>
      <trkpt lat="45.16552" lon="5.97697">
        <ele>2717</ele>
        <time>2017-02-26T12:19:16.000Z</time>
      </trkpt>
      <trkpt lat="45.16546" lon="5.97674">
        <ele>2706</ele>
        <time>2017-02-26T12:19:23.000Z</time>
      </trkpt>
      <trkpt lat="45.16539" lon="5.97651">
        <ele>2706</ele>
        <time>2017-02-26T12:19:24.000Z</time>
      </trkpt>
      <trkpt lat="45.16557" lon="5.97603">
        <ele>2706</ele>
        <time>2017-02-26T12:19:32.000Z</time>
      </trkpt>
      <trkpt lat="45.16556" lon="5.97599">
        <ele>2679</ele>
        <time>2017-02-26T12:19:33.000Z</time>
      </trkpt>
      <trkpt lat="45.16545" lon="5.9757">
        <ele>2679</ele>
        <time>2017-02-26T12:19:40.000Z</time>
      </trkpt>
      <trkpt lat="45.16545" lon="5.9757">
        <ele>2664</ele>
        <time>2017-02-26T12:19:43.000Z</time>
      </trkpt>
      <trkpt lat="45.16535" lon="5.97582">
        <ele>2664</ele>
        <time>2017-02-26T12:19:48.000Z</time>
      </trkpt>
      <trkpt lat="45.16535" lon="5.97582">
        <ele>2658</ele>
        <time>2017-02-26T12:19:53.000Z</time>
      </trkpt>
      <trkpt lat="45.16516" lon="5.9756">
        <ele>2658</ele>
        <time>2017-02-26T12:19:56.000Z</time>
      </trkpt>
      <trkpt lat="45.16507" lon="5.9754">
        <ele>2643</ele>
        <time>2017-02-26T12:20:03.000Z</time>
      </trkpt>
      <trkpt lat="45.16497" lon="5.97521">
        <ele>2643</ele>
        <time>2017-02-26T12:20:04.000Z</time>
      </trkpt>
      <trkpt lat="45.16449" lon="5.97501">
        <ele>2643</ele>
        <time>2017-02-26T12:20:12.000Z</time>
      </trkpt>
      <trkpt lat="45.16447" lon="5.97498">
        <ele>2633</ele>
        <time>2017-02-26T12:20:13.000Z</time>
      </trkpt>
      <trkpt lat="45.16427" lon="5.97477">
        <ele>2633</ele>
        <time>2017-02-26T12:20:20.000Z</time>
      </trkpt>
      <trkpt lat="45.16427" lon="5.97477">
        <ele>2622</ele>
        <time>2017-02-26T12:20:23.000Z</time>
      </trkpt>
      <trkpt lat="45.16449" lon="5.97395">
        <ele>2622</ele>
        <time>2017-02-26T12:20:28.000Z</time>
      </trkpt>
      <trkpt lat="45.16447" lon="5.97361">
        <ele>2602</ele>
        <time>2017-02-26T12:20:33.000Z</time>
      </trkpt>
      <trkpt lat="45.16446" lon="5.97327">
        <ele>2602</ele>
        <time>2017-02-26T12:20:36.000Z</time>
      </trkpt>
      <trkpt lat="45.1645" lon="5.97309">
        <ele>2596</ele>
        <time>2017-02-26T12:20:43.000Z</time>
      </trkpt>
      <trkpt lat="45.16454" lon="5.97292">
        <ele>2596</ele>
        <time>2017-02-26T12:20:44.000Z</time>
      </trkpt>
      <trkpt lat="45.16463" lon="5.97261">
        <ele>2596</ele>
        <time>2017-02-26T12:20:52.000Z</time>
      </trkpt>
      <trkpt lat="45.16471" lon="5.97252">
        <ele>2586</ele>
        <time>2017-02-26T12:20:53.000Z</time>
      </trkpt>
      <trkpt lat="45.1648" lon="5.97243">
        <ele>2574</ele>
        <time>2017-02-26T12:21:03.000Z</time>
      </trkpt>
      <trkpt lat="45.16488" lon="5.97234">
        <ele>2574</ele>
        <time>2017-02-26T12:21:04.000Z</time>
      </trkpt>
      <trkpt lat="45.16504" lon="5.97275">
        <ele>2574</ele>
        <time>2017-02-26T12:21:12.000Z</time>
      </trkpt>
      <trkpt lat="45.16509" lon="5.97282">
        <ele>2562</ele>
        <time>2017-02-26T12:21:13.000Z</time>
      </trkpt>
      <trkpt lat="45.16543" lon="5.97336">
        <ele>2562</ele>
        <time>2017-02-26T12:21:20.000Z</time>
      </trkpt>
      <trkpt lat="45.16543" lon="5.97336">
        <ele>2552</ele>
        <time>2017-02-26T12:21:23.000Z</time>
      </trkpt>
      <trkpt lat="45.16551" lon="5.97328">
        <ele>2552</ele>
        <time>2017-02-26T12:21:28.000Z</time>
      </trkpt>
      <trkpt lat="45.16562" lon="5.97308">
        <ele>2540</ele>
        <time>2017-02-26T12:21:33.000Z</time>
      </trkpt>
      <trkpt lat="45.16574" lon="5.97288">
        <ele>2540</ele>
        <time>2017-02-26T12:21:36.000Z</time>
      </trkpt>
      <trkpt lat="45.16594" lon="5.97302">
        <ele>2526</ele>
        <time>2017-02-26T12:21:43.000Z</time>
      </trkpt>
      <trkpt lat="45.16614" lon="5.97315">
        <ele>2526</ele>
        <time>2017-02-26T12:21:44.000Z</time>
      </trkpt>
      <trkpt lat="45.16679" lon="5.97329">
        <ele>2526</ele>
        <time>2017-02-26T12:21:52.000Z</time>
      </trkpt>
      <trkpt lat="45.16682" lon="5.97318">
        <ele>2513</ele>
        <time>2017-02-26T12:21:53.000Z</time>
      </trkpt>
      <trkpt lat="45.16701" lon="5.97237">
        <ele>2513</ele>
        <time>2017-02-26T12:22:00.000Z</time>
      </trkpt>
      <trkpt lat="45.16701" lon="5.97237">
        <ele>2500</ele>
        <time>2017-02-26T12:22:03.000Z</time>
      </trkpt>
      <trkpt lat="45.16689" lon="5.97179">
        <ele>2500</ele>
        <time>2017-02-26T12:22:08.000Z</time>
      </trkpt>
      <trkpt lat="45.16684" lon="5.97151">
        <ele>2490</ele>
        <time>2017-02-26T12:22:13.000Z</time>
      </trkpt>
      <trkpt lat="45.16679" lon="5.97123">
        <ele>2490</ele>
        <time>2017-02-26T12:22:16.000Z</time>
      </trkpt>
      <trkpt lat="45.16677" lon="5.97094">
        <ele>2483</ele>
        <time>2017-02-26T12:22:23.000Z</time>
      </trkpt>
      <trkpt lat="45.16675" lon="5.97065">
        <ele>2483</ele>
        <time>2017-02-26T12:22:24.000Z</time>
      </trkpt>
      <trkpt lat="45.16677" lon="5.97028">
        <ele>2483</ele>
        <time>2017-02-26T12:22:32.000Z</time>
      </trkpt>
      <trkpt lat="45.16679" lon="5.97021">
        <ele>2479</ele>
        <time>2017-02-26T12:22:33.000Z</time>
      </trkpt>
      <trkpt lat="45.16691" lon="5.96978">
        <ele>2479</ele>
        <time>2017-02-26T12:22:40.000Z</time>
      </trkpt>
      <trkpt lat="45.16691" lon="5.96978">
        <ele>2476</ele>
        <time>2017-02-26T12:22:43.000Z</time>
      </trkpt>
      <trkpt lat="45.16729" lon="5.96914">
        <ele>2476</ele>
        <time>2017-02-26T12:22:48.000Z</time>
      </trkpt>
      <trkpt lat="45.16757" lon="5.96907">
        <ele>2463</ele>
        <time>2017-02-26T12:22:53.000Z</time>
      </trkpt>
      <trkpt lat="45.16785" lon="5.969">
        <ele>2463</ele>
        <time>2017-02-26T12:22:56.000Z</time>
      </trkpt>
      <trkpt lat="45.16798" lon="5.9687">
        <ele>2458</ele>
        <time>2017-02-26T12:23:03.000Z</time>
      </trkpt>
      <trkpt lat="45.16811" lon="5.96841">
        <ele>2458</ele>
        <time>2017-02-26T12:23:04.000Z</time>
      </trkpt>
      <trkpt lat="45.16811" lon="5.96841">
        <ele>2456</ele>
        <time>2017-02-26T12:23:13.000Z</time>
      </trkpt>
      <trkpt lat="45.16813" lon="5.968">
        <ele>2456</ele>
        <time>2017-02-26T12:23:16.000Z</time>
      </trkpt>
      <trkpt lat="45.16813" lon="5.968">
        <ele>2457</ele>
        <time>2017-02-26T12:23:23.000Z</time>
      </trkpt>
      <trkpt lat="45.16822" lon="5.96773">
        <ele>2457</ele>
        <time>2017-02-26T12:23:28.000Z</time>
      </trkpt>
      <trkpt lat="45.16829" lon="5.96748">
        <ele>2456</ele>
        <time>2017-02-26T12:23:33.000Z</time>
      </trkpt>
      <trkpt lat="45.16835" lon="5.96723">
        <ele>2456</ele>
        <time>2017-02-26T12:23:36.000Z</time>
      </trkpt>
      <trkpt lat="45.16837" lon="5.96713">
        <ele>2455</ele>
        <time>2017-02-26T12:23:43.000Z</time>
      </trkpt>
      <trkpt lat="45.16838" lon="5.96703">
        <ele>2455</ele>
        <time>2017-02-26T12:23:44.000Z</time>
      </trkpt>
      <trkpt lat="45.16838" lon="5.96703">
        <ele>2454</ele>
        <time>2017-02-26T12:23:53.000Z</time>
      </trkpt>
      <trkpt lat="45.16838" lon="5.96689">
        <ele>2454</ele>
        <time>2017-02-26T12:23:56.000Z</time>
      </trkpt>
      <trkpt lat="45.16838" lon="5.96689">
        <ele>2455</ele>
        <time>2017-02-26T12:24:03.000Z</time>
      </trkpt>
      <trkpt lat="45.1684" lon="5.96677">
        <ele>2455</ele>
        <time>2017-02-26T12:24:08.000Z</time>
      </trkpt>
      <trkpt lat="45.1684" lon="5.96677">
        <ele>2455</ele>
        <time>2017-02-26T12:24:13.000Z</time>
      </trkpt>
      <trkpt lat="45.16855" lon="5.96663">
        <ele>2455</ele>
        <time>2017-02-26T12:24:16.000Z</time>
      </trkpt>
      <trkpt lat="45.16855" lon="5.96663">
        <ele>2453</ele>
        <time>2017-02-26T12:24:23.000Z</time>
      </trkpt>
      <trkpt lat="45.16855" lon="5.96663">
        <ele>2454</ele>
        <time>2017-02-26T12:24:33.000Z</time>
      </trkpt>
      <trkpt lat="45.16855" lon="5.96663">
        <ele>2454</ele>
        <time>2017-02-26T12:24:43.000Z</time>
      </trkpt>
      <trkpt lat="45.16855" lon="5.96663">
        <ele>2453</ele>
        <time>2017-02-26T12:24:53.000Z</time>
      </trkpt>
      <trkpt lat="45.16855" lon="5.96663">
        <ele>2453</ele>
        <time>2017-02-26T12:25:03.000Z</time>
      </trkpt>
      <trkpt lat="45.16855" lon="5.96663">
        <ele>2453</ele>
        <time>2017-02-26T12:25:13.000Z</time>
      </trkpt>
      <trkpt lat="45.16855" lon="5.96663">
        <ele>2451</ele>
        <time>2017-02-26T12:25:23.000Z</time>
      </trkpt>
      <trkpt lat="45.16855" lon="5.96663">
        <ele>2452</ele>
        <time>2017-02-26T12:25:33.000Z</time>
      </trkpt>
      <trkpt lat="45.16855" lon="5.96663">
        <ele>2452</ele>
        <time>2017-02-26T12:25:43.000Z</time>
      </trkpt>
      <trkpt lat="45.16855" lon="5.96663">
        <ele>2454</ele>
        <time>2017-02-26T12:25:53.000Z</time>
      </trkpt>
      <trkpt lat="45.16855" lon="5.96663">
        <ele>2453</ele>
        <time>2017-02-26T12:26:03.000Z</time>
      </trkpt>
      <trkpt lat="45.16855" lon="5.96663">
        <ele>2453</ele>
        <time>2017-02-26T12:26:13.000Z</time>
      </trkpt>
      <trkpt lat="45.16855" lon="5.96663">
        <ele>2453</ele>
        <time>2017-02-26T12:26:23.000Z</time>
      </trkpt>
      <trkpt lat="45.16855" lon="5.96663">
        <ele>2453</ele>
        <time>2017-02-26T12:26:33.000Z</time>
      </trkpt>
      <trkpt lat="45.16855" lon="5.96663">
        <ele>2453</ele>
        <time>2017-02-26T12:26:43.000Z</time>
      </trkpt>
      <trkpt lat="45.16855" lon="5.96663">
        <ele>2453</ele>
        <time>2017-02-26T12:26:53.000Z</time>
      </trkpt>
      <trkpt lat="45.16855" lon="5.96663">
        <ele>2453</ele>
        <time>2017-02-26T12:27:03.000Z</time>
      </trkpt>
      <trkpt lat="45.16855" lon="5.96663">
        <ele>2454</ele>
        <time>2017-02-26T12:27:13.000Z</time>
      </trkpt>
      <trkpt lat="45.16855" lon="5.96663">
        <ele>2454</ele>
        <time>2017-02-26T12:27:23.000Z</time>
      </trkpt>
      <trkpt lat="45.16855" lon="5.96663">
        <ele>2454</ele>
        <time>2017-02-26T12:27:33.000Z</time>
      </trkpt>
      <trkpt lat="45.16855" lon="5.96663">
        <ele>2453</ele>
        <time>2017-02-26T12:27:43.000Z</time>
      </trkpt>
      <trkpt lat="45.16855" lon="5.96663">
        <ele>2453</ele>
        <time>2017-02-26T12:27:53.000Z</time>
      </trkpt>
      <trkpt lat="45.16855" lon="5.96663">
        <ele>2454</ele>
        <time>2017-02-26T12:28:03.000Z</time>
      </trkpt>
      <trkpt lat="45.16855" lon="5.96663">
        <ele>2454</ele>
        <time>2017-02-26T12:28:13.000Z</time>
      </trkpt>
      <trkpt lat="45.16855" lon="5.96663">
        <ele>2452</ele>
        <time>2017-02-26T12:28:23.000Z</time>
      </trkpt>
      <trkpt lat="45.16855" lon="5.96663">
        <ele>2453</ele>
        <time>2017-02-26T12:28:33.000Z</time>
      </trkpt>
      <trkpt lat="45.16855" lon="5.96663">
        <ele>2453</ele>
        <time>2017-02-26T12:28:43.000Z</time>
      </trkpt>
      <trkpt lat="45.16855" lon="5.96663">
        <ele>2453</ele>
        <time>2017-02-26T12:28:53.000Z</time>
      </trkpt>
      <trkpt lat="45.16855" lon="5.96663">
        <ele>2454</ele>
        <time>2017-02-26T12:29:03.000Z</time>
      </trkpt>
      <trkpt lat="45.16855" lon="5.96663">
        <ele>2454</ele>
        <time>2017-02-26T12:29:13.000Z</time>
      </trkpt>
      <trkpt lat="45.16855" lon="5.96663">
        <ele>2452</ele>
        <time>2017-02-26T12:29:23.000Z</time>
      </trkpt>
      <trkpt lat="45.16855" lon="5.96663">
        <ele>2452</ele>
        <time>2017-02-26T12:29:33.000Z</time>
      </trkpt>
      <trkpt lat="45.16855" lon="5.96663">
        <ele>2452</ele>
        <time>2017-02-26T12:29:43.000Z</time>
      </trkpt>
      <trkpt lat="45.16855" lon="5.96663">
        <ele>2452</ele>
        <time>2017-02-26T12:29:53.000Z</time>
      </trkpt>
      <trkpt lat="45.16855" lon="5.96663">
        <ele>2453</ele>
        <time>2017-02-26T12:30:03.000Z</time>
      </trkpt>
      <trkpt lat="45.16855" lon="5.96663">
        <ele>2452</ele>
        <time>2017-02-26T12:30:13.000Z</time>
      </trkpt>
      <trkpt lat="45.16855" lon="5.96663">
        <ele>2452</ele>
        <time>2017-02-26T12:30:23.000Z</time>
      </trkpt>
      <trkpt lat="45.16855" lon="5.96663">
        <ele>2452</ele>
        <time>2017-02-26T12:30:33.000Z</time>
      </trkpt>
      <trkpt lat="45.16855" lon="5.96663">
        <ele>2453</ele>
        <time>2017-02-26T12:30:43.000Z</time>
      </trkpt>
      <trkpt lat="45.16864" lon="5.96649">
        <ele>2453</ele>
        <time>2017-02-26T12:30:52.000Z</time>
      </trkpt>
      <trkpt lat="45.16864" lon="5.96649">
        <ele>2454</ele>
        <time>2017-02-26T12:30:53.000Z</time>
      </trkpt>
      <trkpt lat="45.1687" lon="5.96643">
        <ele>2454</ele>
        <time>2017-02-26T12:31:00.000Z</time>
      </trkpt>
      <trkpt lat="45.1687" lon="5.96643">
        <ele>2456</ele>
        <time>2017-02-26T12:31:03.000Z</time>
      </trkpt>
      <trkpt lat="45.16874" lon="5.96638">
        <ele>2456</ele>
        <time>2017-02-26T12:31:12.000Z</time>
      </trkpt>
      <trkpt lat="45.16874" lon="5.96638">
        <ele>2458</ele>
        <time>2017-02-26T12:31:13.000Z</time>
      </trkpt>
      <trkpt lat="45.16874" lon="5.96638">
        <ele>2459</ele>
        <time>2017-02-26T12:31:23.000Z</time>
      </trkpt>
      <trkpt lat="45.1688" lon="5.96631">
        <ele>2459</ele>
        <time>2017-02-26T12:31:28.000Z</time>
      </trkpt>
      <trkpt lat="45.1688" lon="5.96631">
        <ele>2459</ele>
        <time>2017-02-26T12:31:33.000Z</time>
      </trkpt>
      <trkpt lat="45.16884" lon="5.96627">
        <ele>2459</ele>
        <time>2017-02-26T12:31:36.000Z</time>
      </trkpt>
      <trkpt lat="45.16884" lon="5.96627">
        <ele>2461</ele>
        <time>2017-02-26T12:31:43.000Z</time>
      </trkpt>
      <trkpt lat="45.1689" lon="5.96616">
        <ele>2461</ele>
        <time>2017-02-26T12:31:48.000Z</time>
      </trkpt>
      <trkpt lat="45.1689" lon="5.96616">
        <ele>2463</ele>
        <time>2017-02-26T12:31:53.000Z</time>
      </trkpt>
      <trkpt lat="45.16897" lon="5.96609">
        <ele>2463</ele>
        <time>2017-02-26T12:32:00.000Z</time>
      </trkpt>
      <trkpt lat="45.16897" lon="5.96609">
        <ele>2464</ele>
        <time>2017-02-26T12:32:03.000Z</time>
      </trkpt>
      <trkpt lat="45.16903" lon="5.96602">
        <ele>2464</ele>
        <time>2017-02-26T12:32:12.000Z</time>
      </trkpt>
      <trkpt lat="45.16903" lon="5.96602">
        <ele>2466</ele>
        <time>2017-02-26T12:32:13.000Z</time>
      </trkpt>
      <trkpt lat="45.16903" lon="5.96602">
        <ele>2467</ele>
        <time>2017-02-26T12:32:23.000Z</time>
      </trkpt>
      <trkpt lat="45.16912" lon="5.96591">
        <ele>2467</ele>
        <time>2017-02-26T12:32:28.000Z</time>
      </trkpt>
      <trkpt lat="45.16912" lon="5.96591">
        <ele>2468</ele>
        <time>2017-02-26T12:32:33.000Z</time>
      </trkpt>
      <trkpt lat="45.16912" lon="5.96591">
        <ele>2470</ele>
        <time>2017-02-26T12:32:43.000Z</time>
      </trkpt>
      <trkpt lat="45.16921" lon="5.96579">
        <ele>2470</ele>
        <time>2017-02-26T12:32:48.000Z</time>
      </trkpt>
      <trkpt lat="45.16924" lon="5.96576">
        <ele>2472</ele>
        <time>2017-02-26T12:32:53.000Z</time>
      </trkpt>
      <trkpt lat="45.16927" lon="5.96573">
        <ele>2474</ele>
        <time>2017-02-26T12:33:03.000Z</time>
      </trkpt>
      <trkpt lat="45.1693" lon="5.96571">
        <ele>2474</ele>
        <time>2017-02-26T12:33:04.000Z</time>
      </trkpt>
      <trkpt lat="45.16933" lon="5.96568">
        <ele>2475</ele>
        <time>2017-02-26T12:33:13.000Z</time>
      </trkpt>
      <trkpt lat="45.16936" lon="5.96565">
        <ele>2477</ele>
        <time>2017-02-26T12:33:23.000Z</time>
      </trkpt>
      <trkpt lat="45.16939" lon="5.96562">
        <ele>2477</ele>
        <time>2017-02-26T12:33:24.000Z</time>
      </trkpt>
      <trkpt lat="45.16939" lon="5.96562">
        <ele>2479</ele>
        <time>2017-02-26T12:33:33.000Z</time>
      </trkpt>
      <trkpt lat="45.16942" lon="5.96547">
        <ele>2479</ele>
        <time>2017-02-26T12:33:40.000Z</time>
      </trkpt>
      <trkpt lat="45.16942" lon="5.96547">
        <ele>2481</ele>
        <time>2017-02-26T12:33:43.000Z</time>
      </trkpt>
      <trkpt lat="45.16942" lon="5.96547">
        <ele>2484</ele>
        <time>2017-02-26T12:33:53.000Z</time>
      </trkpt>
      <trkpt lat="45.16944" lon="5.96535">
        <ele>2484</ele>
        <time>2017-02-26T12:33:56.000Z</time>
      </trkpt>
      <trkpt lat="45.16944" lon="5.96535">
        <ele>2485</ele>
        <time>2017-02-26T12:34:03.000Z</time>
      </trkpt>
      <trkpt lat="45.16944" lon="5.96535">
        <ele>2487</ele>
        <time>2017-02-26T12:34:13.000Z</time>
      </trkpt>
      <trkpt lat="45.16945" lon="5.96521">
        <ele>2487</ele>
        <time>2017-02-26T12:34:16.000Z</time>
      </trkpt>
      <trkpt lat="45.16945" lon="5.96521">
        <ele>2489</ele>
        <time>2017-02-26T12:34:23.000Z</time>
      </trkpt>
      <trkpt lat="45.16945" lon="5.96521">
        <ele>2491</ele>
        <time>2017-02-26T12:34:33.000Z</time>
      </trkpt>
      <trkpt lat="45.16943" lon="5.96506">
        <ele>2491</ele>
        <time>2017-02-26T12:34:36.000Z</time>
      </trkpt>
      <trkpt lat="45.16943" lon="5.96503">
        <ele>2491</ele>
        <time>2017-02-26T12:34:43.000Z</time>
      </trkpt>
      <trkpt lat="45.16944" lon="5.96499">
        <ele>2492</ele>
        <time>2017-02-26T12:34:53.000Z</time>
      </trkpt>
      <trkpt lat="45.16944" lon="5.96495">
        <ele>2493</ele>
        <time>2017-02-26T12:35:03.000Z</time>
      </trkpt>
      <trkpt lat="45.16944" lon="5.96492">
        <ele>2493</ele>
        <time>2017-02-26T12:35:04.000Z</time>
      </trkpt>
      <trkpt lat="45.16944" lon="5.96486">
        <ele>2494</ele>
        <time>2017-02-26T12:35:13.000Z</time>
      </trkpt>
      <trkpt lat="45.16945" lon="5.9648">
        <ele>2497</ele>
        <time>2017-02-26T12:35:23.000Z</time>
      </trkpt>
      <trkpt lat="45.16945" lon="5.96474">
        <ele>2497</ele>
        <time>2017-02-26T12:35:24.000Z</time>
      </trkpt>
      <trkpt lat="45.16945" lon="5.96474">
        <ele>2499</ele>
        <time>2017-02-26T12:35:33.000Z</time>
      </trkpt>
      <trkpt lat="45.16945" lon="5.96474">
        <ele>2500</ele>
        <time>2017-02-26T12:35:43.000Z</time>
      </trkpt>
      <trkpt lat="45.16943" lon="5.9646">
        <ele>2500</ele>
        <time>2017-02-26T12:35:52.000Z</time>
      </trkpt>
      <trkpt lat="45.16943" lon="5.9646">
        <ele>2500</ele>
        <time>2017-02-26T12:35:53.000Z</time>
      </trkpt>
      <trkpt lat="45.16943" lon="5.9646">
        <ele>2501</ele>
        <time>2017-02-26T12:36:03.000Z</time>
      </trkpt>
      <trkpt lat="45.16949" lon="5.96446">
        <ele>2501</ele>
        <time>2017-02-26T12:36:08.000Z</time>
      </trkpt>
      <trkpt lat="45.16949" lon="5.96441">
        <ele>2503</ele>
        <time>2017-02-26T12:36:13.000Z</time>
      </trkpt>
      <trkpt lat="45.16949" lon="5.96436">
        <ele>2506</ele>
        <time>2017-02-26T12:36:23.000Z</time>
      </trkpt>
      <trkpt lat="45.16948" lon="5.96431">
        <ele>2506</ele>
        <time>2017-02-26T12:36:24.000Z</time>
      </trkpt>
      <trkpt lat="45.16948" lon="5.96431">
        <ele>2507</ele>
        <time>2017-02-26T12:36:33.000Z</time>
      </trkpt>
      <trkpt lat="45.16948" lon="5.96431">
        <ele>2510</ele>
        <time>2017-02-26T12:36:43.000Z</time>
      </trkpt>
      <trkpt lat="45.16958" lon="5.96437">
        <ele>2510</ele>
        <time>2017-02-26T12:36:48.000Z</time>
      </trkpt>
      <trkpt lat="45.1696" lon="5.96439">
        <ele>2511</ele>
        <time>2017-02-26T12:36:53.000Z</time>
      </trkpt>
      <trkpt lat="45.16963" lon="5.96442">
        <ele>2513</ele>
        <time>2017-02-26T12:37:03.000Z</time>
      </trkpt>
      <trkpt lat="45.16965" lon="5.96444">
        <ele>2513</ele>
        <time>2017-02-26T12:37:04.000Z</time>
      </trkpt>
      <trkpt lat="45.16965" lon="5.96444">
        <ele>2514</ele>
        <time>2017-02-26T12:37:13.000Z</time>
      </trkpt>
      <trkpt lat="45.16975" lon="5.96447">
        <ele>2514</ele>
        <time>2017-02-26T12:37:20.000Z</time>
      </trkpt>
      <trkpt lat="45.16975" lon="5.96447">
        <ele>2516</ele>
        <time>2017-02-26T12:37:23.000Z</time>
      </trkpt>
      <trkpt lat="45.16975" lon="5.96447">
        <ele>2517</ele>
        <time>2017-02-26T12:37:33.000Z</time>
      </trkpt>
      <trkpt lat="45.16982" lon="5.96456">
        <ele>2517</ele>
        <time>2017-02-26T12:37:36.000Z</time>
      </trkpt>
      <trkpt lat="45.16982" lon="5.96456">
        <ele>2519</ele>
        <time>2017-02-26T12:37:43.000Z</time>
      </trkpt>
      <trkpt lat="45.1699" lon="5.96464">
        <ele>2519</ele>
        <time>2017-02-26T12:37:52.000Z</time>
      </trkpt>
      <trkpt lat="45.1699" lon="5.96464">
        <ele>2520</ele>
        <time>2017-02-26T12:37:53.000Z</time>
      </trkpt>
      <trkpt lat="45.1699" lon="5.96464">
        <ele>2521</ele>
        <time>2017-02-26T12:38:03.000Z</time>
      </trkpt>
      <trkpt lat="45.1699" lon="5.96464">
        <ele>2524</ele>
        <time>2017-02-26T12:38:13.000Z</time>
      </trkpt>
      <trkpt lat="45.16996" lon="5.96456">
        <ele>2524</ele>
        <time>2017-02-26T12:38:20.000Z</time>
      </trkpt>
      <trkpt lat="45.16996" lon="5.96456">
        <ele>2527</ele>
        <time>2017-02-26T12:38:23.000Z</time>
      </trkpt>
      <trkpt lat="45.16996" lon="5.96456">
        <ele>2528</ele>
        <time>2017-02-26T12:38:33.000Z</time>
      </trkpt>
      <trkpt lat="45.16993" lon="5.96443">
        <ele>2528</ele>
        <time>2017-02-26T12:38:36.000Z</time>
      </trkpt>
      <trkpt lat="45.16993" lon="5.96443">
        <ele>2530</ele>
        <time>2017-02-26T12:38:43.000Z</time>
      </trkpt>
      <trkpt lat="45.16993" lon="5.96443">
        <ele>2532</ele>
        <time>2017-02-26T12:38:53.000Z</time>
      </trkpt>
      <trkpt lat="45.16993" lon="5.96443">
        <ele>2532</ele>
        <time>2017-02-26T12:39:03.000Z</time>
      </trkpt>
      <trkpt lat="45.16993" lon="5.96443">
        <ele>2533</ele>
        <time>2017-02-26T12:39:13.000Z</time>
      </trkpt>
      <trkpt lat="45.17003" lon="5.96446">
        <ele>2533</ele>
        <time>2017-02-26T12:39:16.000Z</time>
      </trkpt>
      <trkpt lat="45.17003" lon="5.96446">
        <ele>2536</ele>
        <time>2017-02-26T12:39:23.000Z</time>
      </trkpt>
      <trkpt lat="45.17003" lon="5.96446">
        <ele>2536</ele>
        <time>2017-02-26T12:39:33.000Z</time>
      </trkpt>
      <trkpt lat="45.17003" lon="5.96446">
        <ele>2537</ele>
        <time>2017-02-26T12:39:43.000Z</time>
      </trkpt>
      <trkpt lat="45.17003" lon="5.96446">
        <ele>2539</ele>
        <time>2017-02-26T12:39:53.000Z</time>
      </trkpt>
      <trkpt lat="45.17001" lon="5.9643">
        <ele>2539</ele>
        <time>2017-02-26T12:39:56.000Z</time>
      </trkpt>
      <trkpt lat="45.17001" lon="5.9643">
        <ele>2540</ele>
        <time>2017-02-26T12:40:03.000Z</time>
      </trkpt>
      <trkpt lat="45.16999" lon="5.96418">
        <ele>2540</ele>
        <time>2017-02-26T12:40:12.000Z</time>
      </trkpt>
      <trkpt lat="45.16999" lon="5.96418">
        <ele>2542</ele>
        <time>2017-02-26T12:40:13.000Z</time>
      </trkpt>
      <trkpt lat="45.16999" lon="5.96418">
        <ele>2545</ele>
        <time>2017-02-26T12:40:23.000Z</time>
      </trkpt>
      <trkpt lat="45.16999" lon="5.96418">
        <ele>2545</ele>
        <time>2017-02-26T12:40:33.000Z</time>
      </trkpt>
      <trkpt lat="45.16999" lon="5.96418">
        <ele>2548</ele>
        <time>2017-02-26T12:40:43.000Z</time>
      </trkpt>
      <trkpt lat="45.17008" lon="5.96413">
        <ele>2548</ele>
        <time>2017-02-26T12:40:48.000Z</time>
      </trkpt>
      <trkpt lat="45.17009" lon="5.9641">
        <ele>2550</ele>
        <time>2017-02-26T12:40:53.000Z</time>
      </trkpt>
      <trkpt lat="45.1701" lon="5.96408">
        <ele>2552</ele>
        <time>2017-02-26T12:41:03.000Z</time>
      </trkpt>
      <trkpt lat="45.17011" lon="5.96406">
        <ele>2553</ele>
        <time>2017-02-26T12:41:13.000Z</time>
      </trkpt>
      <trkpt lat="45.17013" lon="5.96404">
        <ele>2553</ele>
        <time>2017-02-26T12:41:20.000Z</time>
      </trkpt>
      <trkpt lat="45.17014" lon="5.96402">
        <ele>2555</ele>
        <time>2017-02-26T12:41:23.000Z</time>
      </trkpt>
      <trkpt lat="45.17015" lon="5.96399">
        <ele>2556</ele>
        <time>2017-02-26T12:41:33.000Z</time>
      </trkpt>
      <trkpt lat="45.17016" lon="5.96397">
        <ele>2556</ele>
        <time>2017-02-26T12:41:40.000Z</time>
      </trkpt>
      <trkpt lat="45.17017" lon="5.96395">
        <ele>2558</ele>
        <time>2017-02-26T12:41:43.000Z</time>
      </trkpt>
      <trkpt lat="45.17018" lon="5.96393">
        <ele>2561</ele>
        <time>2017-02-26T12:41:53.000Z</time>
      </trkpt>
      <trkpt lat="45.17019" lon="5.96391">
        <ele>2562</ele>
        <time>2017-02-26T12:42:03.000Z</time>
      </trkpt>
      <trkpt lat="45.1702" lon="5.96388">
        <ele>2562</ele>
        <time>2017-02-26T12:42:04.000Z</time>
      </trkpt>
      <trkpt lat="45.17023" lon="5.96391">
        <ele>2564</ele>
        <time>2017-02-26T12:42:13.000Z</time>
      </trkpt>
      <trkpt lat="45.17026" lon="5.96393">
        <ele>2564</ele>
        <time>2017-02-26T12:42:23.000Z</time>
      </trkpt>
      <trkpt lat="45.17029" lon="5.96396">
        <ele>2564</ele>
        <time>2017-02-26T12:42:24.000Z</time>
      </trkpt>
      <trkpt lat="45.17029" lon="5.96396">
        <ele>2566</ele>
        <time>2017-02-26T12:42:33.000Z</time>
      </trkpt>
      <trkpt lat="45.17036" lon="5.96405">
        <ele>2566</ele>
        <time>2017-02-26T12:42:40.000Z</time>
      </trkpt>
      <trkpt lat="45.17036" lon="5.96405">
        <ele>2568</ele>
        <time>2017-02-26T12:42:43.000Z</time>
      </trkpt>
      <trkpt lat="45.17036" lon="5.96405">
        <ele>2570</ele>
        <time>2017-02-26T12:42:53.000Z</time>
      </trkpt>
      <trkpt lat="45.17042" lon="5.96411">
        <ele>2570</ele>
        <time>2017-02-26T12:42:56.000Z</time>
      </trkpt>
      <trkpt lat="45.17042" lon="5.96408">
        <ele>2573</ele>
        <time>2017-02-26T12:43:03.000Z</time>
      </trkpt>
      <trkpt lat="45.17043" lon="5.96405">
        <ele>2574</ele>
        <time>2017-02-26T12:43:13.000Z</time>
      </trkpt>
      <trkpt lat="45.17043" lon="5.96401">
        <ele>2574</ele>
        <time>2017-02-26T12:43:23.000Z</time>
      </trkpt>
      <trkpt lat="45.17043" lon="5.96398">
        <ele>2574</ele>
        <time>2017-02-26T12:43:28.000Z</time>
      </trkpt>
      <trkpt lat="45.17044" lon="5.96394">
        <ele>2575</ele>
        <time>2017-02-26T12:43:33.000Z</time>
      </trkpt>
      <trkpt lat="45.17044" lon="5.96391">
        <ele>2576</ele>
        <time>2017-02-26T12:43:43.000Z</time>
      </trkpt>
      <trkpt lat="45.17045" lon="5.96387">
        <ele>2576</ele>
        <time>2017-02-26T12:43:44.000Z</time>
      </trkpt>
      <trkpt lat="45.17044" lon="5.96384">
        <ele>2578</ele>
        <time>2017-02-26T12:43:53.000Z</time>
      </trkpt>
      <trkpt lat="45.17044" lon="5.9638">
        <ele>2578</ele>
        <time>2017-02-26T12:44:00.000Z</time>
      </trkpt>
      <trkpt lat="45.17044" lon="5.96376">
        <ele>2580</ele>
        <time>2017-02-26T12:44:03.000Z</time>
      </trkpt>
      <trkpt lat="45.17044" lon="5.96372">
        <ele>2583</ele>
        <time>2017-02-26T12:44:13.000Z</time>
      </trkpt>
      <trkpt lat="45.17044" lon="5.96368">
        <ele>2584</ele>
        <time>2017-02-26T12:44:23.000Z</time>
      </trkpt>
      <trkpt lat="45.17044" lon="5.96364">
        <ele>2584</ele>
        <time>2017-02-26T12:44:24.000Z</time>
      </trkpt>
      <trkpt lat="45.17046" lon="5.96365">
        <ele>2584</ele>
        <time>2017-02-26T12:44:33.000Z</time>
      </trkpt>
      <trkpt lat="45.17049" lon="5.96366">
        <ele>2585</ele>
        <time>2017-02-26T12:44:43.000Z</time>
      </trkpt>
      <trkpt lat="45.17051" lon="5.96366">
        <ele>2585</ele>
        <time>2017-02-26T12:44:44.000Z</time>
      </trkpt>
      <trkpt lat="45.17051" lon="5.96366">
        <ele>2587</ele>
        <time>2017-02-26T12:44:53.000Z</time>
      </trkpt>
      <trkpt lat="45.17059" lon="5.96374">
        <ele>2587</ele>
        <time>2017-02-26T12:45:00.000Z</time>
      </trkpt>
      <trkpt lat="45.17059" lon="5.96374">
        <ele>2590</ele>
        <time>2017-02-26T12:45:03.000Z</time>
      </trkpt>
      <trkpt lat="45.17059" lon="5.96374">
        <ele>2590</ele>
        <time>2017-02-26T12:45:13.000Z</time>
      </trkpt>
      <trkpt lat="45.17059" lon="5.96374">
        <ele>2591</ele>
        <time>2017-02-26T12:45:23.000Z</time>
      </trkpt>
      <trkpt lat="45.17059" lon="5.96374">
        <ele>2592</ele>
        <time>2017-02-26T12:45:33.000Z</time>
      </trkpt>
      <trkpt lat="45.17063" lon="5.96364">
        <ele>2592</ele>
        <time>2017-02-26T12:45:36.000Z</time>
      </trkpt>
      <trkpt lat="45.17063" lon="5.96364">
        <ele>2594</ele>
        <time>2017-02-26T12:45:43.000Z</time>
      </trkpt>
      <trkpt lat="45.17063" lon="5.96364">
        <ele>2598</ele>
        <time>2017-02-26T12:45:53.000Z</time>
      </trkpt>
      <trkpt lat="45.17063" lon="5.96364">
        <ele>2597</ele>
        <time>2017-02-26T12:46:03.000Z</time>
      </trkpt>
      <trkpt lat="45.17063" lon="5.96364">
        <ele>2599</ele>
        <time>2017-02-26T12:46:13.000Z</time>
      </trkpt>
      <trkpt lat="45.17072" lon="5.96361">
        <ele>2599</ele>
        <time>2017-02-26T12:46:16.000Z</time>
      </trkpt>
      <trkpt lat="45.17072" lon="5.96361">
        <ele>2601</ele>
        <time>2017-02-26T12:46:23.000Z</time>
      </trkpt>
      <trkpt lat="45.1708" lon="5.96369">
        <ele>2601</ele>
        <time>2017-02-26T12:46:32.000Z</time>
      </trkpt>
      <trkpt lat="45.1708" lon="5.96369">
        <ele>2603</ele>
        <time>2017-02-26T12:46:33.000Z</time>
      </trkpt>
      <trkpt lat="45.1708" lon="5.96369">
        <ele>2604</ele>
        <time>2017-02-26T12:46:43.000Z</time>
      </trkpt>
      <trkpt lat="45.1708" lon="5.96369">
        <ele>2606</ele>
        <time>2017-02-26T12:46:53.000Z</time>
      </trkpt>
      <trkpt lat="45.1708" lon="5.96369">
        <ele>2607</ele>
        <time>2017-02-26T12:47:03.000Z</time>
      </trkpt>
      <trkpt lat="45.17087" lon="5.96363">
        <ele>2607</ele>
        <time>2017-02-26T12:47:12.000Z</time>
      </trkpt>
      <trkpt lat="45.17087" lon="5.96363">
        <ele>2608</ele>
        <time>2017-02-26T12:47:13.000Z</time>
      </trkpt>
      <trkpt lat="45.17087" lon="5.96363">
        <ele>2611</ele>
        <time>2017-02-26T12:47:23.000Z</time>
      </trkpt>
      <trkpt lat="45.17089" lon="5.96353">
        <ele>2611</ele>
        <time>2017-02-26T12:47:28.000Z</time>
      </trkpt>
      <trkpt lat="45.17089" lon="5.96353">
        <ele>2612</ele>
        <time>2017-02-26T12:47:33.000Z</time>
      </trkpt>
      <trkpt lat="45.17086" lon="5.96345">
        <ele>2612</ele>
        <time>2017-02-26T12:47:36.000Z</time>
      </trkpt>
      <trkpt lat="45.17086" lon="5.96345">
        <ele>2614</ele>
        <time>2017-02-26T12:47:43.000Z</time>
      </trkpt>
      <trkpt lat="45.17086" lon="5.96345">
        <ele>2615</ele>
        <time>2017-02-26T12:47:53.000Z</time>
      </trkpt>
      <trkpt lat="45.17086" lon="5.96345">
        <ele>2615</ele>
        <time>2017-02-26T12:48:03.000Z</time>
      </trkpt>
      <trkpt lat="45.17086" lon="5.96345">
        <ele>2616</ele>
        <time>2017-02-26T12:48:13.000Z</time>
      </trkpt>
      <trkpt lat="45.17095" lon="5.96347">
        <ele>2616</ele>
        <time>2017-02-26T12:48:20.000Z</time>
      </trkpt>
      <trkpt lat="45.17095" lon="5.96347">
        <ele>2619</ele>
        <time>2017-02-26T12:48:23.000Z</time>
      </trkpt>
      <trkpt lat="45.17095" lon="5.96347">
        <ele>2618</ele>
        <time>2017-02-26T12:48:33.000Z</time>
      </trkpt>
      <trkpt lat="45.17102" lon="5.96357">
        <ele>2618</ele>
        <time>2017-02-26T12:48:36.000Z</time>
      </trkpt>
      <trkpt lat="45.17102" lon="5.96357">
        <ele>2621</ele>
        <time>2017-02-26T12:48:43.000Z</time>
      </trkpt>
      <trkpt lat="45.17107" lon="5.96365">
        <ele>2621</ele>
        <time>2017-02-26T12:48:52.000Z</time>
      </trkpt>
      <trkpt lat="45.17107" lon="5.96365">
        <ele>2623</ele>
        <time>2017-02-26T12:48:53.000Z</time>
      </trkpt>
      <trkpt lat="45.17107" lon="5.96365">
        <ele>2623</ele>
        <time>2017-02-26T12:49:03.000Z</time>
      </trkpt>
      <trkpt lat="45.17107" lon="5.96365">
        <ele>2622</ele>
        <time>2017-02-26T12:49:13.000Z</time>
      </trkpt>
      <trkpt lat="45.17107" lon="5.96365">
        <ele>2622</ele>
        <time>2017-02-26T12:49:23.000Z</time>
      </trkpt>
      <trkpt lat="45.17107" lon="5.96365">
        <ele>2625</ele>
        <time>2017-02-26T12:49:33.000Z</time>
      </trkpt>
      <trkpt lat="45.17114" lon="5.96378">
        <ele>2625</ele>
        <time>2017-02-26T12:49:36.000Z</time>
      </trkpt>
      <trkpt lat="45.17114" lon="5.96378">
        <ele>2627</ele>
        <time>2017-02-26T12:49:43.000Z</time>
      </trkpt>
      <trkpt lat="45.17114" lon="5.96378">
        <ele>2629</ele>
        <time>2017-02-26T12:49:53.000Z</time>
      </trkpt>
      <trkpt lat="45.17117" lon="5.96385">
        <ele>2629</ele>
        <time>2017-02-26T12:49:56.000Z</time>
      </trkpt>
      <trkpt lat="45.17118" lon="5.96383">
        <ele>2630</ele>
        <time>2017-02-26T12:50:03.000Z</time>
      </trkpt>
      <trkpt lat="45.17118" lon="5.96382">
        <ele>2630</ele>
        <time>2017-02-26T12:50:13.000Z</time>
      </trkpt>
      <trkpt lat="45.17118" lon="5.9638">
        <ele>2629</ele>
        <time>2017-02-26T12:50:23.000Z</time>
      </trkpt>
      <trkpt lat="45.17119" lon="5.96378">
        <ele>2630</ele>
        <time>2017-02-26T12:50:33.000Z</time>
      </trkpt>
      <trkpt lat="45.17119" lon="5.96376">
        <ele>2631</ele>
        <time>2017-02-26T12:50:43.000Z</time>
      </trkpt>
      <trkpt lat="45.17119" lon="5.96375">
        <ele>2631</ele>
        <time>2017-02-26T12:50:44.000Z</time>
      </trkpt>
      <trkpt lat="45.17119" lon="5.96375">
        <ele>2632</ele>
        <time>2017-02-26T12:50:53.000Z</time>
      </trkpt>
      <trkpt lat="45.17123" lon="5.96365">
        <ele>2632</ele>
        <time>2017-02-26T12:51:00.000Z</time>
      </trkpt>
      <trkpt lat="45.17123" lon="5.96365">
        <ele>2634</ele>
        <time>2017-02-26T12:51:03.000Z</time>
      </trkpt>
      <trkpt lat="45.17123" lon="5.96365">
        <ele>2635</ele>
        <time>2017-02-26T12:51:13.000Z</time>
      </trkpt>
      <trkpt lat="45.17124" lon="5.96352">
        <ele>2635</ele>
        <time>2017-02-26T12:51:20.000Z</time>
      </trkpt>
      <trkpt lat="45.17124" lon="5.96352">
        <ele>2639</ele>
        <time>2017-02-26T12:51:23.000Z</time>
      </trkpt>
      <trkpt lat="45.17124" lon="5.96352">
        <ele>2639</ele>
        <time>2017-02-26T12:51:33.000Z</time>
      </trkpt>
      <trkpt lat="45.17124" lon="5.96352">
        <ele>2640</ele>
        <time>2017-02-26T12:51:43.000Z</time>
      </trkpt>
      <trkpt lat="45.17124" lon="5.96352">
        <ele>2641</ele>
        <time>2017-02-26T12:51:53.000Z</time>
      </trkpt>
      <trkpt lat="45.1713" lon="5.96365">
        <ele>2641</ele>
        <time>2017-02-26T12:51:56.000Z</time>
      </trkpt>
      <trkpt lat="45.1713" lon="5.96365">
        <ele>2643</ele>
        <time>2017-02-26T12:52:03.000Z</time>
      </trkpt>
      <trkpt lat="45.1713" lon="5.96365">
        <ele>2644</ele>
        <time>2017-02-26T12:52:13.000Z</time>
      </trkpt>
      <trkpt lat="45.1713" lon="5.96365">
        <ele>2643</ele>
        <time>2017-02-26T12:52:23.000Z</time>
      </trkpt>
      <trkpt lat="45.17132" lon="5.96354">
        <ele>2643</ele>
        <time>2017-02-26T12:52:32.000Z</time>
      </trkpt>
      <trkpt lat="45.17132" lon="5.96354">
        <ele>2645</ele>
        <time>2017-02-26T12:52:33.000Z</time>
      </trkpt>
      <trkpt lat="45.17132" lon="5.96354">
        <ele>2646</ele>
        <time>2017-02-26T12:52:43.000Z</time>
      </trkpt>
      <trkpt lat="45.17132" lon="5.96354">
        <ele>2647</ele>
        <time>2017-02-26T12:52:53.000Z</time>
      </trkpt>
      <trkpt lat="45.1713" lon="5.96342">
        <ele>2647</ele>
        <time>2017-02-26T12:52:56.000Z</time>
      </trkpt>
      <trkpt lat="45.1713" lon="5.96342">
        <ele>2648</ele>
        <time>2017-02-26T12:53:03.000Z</time>
      </trkpt>
      <trkpt lat="45.1713" lon="5.96342">
        <ele>2648</ele>
        <time>2017-02-26T12:53:13.000Z</time>
      </trkpt>
      <trkpt lat="45.1713" lon="5.96342">
        <ele>2649</ele>
        <time>2017-02-26T12:53:23.000Z</time>
      </trkpt>
      <trkpt lat="45.17129" lon="5.96329">
        <ele>2649</ele>
        <time>2017-02-26T12:53:28.000Z</time>
      </trkpt>
      <trkpt lat="45.17129" lon="5.96324">
        <ele>2650</ele>
        <time>2017-02-26T12:53:33.000Z</time>
      </trkpt>
      <trkpt lat="45.17128" lon="5.96319">
        <ele>2652</ele>
        <time>2017-02-26T12:53:43.000Z</time>
      </trkpt>
      <trkpt lat="45.17128" lon="5.96314">
        <ele>2652</ele>
        <time>2017-02-26T12:53:44.000Z</time>
      </trkpt>
      <trkpt lat="45.17127" lon="5.96309">
        <ele>2655</ele>
        <time>2017-02-26T12:53:53.000Z</time>
      </trkpt>
      <trkpt lat="45.17126" lon="5.96304">
        <ele>2656</ele>
        <time>2017-02-26T12:54:03.000Z</time>
      </trkpt>
      <trkpt lat="45.17125" lon="5.96299">
        <ele>2656</ele>
        <time>2017-02-26T12:54:04.000Z</time>
      </trkpt>
      <trkpt lat="45.17124" lon="5.96294">
        <ele>2656</ele>
        <time>2017-02-26T12:54:12.000Z</time>
      </trkpt>
      <trkpt lat="45.17124" lon="5.96294">
        <ele>2658</ele>
        <time>2017-02-26T12:54:13.000Z</time>
      </trkpt>
      <trkpt lat="45.17124" lon="5.96294">
        <ele>2659</ele>
        <time>2017-02-26T12:54:23.000Z</time>
      </trkpt>
      <trkpt lat="45.1712" lon="5.96281">
        <ele>2659</ele>
        <time>2017-02-26T12:54:28.000Z</time>
      </trkpt>
      <trkpt lat="45.17117" lon="5.96279">
        <ele>2660</ele>
        <time>2017-02-26T12:54:33.000Z</time>
      </trkpt>
      <trkpt lat="45.17113" lon="5.96277">
        <ele>2662</ele>
        <time>2017-02-26T12:54:43.000Z</time>
      </trkpt>
      <trkpt lat="45.1711" lon="5.96275">
        <ele>2662</ele>
        <time>2017-02-26T12:54:44.000Z</time>
      </trkpt>
      <trkpt lat="45.1711" lon="5.96275">
        <ele>2664</ele>
        <time>2017-02-26T12:54:53.000Z</time>
      </trkpt>
      <trkpt lat="45.1711" lon="5.96275">
        <ele>2667</ele>
        <time>2017-02-26T12:55:03.000Z</time>
      </trkpt>
      <trkpt lat="45.1711" lon="5.96275">
        <ele>2668</ele>
        <time>2017-02-26T12:55:13.000Z</time>
      </trkpt>
      <trkpt lat="45.17106" lon="5.96264">
        <ele>2668</ele>
        <time>2017-02-26T12:55:16.000Z</time>
      </trkpt>
      <trkpt lat="45.17106" lon="5.96264">
        <ele>2668</ele>
        <time>2017-02-26T12:55:23.000Z</time>
      </trkpt>
      <trkpt lat="45.17106" lon="5.96264">
        <ele>2670</ele>
        <time>2017-02-26T12:55:33.000Z</time>
      </trkpt>
      <trkpt lat="45.17095" lon="5.96256">
        <ele>2670</ele>
        <time>2017-02-26T12:55:36.000Z</time>
      </trkpt>
      <trkpt lat="45.17095" lon="5.96256">
        <ele>2672</ele>
        <time>2017-02-26T12:55:43.000Z</time>
      </trkpt>
      <trkpt lat="45.17095" lon="5.96256">
        <ele>2672</ele>
        <time>2017-02-26T12:55:53.000Z</time>
      </trkpt>
      <trkpt lat="45.17095" lon="5.96256">
        <ele>2673</ele>
        <time>2017-02-26T12:56:03.000Z</time>
      </trkpt>
      <trkpt lat="45.17102" lon="5.96246">
        <ele>2673</ele>
        <time>2017-02-26T12:56:08.000Z</time>
      </trkpt>
      <trkpt lat="45.17104" lon="5.96243">
        <ele>2674</ele>
        <time>2017-02-26T12:56:13.000Z</time>
      </trkpt>
      <trkpt lat="45.17106" lon="5.9624">
        <ele>2675</ele>
        <time>2017-02-26T12:56:23.000Z</time>
      </trkpt>
      <trkpt lat="45.17107" lon="5.96237">
        <ele>2675</ele>
        <time>2017-02-26T12:56:24.000Z</time>
      </trkpt>
      <trkpt lat="45.17107" lon="5.96237">
        <ele>2675</ele>
        <time>2017-02-26T12:56:33.000Z</time>
      </trkpt>
      <trkpt lat="45.17107" lon="5.96237">
        <ele>2676</ele>
        <time>2017-02-26T12:56:43.000Z</time>
      </trkpt>
      <trkpt lat="45.17107" lon="5.96237">
        <ele>2676</ele>
        <time>2017-02-26T12:56:53.000Z</time>
      </trkpt>
      <trkpt lat="45.17113" lon="5.96229">
        <ele>2676</ele>
        <time>2017-02-26T12:56:56.000Z</time>
      </trkpt>
      <trkpt lat="45.17113" lon="5.96229">
        <ele>2677</ele>
        <time>2017-02-26T12:57:03.000Z</time>
      </trkpt>
      <trkpt lat="45.17113" lon="5.96229">
        <ele>2677</ele>
        <time>2017-02-26T12:57:13.000Z</time>
      </trkpt>
      <trkpt lat="45.17113" lon="5.96229">
        <ele>2680</ele>
        <time>2017-02-26T12:57:23.000Z</time>
      </trkpt>
      <trkpt lat="45.17113" lon="5.96229">
        <ele>2679</ele>
        <time>2017-02-26T12:57:33.000Z</time>
      </trkpt>
      <trkpt lat="45.17113" lon="5.96229">
        <ele>2679</ele>
        <time>2017-02-26T12:57:43.000Z</time>
      </trkpt>
      <trkpt lat="45.17113" lon="5.96229">
        <ele>2679</ele>
        <time>2017-02-26T12:57:53.000Z</time>
      </trkpt>
      <trkpt lat="45.17103" lon="5.96221">
        <ele>2679</ele>
        <time>2017-02-26T12:58:00.000Z</time>
      </trkpt>
      <trkpt lat="45.17103" lon="5.96221">
        <ele>2681</ele>
        <time>2017-02-26T12:58:03.000Z</time>
      </trkpt>
      <trkpt lat="45.17094" lon="5.96214">
        <ele>2681</ele>
        <time>2017-02-26T12:58:12.000Z</time>
      </trkpt>
      <trkpt lat="45.17094" lon="5.96214">
        <ele>2683</ele>
        <time>2017-02-26T12:58:13.000Z</time>
      </trkpt>
      <trkpt lat="45.17094" lon="5.96214">
        <ele>2685</ele>
        <time>2017-02-26T12:58:23.000Z</time>
      </trkpt>
      <trkpt lat="45.17084" lon="5.96203">
        <ele>2685</ele>
        <time>2017-02-26T12:58:28.000Z</time>
      </trkpt>
      <trkpt lat="45.17084" lon="5.96203">
        <ele>2687</ele>
        <time>2017-02-26T12:58:33.000Z</time>
      </trkpt>
      <trkpt lat="45.17084" lon="5.96203">
        <ele>2688</ele>
        <time>2017-02-26T12:58:43.000Z</time>
      </trkpt>
      <trkpt lat="45.17073" lon="5.96196">
        <ele>2688</ele>
        <time>2017-02-26T12:58:48.000Z</time>
      </trkpt>
      <trkpt lat="45.17073" lon="5.96196">
        <ele>2691</ele>
        <time>2017-02-26T12:58:53.000Z</time>
      </trkpt>
      <trkpt lat="45.17073" lon="5.96196">
        <ele>2692</ele>
        <time>2017-02-26T12:59:03.000Z</time>
      </trkpt>
      <trkpt lat="45.17073" lon="5.96196">
        <ele>2693</ele>
        <time>2017-02-26T12:59:13.000Z</time>
      </trkpt>
      <trkpt lat="45.17073" lon="5.96196">
        <ele>2693</ele>
        <time>2017-02-26T12:59:23.000Z</time>
      </trkpt>
      <trkpt lat="45.17073" lon="5.96196">
        <ele>2693</ele>
        <time>2017-02-26T12:59:33.000Z</time>
      </trkpt>
      <trkpt lat="45.17077" lon="5.96185">
        <ele>2693</ele>
        <time>2017-02-26T12:59:36.000Z</time>
      </trkpt>
      <trkpt lat="45.17077" lon="5.96185">
        <ele>2695</ele>
        <time>2017-02-26T12:59:43.000Z</time>
      </trkpt>
      <trkpt lat="45.17084" lon="5.96182">
        <ele>2695</ele>
        <time>2017-02-26T12:59:48.000Z</time>
      </trkpt>
      <trkpt lat="45.17084" lon="5.96182">
        <ele>2696</ele>
        <time>2017-02-26T12:59:53.000Z</time>
      </trkpt>
      <trkpt lat="45.17084" lon="5.96182">
        <ele>2696</ele>
        <time>2017-02-26T13:00:03.000Z</time>
      </trkpt>
      <trkpt lat="45.17093" lon="5.96174">
        <ele>2696</ele>
        <time>2017-02-26T13:00:12.000Z</time>
      </trkpt>
      <trkpt lat="45.17093" lon="5.96174">
        <ele>2698</ele>
        <time>2017-02-26T13:00:13.000Z</time>
      </trkpt>
      <trkpt lat="45.17093" lon="5.96174">
        <ele>2696</ele>
        <time>2017-02-26T13:00:23.000Z</time>
      </trkpt>
      <trkpt lat="45.17093" lon="5.96174">
        <ele>2698</ele>
        <time>2017-02-26T13:00:33.000Z</time>
      </trkpt>
      <trkpt lat="45.17103" lon="5.96171">
        <ele>2698</ele>
        <time>2017-02-26T13:00:40.000Z</time>
      </trkpt>
      <trkpt lat="45.17103" lon="5.96171">
        <ele>2700</ele>
        <time>2017-02-26T13:00:43.000Z</time>
      </trkpt>
      <trkpt lat="45.17103" lon="5.96171">
        <ele>2701</ele>
        <time>2017-02-26T13:00:53.000Z</time>
      </trkpt>
      <trkpt lat="45.17113" lon="5.96169">
        <ele>2701</ele>
        <time>2017-02-26T13:00:56.000Z</time>
      </trkpt>
      <trkpt lat="45.17116" lon="5.96169">
        <ele>2703</ele>
        <time>2017-02-26T13:01:03.000Z</time>
      </trkpt>
      <trkpt lat="45.1712" lon="5.96168">
        <ele>2703</ele>
        <time>2017-02-26T13:01:08.000Z</time>
      </trkpt>
      <trkpt lat="45.17123" lon="5.96168">
        <ele>2705</ele>
        <time>2017-02-26T13:01:13.000Z</time>
      </trkpt>
      <trkpt lat="45.17126" lon="5.96167">
        <ele>2706</ele>
        <time>2017-02-26T13:01:23.000Z</time>
      </trkpt>
      <trkpt lat="45.17129" lon="5.96167">
        <ele>2706</ele>
        <time>2017-02-26T13:01:24.000Z</time>
      </trkpt>
      <trkpt lat="45.17129" lon="5.96167">
        <ele>2708</ele>
        <time>2017-02-26T13:01:33.000Z</time>
      </trkpt>
      <trkpt lat="45.1714" lon="5.96168">
        <ele>2708</ele>
        <time>2017-02-26T13:01:40.000Z</time>
      </trkpt>
      <trkpt lat="45.1714" lon="5.96168">
        <ele>2709</ele>
        <time>2017-02-26T13:01:43.000Z</time>
      </trkpt>
      <trkpt lat="45.1714" lon="5.96168">
        <ele>2710</ele>
        <time>2017-02-26T13:01:53.000Z</time>
      </trkpt>
      <trkpt lat="45.1714" lon="5.96168">
        <ele>2711</ele>
        <time>2017-02-26T13:02:03.000Z</time>
      </trkpt>
      <trkpt lat="45.17139" lon="5.96155">
        <ele>2711</ele>
        <time>2017-02-26T13:02:12.000Z</time>
      </trkpt>
      <trkpt lat="45.17139" lon="5.96155">
        <ele>2713</ele>
        <time>2017-02-26T13:02:13.000Z</time>
      </trkpt>
      <trkpt lat="45.17139" lon="5.96155">
        <ele>2714</ele>
        <time>2017-02-26T13:02:23.000Z</time>
      </trkpt>
      <trkpt lat="45.17134" lon="5.96142">
        <ele>2714</ele>
        <time>2017-02-26T13:02:28.000Z</time>
      </trkpt>
      <trkpt lat="45.17132" lon="5.96138">
        <ele>2716</ele>
        <time>2017-02-26T13:02:33.000Z</time>
      </trkpt>
      <trkpt lat="45.17131" lon="5.96134">
        <ele>2718</ele>
        <time>2017-02-26T13:02:43.000Z</time>
      </trkpt>
      <trkpt lat="45.17129" lon="5.96131">
        <ele>2718</ele>
        <time>2017-02-26T13:02:44.000Z</time>
      </trkpt>
      <trkpt lat="45.17129" lon="5.96131">
        <ele>2720</ele>
        <time>2017-02-26T13:02:53.000Z</time>
      </trkpt>
      <trkpt lat="45.17122" lon="5.96123">
        <ele>2720</ele>
        <time>2017-02-26T13:03:00.000Z</time>
      </trkpt>
      <trkpt lat="45.17122" lon="5.96123">
        <ele>2721</ele>
        <time>2017-02-26T13:03:03.000Z</time>
      </trkpt>
      <trkpt lat="45.17122" lon="5.96123">
        <ele>2722</ele>
        <time>2017-02-26T13:03:13.000Z</time>
      </trkpt>
      <trkpt lat="45.17115" lon="5.96117">
        <ele>2722</ele>
        <time>2017-02-26T13:03:16.000Z</time>
      </trkpt>
      <trkpt lat="45.17115" lon="5.96117">
        <ele>2724</ele>
        <time>2017-02-26T13:03:23.000Z</time>
      </trkpt>
      <trkpt lat="45.17105" lon="5.96108">
        <ele>2724</ele>
        <time>2017-02-26T13:03:32.000Z</time>
      </trkpt>
      <trkpt lat="45.17105" lon="5.96108">
        <ele>2726</ele>
        <time>2017-02-26T13:03:33.000Z</time>
      </trkpt>
      <trkpt lat="45.17105" lon="5.96108">
        <ele>2727</ele>
        <time>2017-02-26T13:03:43.000Z</time>
      </trkpt>
      <trkpt lat="45.17105" lon="5.96108">
        <ele>2728</ele>
        <time>2017-02-26T13:03:53.000Z</time>
      </trkpt>
      <trkpt lat="45.17106" lon="5.96093">
        <ele>2728</ele>
        <time>2017-02-26T13:03:56.000Z</time>
      </trkpt>
      <trkpt lat="45.17106" lon="5.96093">
        <ele>2731</ele>
        <time>2017-02-26T13:04:03.000Z</time>
      </trkpt>
      <trkpt lat="45.17101" lon="5.9608">
        <ele>2731</ele>
        <time>2017-02-26T13:04:12.000Z</time>
      </trkpt>
      <trkpt lat="45.17101" lon="5.9608">
        <ele>2732</ele>
        <time>2017-02-26T13:04:13.000Z</time>
      </trkpt>
      <trkpt lat="45.17101" lon="5.9608">
        <ele>2734</ele>
        <time>2017-02-26T13:04:23.000Z</time>
      </trkpt>
      <trkpt lat="45.17094" lon="5.96071">
        <ele>2734</ele>
        <time>2017-02-26T13:04:28.000Z</time>
      </trkpt>
      <trkpt lat="45.17094" lon="5.96071">
        <ele>2735</ele>
        <time>2017-02-26T13:04:33.000Z</time>
      </trkpt>
      <trkpt lat="45.17094" lon="5.96071">
        <ele>2736</ele>
        <time>2017-02-26T13:04:43.000Z</time>
      </trkpt>
      <trkpt lat="45.17087" lon="5.9606">
        <ele>2736</ele>
        <time>2017-02-26T13:04:48.000Z</time>
      </trkpt>
      <trkpt lat="45.17087" lon="5.9606">
        <ele>2738</ele>
        <time>2017-02-26T13:04:53.000Z</time>
      </trkpt>
      <trkpt lat="45.17087" lon="5.9606">
        <ele>2739</ele>
        <time>2017-02-26T13:05:03.000Z</time>
      </trkpt>
      <trkpt lat="45.17082" lon="5.96045">
        <ele>2739</ele>
        <time>2017-02-26T13:05:08.000Z</time>
      </trkpt>
      <trkpt lat="45.17082" lon="5.96045">
        <ele>2742</ele>
        <time>2017-02-26T13:05:13.000Z</time>
      </trkpt>
      <trkpt lat="45.17082" lon="5.96045">
        <ele>2744</ele>
        <time>2017-02-26T13:05:23.000Z</time>
      </trkpt>
      <trkpt lat="45.17085" lon="5.96032">
        <ele>2744</ele>
        <time>2017-02-26T13:05:28.000Z</time>
      </trkpt>
      <trkpt lat="45.17087" lon="5.96031">
        <ele>2745</ele>
        <time>2017-02-26T13:05:33.000Z</time>
      </trkpt>
      <trkpt lat="45.1709" lon="5.96029">
        <ele>2747</ele>
        <time>2017-02-26T13:05:43.000Z</time>
      </trkpt>
      <trkpt lat="45.17092" lon="5.96028">
        <ele>2747</ele>
        <time>2017-02-26T13:05:44.000Z</time>
      </trkpt>
      <trkpt lat="45.17092" lon="5.96028">
        <ele>2748</ele>
        <time>2017-02-26T13:05:53.000Z</time>
      </trkpt>
      <trkpt lat="45.171" lon="5.96023">
        <ele>2748</ele>
        <time>2017-02-26T13:06:00.000Z</time>
      </trkpt>
      <trkpt lat="45.171" lon="5.96023">
        <ele>2749</ele>
        <time>2017-02-26T13:06:03.000Z</time>
      </trkpt>
      <trkpt lat="45.171" lon="5.96023">
        <ele>2751</ele>
        <time>2017-02-26T13:06:13.000Z</time>
      </trkpt>
      <trkpt lat="45.17109" lon="5.96019">
        <ele>2751</ele>
        <time>2017-02-26T13:06:16.000Z</time>
      </trkpt>
      <trkpt lat="45.17109" lon="5.96019">
        <ele>2753</ele>
        <time>2017-02-26T13:06:23.000Z</time>
      </trkpt>
      <trkpt lat="45.17109" lon="5.96019">
        <ele>2756</ele>
        <time>2017-02-26T13:06:33.000Z</time>
      </trkpt>
      <trkpt lat="45.1711" lon="5.96007">
        <ele>2756</ele>
        <time>2017-02-26T13:06:40.000Z</time>
      </trkpt>
      <trkpt lat="45.1711" lon="5.96007">
        <ele>2756</ele>
        <time>2017-02-26T13:06:43.000Z</time>
      </trkpt>
      <trkpt lat="45.1711" lon="5.96007">
        <ele>2758</ele>
        <time>2017-02-26T13:06:53.000Z</time>
      </trkpt>
      <trkpt lat="45.17107" lon="5.95995">
        <ele>2758</ele>
        <time>2017-02-26T13:06:56.000Z</time>
      </trkpt>
      <trkpt lat="45.17107" lon="5.95995">
        <ele>2759</ele>
        <time>2017-02-26T13:07:03.000Z</time>
      </trkpt>
      <trkpt lat="45.17107" lon="5.95995">
        <ele>2760</ele>
        <time>2017-02-26T13:07:13.000Z</time>
      </trkpt>
      <trkpt lat="45.17107" lon="5.95995">
        <ele>2761</ele>
        <time>2017-02-26T13:07:23.000Z</time>
      </trkpt>
      <trkpt lat="45.17107" lon="5.95995">
        <ele>2762</ele>
        <time>2017-02-26T13:07:33.000Z</time>
      </trkpt>
      <trkpt lat="45.17108" lon="5.95982">
        <ele>2762</ele>
        <time>2017-02-26T13:07:36.000Z</time>
      </trkpt>
      <trkpt lat="45.17108" lon="5.95982">
        <ele>2762</ele>
        <time>2017-02-26T13:07:43.000Z</time>
      </trkpt>
      <trkpt lat="45.17111" lon="5.95973">
        <ele>2762</ele>
        <time>2017-02-26T13:07:48.000Z</time>
      </trkpt>
      <trkpt lat="45.17111" lon="5.95973">
        <ele>2764</ele>
        <time>2017-02-26T13:07:53.000Z</time>
      </trkpt>
      <trkpt lat="45.17116" lon="5.95974">
        <ele>2764</ele>
        <time>2017-02-26T13:08:00.000Z</time>
      </trkpt>
      <trkpt lat="45.17116" lon="5.95974">
        <ele>2766</ele>
        <time>2017-02-26T13:08:03.000Z</time>
      </trkpt>
      <trkpt lat="45.1712" lon="5.95978">
        <ele>2766</ele>
        <time>2017-02-26T13:08:08.000Z</time>
      </trkpt>
      <trkpt lat="45.1712" lon="5.95978">
        <ele>2768</ele>
        <time>2017-02-26T13:08:13.000Z</time>
      </trkpt>
      <trkpt lat="45.1712" lon="5.95978">
        <ele>2769</ele>
        <time>2017-02-26T13:08:23.000Z</time>
      </trkpt>
      <trkpt lat="45.1713" lon="5.95983">
        <ele>2769</ele>
        <time>2017-02-26T13:08:28.000Z</time>
      </trkpt>
      <trkpt lat="45.17133" lon="5.95983">
        <ele>2771</ele>
        <time>2017-02-26T13:08:33.000Z</time>
      </trkpt>
      <trkpt lat="45.17135" lon="5.95984">
        <ele>2771</ele>
        <time>2017-02-26T13:08:36.000Z</time>
      </trkpt>
      <trkpt lat="45.17137" lon="5.95985">
        <ele>2773</ele>
        <time>2017-02-26T13:08:43.000Z</time>
      </trkpt>
      <trkpt lat="45.1714" lon="5.95985">
        <ele>2773</ele>
        <time>2017-02-26T13:08:44.000Z</time>
      </trkpt>
      <trkpt lat="45.17144" lon="5.95987">
        <ele>2773</ele>
        <time>2017-02-26T13:08:52.000Z</time>
      </trkpt>
      <trkpt lat="45.17144" lon="5.95987">
        <ele>2775</ele>
        <time>2017-02-26T13:08:53.000Z</time>
      </trkpt>
      <trkpt lat="45.17144" lon="5.95987">
        <ele>2775</ele>
        <time>2017-02-26T13:09:03.000Z</time>
      </trkpt>
      <trkpt lat="45.17144" lon="5.95987">
        <ele>2775</ele>
        <time>2017-02-26T13:09:13.000Z</time>
      </trkpt>
      <trkpt lat="45.17151" lon="5.95986">
        <ele>2775</ele>
        <time>2017-02-26T13:09:20.000Z</time>
      </trkpt>
      <trkpt lat="45.17151" lon="5.95986">
        <ele>2777</ele>
        <time>2017-02-26T13:09:23.000Z</time>
      </trkpt>
      <trkpt lat="45.17151" lon="5.95986">
        <ele>2778</ele>
        <time>2017-02-26T13:09:33.000Z</time>
      </trkpt>
      <trkpt lat="45.17159" lon="5.95984">
        <ele>2778</ele>
        <time>2017-02-26T13:09:36.000Z</time>
      </trkpt>
      <trkpt lat="45.17159" lon="5.9598">
        <ele>2780</ele>
        <time>2017-02-26T13:09:43.000Z</time>
      </trkpt>
      <trkpt lat="45.17159" lon="5.95976">
        <ele>2783</ele>
        <time>2017-02-26T13:09:53.000Z</time>
      </trkpt>
      <trkpt lat="45.17159" lon="5.95972">
        <ele>2784</ele>
        <time>2017-02-26T13:10:03.000Z</time>
      </trkpt>
      <trkpt lat="45.17159" lon="5.95968">
        <ele>2784</ele>
        <time>2017-02-26T13:10:04.000Z</time>
      </trkpt>
      <trkpt lat="45.17159" lon="5.95968">
        <ele>2785</ele>
        <time>2017-02-26T13:10:13.000Z</time>
      </trkpt>
      <trkpt lat="45.17155" lon="5.95957">
        <ele>2785</ele>
        <time>2017-02-26T13:10:20.000Z</time>
      </trkpt>
      <trkpt lat="45.17155" lon="5.95957">
        <ele>2790</ele>
        <time>2017-02-26T13:10:23.000Z</time>
      </trkpt>
      <trkpt lat="45.1716" lon="5.95958">
        <ele>2790</ele>
        <time>2017-02-26T13:10:32.000Z</time>
      </trkpt>
      <trkpt lat="45.1716" lon="5.95958">
        <ele>2790</ele>
        <time>2017-02-26T13:10:33.000Z</time>
      </trkpt>
      <trkpt lat="45.1716" lon="5.95958">
        <ele>2791</ele>
        <time>2017-02-26T13:10:43.000Z</time>
      </trkpt>
      <trkpt lat="45.1716" lon="5.95958">
        <ele>2793</ele>
        <time>2017-02-26T13:10:53.000Z</time>
      </trkpt>
      <trkpt lat="45.17161" lon="5.95948">
        <ele>2793</ele>
        <time>2017-02-26T13:10:56.000Z</time>
      </trkpt>
      <trkpt lat="45.17161" lon="5.95949">
        <ele>2794</ele>
        <time>2017-02-26T13:11:03.000Z</time>
      </trkpt>
      <trkpt lat="45.17161" lon="5.95949">
        <ele>2794</ele>
        <time>2017-02-26T13:11:12.000Z</time>
      </trkpt>
      <trkpt lat="45.17161" lon="5.9595">
        <ele>2796</ele>
        <time>2017-02-26T13:11:13.000Z</time>
      </trkpt>
      <trkpt lat="45.17161" lon="5.9595">
        <ele>2796</ele>
        <time>2017-02-26T13:11:23.000Z</time>
      </trkpt>
      <trkpt lat="45.1716" lon="5.95951">
        <ele>2795</ele>
        <time>2017-02-26T13:11:33.000Z</time>
      </trkpt>
      <trkpt lat="45.1716" lon="5.95952">
        <ele>2795</ele>
        <time>2017-02-26T13:11:43.000Z</time>
      </trkpt>
      <trkpt lat="45.1716" lon="5.95952">
        <ele>2797</ele>
        <time>2017-02-26T13:11:53.000Z</time>
      </trkpt>
      <trkpt lat="45.1716" lon="5.95953">
        <ele>2796</ele>
        <time>2017-02-26T13:12:03.000Z</time>
      </trkpt>
      <trkpt lat="45.17159" lon="5.95953">
        <ele>2796</ele>
        <time>2017-02-26T13:12:13.000Z</time>
      </trkpt>
      <trkpt lat="45.17159" lon="5.95954">
        <ele>2796</ele>
        <time>2017-02-26T13:12:23.000Z</time>
      </trkpt>
      <trkpt lat="45.17159" lon="5.95955">
        <ele>2796</ele>
        <time>2017-02-26T13:12:33.000Z</time>
      </trkpt>
      <trkpt lat="45.17159" lon="5.95955">
        <ele>2797</ele>
        <time>2017-02-26T13:12:43.000Z</time>
      </trkpt>
      <trkpt lat="45.17158" lon="5.95956">
        <ele>2797</ele>
        <time>2017-02-26T13:12:53.000Z</time>
      </trkpt>
      <trkpt lat="45.17158" lon="5.95956">
        <ele>2796</ele>
        <time>2017-02-26T13:13:03.000Z</time>
      </trkpt>
      <trkpt lat="45.17158" lon="5.95957">
        <ele>2796</ele>
        <time>2017-02-26T13:13:13.000Z</time>
      </trkpt>
      <trkpt lat="45.17158" lon="5.95958">
        <ele>2795</ele>
        <time>2017-02-26T13:13:23.000Z</time>
      </trkpt>
      <trkpt lat="45.17157" lon="5.95958">
        <ele>2796</ele>
        <time>2017-02-26T13:13:33.000Z</time>
      </trkpt>
      <trkpt lat="45.17157" lon="5.95959">
        <ele>2796</ele>
        <time>2017-02-26T13:13:43.000Z</time>
      </trkpt>
      <trkpt lat="45.17157" lon="5.95959">
        <ele>2796</ele>
        <time>2017-02-26T13:13:53.000Z</time>
      </trkpt>
      <trkpt lat="45.17157" lon="5.9596">
        <ele>2796</ele>
        <time>2017-02-26T13:14:03.000Z</time>
      </trkpt>
      <trkpt lat="45.17157" lon="5.9596">
        <ele>2796</ele>
        <time>2017-02-26T13:14:13.000Z</time>
      </trkpt>
      <trkpt lat="45.17156" lon="5.95961">
        <ele>2796</ele>
        <time>2017-02-26T13:14:23.000Z</time>
      </trkpt>
      <trkpt lat="45.17156" lon="5.95962">
        <ele>2796</ele>
        <time>2017-02-26T13:14:33.000Z</time>
      </trkpt>
      <trkpt lat="45.17156" lon="5.95962">
        <ele>2796</ele>
        <time>2017-02-26T13:14:43.000Z</time>
      </trkpt>
      <trkpt lat="45.17156" lon="5.95963">
        <ele>2796</ele>
        <time>2017-02-26T13:14:53.000Z</time>
      </trkpt>
      <trkpt lat="45.17155" lon="5.95963">
        <ele>2796</ele>
        <time>2017-02-26T13:15:03.000Z</time>
      </trkpt>
      <trkpt lat="45.17155" lon="5.95964">
        <ele>2796</ele>
        <time>2017-02-26T13:15:13.000Z</time>
      </trkpt>
      <trkpt lat="45.17155" lon="5.95965">
        <ele>2797</ele>
        <time>2017-02-26T13:15:23.000Z</time>
      </trkpt>
      <trkpt lat="45.17155" lon="5.95965">
        <ele>2796</ele>
        <time>2017-02-26T13:15:33.000Z</time>
      </trkpt>
      <trkpt lat="45.17154" lon="5.95966">
        <ele>2796</ele>
        <time>2017-02-26T13:15:43.000Z</time>
      </trkpt>
      <trkpt lat="45.17154" lon="5.95966">
        <ele>2796</ele>
        <time>2017-02-26T13:15:53.000Z</time>
      </trkpt>
      <trkpt lat="45.17154" lon="5.95967">
        <ele>2796</ele>
        <time>2017-02-26T13:16:03.000Z</time>
      </trkpt>
      <trkpt lat="45.17154" lon="5.95968">
        <ele>2796</ele>
        <time>2017-02-26T13:16:13.000Z</time>
      </trkpt>
      <trkpt lat="45.17154" lon="5.95968">
        <ele>2796</ele>
        <time>2017-02-26T13:16:23.000Z</time>
      </trkpt>
      <trkpt lat="45.17153" lon="5.95969">
        <ele>2796</ele>
        <time>2017-02-26T13:16:33.000Z</time>
      </trkpt>
      <trkpt lat="45.17153" lon="5.95969">
        <ele>2796</ele>
        <time>2017-02-26T13:16:43.000Z</time>
      </trkpt>
      <trkpt lat="45.17153" lon="5.9597">
        <ele>2796</ele>
        <time>2017-02-26T13:16:53.000Z</time>
      </trkpt>
      <trkpt lat="45.17153" lon="5.95971">
        <ele>2797</ele>
        <time>2017-02-26T13:17:03.000Z</time>
      </trkpt>
      <trkpt lat="45.17152" lon="5.95971">
        <ele>2797</ele>
        <time>2017-02-26T13:17:13.000Z</time>
      </trkpt>
      <trkpt lat="45.17152" lon="5.95972">
        <ele>2797</ele>
        <time>2017-02-26T13:17:23.000Z</time>
      </trkpt>
      <trkpt lat="45.17152" lon="5.95972">
        <ele>2797</ele>
        <time>2017-02-26T13:17:33.000Z</time>
      </trkpt>
      <trkpt lat="45.17152" lon="5.95973">
        <ele>2797</ele>
        <time>2017-02-26T13:17:43.000Z</time>
      </trkpt>
      <trkpt lat="45.17151" lon="5.95973">
        <ele>2797</ele>
        <time>2017-02-26T13:17:53.000Z</time>
      </trkpt>
      <trkpt lat="45.17151" lon="5.95974">
        <ele>2797</ele>
        <time>2017-02-26T13:18:03.000Z</time>
      </trkpt>
      <trkpt lat="45.17151" lon="5.95975">
        <ele>2797</ele>
        <time>2017-02-26T13:18:13.000Z</time>
      </trkpt>
      <trkpt lat="45.17151" lon="5.95975">
        <ele>2797</ele>
        <time>2017-02-26T13:18:23.000Z</time>
      </trkpt>
      <trkpt lat="45.1715" lon="5.95976">
        <ele>2797</ele>
        <time>2017-02-26T13:18:33.000Z</time>
      </trkpt>
      <trkpt lat="45.1715" lon="5.95976">
        <ele>2797</ele>
        <time>2017-02-26T13:18:43.000Z</time>
      </trkpt>
      <trkpt lat="45.1715" lon="5.95977">
        <ele>2796</ele>
        <time>2017-02-26T13:18:53.000Z</time>
      </trkpt>
      <trkpt lat="45.1715" lon="5.95978">
        <ele>2796</ele>
        <time>2017-02-26T13:19:03.000Z</time>
      </trkpt>
      <trkpt lat="45.1715" lon="5.95978">
        <ele>2796</ele>
        <time>2017-02-26T13:19:13.000Z</time>
      </trkpt>
      <trkpt lat="45.17149" lon="5.95979">
        <ele>2796</ele>
        <time>2017-02-26T13:19:23.000Z</time>
      </trkpt>
      <trkpt lat="45.17149" lon="5.95979">
        <ele>2797</ele>
        <time>2017-02-26T13:19:33.000Z</time>
      </trkpt>
      <trkpt lat="45.17149" lon="5.9598">
        <ele>2796</ele>
        <time>2017-02-26T13:19:43.000Z</time>
      </trkpt>
      <trkpt lat="45.17149" lon="5.95981">
        <ele>2796</ele>
        <time>2017-02-26T13:19:53.000Z</time>
      </trkpt>
      <trkpt lat="45.17148" lon="5.95981">
        <ele>2796</ele>
        <time>2017-02-26T13:20:03.000Z</time>
      </trkpt>
      <trkpt lat="45.17148" lon="5.95982">
        <ele>2797</ele>
        <time>2017-02-26T13:20:13.000Z</time>
      </trkpt>
      <trkpt lat="45.17148" lon="5.95982">
        <ele>2796</ele>
        <time>2017-02-26T13:20:23.000Z</time>
      </trkpt>
      <trkpt lat="45.17148" lon="5.95983">
        <ele>2797</ele>
        <time>2017-02-26T13:20:33.000Z</time>
      </trkpt>
      <trkpt lat="45.17147" lon="5.95984">
        <ele>2797</ele>
        <time>2017-02-26T13:20:43.000Z</time>
      </trkpt>
      <trkpt lat="45.17147" lon="5.95984">
        <ele>2797</ele>
        <time>2017-02-26T13:20:52.000Z</time>
      </trkpt>
      <trkpt lat="45.17147" lon="5.95985">
        <ele>2797</ele>
        <time>2017-02-26T13:20:53.000Z</time>
      </trkpt>
      <trkpt lat="45.17147" lon="5.95985">
        <ele>2797</ele>
        <time>2017-02-26T13:21:00.000Z</time>
      </trkpt>
      <trkpt lat="45.17146" lon="5.95986">
        <ele>2794</ele>
        <time>2017-02-26T13:21:03.000Z</time>
      </trkpt>
      <trkpt lat="45.17146" lon="5.95986">
        <ele>2794</ele>
        <time>2017-02-26T13:21:12.000Z</time>
      </trkpt>
      <trkpt lat="45.17146" lon="5.95987">
        <ele>2790</ele>
        <time>2017-02-26T13:21:13.000Z</time>
      </trkpt>
      <trkpt lat="45.17146" lon="5.95988">
        <ele>2781</ele>
        <time>2017-02-26T13:21:23.000Z</time>
      </trkpt>
      <trkpt lat="45.17146" lon="5.95988">
        <ele>2781</ele>
        <time>2017-02-26T13:21:24.000Z</time>
      </trkpt>
      <trkpt lat="45.17146" lon="5.95988">
        <ele>2772</ele>
        <time>2017-02-26T13:21:33.000Z</time>
      </trkpt>
      <trkpt lat="45.17122" lon="5.95987">
        <ele>2772</ele>
        <time>2017-02-26T13:21:36.000Z</time>
      </trkpt>
      <trkpt lat="45.17115" lon="5.9598">
        <ele>2766</ele>
        <time>2017-02-26T13:21:43.000Z</time>
      </trkpt>
      <trkpt lat="45.17107" lon="5.95972">
        <ele>2766</ele>
        <time>2017-02-26T13:21:44.000Z</time>
      </trkpt>
      <trkpt lat="45.17107" lon="5.95972">
        <ele>2764</ele>
        <time>2017-02-26T13:21:53.000Z</time>
      </trkpt>
      <trkpt lat="45.17105" lon="5.9595">
        <ele>2764</ele>
        <time>2017-02-26T13:21:56.000Z</time>
      </trkpt>
      <trkpt lat="45.17113" lon="5.95942">
        <ele>2764</ele>
        <time>2017-02-26T13:22:03.000Z</time>
      </trkpt>
      <trkpt lat="45.1712" lon="5.95935">
        <ele>2764</ele>
        <time>2017-02-26T13:22:04.000Z</time>
      </trkpt>
      <trkpt lat="45.17136" lon="5.95877">
        <ele>2764</ele>
        <time>2017-02-26T13:22:12.000Z</time>
      </trkpt>
      <trkpt lat="45.17135" lon="5.95873">
        <ele>2754</ele>
        <time>2017-02-26T13:22:13.000Z</time>
      </trkpt>
      <trkpt lat="45.17126" lon="5.95843">
        <ele>2754</ele>
        <time>2017-02-26T13:22:20.000Z</time>
      </trkpt>
      <trkpt lat="45.17126" lon="5.95843">
        <ele>2740</ele>
        <time>2017-02-26T13:22:23.000Z</time>
      </trkpt>
      <trkpt lat="45.17092" lon="5.95844">
        <ele>2740</ele>
        <time>2017-02-26T13:22:28.000Z</time>
      </trkpt>
      <trkpt lat="45.17092" lon="5.95844">
        <ele>2723</ele>
        <time>2017-02-26T13:22:33.000Z</time>
      </trkpt>
      <trkpt lat="45.17073" lon="5.95872">
        <ele>2723</ele>
        <time>2017-02-26T13:22:36.000Z</time>
      </trkpt>
      <trkpt lat="45.17058" lon="5.95875">
        <ele>2710</ele>
        <time>2017-02-26T13:22:43.000Z</time>
      </trkpt>
      <trkpt lat="45.17042" lon="5.95877">
        <ele>2710</ele>
        <time>2017-02-26T13:22:44.000Z</time>
      </trkpt>
      <trkpt lat="45.17036" lon="5.95888">
        <ele>2710</ele>
        <time>2017-02-26T13:22:52.000Z</time>
      </trkpt>
      <trkpt lat="45.17034" lon="5.95888">
        <ele>2703</ele>
        <time>2017-02-26T13:22:53.000Z</time>
      </trkpt>
      <trkpt lat="45.17024" lon="5.95886">
        <ele>2703</ele>
        <time>2017-02-26T13:23:00.000Z</time>
      </trkpt>
      <trkpt lat="45.17024" lon="5.95886">
        <ele>2693</ele>
        <time>2017-02-26T13:23:03.000Z</time>
      </trkpt>
      <trkpt lat="45.16994" lon="5.95893">
        <ele>2693</ele>
        <time>2017-02-26T13:23:08.000Z</time>
      </trkpt>
      <trkpt lat="45.16994" lon="5.95893">
        <ele>2678</ele>
        <time>2017-02-26T13:23:13.000Z</time>
      </trkpt>
      <trkpt lat="45.16963" lon="5.95887">
        <ele>2678</ele>
        <time>2017-02-26T13:23:20.000Z</time>
      </trkpt>
      <trkpt lat="45.16963" lon="5.95887">
        <ele>2672</ele>
        <time>2017-02-26T13:23:23.000Z</time>
      </trkpt>
      <trkpt lat="45.1697" lon="5.95872">
        <ele>2672</ele>
        <time>2017-02-26T13:23:28.000Z</time>
      </trkpt>
      <trkpt lat="45.16968" lon="5.95844">
        <ele>2672</ele>
        <time>2017-02-26T13:23:33.000Z</time>
      </trkpt>
      <trkpt lat="45.16967" lon="5.95815">
        <ele>2672</ele>
        <time>2017-02-26T13:23:36.000Z</time>
      </trkpt>
      <trkpt lat="45.16952" lon="5.95806">
        <ele>2659</ele>
        <time>2017-02-26T13:23:43.000Z</time>
      </trkpt>
      <trkpt lat="45.16937" lon="5.95797">
        <ele>2659</ele>
        <time>2017-02-26T13:23:44.000Z</time>
      </trkpt>
      <trkpt lat="45.16937" lon="5.95797">
        <ele>2652</ele>
        <time>2017-02-26T13:23:53.000Z</time>
      </trkpt>
      <trkpt lat="45.16938" lon="5.95773">
        <ele>2652</ele>
        <time>2017-02-26T13:23:56.000Z</time>
      </trkpt>
      <trkpt lat="45.16942" lon="5.95765">
        <ele>2649</ele>
        <time>2017-02-26T13:24:03.000Z</time>
      </trkpt>
      <trkpt lat="45.16947" lon="5.95756">
        <ele>2649</ele>
        <time>2017-02-26T13:24:04.000Z</time>
      </trkpt>
      <trkpt lat="45.1697" lon="5.95726">
        <ele>2649</ele>
        <time>2017-02-26T13:24:12.000Z</time>
      </trkpt>
      <trkpt lat="45.1697" lon="5.95722">
        <ele>2636</ele>
        <time>2017-02-26T13:24:13.000Z</time>
      </trkpt>
      <trkpt lat="45.16969" lon="5.95692">
        <ele>2636</ele>
        <time>2017-02-26T13:24:20.000Z</time>
      </trkpt>
      <trkpt lat="45.16969" lon="5.95692">
        <ele>2626</ele>
        <time>2017-02-26T13:24:23.000Z</time>
      </trkpt>
      <trkpt lat="45.16932" lon="5.9569">
        <ele>2626</ele>
        <time>2017-02-26T13:24:28.000Z</time>
      </trkpt>
      <trkpt lat="45.16919" lon="5.95676">
        <ele>2614</ele>
        <time>2017-02-26T13:24:33.000Z</time>
      </trkpt>
      <trkpt lat="45.16906" lon="5.95661">
        <ele>2614</ele>
        <time>2017-02-26T13:24:36.000Z</time>
      </trkpt>
      <trkpt lat="45.16893" lon="5.95661">
        <ele>2602</ele>
        <time>2017-02-26T13:24:43.000Z</time>
      </trkpt>
      <trkpt lat="45.1688" lon="5.95661">
        <ele>2602</ele>
        <time>2017-02-26T13:24:44.000Z</time>
      </trkpt>
      <trkpt lat="45.16872" lon="5.95669">
        <ele>2597</ele>
        <time>2017-02-26T13:24:53.000Z</time>
      </trkpt>
      <trkpt lat="45.16864" lon="5.95676">
        <ele>2595</ele>
        <time>2017-02-26T13:25:03.000Z</time>
      </trkpt>
      <trkpt lat="45.16856" lon="5.95684">
        <ele>2595</ele>
        <time>2017-02-26T13:25:04.000Z</time>
      </trkpt>
      <trkpt lat="45.16833" lon="5.95679">
        <ele>2595</ele>
        <time>2017-02-26T13:25:12.000Z</time>
      </trkpt>
      <trkpt lat="45.16832" lon="5.95677">
        <ele>2579</ele>
        <time>2017-02-26T13:25:13.000Z</time>
      </trkpt>
      <trkpt lat="45.16819" lon="5.95666">
        <ele>2579</ele>
        <time>2017-02-26T13:25:20.000Z</time>
      </trkpt>
      <trkpt lat="45.16819" lon="5.95666">
        <ele>2567</ele>
        <time>2017-02-26T13:25:23.000Z</time>
      </trkpt>
      <trkpt lat="45.16798" lon="5.95653">
        <ele>2567</ele>
        <time>2017-02-26T13:25:32.000Z</time>
      </trkpt>
      <trkpt lat="45.16797" lon="5.95651">
        <ele>2554</ele>
        <time>2017-02-26T13:25:33.000Z</time>
      </trkpt>
      <trkpt lat="45.16792" lon="5.95638">
        <ele>2554</ele>
        <time>2017-02-26T13:25:40.000Z</time>
      </trkpt>
      <trkpt lat="45.16792" lon="5.95638">
        <ele>2549</ele>
        <time>2017-02-26T13:25:43.000Z</time>
      </trkpt>
      <trkpt lat="45.16792" lon="5.95638">
        <ele>2546</ele>
        <time>2017-02-26T13:25:53.000Z</time>
      </trkpt>
      <trkpt lat="45.1678" lon="5.95639">
        <ele>2546</ele>
        <time>2017-02-26T13:25:56.000Z</time>
      </trkpt>
      <trkpt lat="45.16776" lon="5.95641">
        <ele>2537</ele>
        <time>2017-02-26T13:26:03.000Z</time>
      </trkpt>
      <trkpt lat="45.16773" lon="5.95643">
        <ele>2537</ele>
        <time>2017-02-26T13:26:04.000Z</time>
      </trkpt>
      <trkpt lat="45.16768" lon="5.95643">
        <ele>2533</ele>
        <time>2017-02-26T13:26:13.000Z</time>
      </trkpt>
      <trkpt lat="45.16764" lon="5.95644">
        <ele>2530</ele>
        <time>2017-02-26T13:26:23.000Z</time>
      </trkpt>
      <trkpt lat="45.1676" lon="5.95644">
        <ele>2530</ele>
        <time>2017-02-26T13:26:24.000Z</time>
      </trkpt>
      <trkpt lat="45.16753" lon="5.95627">
        <ele>2530</ele>
        <time>2017-02-26T13:26:32.000Z</time>
      </trkpt>
      <trkpt lat="45.16751" lon="5.95628">
        <ele>2521</ele>
        <time>2017-02-26T13:26:33.000Z</time>
      </trkpt>
      <trkpt lat="45.16737" lon="5.95632">
        <ele>2521</ele>
        <time>2017-02-26T13:26:40.000Z</time>
      </trkpt>
      <trkpt lat="45.16737" lon="5.95632">
        <ele>2511</ele>
        <time>2017-02-26T13:26:43.000Z</time>
      </trkpt>
      <trkpt lat="45.16737" lon="5.95632">
        <ele>2509</ele>
        <time>2017-02-26T13:26:53.000Z</time>
      </trkpt>
      <trkpt lat="45.16724" lon="5.95624">
        <ele>2509</ele>
        <time>2017-02-26T13:26:56.000Z</time>
      </trkpt>
      <trkpt lat="45.16718" lon="5.95612">
        <ele>2496</ele>
        <time>2017-02-26T13:27:03.000Z</time>
      </trkpt>
      <trkpt lat="45.16712" lon="5.956">
        <ele>2496</ele>
        <time>2017-02-26T13:27:04.000Z</time>
      </trkpt>
      <trkpt lat="45.16693" lon="5.95573">
        <ele>2496</ele>
        <time>2017-02-26T13:27:12.000Z</time>
      </trkpt>
      <trkpt lat="45.1669" lon="5.95571">
        <ele>2483</ele>
        <time>2017-02-26T13:27:13.000Z</time>
      </trkpt>
      <trkpt lat="45.1667" lon="5.95562">
        <ele>2483</ele>
        <time>2017-02-26T13:27:20.000Z</time>
      </trkpt>
      <trkpt lat="45.1667" lon="5.95562">
        <ele>2470</ele>
        <time>2017-02-26T13:27:23.000Z</time>
      </trkpt>
      <trkpt lat="45.16647" lon="5.95549">
        <ele>2470</ele>
        <time>2017-02-26T13:27:28.000Z</time>
      </trkpt>
      <trkpt lat="45.16647" lon="5.95549">
        <ele>2457</ele>
        <time>2017-02-26T13:27:33.000Z</time>
      </trkpt>
      <trkpt lat="45.16626" lon="5.95543">
        <ele>2457</ele>
        <time>2017-02-26T13:27:36.000Z</time>
      </trkpt>
      <trkpt lat="45.16626" lon="5.95543">
        <ele>2442</ele>
        <time>2017-02-26T13:27:43.000Z</time>
      </trkpt>
      <trkpt lat="45.16614" lon="5.955">
        <ele>2442</ele>
        <time>2017-02-26T13:27:48.000Z</time>
      </trkpt>
      <trkpt lat="45.16614" lon="5.955">
        <ele>2428</ele>
        <time>2017-02-26T13:27:53.000Z</time>
      </trkpt>
      <trkpt lat="45.16589" lon="5.95517">
        <ele>2428</ele>
        <time>2017-02-26T13:27:56.000Z</time>
      </trkpt>
      <trkpt lat="45.16579" lon="5.95511">
        <ele>2414</ele>
        <time>2017-02-26T13:28:03.000Z</time>
      </trkpt>
      <trkpt lat="45.1657" lon="5.95506">
        <ele>2414</ele>
        <time>2017-02-26T13:28:04.000Z</time>
      </trkpt>
      <trkpt lat="45.16569" lon="5.95474">
        <ele>2414</ele>
        <time>2017-02-26T13:28:12.000Z</time>
      </trkpt>
      <trkpt lat="45.16566" lon="5.95471">
        <ele>2406</ele>
        <time>2017-02-26T13:28:13.000Z</time>
      </trkpt>
      <trkpt lat="45.1655" lon="5.95449">
        <ele>2406</ele>
        <time>2017-02-26T13:28:20.000Z</time>
      </trkpt>
      <trkpt lat="45.1655" lon="5.95449">
        <ele>2388</ele>
        <time>2017-02-26T13:28:23.000Z</time>
      </trkpt>
      <trkpt lat="45.16523" lon="5.954">
        <ele>2388</ele>
        <time>2017-02-26T13:28:28.000Z</time>
      </trkpt>
      <trkpt lat="45.16523" lon="5.954">
        <ele>2375</ele>
        <time>2017-02-26T13:28:33.000Z</time>
      </trkpt>
      <trkpt lat="45.16532" lon="5.95368">
        <ele>2375</ele>
        <time>2017-02-26T13:28:36.000Z</time>
      </trkpt>
      <trkpt lat="45.16538" lon="5.9536">
        <ele>2369</ele>
        <time>2017-02-26T13:28:43.000Z</time>
      </trkpt>
      <trkpt lat="45.16544" lon="5.95353">
        <ele>2369</ele>
        <time>2017-02-26T13:28:44.000Z</time>
      </trkpt>
      <trkpt lat="45.16567" lon="5.95348">
        <ele>2369</ele>
        <time>2017-02-26T13:28:52.000Z</time>
      </trkpt>
      <trkpt lat="45.16567" lon="5.95345">
        <ele>2356</ele>
        <time>2017-02-26T13:28:53.000Z</time>
      </trkpt>
      <trkpt lat="45.16561" lon="5.95327">
        <ele>2356</ele>
        <time>2017-02-26T13:29:00.000Z</time>
      </trkpt>
      <trkpt lat="45.16561" lon="5.95327">
        <ele>2347</ele>
        <time>2017-02-26T13:29:03.000Z</time>
      </trkpt>
      <trkpt lat="45.16559" lon="5.9531">
        <ele>2347</ele>
        <time>2017-02-26T13:29:08.000Z</time>
      </trkpt>
      <trkpt lat="45.16559" lon="5.9531">
        <ele>2341</ele>
        <time>2017-02-26T13:29:13.000Z</time>
      </trkpt>
      <trkpt lat="45.16571" lon="5.95309">
        <ele>2341</ele>
        <time>2017-02-26T13:29:16.000Z</time>
      </trkpt>
      <trkpt lat="45.16579" lon="5.953">
        <ele>2327</ele>
        <time>2017-02-26T13:29:23.000Z</time>
      </trkpt>
      <trkpt lat="45.16586" lon="5.95291">
        <ele>2327</ele>
        <time>2017-02-26T13:29:24.000Z</time>
      </trkpt>
      <trkpt lat="45.16597" lon="5.95266">
        <ele>2327</ele>
        <time>2017-02-26T13:29:32.000Z</time>
      </trkpt>
      <trkpt lat="45.16602" lon="5.95267">
        <ele>2317</ele>
        <time>2017-02-26T13:29:33.000Z</time>
      </trkpt>
      <trkpt lat="45.16631" lon="5.9527">
        <ele>2317</ele>
        <time>2017-02-26T13:29:40.000Z</time>
      </trkpt>
      <trkpt lat="45.16631" lon="5.9527">
        <ele>2314</ele>
        <time>2017-02-26T13:29:43.000Z</time>
      </trkpt>
      <trkpt lat="45.16658" lon="5.95253">
        <ele>2314</ele>
        <time>2017-02-26T13:29:48.000Z</time>
      </trkpt>
      <trkpt lat="45.16671" lon="5.95213">
        <ele>2301</ele>
        <time>2017-02-26T13:29:53.000Z</time>
      </trkpt>
      <trkpt lat="45.16683" lon="5.95172">
        <ele>2301</ele>
        <time>2017-02-26T13:29:56.000Z</time>
      </trkpt>
      <trkpt lat="45.16684" lon="5.95149">
        <ele>2297</ele>
        <time>2017-02-26T13:30:03.000Z</time>
      </trkpt>
      <trkpt lat="45.16685" lon="5.95125">
        <ele>2297</ele>
        <time>2017-02-26T13:30:04.000Z</time>
      </trkpt>
      <trkpt lat="45.16699" lon="5.95069">
        <ele>2297</ele>
        <time>2017-02-26T13:30:12.000Z</time>
      </trkpt>
      <trkpt lat="45.16695" lon="5.95057">
        <ele>2293</ele>
        <time>2017-02-26T13:30:13.000Z</time>
      </trkpt>
      <trkpt lat="45.16691" lon="5.95045">
        <ele>2291</ele>
        <time>2017-02-26T13:30:23.000Z</time>
      </trkpt>
      <trkpt lat="45.16687" lon="5.95033">
        <ele>2291</ele>
        <time>2017-02-26T13:30:24.000Z</time>
      </trkpt>
      <trkpt lat="45.1667" lon="5.94989">
        <ele>2291</ele>
        <time>2017-02-26T13:30:32.000Z</time>
      </trkpt>
      <trkpt lat="45.16666" lon="5.94984">
        <ele>2289</ele>
        <time>2017-02-26T13:30:33.000Z</time>
      </trkpt>
      <trkpt lat="45.16638" lon="5.9495">
        <ele>2289</ele>
        <time>2017-02-26T13:30:40.000Z</time>
      </trkpt>
      <trkpt lat="45.16638" lon="5.9495">
        <ele>2285</ele>
        <time>2017-02-26T13:30:43.000Z</time>
      </trkpt>
      <trkpt lat="45.16615" lon="5.9492">
        <ele>2285</ele>
        <time>2017-02-26T13:30:48.000Z</time>
      </trkpt>
      <trkpt lat="45.16615" lon="5.9492">
        <ele>2277</ele>
        <time>2017-02-26T13:30:53.000Z</time>
      </trkpt>
      <trkpt lat="45.16596" lon="5.949">
        <ele>2277</ele>
        <time>2017-02-26T13:30:56.000Z</time>
      </trkpt>
      <trkpt lat="45.16593" lon="5.94892">
        <ele>2271</ele>
        <time>2017-02-26T13:31:03.000Z</time>
      </trkpt>
      <trkpt lat="45.1659" lon="5.94884">
        <ele>2271</ele>
        <time>2017-02-26T13:31:04.000Z</time>
      </trkpt>
      <trkpt lat="45.16605" lon="5.94858">
        <ele>2271</ele>
        <time>2017-02-26T13:31:12.000Z</time>
      </trkpt>
      <trkpt lat="45.16606" lon="5.94853">
        <ele>2267</ele>
        <time>2017-02-26T13:31:13.000Z</time>
      </trkpt>
      <trkpt lat="45.16611" lon="5.94824">
        <ele>2267</ele>
        <time>2017-02-26T13:31:20.000Z</time>
      </trkpt>
      <trkpt lat="45.16611" lon="5.94824">
        <ele>2256</ele>
        <time>2017-02-26T13:31:23.000Z</time>
      </trkpt>
      <trkpt lat="45.16612" lon="5.94766">
        <ele>2256</ele>
        <time>2017-02-26T13:31:28.000Z</time>
      </trkpt>
      <trkpt lat="45.16601" lon="5.94746">
        <ele>2246</ele>
        <time>2017-02-26T13:31:33.000Z</time>
      </trkpt>
      <trkpt lat="45.16591" lon="5.94726">
        <ele>2246</ele>
        <time>2017-02-26T13:31:36.000Z</time>
      </trkpt>
      <trkpt lat="45.16579" lon="5.94713">
        <ele>2236</ele>
        <time>2017-02-26T13:31:43.000Z</time>
      </trkpt>
      <trkpt lat="45.16567" lon="5.94699">
        <ele>2236</ele>
        <time>2017-02-26T13:31:44.000Z</time>
      </trkpt>
      <trkpt lat="45.16544" lon="5.94694">
        <ele>2236</ele>
        <time>2017-02-26T13:31:52.000Z</time>
      </trkpt>
      <trkpt lat="45.16542" lon="5.9469">
        <ele>2222</ele>
        <time>2017-02-26T13:31:53.000Z</time>
      </trkpt>
      <trkpt lat="45.16528" lon="5.94664">
        <ele>2222</ele>
        <time>2017-02-26T13:32:00.000Z</time>
      </trkpt>
      <trkpt lat="45.16528" lon="5.94664">
        <ele>2212</ele>
        <time>2017-02-26T13:32:03.000Z</time>
      </trkpt>
      <trkpt lat="45.16522" lon="5.94626">
        <ele>2212</ele>
        <time>2017-02-26T13:32:08.000Z</time>
      </trkpt>
      <trkpt lat="45.16522" lon="5.94626">
        <ele>2204</ele>
        <time>2017-02-26T13:32:13.000Z</time>
      </trkpt>
      <trkpt lat="45.16521" lon="5.94596">
        <ele>2204</ele>
        <time>2017-02-26T13:32:16.000Z</time>
      </trkpt>
      <trkpt lat="45.16515" lon="5.94587">
        <ele>2197</ele>
        <time>2017-02-26T13:32:23.000Z</time>
      </trkpt>
      <trkpt lat="45.16508" lon="5.94579">
        <ele>2197</ele>
        <time>2017-02-26T13:32:24.000Z</time>
      </trkpt>
      <trkpt lat="45.16508" lon="5.94579">
        <ele>2189</ele>
        <time>2017-02-26T13:32:33.000Z</time>
      </trkpt>
      <trkpt lat="45.16485" lon="5.94553">
        <ele>2189</ele>
        <time>2017-02-26T13:32:36.000Z</time>
      </trkpt>
      <trkpt lat="45.16464" lon="5.94548">
        <ele>2175</ele>
        <time>2017-02-26T13:32:43.000Z</time>
      </trkpt>
      <trkpt lat="45.16443" lon="5.94543">
        <ele>2175</ele>
        <time>2017-02-26T13:32:44.000Z</time>
      </trkpt>
      <trkpt lat="45.16396" lon="5.94503">
        <ele>2175</ele>
        <time>2017-02-26T13:32:52.000Z</time>
      </trkpt>
      <trkpt lat="45.16396" lon="5.94499">
        <ele>2163</ele>
        <time>2017-02-26T13:32:53.000Z</time>
      </trkpt>
      <trkpt lat="45.16394" lon="5.94472">
        <ele>2163</ele>
        <time>2017-02-26T13:33:00.000Z</time>
      </trkpt>
      <trkpt lat="45.16394" lon="5.94472">
        <ele>2157</ele>
        <time>2017-02-26T13:33:03.000Z</time>
      </trkpt>
      <trkpt lat="45.16391" lon="5.94418">
        <ele>2157</ele>
        <time>2017-02-26T13:33:08.000Z</time>
      </trkpt>
      <trkpt lat="45.16406" lon="5.94409">
        <ele>2140</ele>
        <time>2017-02-26T13:33:13.000Z</time>
      </trkpt>
      <trkpt lat="45.16421" lon="5.94399">
        <ele>2140</ele>
        <time>2017-02-26T13:33:16.000Z</time>
      </trkpt>
      <trkpt lat="45.16434" lon="5.94397">
        <ele>2124</ele>
        <time>2017-02-26T13:33:23.000Z</time>
      </trkpt>
      <trkpt lat="45.16448" lon="5.94394">
        <ele>2124</ele>
        <time>2017-02-26T13:33:24.000Z</time>
      </trkpt>
      <trkpt lat="45.16478" lon="5.94337">
        <ele>2124</ele>
        <time>2017-02-26T13:33:32.000Z</time>
      </trkpt>
      <trkpt lat="45.16481" lon="5.94326">
        <ele>2104</ele>
        <time>2017-02-26T13:33:33.000Z</time>
      </trkpt>
      <trkpt lat="45.165" lon="5.94251">
        <ele>2104</ele>
        <time>2017-02-26T13:33:40.000Z</time>
      </trkpt>
      <trkpt lat="45.165" lon="5.94251">
        <ele>2089</ele>
        <time>2017-02-26T13:33:43.000Z</time>
      </trkpt>
      <trkpt lat="45.16546" lon="5.94219">
        <ele>2089</ele>
        <time>2017-02-26T13:33:48.000Z</time>
      </trkpt>
      <trkpt lat="45.16556" lon="5.94186">
        <ele>2088</ele>
        <time>2017-02-26T13:33:53.000Z</time>
      </trkpt>
      <trkpt lat="45.16565" lon="5.94153">
        <ele>2088</ele>
        <time>2017-02-26T13:33:56.000Z</time>
      </trkpt>
      <trkpt lat="45.16586" lon="5.94146">
        <ele>2078</ele>
        <time>2017-02-26T13:34:03.000Z</time>
      </trkpt>
      <trkpt lat="45.16608" lon="5.94139">
        <ele>2078</ele>
        <time>2017-02-26T13:34:04.000Z</time>
      </trkpt>
      <trkpt lat="45.16677" lon="5.94119">
        <ele>2078</ele>
        <time>2017-02-26T13:34:12.000Z</time>
      </trkpt>
      <trkpt lat="45.16683" lon="5.94109">
        <ele>2070</ele>
        <time>2017-02-26T13:34:13.000Z</time>
      </trkpt>
      <trkpt lat="45.16722" lon="5.9404">
        <ele>2070</ele>
        <time>2017-02-26T13:34:20.000Z</time>
      </trkpt>
      <trkpt lat="45.16722" lon="5.9404">
        <ele>2053</ele>
        <time>2017-02-26T13:34:23.000Z</time>
      </trkpt>
      <trkpt lat="45.16755" lon="5.93963">
        <ele>2053</ele>
        <time>2017-02-26T13:34:28.000Z</time>
      </trkpt>
      <trkpt lat="45.16759" lon="5.93948">
        <ele>2050</ele>
        <time>2017-02-26T13:34:33.000Z</time>
      </trkpt>
      <trkpt lat="45.16763" lon="5.93932">
        <ele>2050</ele>
        <time>2017-02-26T13:34:43.000Z</time>
      </trkpt>
      <trkpt lat="45.16767" lon="5.93917">
        <ele>2050</ele>
        <time>2017-02-26T13:34:44.000Z</time>
      </trkpt>
      <trkpt lat="45.16797" lon="5.93905">
        <ele>2050</ele>
        <time>2017-02-26T13:34:52.000Z</time>
      </trkpt>
      <trkpt lat="45.16802" lon="5.93906">
        <ele>2046</ele>
        <time>2017-02-26T13:34:53.000Z</time>
      </trkpt>
      <trkpt lat="45.16837" lon="5.93917">
        <ele>2046</ele>
        <time>2017-02-26T13:35:00.000Z</time>
      </trkpt>
      <trkpt lat="45.16837" lon="5.93917">
        <ele>2037</ele>
        <time>2017-02-26T13:35:03.000Z</time>
      </trkpt>
      <trkpt lat="45.16878" lon="5.9388">
        <ele>2037</ele>
        <time>2017-02-26T13:35:08.000Z</time>
      </trkpt>
      <trkpt lat="45.16894" lon="5.93855">
        <ele>2030</ele>
        <time>2017-02-26T13:35:13.000Z</time>
      </trkpt>
      <trkpt lat="45.16909" lon="5.9383">
        <ele>2030</ele>
        <time>2017-02-26T13:35:16.000Z</time>
      </trkpt>
      <trkpt lat="45.16918" lon="5.93813">
        <ele>2023</ele>
        <time>2017-02-26T13:35:23.000Z</time>
      </trkpt>
      <trkpt lat="45.16926" lon="5.93797">
        <ele>2023</ele>
        <time>2017-02-26T13:35:24.000Z</time>
      </trkpt>
      <trkpt lat="45.1695" lon="5.93768">
        <ele>2023</ele>
        <time>2017-02-26T13:35:32.000Z</time>
      </trkpt>
      <trkpt lat="45.16953" lon="5.93766">
        <ele>2019</ele>
        <time>2017-02-26T13:35:33.000Z</time>
      </trkpt>
      <trkpt lat="45.16974" lon="5.93752">
        <ele>2019</ele>
        <time>2017-02-26T13:35:40.000Z</time>
      </trkpt>
      <trkpt lat="45.16974" lon="5.93752">
        <ele>2016</ele>
        <time>2017-02-26T13:35:43.000Z</time>
      </trkpt>
      <trkpt lat="45.17" lon="5.93738">
        <ele>2016</ele>
        <time>2017-02-26T13:35:48.000Z</time>
      </trkpt>
      <trkpt lat="45.17" lon="5.93738">
        <ele>2012</ele>
        <time>2017-02-26T13:35:53.000Z</time>
      </trkpt>
      <trkpt lat="45.17027" lon="5.93727">
        <ele>2012</ele>
        <time>2017-02-26T13:35:56.000Z</time>
      </trkpt>
      <trkpt lat="45.17052" lon="5.93715">
        <ele>1999</ele>
        <time>2017-02-26T13:36:03.000Z</time>
      </trkpt>
      <trkpt lat="45.17077" lon="5.93703">
        <ele>1999</ele>
        <time>2017-02-26T13:36:04.000Z</time>
      </trkpt>
      <trkpt lat="45.17103" lon="5.93676">
        <ele>1999</ele>
        <time>2017-02-26T13:36:12.000Z</time>
      </trkpt>
      <trkpt lat="45.17106" lon="5.93673">
        <ele>1995</ele>
        <time>2017-02-26T13:36:13.000Z</time>
      </trkpt>
      <trkpt lat="45.17109" lon="5.9367">
        <ele>1996</ele>
        <time>2017-02-26T13:36:23.000Z</time>
      </trkpt>
      <trkpt lat="45.17112" lon="5.93667">
        <ele>1996</ele>
        <time>2017-02-26T13:36:24.000Z</time>
      </trkpt>
      <trkpt lat="45.17113" lon="5.93661">
        <ele>1996</ele>
        <time>2017-02-26T13:36:33.000Z</time>
      </trkpt>
      <trkpt lat="45.17114" lon="5.93656">
        <ele>1996</ele>
        <time>2017-02-26T13:36:43.000Z</time>
      </trkpt>
      <trkpt lat="45.17115" lon="5.9365">
        <ele>1996</ele>
        <time>2017-02-26T13:36:44.000Z</time>
      </trkpt>
      <trkpt lat="45.17115" lon="5.9365">
        <ele>1996</ele>
        <time>2017-02-26T13:36:53.000Z</time>
      </trkpt>
      <trkpt lat="45.17126" lon="5.93634">
        <ele>1996</ele>
        <time>2017-02-26T13:36:56.000Z</time>
      </trkpt>
      <trkpt lat="45.17126" lon="5.93634">
        <ele>1996</ele>
        <time>2017-02-26T13:37:03.000Z</time>
      </trkpt>
      <trkpt lat="45.17145" lon="5.93617">
        <ele>1996</ele>
        <time>2017-02-26T13:37:08.000Z</time>
      </trkpt>
      <trkpt lat="45.17145" lon="5.93617">
        <ele>1996</ele>
        <time>2017-02-26T13:37:13.000Z</time>
      </trkpt>
      <trkpt lat="45.17157" lon="5.93622">
        <ele>1996</ele>
        <time>2017-02-26T13:37:20.000Z</time>
      </trkpt>
      <trkpt lat="45.17157" lon="5.93622">
        <ele>1996</ele>
        <time>2017-02-26T13:37:23.000Z</time>
      </trkpt>
      <trkpt lat="45.17167" lon="5.93636">
        <ele>1996</ele>
        <time>2017-02-26T13:37:28.000Z</time>
      </trkpt>
      <trkpt lat="45.17167" lon="5.93636">
        <ele>1995</ele>
        <time>2017-02-26T13:37:33.000Z</time>
      </trkpt>
      <trkpt lat="45.17193" lon="5.93651">
        <ele>1995</ele>
        <time>2017-02-26T13:37:36.000Z</time>
      </trkpt>
      <trkpt lat="45.17208" lon="5.93648">
        <ele>1992</ele>
        <time>2017-02-26T13:37:43.000Z</time>
      </trkpt>
      <trkpt lat="45.17224" lon="5.93645">
        <ele>1992</ele>
        <time>2017-02-26T13:37:44.000Z</time>
      </trkpt>
      <trkpt lat="45.17254" lon="5.93631">
        <ele>1992</ele>
        <time>2017-02-26T13:37:52.000Z</time>
      </trkpt>
      <trkpt lat="45.17262" lon="5.9363">
        <ele>1990</ele>
        <time>2017-02-26T13:37:53.000Z</time>
      </trkpt>
      <trkpt lat="45.17269" lon="5.9363">
        <ele>1988</ele>
        <time>2017-02-26T13:38:03.000Z</time>
      </trkpt>
      <trkpt lat="45.17276" lon="5.9363">
        <ele>1988</ele>
        <time>2017-02-26T13:38:04.000Z</time>
      </trkpt>
      <trkpt lat="45.17276" lon="5.9363">
        <ele>1988</ele>
        <time>2017-02-26T13:38:13.000Z</time>
      </trkpt>
      <trkpt lat="45.17291" lon="5.9362">
        <ele>1988</ele>
        <time>2017-02-26T13:38:20.000Z</time>
      </trkpt>
      <trkpt lat="45.17291" lon="5.9362">
        <ele>1986</ele>
        <time>2017-02-26T13:38:23.000Z</time>
      </trkpt>
      <trkpt lat="45.17293" lon="5.9359">
        <ele>1986</ele>
        <time>2017-02-26T13:38:28.000Z</time>
      </trkpt>
      <trkpt lat="45.1729" lon="5.93566">
        <ele>1981</ele>
        <time>2017-02-26T13:38:33.000Z</time>
      </trkpt>
      <trkpt lat="45.17287" lon="5.93542">
        <ele>1981</ele>
        <time>2017-02-26T13:38:36.000Z</time>
      </trkpt>
      <trkpt lat="45.17299" lon="5.93538">
        <ele>1966</ele>
        <time>2017-02-26T13:38:43.000Z</time>
      </trkpt>
      <trkpt lat="45.17311" lon="5.93534">
        <ele>1966</ele>
        <time>2017-02-26T13:38:44.000Z</time>
      </trkpt>
      <trkpt lat="45.17318" lon="5.93511">
        <ele>1966</ele>
        <time>2017-02-26T13:38:52.000Z</time>
      </trkpt>
      <trkpt lat="45.17322" lon="5.93515">
        <ele>1957</ele>
        <time>2017-02-26T13:38:53.000Z</time>
      </trkpt>
      <trkpt lat="45.17349" lon="5.93543">
        <ele>1957</ele>
        <time>2017-02-26T13:39:00.000Z</time>
      </trkpt>
      <trkpt lat="45.17349" lon="5.93543">
        <ele>1950</ele>
        <time>2017-02-26T13:39:03.000Z</time>
      </trkpt>
      <trkpt lat="45.17373" lon="5.93552">
        <ele>1950</ele>
        <time>2017-02-26T13:39:09.000Z</time>
      </trkpt>
      <trkpt lat="45.17373" lon="5.93552">
        <ele>1938</ele>
        <time>2017-02-26T13:39:13.000Z</time>
      </trkpt>
      <trkpt lat="45.17374" lon="5.93482">
        <ele>1938</ele>
        <time>2017-02-26T13:39:17.000Z</time>
      </trkpt>
      <trkpt lat="45.17374" lon="5.93482">
        <ele>1929</ele>
        <time>2017-02-26T13:39:23.000Z</time>
      </trkpt>
      <trkpt lat="45.17367" lon="5.93413">
        <ele>1929</ele>
        <time>2017-02-26T13:39:29.000Z</time>
      </trkpt>
      <trkpt lat="45.17367" lon="5.93413">
        <ele>1915</ele>
        <time>2017-02-26T13:39:33.000Z</time>
      </trkpt>
      <trkpt lat="45.17379" lon="5.9331">
        <ele>1915</ele>
        <time>2017-02-26T13:39:38.000Z</time>
      </trkpt>
      <trkpt lat="45.17385" lon="5.93279">
        <ele>1909</ele>
        <time>2017-02-26T13:39:43.000Z</time>
      </trkpt>
      <trkpt lat="45.17391" lon="5.93248">
        <ele>1909</ele>
        <time>2017-02-26T13:39:46.000Z</time>
      </trkpt>
      <trkpt lat="45.174" lon="5.93223">
        <ele>1900</ele>
        <time>2017-02-26T13:39:53.000Z</time>
      </trkpt>
      <trkpt lat="45.17408" lon="5.93198">
        <ele>1900</ele>
        <time>2017-02-26T13:39:54.000Z</time>
      </trkpt>
      <trkpt lat="45.17407" lon="5.93155">
        <ele>1900</ele>
        <time>2017-02-26T13:40:02.000Z</time>
      </trkpt>
      <trkpt lat="45.17409" lon="5.93155">
        <ele>1899</ele>
        <time>2017-02-26T13:40:03.000Z</time>
      </trkpt>
      <trkpt lat="45.1742" lon="5.93156">
        <ele>1899</ele>
        <time>2017-02-26T13:40:07.000Z</time>
      </trkpt>
      <trkpt lat="45.1742" lon="5.93156">
        <ele>1892</ele>
        <time>2017-02-26T13:40:13.000Z</time>
      </trkpt>
      <trkpt lat="45.17423" lon="5.93141">
        <ele>1892</ele>
        <time>2017-02-26T13:40:15.000Z</time>
      </trkpt>
      <trkpt lat="45.17423" lon="5.93141">
        <ele>1886</ele>
        <time>2017-02-26T13:40:23.000Z</time>
      </trkpt>
      <trkpt lat="45.17428" lon="5.93124">
        <ele>1886</ele>
        <time>2017-02-26T13:40:28.000Z</time>
      </trkpt>
      <trkpt lat="45.17428" lon="5.93124">
        <ele>1884</ele>
        <time>2017-02-26T13:40:33.000Z</time>
      </trkpt>
      <trkpt lat="45.17429" lon="5.93105">
        <ele>1884</ele>
        <time>2017-02-26T13:40:37.000Z</time>
      </trkpt>
      <trkpt lat="45.17429" lon="5.93105">
        <ele>1881</ele>
        <time>2017-02-26T13:40:43.000Z</time>
      </trkpt>
      <trkpt lat="45.17431" lon="5.93094">
        <ele>1881</ele>
        <time>2017-02-26T13:40:49.000Z</time>
      </trkpt>
      <trkpt lat="45.17431" lon="5.93094">
        <ele>1877</ele>
        <time>2017-02-26T13:40:53.000Z</time>
      </trkpt>
      <trkpt lat="45.1743" lon="5.9307">
        <ele>1877</ele>
        <time>2017-02-26T13:40:57.000Z</time>
      </trkpt>
      <trkpt lat="45.17426" lon="5.93041">
        <ele>1866</ele>
        <time>2017-02-26T13:41:03.000Z</time>
      </trkpt>
      <trkpt lat="45.17422" lon="5.93011">
        <ele>1866</ele>
        <time>2017-02-26T13:41:06.000Z</time>
      </trkpt>
      <trkpt lat="45.17417" lon="5.92986">
        <ele>1861</ele>
        <time>2017-02-26T13:41:13.000Z</time>
      </trkpt>
      <trkpt lat="45.17414" lon="5.92978">
        <ele>1861</ele>
        <time>2017-02-26T13:41:18.000Z</time>
      </trkpt>
      <trkpt lat="45.17414" lon="5.92978">
        <ele>1853</ele>
        <time>2017-02-26T13:41:23.000Z</time>
      </trkpt>
      <trkpt lat="45.17395" lon="5.92973">
        <ele>1853</ele>
        <time>2017-02-26T13:41:31.000Z</time>
      </trkpt>
      <trkpt lat="45.17395" lon="5.92973">
        <ele>1852</ele>
        <time>2017-02-26T13:41:33.000Z</time>
      </trkpt>
      <trkpt lat="45.17374" lon="5.92948">
        <ele>1849</ele>
        <time>2017-02-26T13:41:43.000Z</time>
      </trkpt>
      <trkpt lat="45.17372" lon="5.92937">
        <ele>1849</ele>
        <time>2017-02-26T13:41:50.000Z</time>
      </trkpt>
      <trkpt lat="45.17372" lon="5.92937">
        <ele>1841</ele>
        <time>2017-02-26T13:41:53.000Z</time>
      </trkpt>
      <trkpt lat="45.1735" lon="5.92899">
        <ele>1841</ele>
        <time>2017-02-26T13:41:59.000Z</time>
      </trkpt>
      <trkpt lat="45.1735" lon="5.92899">
        <ele>1837</ele>
        <time>2017-02-26T13:42:03.000Z</time>
      </trkpt>
      <trkpt lat="45.1735" lon="5.92899">
        <ele>1835</ele>
        <time>2017-02-26T13:42:13.000Z</time>
      </trkpt>
      <trkpt lat="45.17353" lon="5.9287">
        <ele>1835</ele>
        <time>2017-02-26T13:42:20.000Z</time>
      </trkpt>
      <trkpt lat="45.17353" lon="5.9287">
        <ele>1828</ele>
        <time>2017-02-26T13:42:23.000Z</time>
      </trkpt>
      <trkpt lat="45.17357" lon="5.92857">
        <ele>1828</ele>
        <time>2017-02-26T13:42:29.000Z</time>
      </trkpt>
      <trkpt lat="45.17357" lon="5.92857">
        <ele>1824</ele>
        <time>2017-02-26T13:42:33.000Z</time>
      </trkpt>
      <trkpt lat="45.17351" lon="5.92846">
        <ele>1824</ele>
        <time>2017-02-26T13:42:41.000Z</time>
      </trkpt>
      <trkpt lat="45.17351" lon="5.92846">
        <ele>1823</ele>
        <time>2017-02-26T13:42:43.000Z</time>
      </trkpt>
      <trkpt lat="45.17334" lon="5.92824">
        <ele>1823</ele>
        <time>2017-02-26T13:42:50.000Z</time>
      </trkpt>
      <trkpt lat="45.17334" lon="5.92824">
        <ele>1819</ele>
        <time>2017-02-26T13:42:53.000Z</time>
      </trkpt>
      <trkpt lat="45.1732" lon="5.92794">
        <ele>1819</ele>
        <time>2017-02-26T13:42:58.000Z</time>
      </trkpt>
      <trkpt lat="45.17313" lon="5.92753">
        <ele>1807</ele>
        <time>2017-02-26T13:43:03.000Z</time>
      </trkpt>
      <trkpt lat="45.17311" lon="5.92736">
        <ele>1806</ele>
        <time>2017-02-26T13:43:13.000Z</time>
      </trkpt>
      <trkpt lat="45.17308" lon="5.9272">
        <ele>1806</ele>
        <time>2017-02-26T13:43:15.000Z</time>
      </trkpt>
      <trkpt lat="45.173" lon="5.92714">
        <ele>1803</ele>
        <time>2017-02-26T13:43:23.000Z</time>
      </trkpt>
      <trkpt lat="45.17291" lon="5.92709">
        <ele>1803</ele>
        <time>2017-02-26T13:43:24.000Z</time>
      </trkpt>
      <trkpt lat="45.17271" lon="5.92692">
        <ele>1803</ele>
        <time>2017-02-26T13:43:31.000Z</time>
      </trkpt>
      <trkpt lat="45.17271" lon="5.92692">
        <ele>1794</ele>
        <time>2017-02-26T13:43:33.000Z</time>
      </trkpt>
      <trkpt lat="45.17258" lon="5.92669">
        <ele>1794</ele>
        <time>2017-02-26T13:43:36.000Z</time>
      </trkpt>
      <trkpt lat="45.1726" lon="5.92644">
        <ele>1788</ele>
        <time>2017-02-26T13:43:43.000Z</time>
      </trkpt>
      <trkpt lat="45.17262" lon="5.92619">
        <ele>1788</ele>
        <time>2017-02-26T13:43:44.000Z</time>
      </trkpt>
      <trkpt lat="45.17281" lon="5.92576">
        <ele>1788</ele>
        <time>2017-02-26T13:43:52.000Z</time>
      </trkpt>
      <trkpt lat="45.17283" lon="5.92571">
        <ele>1782</ele>
        <time>2017-02-26T13:43:53.000Z</time>
      </trkpt>
      <trkpt lat="45.17303" lon="5.92534">
        <ele>1782</ele>
        <time>2017-02-26T13:44:00.000Z</time>
      </trkpt>
      <trkpt lat="45.17303" lon="5.92534">
        <ele>1778</ele>
        <time>2017-02-26T13:44:03.000Z</time>
      </trkpt>
      <trkpt lat="45.17321" lon="5.92497">
        <ele>1778</ele>
        <time>2017-02-26T13:44:08.000Z</time>
      </trkpt>
      <trkpt lat="45.17329" lon="5.92474">
        <ele>1774</ele>
        <time>2017-02-26T13:44:13.000Z</time>
      </trkpt>
      <trkpt lat="45.17337" lon="5.92451">
        <ele>1774</ele>
        <time>2017-02-26T13:44:16.000Z</time>
      </trkpt>
      <trkpt lat="45.17349" lon="5.92436">
        <ele>1765</ele>
        <time>2017-02-26T13:44:23.000Z</time>
      </trkpt>
      <trkpt lat="45.1736" lon="5.9242">
        <ele>1765</ele>
        <time>2017-02-26T13:44:25.000Z</time>
      </trkpt>
      <trkpt lat="45.1738" lon="5.92425">
        <ele>1754</ele>
        <time>2017-02-26T13:44:33.000Z</time>
      </trkpt>
      <trkpt lat="45.17395" lon="5.92454">
        <ele>1754</ele>
        <time>2017-02-26T13:44:42.000Z</time>
      </trkpt>
      <trkpt lat="45.17397" lon="5.9245">
        <ele>1742</ele>
        <time>2017-02-26T13:44:43.000Z</time>
      </trkpt>
      <trkpt lat="45.17421" lon="5.92418">
        <ele>1742</ele>
        <time>2017-02-26T13:44:51.000Z</time>
      </trkpt>
      <trkpt lat="45.17421" lon="5.92418">
        <ele>1735</ele>
        <time>2017-02-26T13:44:53.000Z</time>
      </trkpt>
      <trkpt lat="45.17442" lon="5.92407">
        <ele>1735</ele>
        <time>2017-02-26T13:45:02.000Z</time>
      </trkpt>
      <trkpt lat="45.17442" lon="5.92407">
        <ele>1730</ele>
        <time>2017-02-26T13:45:03.000Z</time>
      </trkpt>
      <trkpt lat="45.17442" lon="5.92407">
        <ele>1729</ele>
        <time>2017-02-26T13:45:13.000Z</time>
      </trkpt>
      <trkpt lat="45.17442" lon="5.92407">
        <ele>1729</ele>
        <time>2017-02-26T13:45:23.000Z</time>
      </trkpt>
      <trkpt lat="45.17462" lon="5.92407">
        <ele>1729</ele>
        <time>2017-02-26T13:45:30.000Z</time>
      </trkpt>
      <trkpt lat="45.17462" lon="5.92407">
        <ele>1726</ele>
        <time>2017-02-26T13:45:33.000Z</time>
      </trkpt>
      <trkpt lat="45.17488" lon="5.92419">
        <ele>1726</ele>
        <time>2017-02-26T13:45:39.000Z</time>
      </trkpt>
      <trkpt lat="45.17488" lon="5.92419">
        <ele>1722</ele>
        <time>2017-02-26T13:45:43.000Z</time>
      </trkpt>
      <trkpt lat="45.17509" lon="5.92388">
        <ele>1722</ele>
        <time>2017-02-26T13:45:48.000Z</time>
      </trkpt>
      <trkpt lat="45.17528" lon="5.92378">
        <ele>1718</ele>
        <time>2017-02-26T13:45:53.000Z</time>
      </trkpt>
      <trkpt lat="45.17547" lon="5.92367">
        <ele>1718</ele>
        <time>2017-02-26T13:45:56.000Z</time>
      </trkpt>
      <trkpt lat="45.17545" lon="5.92354">
        <ele>1716</ele>
        <time>2017-02-26T13:46:03.000Z</time>
      </trkpt>
      <trkpt lat="45.17543" lon="5.92341">
        <ele>1716</ele>
        <time>2017-02-26T13:46:04.000Z</time>
      </trkpt>
      <trkpt lat="45.17543" lon="5.92341">
        <ele>1716</ele>
        <time>2017-02-26T13:46:13.000Z</time>
      </trkpt>
      <trkpt lat="45.17527" lon="5.92315">
        <ele>1716</ele>
        <time>2017-02-26T13:46:16.000Z</time>
      </trkpt>
      <trkpt lat="45.17525" lon="5.92306">
        <ele>1715</ele>
        <time>2017-02-26T13:46:23.000Z</time>
      </trkpt>
      <trkpt lat="45.17523" lon="5.92296">
        <ele>1715</ele>
        <time>2017-02-26T13:46:24.000Z</time>
      </trkpt>
      <trkpt lat="45.17534" lon="5.92267">
        <ele>1715</ele>
        <time>2017-02-26T13:46:33.000Z</time>
      </trkpt>
      <trkpt lat="45.17546" lon="5.9222">
        <ele>1715</ele>
        <time>2017-02-26T13:46:42.000Z</time>
      </trkpt>
      <trkpt lat="45.17549" lon="5.92216">
        <ele>1713</ele>
        <time>2017-02-26T13:46:43.000Z</time>
      </trkpt>
      <trkpt lat="45.17566" lon="5.92187">
        <ele>1713</ele>
        <time>2017-02-26T13:46:50.000Z</time>
      </trkpt>
      <trkpt lat="45.17566" lon="5.92187">
        <ele>1711</ele>
        <time>2017-02-26T13:46:53.000Z</time>
      </trkpt>
      <trkpt lat="45.1759" lon="5.92152">
        <ele>1711</ele>
        <time>2017-02-26T13:46:58.000Z</time>
      </trkpt>
      <trkpt lat="45.1759" lon="5.92152">
        <ele>1709</ele>
        <time>2017-02-26T13:47:03.000Z</time>
      </trkpt>
      <trkpt lat="45.17605" lon="5.92131">
        <ele>1709</ele>
        <time>2017-02-26T13:47:06.000Z</time>
      </trkpt>
      <trkpt lat="45.1761" lon="5.92119">
        <ele>1708</ele>
        <time>2017-02-26T13:47:13.000Z</time>
      </trkpt>
      <trkpt lat="45.17614" lon="5.92107">
        <ele>1708</ele>
        <time>2017-02-26T13:47:14.000Z</time>
      </trkpt>
      <trkpt lat="45.17624" lon="5.92087">
        <ele>1708</ele>
        <time>2017-02-26T13:47:22.000Z</time>
      </trkpt>
      <trkpt lat="45.17627" lon="5.92085">
        <ele>1704</ele>
        <time>2017-02-26T13:47:23.000Z</time>
      </trkpt>
      <trkpt lat="45.17648" lon="5.92069">
        <ele>1704</ele>
        <time>2017-02-26T13:47:30.000Z</time>
      </trkpt>
      <trkpt lat="45.17648" lon="5.92069">
        <ele>1704</ele>
        <time>2017-02-26T13:47:33.000Z</time>
      </trkpt>
      <trkpt lat="45.17669" lon="5.92052">
        <ele>1704</ele>
        <time>2017-02-26T13:47:38.000Z</time>
      </trkpt>
      <trkpt lat="45.17673" lon="5.92036">
        <ele>1703</ele>
        <time>2017-02-26T13:47:43.000Z</time>
      </trkpt>
      <trkpt lat="45.17676" lon="5.92021">
        <ele>1703</ele>
        <time>2017-02-26T13:47:45.000Z</time>
      </trkpt>
      <trkpt lat="45.1768" lon="5.91992">
        <ele>1702</ele>
        <time>2017-02-26T13:47:53.000Z</time>
      </trkpt>
      <trkpt lat="45.17703" lon="5.91971">
        <ele>1702</ele>
        <time>2017-02-26T13:48:01.000Z</time>
      </trkpt>
      <trkpt lat="45.17703" lon="5.91971">
        <ele>1698</ele>
        <time>2017-02-26T13:48:03.000Z</time>
      </trkpt>
      <trkpt lat="45.17705" lon="5.91945">
        <ele>1698</ele>
        <time>2017-02-26T13:48:09.000Z</time>
      </trkpt>
      <trkpt lat="45.17705" lon="5.91945">
        <ele>1696</ele>
        <time>2017-02-26T13:48:13.000Z</time>
      </trkpt>
      <trkpt lat="45.17709" lon="5.91908">
        <ele>1696</ele>
        <time>2017-02-26T13:48:21.000Z</time>
      </trkpt>
      <trkpt lat="45.17709" lon="5.91908">
        <ele>1689</ele>
        <time>2017-02-26T13:48:23.000Z</time>
      </trkpt>
      <trkpt lat="45.17726" lon="5.919">
        <ele>1687</ele>
        <time>2017-02-26T13:48:33.000Z</time>
      </trkpt>
      <trkpt lat="45.1773" lon="5.91891">
        <ele>1687</ele>
        <time>2017-02-26T13:48:41.000Z</time>
      </trkpt>
      <trkpt lat="45.1773" lon="5.91891">
        <ele>1684</ele>
        <time>2017-02-26T13:48:43.000Z</time>
      </trkpt>
      <trkpt lat="45.1773" lon="5.91891">
        <ele>1680</ele>
        <time>2017-02-26T13:48:53.000Z</time>
      </trkpt>
      <trkpt lat="45.17746" lon="5.91867">
        <ele>1680</ele>
        <time>2017-02-26T13:49:01.000Z</time>
      </trkpt>
      <trkpt lat="45.17746" lon="5.91867">
        <ele>1677</ele>
        <time>2017-02-26T13:49:03.000Z</time>
      </trkpt>
      <trkpt lat="45.17759" lon="5.9186">
        <ele>1677</ele>
        <time>2017-02-26T13:49:09.000Z</time>
      </trkpt>
      <trkpt lat="45.17759" lon="5.9186">
        <ele>1672</ele>
        <time>2017-02-26T13:49:13.000Z</time>
      </trkpt>
      <trkpt lat="45.17771" lon="5.91855">
        <ele>1672</ele>
        <time>2017-02-26T13:49:17.000Z</time>
      </trkpt>
      <trkpt lat="45.17771" lon="5.91855">
        <ele>1666</ele>
        <time>2017-02-26T13:49:23.000Z</time>
      </trkpt>
      <trkpt lat="45.17771" lon="5.91855">
        <ele>1666</ele>
        <time>2017-02-26T13:49:33.000Z</time>
      </trkpt>
      <trkpt lat="45.17771" lon="5.91855">
        <ele>1665</ele>
        <time>2017-02-26T13:49:43.000Z</time>
      </trkpt>
      <trkpt lat="45.17765" lon="5.91851">
        <ele>1665</ele>
        <time>2017-02-26T13:49:49.000Z</time>
      </trkpt>
      <trkpt lat="45.17765" lon="5.91851">
        <ele>1665</ele>
        <time>2017-02-26T13:49:53.000Z</time>
      </trkpt>
      <trkpt lat="45.17765" lon="5.91851">
        <ele>1665</ele>
        <time>2017-02-26T13:50:03.000Z</time>
      </trkpt>
      <trkpt lat="45.17765" lon="5.91851">
        <ele>1665</ele>
        <time>2017-02-26T13:50:13.000Z</time>
      </trkpt>
      <trkpt lat="45.17765" lon="5.91851">
        <ele>1664</ele>
        <time>2017-02-26T13:50:23.000Z</time>
      </trkpt>
      <trkpt lat="45.17765" lon="5.91851">
        <ele>1666</ele>
        <time>2017-02-26T13:50:33.000Z</time>
      </trkpt>
      <trkpt lat="45.17765" lon="5.91851">
        <ele>1667</ele>
        <time>2017-02-26T13:50:43.000Z</time>
      </trkpt>
      <trkpt lat="45.17765" lon="5.91851">
        <ele>1666</ele>
        <time>2017-02-26T13:50:53.000Z</time>
      </trkpt>
      <trkpt lat="45.17765" lon="5.91851">
        <ele>1665</ele>
        <time>2017-02-26T13:51:03.000Z</time>
      </trkpt>
      <trkpt lat="45.17765" lon="5.91851">
        <ele>1665</ele>
        <time>2017-02-26T13:51:13.000Z</time>
      </trkpt>
      <trkpt lat="45.17765" lon="5.91851">
        <ele>1665</ele>
        <time>2017-02-26T13:51:23.000Z</time>
      </trkpt>
      <trkpt lat="45.1776" lon="5.91843">
        <ele>1665</ele>
        <time>2017-02-26T13:51:29.000Z</time>
      </trkpt>
      <trkpt lat="45.1776" lon="5.91843">
        <ele>1664</ele>
        <time>2017-02-26T13:51:33.000Z</time>
      </trkpt>
      <trkpt lat="45.17753" lon="5.91836">
        <ele>1664</ele>
        <time>2017-02-26T13:51:37.000Z</time>
      </trkpt>
      <trkpt lat="45.17753" lon="5.91836">
        <ele>1662</ele>
        <time>2017-02-26T13:51:43.000Z</time>
      </trkpt>
      <trkpt lat="45.17761" lon="5.91828">
        <ele>1662</ele>
        <time>2017-02-26T13:51:45.000Z</time>
      </trkpt>
      <trkpt lat="45.17772" lon="5.91825">
        <ele>1658</ele>
        <time>2017-02-26T13:51:53.000Z</time>
      </trkpt>
      <trkpt lat="45.17787" lon="5.91827">
        <ele>1658</ele>
        <time>2017-02-26T13:52:01.000Z</time>
      </trkpt>
      <trkpt lat="45.17787" lon="5.91827">
        <ele>1655</ele>
        <time>2017-02-26T13:52:03.000Z</time>
      </trkpt>
      <trkpt lat="45.17791" lon="5.91814">
        <ele>1651</ele>
        <time>2017-02-26T13:52:13.000Z</time>
      </trkpt>
      <trkpt lat="45.17791" lon="5.91814">
        <ele>1647</ele>
        <time>2017-02-26T13:52:23.000Z</time>
      </trkpt>
      <trkpt lat="45.17788" lon="5.91804">
        <ele>1647</ele>
        <time>2017-02-26T13:52:29.000Z</time>
      </trkpt>
      <trkpt lat="45.17788" lon="5.91804">
        <ele>1644</ele>
        <time>2017-02-26T13:52:33.000Z</time>
      </trkpt>
      <trkpt lat="45.17795" lon="5.91795">
        <ele>1644</ele>
        <time>2017-02-26T13:52:37.000Z</time>
      </trkpt>
      <trkpt lat="45.17795" lon="5.91795">
        <ele>1641</ele>
        <time>2017-02-26T13:52:43.000Z</time>
      </trkpt>
      <trkpt lat="45.17795" lon="5.91782">
        <ele>1641</ele>
        <time>2017-02-26T13:52:49.000Z</time>
      </trkpt>
      <trkpt lat="45.17795" lon="5.91782">
        <ele>1633</ele>
        <time>2017-02-26T13:52:53.000Z</time>
      </trkpt>
      <trkpt lat="45.1779" lon="5.9177">
        <ele>1633</ele>
        <time>2017-02-26T13:53:01.000Z</time>
      </trkpt>
      <trkpt lat="45.1779" lon="5.9177">
        <ele>1631</ele>
        <time>2017-02-26T13:53:03.000Z</time>
      </trkpt>
      <trkpt lat="45.1779" lon="5.91757">
        <ele>1629</ele>
        <time>2017-02-26T13:53:13.000Z</time>
      </trkpt>
      <trkpt lat="45.17787" lon="5.91744">
        <ele>1629</ele>
        <time>2017-02-26T13:53:21.000Z</time>
      </trkpt>
      <trkpt lat="45.17787" lon="5.91744">
        <ele>1621</ele>
        <time>2017-02-26T13:53:23.000Z</time>
      </trkpt>
      <trkpt lat="45.17786" lon="5.91733">
        <ele>1621</ele>
        <time>2017-02-26T13:53:29.000Z</time>
      </trkpt>
      <trkpt lat="45.17786" lon="5.91733">
        <ele>1617</ele>
        <time>2017-02-26T13:53:33.000Z</time>
      </trkpt>
      <trkpt lat="45.1779" lon="5.91721">
        <ele>1617</ele>
        <time>2017-02-26T13:53:41.000Z</time>
      </trkpt>
      <trkpt lat="45.1779" lon="5.91721">
        <ele>1612</ele>
        <time>2017-02-26T13:53:43.000Z</time>
      </trkpt>
      <trkpt lat="45.1779" lon="5.91721">
        <ele>1609</ele>
        <time>2017-02-26T13:53:53.000Z</time>
      </trkpt>
      <trkpt lat="45.17801" lon="5.91716">
        <ele>1609</ele>
        <time>2017-02-26T13:53:57.000Z</time>
      </trkpt>
      <trkpt lat="45.17801" lon="5.91716">
        <ele>1606</ele>
        <time>2017-02-26T13:54:03.000Z</time>
      </trkpt>
      <trkpt lat="45.17811" lon="5.91709">
        <ele>1606</ele>
        <time>2017-02-26T13:54:05.000Z</time>
      </trkpt>
      <trkpt lat="45.17822" lon="5.91705">
        <ele>1602</ele>
        <time>2017-02-26T13:54:13.000Z</time>
      </trkpt>
      <trkpt lat="45.17833" lon="5.91702">
        <ele>1602</ele>
        <time>2017-02-26T13:54:21.000Z</time>
      </trkpt>
      <trkpt lat="45.17833" lon="5.91702">
        <ele>1598</ele>
        <time>2017-02-26T13:54:23.000Z</time>
      </trkpt>
      <trkpt lat="45.17844" lon="5.91699">
        <ele>1598</ele>
        <time>2017-02-26T13:54:29.000Z</time>
      </trkpt>
      <trkpt lat="45.17844" lon="5.91699">
        <ele>1597</ele>
        <time>2017-02-26T13:54:33.000Z</time>
      </trkpt>
      <trkpt lat="45.17836" lon="5.91692">
        <ele>1597</ele>
        <time>2017-02-26T13:54:41.000Z</time>
      </trkpt>
      <trkpt lat="45.17836" lon="5.91692">
        <ele>1595</ele>
        <time>2017-02-26T13:54:43.000Z</time>
      </trkpt>
      <trkpt lat="45.17828" lon="5.91688">
        <ele>1595</ele>
        <time>2017-02-26T13:54:49.000Z</time>
      </trkpt>
      <trkpt lat="45.17828" lon="5.91688">
        <ele>1591</ele>
        <time>2017-02-26T13:54:53.000Z</time>
      </trkpt>
      <trkpt lat="45.17815" lon="5.91677">
        <ele>1591</ele>
        <time>2017-02-26T13:54:57.000Z</time>
      </trkpt>
      <trkpt lat="45.17815" lon="5.91677">
        <ele>1587</ele>
        <time>2017-02-26T13:55:03.000Z</time>
      </trkpt>
      <trkpt lat="45.17798" lon="5.91666">
        <ele>1587</ele>
        <time>2017-02-26T13:55:09.000Z</time>
      </trkpt>
      <trkpt lat="45.17798" lon="5.91666">
        <ele>1583</ele>
        <time>2017-02-26T13:55:13.000Z</time>
      </trkpt>
      <trkpt lat="45.17809" lon="5.91655">
        <ele>1583</ele>
        <time>2017-02-26T13:55:17.000Z</time>
      </trkpt>
      <trkpt lat="45.17809" lon="5.91655">
        <ele>1579</ele>
        <time>2017-02-26T13:55:23.000Z</time>
      </trkpt>
      <trkpt lat="45.17819" lon="5.9165">
        <ele>1579</ele>
        <time>2017-02-26T13:55:25.000Z</time>
      </trkpt>
      <trkpt lat="45.17819" lon="5.9165">
        <ele>1577</ele>
        <time>2017-02-26T13:55:33.000Z</time>
      </trkpt>
      <trkpt lat="45.17824" lon="5.91649">
        <ele>1577</ele>
        <time>2017-02-26T13:55:41.000Z</time>
      </trkpt>
      <trkpt lat="45.17824" lon="5.91649">
        <ele>1576</ele>
        <time>2017-02-26T13:55:43.000Z</time>
      </trkpt>
      <trkpt lat="45.17824" lon="5.91649">
        <ele>1576</ele>
        <time>2017-02-26T13:55:53.000Z</time>
      </trkpt>
      <trkpt lat="45.17824" lon="5.91649">
        <ele>1576</ele>
        <time>2017-02-26T13:56:03.000Z</time>
      </trkpt>
      <trkpt lat="45.17835" lon="5.91643">
        <ele>1576</ele>
        <time>2017-02-26T13:56:05.000Z</time>
      </trkpt>
      <trkpt lat="45.17835" lon="5.91643">
        <ele>1573</ele>
        <time>2017-02-26T13:56:13.000Z</time>
      </trkpt>
      <trkpt lat="45.17859" lon="5.91631">
        <ele>1573</ele>
        <time>2017-02-26T13:56:17.000Z</time>
      </trkpt>
      <trkpt lat="45.17859" lon="5.91631">
        <ele>1565</ele>
        <time>2017-02-26T13:56:23.000Z</time>
      </trkpt>
      <trkpt lat="45.17883" lon="5.91619">
        <ele>1565</ele>
        <time>2017-02-26T13:56:26.000Z</time>
      </trkpt>
      <trkpt lat="45.17883" lon="5.91619">
        <ele>1562</ele>
        <time>2017-02-26T13:56:33.000Z</time>
      </trkpt>
      <trkpt lat="45.17883" lon="5.91619">
        <ele>1562</ele>
        <time>2017-02-26T13:56:43.000Z</time>
      </trkpt>
      <trkpt lat="45.17883" lon="5.91619">
        <ele>1562</ele>
        <time>2017-02-26T13:56:53.000Z</time>
      </trkpt>
      <trkpt lat="45.17883" lon="5.91619">
        <ele>1563</ele>
        <time>2017-02-26T13:57:03.000Z</time>
      </trkpt>
      <trkpt lat="45.17883" lon="5.91619">
        <ele>1563</ele>
        <time>2017-02-26T13:57:13.000Z</time>
      </trkpt>
      <trkpt lat="45.17892" lon="5.9161">
        <ele>1563</ele>
        <time>2017-02-26T13:57:16.000Z</time>
      </trkpt>
      <trkpt lat="45.17892" lon="5.9161">
        <ele>1555</ele>
        <time>2017-02-26T13:57:23.000Z</time>
      </trkpt>
      <trkpt lat="45.17922" lon="5.91593">
        <ele>1555</ele>
        <time>2017-02-26T13:57:28.000Z</time>
      </trkpt>
      <trkpt lat="45.17922" lon="5.91593">
        <ele>1548</ele>
        <time>2017-02-26T13:57:33.000Z</time>
      </trkpt>
      <trkpt lat="45.17948" lon="5.91592">
        <ele>1548</ele>
        <time>2017-02-26T13:57:36.000Z</time>
      </trkpt>
      <trkpt lat="45.17962" lon="5.9159">
        <ele>1541</ele>
        <time>2017-02-26T13:57:43.000Z</time>
      </trkpt>
      <trkpt lat="45.17977" lon="5.91587">
        <ele>1541</ele>
        <time>2017-02-26T13:57:44.000Z</time>
      </trkpt>
      <trkpt lat="45.18009" lon="5.91581">
        <ele>1541</ele>
        <time>2017-02-26T13:57:52.000Z</time>
      </trkpt>
      <trkpt lat="45.18014" lon="5.91581">
        <ele>1532</ele>
        <time>2017-02-26T13:57:53.000Z</time>
      </trkpt>
      <trkpt lat="45.18047" lon="5.91583">
        <ele>1532</ele>
        <time>2017-02-26T13:58:00.000Z</time>
      </trkpt>
      <trkpt lat="45.18047" lon="5.91583">
        <ele>1530</ele>
        <time>2017-02-26T13:58:03.000Z</time>
      </trkpt>
      <trkpt lat="45.18047" lon="5.91583">
        <ele>1528</ele>
        <time>2017-02-26T13:58:13.000Z</time>
      </trkpt>
      <trkpt lat="45.18062" lon="5.91582">
        <ele>1528</ele>
        <time>2017-02-26T13:58:16.000Z</time>
      </trkpt>
      <trkpt lat="45.18062" lon="5.91582">
        <ele>1527</ele>
        <time>2017-02-26T13:58:23.000Z</time>
      </trkpt>
      <trkpt lat="45.18069" lon="5.91575">
        <ele>1527</ele>
        <time>2017-02-26T13:58:28.000Z</time>
      </trkpt>
      <trkpt lat="45.18069" lon="5.91575">
        <ele>1526</ele>
        <time>2017-02-26T13:58:33.000Z</time>
      </trkpt>
      <trkpt lat="45.18082" lon="5.91573">
        <ele>1526</ele>
        <time>2017-02-26T13:58:36.000Z</time>
      </trkpt>
      <trkpt lat="45.18091" lon="5.91572">
        <ele>1525</ele>
        <time>2017-02-26T13:58:43.000Z</time>
      </trkpt>
      <trkpt lat="45.18099" lon="5.9157">
        <ele>1525</ele>
        <time>2017-02-26T13:58:44.000Z</time>
      </trkpt>
      <trkpt lat="45.18126" lon="5.91538">
        <ele>1525</ele>
        <time>2017-02-26T13:58:52.000Z</time>
      </trkpt>
      <trkpt lat="45.18125" lon="5.91532">
        <ele>1522</ele>
        <time>2017-02-26T13:58:53.000Z</time>
      </trkpt>
      <trkpt lat="45.18117" lon="5.91491">
        <ele>1522</ele>
        <time>2017-02-26T13:59:00.000Z</time>
      </trkpt>
      <trkpt lat="45.18117" lon="5.91491">
        <ele>1518</ele>
        <time>2017-02-26T13:59:03.000Z</time>
      </trkpt>
      <trkpt lat="45.18141" lon="5.91458">
        <ele>1518</ele>
        <time>2017-02-26T13:59:08.000Z</time>
      </trkpt>
      <trkpt lat="45.18156" lon="5.91447">
        <ele>1508</ele>
        <time>2017-02-26T13:59:13.000Z</time>
      </trkpt>
      <trkpt lat="45.18192" lon="5.91446">
        <ele>1508</ele>
        <time>2017-02-26T13:59:22.000Z</time>
      </trkpt>
      <trkpt lat="45.18196" lon="5.91444">
        <ele>1501</ele>
        <time>2017-02-26T13:59:23.000Z</time>
      </trkpt>
      <trkpt lat="45.1822" lon="5.91428">
        <ele>1501</ele>
        <time>2017-02-26T13:59:30.000Z</time>
      </trkpt>
      <trkpt lat="45.1822" lon="5.91428">
        <ele>1493</ele>
        <time>2017-02-26T13:59:33.000Z</time>
      </trkpt>
      <trkpt lat="45.1825" lon="5.91414">
        <ele>1488</ele>
        <time>2017-02-26T13:59:43.000Z</time>
      </trkpt>
      <trkpt lat="45.18267" lon="5.91406">
        <ele>1488</ele>
        <time>2017-02-26T13:59:52.000Z</time>
      </trkpt>
      <trkpt lat="45.1827" lon="5.91406">
        <ele>1484</ele>
        <time>2017-02-26T13:59:53.000Z</time>
      </trkpt>
      <trkpt lat="45.18297" lon="5.91409">
        <ele>1484</ele>
        <time>2017-02-26T14:00:01.000Z</time>
      </trkpt>
      <trkpt lat="45.18297" lon="5.91409">
        <ele>1479</ele>
        <time>2017-02-26T14:00:03.000Z</time>
      </trkpt>
      <trkpt lat="45.18323" lon="5.914">
        <ele>1479</ele>
        <time>2017-02-26T14:00:09.000Z</time>
      </trkpt>
      <trkpt lat="45.18323" lon="5.914">
        <ele>1471</ele>
        <time>2017-02-26T14:00:13.000Z</time>
      </trkpt>
      <trkpt lat="45.18338" lon="5.91389">
        <ele>1471</ele>
        <time>2017-02-26T14:00:19.000Z</time>
      </trkpt>
      <trkpt lat="45.18338" lon="5.91389">
        <ele>1465</ele>
        <time>2017-02-26T14:00:23.000Z</time>
      </trkpt>
      <trkpt lat="45.1836" lon="5.91383">
        <ele>1465</ele>
        <time>2017-02-26T14:00:27.000Z</time>
      </trkpt>
      <trkpt lat="45.18373" lon="5.91378">
        <ele>1459</ele>
        <time>2017-02-26T14:00:33.000Z</time>
      </trkpt>
      <trkpt lat="45.18385" lon="5.91374">
        <ele>1459</ele>
        <time>2017-02-26T14:00:35.000Z</time>
      </trkpt>
      <trkpt lat="45.18398" lon="5.9137">
        <ele>1454</ele>
        <time>2017-02-26T14:00:43.000Z</time>
      </trkpt>
      <trkpt lat="45.1842" lon="5.91365">
        <ele>1454</ele>
        <time>2017-02-26T14:00:51.000Z</time>
      </trkpt>
      <trkpt lat="45.1842" lon="5.91365">
        <ele>1448</ele>
        <time>2017-02-26T14:00:53.000Z</time>
      </trkpt>
      <trkpt lat="45.18443" lon="5.91368">
        <ele>1448</ele>
        <time>2017-02-26T14:00:59.000Z</time>
      </trkpt>
      <trkpt lat="45.18443" lon="5.91368">
        <ele>1441</ele>
        <time>2017-02-26T14:01:03.000Z</time>
      </trkpt>
      <trkpt lat="45.18477" lon="5.91367">
        <ele>1441</ele>
        <time>2017-02-26T14:01:07.000Z</time>
      </trkpt>
      <trkpt lat="45.18488" lon="5.91373">
        <ele>1435</ele>
        <time>2017-02-26T14:01:13.000Z</time>
      </trkpt>
      <trkpt lat="45.18498" lon="5.91379">
        <ele>1435</ele>
        <time>2017-02-26T14:01:15.000Z</time>
      </trkpt>
      <trkpt lat="45.18524" lon="5.9137">
        <ele>1427</ele>
        <time>2017-02-26T14:01:23.000Z</time>
      </trkpt>
      <trkpt lat="45.18533" lon="5.9136">
        <ele>1420</ele>
        <time>2017-02-26T14:01:33.000Z</time>
      </trkpt>
      <trkpt lat="45.18542" lon="5.9135">
        <ele>1420</ele>
        <time>2017-02-26T14:01:35.000Z</time>
      </trkpt>
      <trkpt lat="45.18556" lon="5.91349">
        <ele>1417</ele>
        <time>2017-02-26T14:01:43.000Z</time>
      </trkpt>
      <trkpt lat="45.18556" lon="5.91349">
        <ele>1417</ele>
        <time>2017-02-26T14:01:53.000Z</time>
      </trkpt>
      <trkpt lat="45.18556" lon="5.91349">
        <ele>1417</ele>
        <time>2017-02-26T14:02:03.000Z</time>
      </trkpt>
      <trkpt lat="45.18556" lon="5.91349">
        <ele>1417</ele>
        <time>2017-02-26T14:02:13.000Z</time>
      </trkpt>
      <trkpt lat="45.18549" lon="5.91351">
        <ele>1417</ele>
        <time>2017-02-26T14:02:15.000Z</time>
      </trkpt>
      <trkpt lat="45.18549" lon="5.91351">
        <ele>1416</ele>
        <time>2017-02-26T14:02:23.000Z</time>
      </trkpt>
      <trkpt lat="45.18549" lon="5.91351">
        <ele>1416</ele>
        <time>2017-02-26T14:02:33.000Z</time>
      </trkpt>
      <trkpt lat="45.18549" lon="5.91351">
        <ele>1417</ele>
        <time>2017-02-26T14:02:43.000Z</time>
      </trkpt>
      <trkpt lat="45.18549" lon="5.91351">
        <ele>1417</ele>
        <time>2017-02-26T14:02:53.000Z</time>
      </trkpt>
      <trkpt lat="45.18549" lon="5.91351">
        <ele>1416</ele>
        <time>2017-02-26T14:03:03.000Z</time>
      </trkpt>
      <trkpt lat="45.18549" lon="5.91351">
        <ele>1417</ele>
        <time>2017-02-26T14:03:13.000Z</time>
      </trkpt>
      <trkpt lat="45.18555" lon="5.91339">
        <ele>1417</ele>
        <time>2017-02-26T14:03:16.000Z</time>
      </trkpt>
      <trkpt lat="45.18557" lon="5.91334">
        <ele>1413</ele>
        <time>2017-02-26T14:03:23.000Z</time>
      </trkpt>
      <trkpt lat="45.18559" lon="5.91329">
        <ele>1413</ele>
        <time>2017-02-26T14:03:24.000Z</time>
      </trkpt>
      <trkpt lat="45.1857" lon="5.91322">
        <ele>1413</ele>
        <time>2017-02-26T14:03:32.000Z</time>
      </trkpt>
      <trkpt lat="45.18572" lon="5.9132">
        <ele>1413</ele>
        <time>2017-02-26T14:03:33.000Z</time>
      </trkpt>
      <trkpt lat="45.18582" lon="5.91311">
        <ele>1413</ele>
        <time>2017-02-26T14:03:40.000Z</time>
      </trkpt>
      <trkpt lat="45.18582" lon="5.91311">
        <ele>1411</ele>
        <time>2017-02-26T14:03:43.000Z</time>
      </trkpt>
      <trkpt lat="45.18593" lon="5.91299">
        <ele>1411</ele>
        <time>2017-02-26T14:03:48.000Z</time>
      </trkpt>
      <trkpt lat="45.18593" lon="5.91299">
        <ele>1408</ele>
        <time>2017-02-26T14:03:53.000Z</time>
      </trkpt>
      <trkpt lat="45.18605" lon="5.91292">
        <ele>1408</ele>
        <time>2017-02-26T14:03:56.000Z</time>
      </trkpt>
      <trkpt lat="45.18609" lon="5.9129">
        <ele>1407</ele>
        <time>2017-02-26T14:04:03.000Z</time>
      </trkpt>
      <trkpt lat="45.18613" lon="5.91289">
        <ele>1407</ele>
        <time>2017-02-26T14:04:04.000Z</time>
      </trkpt>
      <trkpt lat="45.18627" lon="5.91281">
        <ele>1407</ele>
        <time>2017-02-26T14:04:12.000Z</time>
      </trkpt>
      <trkpt lat="45.1863" lon="5.91281">
        <ele>1404</ele>
        <time>2017-02-26T14:04:13.000Z</time>
      </trkpt>
      <trkpt lat="45.18633" lon="5.91282">
        <ele>1404</ele>
        <time>2017-02-26T14:04:20.000Z</time>
      </trkpt>
      <trkpt lat="45.18636" lon="5.91282">
        <ele>1399</ele>
        <time>2017-02-26T14:04:23.000Z</time>
      </trkpt>
      <trkpt lat="45.18639" lon="5.91282">
        <ele>1399</ele>
        <time>2017-02-26T14:04:32.000Z</time>
      </trkpt>
      <trkpt lat="45.18643" lon="5.91283">
        <ele>1401</ele>
        <time>2017-02-26T14:04:33.000Z</time>
      </trkpt>
      <trkpt lat="45.18646" lon="5.91283">
        <ele>1399</ele>
        <time>2017-02-26T14:04:43.000Z</time>
      </trkpt>
      <trkpt lat="45.18649" lon="5.91283">
        <ele>1399</ele>
        <time>2017-02-26T14:04:44.000Z</time>
      </trkpt>
      <trkpt lat="45.18649" lon="5.91283">
        <ele>1400</ele>
        <time>2017-02-26T14:04:53.000Z</time>
      </trkpt>
      <trkpt lat="45.18659" lon="5.91294">
        <ele>1400</ele>
        <time>2017-02-26T14:05:00.000Z</time>
      </trkpt>
      <trkpt lat="45.18659" lon="5.91294">
        <ele>1399</ele>
        <time>2017-02-26T14:05:03.000Z</time>
      </trkpt>
      <trkpt lat="45.18673" lon="5.91295">
        <ele>1399</ele>
        <time>2017-02-26T14:05:08.000Z</time>
      </trkpt>
      <trkpt lat="45.18673" lon="5.91295">
        <ele>1397</ele>
        <time>2017-02-26T14:05:13.000Z</time>
      </trkpt>
      <trkpt lat="45.18677" lon="5.91283">
        <ele>1397</ele>
        <time>2017-02-26T14:05:15.000Z</time>
      </trkpt>
      <trkpt lat="45.18681" lon="5.91279">
        <ele>1394</ele>
        <time>2017-02-26T14:05:23.000Z</time>
      </trkpt>
      <trkpt lat="45.18685" lon="5.91274">
        <ele>1394</ele>
        <time>2017-02-26T14:05:24.000Z</time>
      </trkpt>
      <trkpt lat="45.18695" lon="5.9127">
        <ele>1394</ele>
        <time>2017-02-26T14:05:32.000Z</time>
      </trkpt>
      <trkpt lat="45.18695" lon="5.9127">
        <ele>1394</ele>
        <time>2017-02-26T14:05:33.000Z</time>
      </trkpt>
      <trkpt lat="45.18706" lon="5.9126">
        <ele>1394</ele>
        <time>2017-02-26T14:05:40.000Z</time>
      </trkpt>
      <trkpt lat="45.18706" lon="5.9126">
        <ele>1393</ele>
        <time>2017-02-26T14:05:43.000Z</time>
      </trkpt>
      <trkpt lat="45.18715" lon="5.91244">
        <ele>1393</ele>
        <time>2017-02-26T14:05:51.000Z</time>
      </trkpt>
      <trkpt lat="45.18715" lon="5.91244">
        <ele>1392</ele>
        <time>2017-02-26T14:05:53.000Z</time>
      </trkpt>
      <trkpt lat="45.18723" lon="5.91233">
        <ele>1392</ele>
        <time>2017-02-26T14:06:00.000Z</time>
      </trkpt>
      <trkpt lat="45.18723" lon="5.91233">
        <ele>1391</ele>
        <time>2017-02-26T14:06:03.000Z</time>
      </trkpt>
      <trkpt lat="45.18731" lon="5.91223">
        <ele>1391</ele>
        <time>2017-02-26T14:06:08.000Z</time>
      </trkpt>
      <trkpt lat="45.18731" lon="5.91223">
        <ele>1390</ele>
        <time>2017-02-26T14:06:13.000Z</time>
      </trkpt>
      <trkpt lat="45.18741" lon="5.91206">
        <ele>1390</ele>
        <time>2017-02-26T14:06:16.000Z</time>
      </trkpt>
      <trkpt lat="45.18744" lon="5.91198">
        <ele>1385</ele>
        <time>2017-02-26T14:06:23.000Z</time>
      </trkpt>
      <trkpt lat="45.18748" lon="5.9119">
        <ele>1385</ele>
        <time>2017-02-26T14:06:24.000Z</time>
      </trkpt>
      <trkpt lat="45.18758" lon="5.91176">
        <ele>1385</ele>
        <time>2017-02-26T14:06:32.000Z</time>
      </trkpt>
      <trkpt lat="45.1876" lon="5.91176">
        <ele>1383</ele>
        <time>2017-02-26T14:06:33.000Z</time>
      </trkpt>
      <trkpt lat="45.18769" lon="5.91169">
        <ele>1383</ele>
        <time>2017-02-26T14:06:40.000Z</time>
      </trkpt>
      <trkpt lat="45.18769" lon="5.91169">
        <ele>1380</ele>
        <time>2017-02-26T14:06:43.000Z</time>
      </trkpt>
      <trkpt lat="45.18782" lon="5.91164">
        <ele>1380</ele>
        <time>2017-02-26T14:06:48.000Z</time>
      </trkpt>
      <trkpt lat="45.18782" lon="5.91164">
        <ele>1378</ele>
        <time>2017-02-26T14:06:53.000Z</time>
      </trkpt>
      <trkpt lat="45.1879" lon="5.91153">
        <ele>1378</ele>
        <time>2017-02-26T14:06:56.000Z</time>
      </trkpt>
      <trkpt lat="45.1879" lon="5.91143">
        <ele>1373</ele>
        <time>2017-02-26T14:07:03.000Z</time>
      </trkpt>
      <trkpt lat="45.1879" lon="5.91132">
        <ele>1373</ele>
        <time>2017-02-26T14:07:04.000Z</time>
      </trkpt>
      <trkpt lat="45.1879" lon="5.91132">
        <ele>1370</ele>
        <time>2017-02-26T14:07:13.000Z</time>
      </trkpt>
      <trkpt lat="45.18771" lon="5.91117">
        <ele>1370</ele>
        <time>2017-02-26T14:07:16.000Z</time>
      </trkpt>
      <trkpt lat="45.18765" lon="5.91116">
        <ele>1364</ele>
        <time>2017-02-26T14:07:23.000Z</time>
      </trkpt>
      <trkpt lat="45.1876" lon="5.91116">
        <ele>1364</ele>
        <time>2017-02-26T14:07:24.000Z</time>
      </trkpt>
      <trkpt lat="45.1875" lon="5.91117">
        <ele>1364</ele>
        <time>2017-02-26T14:07:32.000Z</time>
      </trkpt>
      <trkpt lat="45.1875" lon="5.91117">
        <ele>1362</ele>
        <time>2017-02-26T14:07:33.000Z</time>
      </trkpt>
      <trkpt lat="45.18736" lon="5.91114">
        <ele>1362</ele>
        <time>2017-02-26T14:07:40.000Z</time>
      </trkpt>
      <trkpt lat="45.18736" lon="5.91114">
        <ele>1360</ele>
        <time>2017-02-26T14:07:43.000Z</time>
      </trkpt>
      <trkpt lat="45.18725" lon="5.91111">
        <ele>1360</ele>
        <time>2017-02-26T14:07:48.000Z</time>
      </trkpt>
      <trkpt lat="45.18725" lon="5.91111">
        <ele>1358</ele>
        <time>2017-02-26T14:07:53.000Z</time>
      </trkpt>
      <trkpt lat="45.18709" lon="5.91104">
        <ele>1358</ele>
        <time>2017-02-26T14:07:56.000Z</time>
      </trkpt>
      <trkpt lat="45.18709" lon="5.91104">
        <ele>1351</ele>
        <time>2017-02-26T14:08:03.000Z</time>
      </trkpt>
      <trkpt lat="45.18692" lon="5.91087">
        <ele>1351</ele>
        <time>2017-02-26T14:08:08.000Z</time>
      </trkpt>
      <trkpt lat="45.18692" lon="5.91087">
        <ele>1347</ele>
        <time>2017-02-26T14:08:13.000Z</time>
      </trkpt>
      <trkpt lat="45.18681" lon="5.91076">
        <ele>1347</ele>
        <time>2017-02-26T14:08:16.000Z</time>
      </trkpt>
      <trkpt lat="45.18678" lon="5.91071">
        <ele>1343</ele>
        <time>2017-02-26T14:08:23.000Z</time>
      </trkpt>
      <trkpt lat="45.18675" lon="5.91066">
        <ele>1343</ele>
        <time>2017-02-26T14:08:24.000Z</time>
      </trkpt>
      <trkpt lat="45.1867" lon="5.91051">
        <ele>1343</ele>
        <time>2017-02-26T14:08:32.000Z</time>
      </trkpt>
      <trkpt lat="45.18669" lon="5.91048">
        <ele>1341</ele>
        <time>2017-02-26T14:08:33.000Z</time>
      </trkpt>
      <trkpt lat="45.18661" lon="5.91031">
        <ele>1341</ele>
        <time>2017-02-26T14:08:40.000Z</time>
      </trkpt>
      <trkpt lat="45.18661" lon="5.91031">
        <ele>1338</ele>
        <time>2017-02-26T14:08:43.000Z</time>
      </trkpt>
      <trkpt lat="45.18651" lon="5.91016">
        <ele>1338</ele>
        <time>2017-02-26T14:08:48.000Z</time>
      </trkpt>
      <trkpt lat="45.18651" lon="5.91016">
        <ele>1332</ele>
        <time>2017-02-26T14:08:53.000Z</time>
      </trkpt>
      <trkpt lat="45.18644" lon="5.91002">
        <ele>1332</ele>
        <time>2017-02-26T14:08:56.000Z</time>
      </trkpt>
      <trkpt lat="45.18639" lon="5.90994">
        <ele>1328</ele>
        <time>2017-02-26T14:09:03.000Z</time>
      </trkpt>
      <trkpt lat="45.18635" lon="5.90986">
        <ele>1328</ele>
        <time>2017-02-26T14:09:04.000Z</time>
      </trkpt>
      <trkpt lat="45.18635" lon="5.90986">
        <ele>1324</ele>
        <time>2017-02-26T14:09:13.000Z</time>
      </trkpt>
      <trkpt lat="45.18617" lon="5.90965">
        <ele>1324</ele>
        <time>2017-02-26T14:09:16.000Z</time>
      </trkpt>
      <trkpt lat="45.18611" lon="5.90958">
        <ele>1321</ele>
        <time>2017-02-26T14:09:23.000Z</time>
      </trkpt>
      <trkpt lat="45.18606" lon="5.90951">
        <ele>1321</ele>
        <time>2017-02-26T14:09:24.000Z</time>
      </trkpt>
      <trkpt lat="45.18606" lon="5.90951">
        <ele>1317</ele>
        <time>2017-02-26T14:09:33.000Z</time>
      </trkpt>
      <trkpt lat="45.18594" lon="5.90926">
        <ele>1317</ele>
        <time>2017-02-26T14:09:40.000Z</time>
      </trkpt>
      <trkpt lat="45.18594" lon="5.90926">
        <ele>1314</ele>
        <time>2017-02-26T14:09:43.000Z</time>
      </trkpt>
      <trkpt lat="45.18587" lon="5.90917">
        <ele>1314</ele>
        <time>2017-02-26T14:09:45.000Z</time>
      </trkpt>
      <trkpt lat="45.18576" lon="5.90902">
        <ele>1310</ele>
        <time>2017-02-26T14:09:53.000Z</time>
      </trkpt>
      <trkpt lat="45.18565" lon="5.90888">
        <ele>1310</ele>
        <time>2017-02-26T14:10:01.000Z</time>
      </trkpt>
      <trkpt lat="45.18565" lon="5.90888">
        <ele>1306</ele>
        <time>2017-02-26T14:10:03.000Z</time>
      </trkpt>
      <trkpt lat="45.18553" lon="5.90875">
        <ele>1306</ele>
        <time>2017-02-26T14:10:09.000Z</time>
      </trkpt>
      <trkpt lat="45.18553" lon="5.90875">
        <ele>1303</ele>
        <time>2017-02-26T14:10:13.000Z</time>
      </trkpt>
      <trkpt lat="45.18542" lon="5.90866">
        <ele>1303</ele>
        <time>2017-02-26T14:10:17.000Z</time>
      </trkpt>
      <trkpt lat="45.18542" lon="5.90866">
        <ele>1298</ele>
        <time>2017-02-26T14:10:23.000Z</time>
      </trkpt>
      <trkpt lat="45.18527" lon="5.90845">
        <ele>1298</ele>
        <time>2017-02-26T14:10:29.000Z</time>
      </trkpt>
      <trkpt lat="45.18527" lon="5.90845">
        <ele>1296</ele>
        <time>2017-02-26T14:10:33.000Z</time>
      </trkpt>
      <trkpt lat="45.18517" lon="5.90829">
        <ele>1296</ele>
        <time>2017-02-26T14:10:37.000Z</time>
      </trkpt>
      <trkpt lat="45.18517" lon="5.90829">
        <ele>1292</ele>
        <time>2017-02-26T14:10:43.000Z</time>
      </trkpt>
      <trkpt lat="45.18508" lon="5.90816">
        <ele>1292</ele>
        <time>2017-02-26T14:10:45.000Z</time>
      </trkpt>
      <trkpt lat="45.18499" lon="5.9081">
        <ele>1289</ele>
        <time>2017-02-26T14:10:53.000Z</time>
      </trkpt>
      <trkpt lat="45.18484" lon="5.90797">
        <ele>1289</ele>
        <time>2017-02-26T14:11:01.000Z</time>
      </trkpt>
      <trkpt lat="45.18484" lon="5.90797">
        <ele>1286</ele>
        <time>2017-02-26T14:11:03.000Z</time>
      </trkpt>
      <trkpt lat="45.18469" lon="5.90778">
        <ele>1282</ele>
        <time>2017-02-26T14:11:13.000Z</time>
      </trkpt>
      <trkpt lat="45.1846" lon="5.90769">
        <ele>1282</ele>
        <time>2017-02-26T14:11:21.000Z</time>
      </trkpt>
      <trkpt lat="45.1846" lon="5.90769">
        <ele>1277</ele>
        <time>2017-02-26T14:11:23.000Z</time>
      </trkpt>
      <trkpt lat="45.1845" lon="5.90756">
        <ele>1277</ele>
        <time>2017-02-26T14:11:29.000Z</time>
      </trkpt>
      <trkpt lat="45.1845" lon="5.90756">
        <ele>1274</ele>
        <time>2017-02-26T14:11:33.000Z</time>
      </trkpt>
      <trkpt lat="45.18439" lon="5.90741">
        <ele>1274</ele>
        <time>2017-02-26T14:11:37.000Z</time>
      </trkpt>
      <trkpt lat="45.18439" lon="5.90741">
        <ele>1271</ele>
        <time>2017-02-26T14:11:43.000Z</time>
      </trkpt>
      <trkpt lat="45.18429" lon="5.90731">
        <ele>1271</ele>
        <time>2017-02-26T14:11:45.000Z</time>
      </trkpt>
      <trkpt lat="45.18424" lon="5.90717">
        <ele>1267</ele>
        <time>2017-02-26T14:11:53.000Z</time>
      </trkpt>
      <trkpt lat="45.18423" lon="5.9069">
        <ele>1267</ele>
        <time>2017-02-26T14:12:01.000Z</time>
      </trkpt>
      <trkpt lat="45.18423" lon="5.9069">
        <ele>1264</ele>
        <time>2017-02-26T14:12:03.000Z</time>
      </trkpt>
      <trkpt lat="45.18427" lon="5.90672">
        <ele>1264</ele>
        <time>2017-02-26T14:12:09.000Z</time>
      </trkpt>
      <trkpt lat="45.18427" lon="5.90672">
        <ele>1262</ele>
        <time>2017-02-26T14:12:13.000Z</time>
      </trkpt>
      <trkpt lat="45.18434" lon="5.90663">
        <ele>1262</ele>
        <time>2017-02-26T14:12:17.000Z</time>
      </trkpt>
      <trkpt lat="45.18434" lon="5.90663">
        <ele>1259</ele>
        <time>2017-02-26T14:12:23.000Z</time>
      </trkpt>
      <trkpt lat="45.18441" lon="5.9065">
        <ele>1259</ele>
        <time>2017-02-26T14:12:25.000Z</time>
      </trkpt>
      <trkpt lat="45.18446" lon="5.90645">
        <ele>1259</ele>
        <time>2017-02-26T14:12:33.000Z</time>
      </trkpt>
      <trkpt lat="45.18451" lon="5.90641">
        <ele>1259</ele>
        <time>2017-02-26T14:12:34.000Z</time>
      </trkpt>
      <trkpt lat="45.18459" lon="5.9063">
        <ele>1259</ele>
        <time>2017-02-26T14:12:42.000Z</time>
      </trkpt>
      <trkpt lat="45.1846" lon="5.90629">
        <ele>1258</ele>
        <time>2017-02-26T14:12:43.000Z</time>
      </trkpt>
      <trkpt lat="45.18468" lon="5.90623">
        <ele>1258</ele>
        <time>2017-02-26T14:12:50.000Z</time>
      </trkpt>
      <trkpt lat="45.18468" lon="5.90623">
        <ele>1257</ele>
        <time>2017-02-26T14:12:53.000Z</time>
      </trkpt>
      <trkpt lat="45.18479" lon="5.90615">
        <ele>1257</ele>
        <time>2017-02-26T14:12:58.000Z</time>
      </trkpt>
      <trkpt lat="45.18479" lon="5.90615">
        <ele>1255</ele>
        <time>2017-02-26T14:13:03.000Z</time>
      </trkpt>
      <trkpt lat="45.18487" lon="5.90605">
        <ele>1255</ele>
        <time>2017-02-26T14:13:06.000Z</time>
      </trkpt>
      <trkpt lat="45.1849" lon="5.906">
        <ele>1250</ele>
        <time>2017-02-26T14:13:13.000Z</time>
      </trkpt>
      <trkpt lat="45.18494" lon="5.90596">
        <ele>1250</ele>
        <time>2017-02-26T14:13:14.000Z</time>
      </trkpt>
      <trkpt lat="45.18503" lon="5.90586">
        <ele>1250</ele>
        <time>2017-02-26T14:13:22.000Z</time>
      </trkpt>
      <trkpt lat="45.18504" lon="5.90586">
        <ele>1245</ele>
        <time>2017-02-26T14:13:23.000Z</time>
      </trkpt>
      <trkpt lat="45.18513" lon="5.9058">
        <ele>1245</ele>
        <time>2017-02-26T14:13:30.000Z</time>
      </trkpt>
      <trkpt lat="45.18513" lon="5.9058">
        <ele>1242</ele>
        <time>2017-02-26T14:13:33.000Z</time>
      </trkpt>
      <trkpt lat="45.18522" lon="5.9057">
        <ele>1242</ele>
        <time>2017-02-26T14:13:38.000Z</time>
      </trkpt>
      <trkpt lat="45.18522" lon="5.9057">
        <ele>1239</ele>
        <time>2017-02-26T14:13:43.000Z</time>
      </trkpt>
      <trkpt lat="45.18533" lon="5.90563">
        <ele>1239</ele>
        <time>2017-02-26T14:13:46.000Z</time>
      </trkpt>
      <trkpt lat="45.18539" lon="5.90557">
        <ele>1235</ele>
        <time>2017-02-26T14:13:53.000Z</time>
      </trkpt>
      <trkpt lat="45.18546" lon="5.90551">
        <ele>1235</ele>
        <time>2017-02-26T14:13:55.000Z</time>
      </trkpt>
      <trkpt lat="45.18558" lon="5.90545">
        <ele>1232</ele>
        <time>2017-02-26T14:14:03.000Z</time>
      </trkpt>
      <trkpt lat="45.18571" lon="5.9053">
        <ele>1232</ele>
        <time>2017-02-26T14:14:11.000Z</time>
      </trkpt>
      <trkpt lat="45.18571" lon="5.9053">
        <ele>1229</ele>
        <time>2017-02-26T14:14:13.000Z</time>
      </trkpt>
      <trkpt lat="45.18581" lon="5.90502">
        <ele>1225</ele>
        <time>2017-02-26T14:14:23.000Z</time>
      </trkpt>
      <trkpt lat="45.18586" lon="5.90491">
        <ele>1225</ele>
        <time>2017-02-26T14:14:33.000Z</time>
      </trkpt>
      <trkpt lat="45.18592" lon="5.9048">
        <ele>1225</ele>
        <time>2017-02-26T14:14:35.000Z</time>
      </trkpt>
      <trkpt lat="45.18593" lon="5.90469">
        <ele>1223</ele>
        <time>2017-02-26T14:14:43.000Z</time>
      </trkpt>
      <trkpt lat="45.18598" lon="5.90454">
        <ele>1223</ele>
        <time>2017-02-26T14:14:51.000Z</time>
      </trkpt>
      <trkpt lat="45.18598" lon="5.90454">
        <ele>1221</ele>
        <time>2017-02-26T14:14:53.000Z</time>
      </trkpt>
      <trkpt lat="45.18608" lon="5.90444">
        <ele>1221</ele>
        <time>2017-02-26T14:14:59.000Z</time>
      </trkpt>
      <trkpt lat="45.18608" lon="5.90444">
        <ele>1218</ele>
        <time>2017-02-26T14:15:03.000Z</time>
      </trkpt>
      <trkpt lat="45.1862" lon="5.90435">
        <ele>1218</ele>
        <time>2017-02-26T14:15:07.000Z</time>
      </trkpt>
      <trkpt lat="45.1862" lon="5.90435">
        <ele>1214</ele>
        <time>2017-02-26T14:15:13.000Z</time>
      </trkpt>
      <trkpt lat="45.18635" lon="5.90427">
        <ele>1214</ele>
        <time>2017-02-26T14:15:16.000Z</time>
      </trkpt>
      <trkpt lat="45.18641" lon="5.90424">
        <ele>1211</ele>
        <time>2017-02-26T14:15:23.000Z</time>
      </trkpt>
      <trkpt lat="45.18646" lon="5.90421">
        <ele>1211</ele>
        <time>2017-02-26T14:15:24.000Z</time>
      </trkpt>
      <trkpt lat="45.18659" lon="5.90414">
        <ele>1211</ele>
        <time>2017-02-26T14:15:32.000Z</time>
      </trkpt>
      <trkpt lat="45.18659" lon="5.90411">
        <ele>1208</ele>
        <time>2017-02-26T14:15:33.000Z</time>
      </trkpt>
      <trkpt lat="45.1866" lon="5.90396">
        <ele>1208</ele>
        <time>2017-02-26T14:15:40.000Z</time>
      </trkpt>
      <trkpt lat="45.1866" lon="5.90396">
        <ele>1206</ele>
        <time>2017-02-26T14:15:43.000Z</time>
      </trkpt>
      <trkpt lat="45.18669" lon="5.9037">
        <ele>1206</ele>
        <time>2017-02-26T14:15:52.000Z</time>
      </trkpt>
      <trkpt lat="45.1867" lon="5.90369">
        <ele>1204</ele>
        <time>2017-02-26T14:15:53.000Z</time>
      </trkpt>
      <trkpt lat="45.18682" lon="5.90357">
        <ele>1204</ele>
        <time>2017-02-26T14:16:00.000Z</time>
      </trkpt>
      <trkpt lat="45.18682" lon="5.90357">
        <ele>1200</ele>
        <time>2017-02-26T14:16:03.000Z</time>
      </trkpt>
      <trkpt lat="45.18691" lon="5.90347">
        <ele>1200</ele>
        <time>2017-02-26T14:16:08.000Z</time>
      </trkpt>
      <trkpt lat="45.18691" lon="5.90347">
        <ele>1196</ele>
        <time>2017-02-26T14:16:13.000Z</time>
      </trkpt>
      <trkpt lat="45.18693" lon="5.90331">
        <ele>1196</ele>
        <time>2017-02-26T14:16:20.000Z</time>
      </trkpt>
      <trkpt lat="45.18693" lon="5.90331">
        <ele>1193</ele>
        <time>2017-02-26T14:16:23.000Z</time>
      </trkpt>
      <trkpt lat="45.18687" lon="5.90321">
        <ele>1193</ele>
        <time>2017-02-26T14:16:28.000Z</time>
      </trkpt>
      <trkpt lat="45.18687" lon="5.90321">
        <ele>1189</ele>
        <time>2017-02-26T14:16:33.000Z</time>
      </trkpt>
      <trkpt lat="45.18676" lon="5.90301">
        <ele>1189</ele>
        <time>2017-02-26T14:16:36.000Z</time>
      </trkpt>
      <trkpt lat="45.1867" lon="5.90292">
        <ele>1188</ele>
        <time>2017-02-26T14:16:43.000Z</time>
      </trkpt>
      <trkpt lat="45.18664" lon="5.90284">
        <ele>1188</ele>
        <time>2017-02-26T14:16:44.000Z</time>
      </trkpt>
      <trkpt lat="45.18659" lon="5.90269">
        <ele>1188</ele>
        <time>2017-02-26T14:16:52.000Z</time>
      </trkpt>
      <trkpt lat="45.18658" lon="5.90267">
        <ele>1186</ele>
        <time>2017-02-26T14:16:53.000Z</time>
      </trkpt>
      <trkpt lat="45.18657" lon="5.90253">
        <ele>1186</ele>
        <time>2017-02-26T14:17:00.000Z</time>
      </trkpt>
      <trkpt lat="45.18657" lon="5.90253">
        <ele>1183</ele>
        <time>2017-02-26T14:17:03.000Z</time>
      </trkpt>
      <trkpt lat="45.18654" lon="5.90234">
        <ele>1183</ele>
        <time>2017-02-26T14:17:08.000Z</time>
      </trkpt>
      <trkpt lat="45.18654" lon="5.90234">
        <ele>1181</ele>
        <time>2017-02-26T14:17:13.000Z</time>
      </trkpt>
      <trkpt lat="45.18649" lon="5.90217">
        <ele>1181</ele>
        <time>2017-02-26T14:17:15.000Z</time>
      </trkpt>
      <trkpt lat="45.18646" lon="5.90207">
        <ele>1177</ele>
        <time>2017-02-26T14:17:23.000Z</time>
      </trkpt>
      <trkpt lat="45.18644" lon="5.90198">
        <ele>1177</ele>
        <time>2017-02-26T14:17:24.000Z</time>
      </trkpt>
      <trkpt lat="45.18643" lon="5.90185">
        <ele>1177</ele>
        <time>2017-02-26T14:17:32.000Z</time>
      </trkpt>
      <trkpt lat="45.18643" lon="5.90185">
        <ele>1176</ele>
        <time>2017-02-26T14:17:33.000Z</time>
      </trkpt>
      <trkpt lat="45.18639" lon="5.9017">
        <ele>1176</ele>
        <time>2017-02-26T14:17:40.000Z</time>
      </trkpt>
      <trkpt lat="45.18639" lon="5.9017">
        <ele>1174</ele>
        <time>2017-02-26T14:17:43.000Z</time>
      </trkpt>
      <trkpt lat="45.18636" lon="5.9015">
        <ele>1174</ele>
        <time>2017-02-26T14:17:48.000Z</time>
      </trkpt>
      <trkpt lat="45.18636" lon="5.9015">
        <ele>1173</ele>
        <time>2017-02-26T14:17:53.000Z</time>
      </trkpt>
      <trkpt lat="45.18637" lon="5.90133">
        <ele>1173</ele>
        <time>2017-02-26T14:17:56.000Z</time>
      </trkpt>
      <trkpt lat="45.18637" lon="5.90121">
        <ele>1172</ele>
        <time>2017-02-26T14:18:03.000Z</time>
      </trkpt>
      <trkpt lat="45.18636" lon="5.90108">
        <ele>1172</ele>
        <time>2017-02-26T14:18:04.000Z</time>
      </trkpt>
      <trkpt lat="45.18647" lon="5.9009">
        <ele>1172</ele>
        <time>2017-02-26T14:18:12.000Z</time>
      </trkpt>
      <trkpt lat="45.1865" lon="5.90088">
        <ele>1170</ele>
        <time>2017-02-26T14:18:13.000Z</time>
      </trkpt>
      <trkpt lat="45.18652" lon="5.90085">
        <ele>1168</ele>
        <time>2017-02-26T14:18:23.000Z</time>
      </trkpt>
      <trkpt lat="45.18655" lon="5.90083">
        <ele>1168</ele>
        <time>2017-02-26T14:18:24.000Z</time>
      </trkpt>
      <trkpt lat="45.18667" lon="5.90077">
        <ele>1168</ele>
        <time>2017-02-26T14:18:32.000Z</time>
      </trkpt>
      <trkpt lat="45.18668" lon="5.90076">
        <ele>1167</ele>
        <time>2017-02-26T14:18:33.000Z</time>
      </trkpt>
      <trkpt lat="45.1868" lon="5.90069">
        <ele>1167</ele>
        <time>2017-02-26T14:18:40.000Z</time>
      </trkpt>
      <trkpt lat="45.1868" lon="5.90069">
        <ele>1166</ele>
        <time>2017-02-26T14:18:43.000Z</time>
      </trkpt>
      <trkpt lat="45.18688" lon="5.90055">
        <ele>1166</ele>
        <time>2017-02-26T14:18:48.000Z</time>
      </trkpt>
      <trkpt lat="45.18688" lon="5.90055">
        <ele>1164</ele>
        <time>2017-02-26T14:18:53.000Z</time>
      </trkpt>
      <trkpt lat="45.18688" lon="5.90055">
        <ele>1164</ele>
        <time>2017-02-26T14:18:54.000Z</time>
      </trkpt>
    </trkseg>
  </trk>
</gpx>